<?xml version="1.0" encoding="UTF-8" standalone="no" ?>
<gpx xmlns="http://www.topografix.com/GPX/1/1" xmlns:xsi="http://www.w3.org/2001/XMLSchema-instance" xsi:schemaLocation="http://www.topografix.com/GPX/1/1 http://www.topografix.com/GPX/1/1/gpx.xsd" version="1.1" creator="VisuGPX - https://www.visugpx.com">
  <metadata>
    <name>On va au bar ?</name>
  </metadata>
  <trk>
    <name><![CDATA[On va au bar ?]]></name>
    <trkseg>
      <trkpt lat="46.50059" lon="-1.80051">
        <ele>10</ele>
        <time>2021-06-19T15:40:28Z</time>
      </trkpt>
      <trkpt lat="46.50062" lon="-1.80057">
        <ele>10</ele>
        <time>2021-06-19T15:40:29Z</time>
      </trkpt>
      <trkpt lat="46.50063" lon="-1.80057">
        <ele>10</ele>
        <time>2021-06-19T15:40:32Z</time>
      </trkpt>
      <trkpt lat="46.50064" lon="-1.80057">
        <ele>10</ele>
        <time>2021-06-19T15:40:33Z</time>
      </trkpt>
      <trkpt lat="46.50063" lon="-1.8005">
        <ele>10</ele>
        <time>2021-06-19T15:40:35Z</time>
      </trkpt>
      <trkpt lat="46.50062" lon="-1.80044">
        <ele>9.9</ele>
        <time>2021-06-19T15:40:36Z</time>
      </trkpt>
      <trkpt lat="46.50063" lon="-1.8005">
        <ele>9.9</ele>
        <time>2021-06-19T15:40:38Z</time>
      </trkpt>
      <trkpt lat="46.50063" lon="-1.80052">
        <ele>9.9</ele>
        <time>2021-06-19T15:40:39Z</time>
      </trkpt>
      <trkpt lat="46.50063" lon="-1.80051">
        <ele>9.9</ele>
        <time>2021-06-19T15:40:41Z</time>
      </trkpt>
      <trkpt lat="46.50062" lon="-1.8005">
        <ele>9.9</ele>
        <time>2021-06-19T15:40:42Z</time>
      </trkpt>
      <trkpt lat="46.50062" lon="-1.8005">
        <ele>9.9</ele>
        <time>2021-06-19T15:40:43Z</time>
      </trkpt>
      <trkpt lat="46.5006" lon="-1.80049">
        <ele>9.9</ele>
        <time>2021-06-19T15:40:45Z</time>
      </trkpt>
      <trkpt lat="46.50056" lon="-1.80048">
        <ele>9.9</ele>
        <time>2021-06-19T15:40:46Z</time>
      </trkpt>
      <trkpt lat="46.50055" lon="-1.80048">
        <ele>9.9</ele>
        <time>2021-06-19T15:40:47Z</time>
      </trkpt>
      <trkpt lat="46.50053" lon="-1.80048">
        <ele>9.9</ele>
        <time>2021-06-19T15:40:48Z</time>
      </trkpt>
      <trkpt lat="46.50052" lon="-1.80048">
        <ele>9.9</ele>
        <time>2021-06-19T15:40:49Z</time>
      </trkpt>
      <trkpt lat="46.50051" lon="-1.80048">
        <ele>9.9</ele>
        <time>2021-06-19T15:40:50Z</time>
      </trkpt>
      <trkpt lat="46.5005" lon="-1.80048">
        <ele>9.9</ele>
        <time>2021-06-19T15:40:51Z</time>
      </trkpt>
      <trkpt lat="46.50049" lon="-1.80048">
        <ele>9.9</ele>
        <time>2021-06-19T15:40:52Z</time>
      </trkpt>
      <trkpt lat="46.50046" lon="-1.80048">
        <ele>9.9</ele>
        <time>2021-06-19T15:40:54Z</time>
      </trkpt>
      <trkpt lat="46.50045" lon="-1.80047">
        <ele>9.9</ele>
        <time>2021-06-19T15:40:55Z</time>
      </trkpt>
      <trkpt lat="46.50045" lon="-1.80047">
        <ele>9.9</ele>
        <time>2021-06-19T15:40:56Z</time>
      </trkpt>
      <trkpt lat="46.50045" lon="-1.80047">
        <ele>9.9</ele>
        <time>2021-06-19T15:40:57Z</time>
      </trkpt>
      <trkpt lat="46.50044" lon="-1.80047">
        <ele>9.9</ele>
        <time>2021-06-19T15:40:59Z</time>
      </trkpt>
      <trkpt lat="46.50042" lon="-1.80046">
        <ele>9.9</ele>
        <time>2021-06-19T15:41:00Z</time>
      </trkpt>
      <trkpt lat="46.50041" lon="-1.80045">
        <ele>9.9</ele>
        <time>2021-06-19T15:41:01Z</time>
      </trkpt>
      <trkpt lat="46.50041" lon="-1.80045">
        <ele>9.9</ele>
        <time>2021-06-19T15:41:03Z</time>
      </trkpt>
      <trkpt lat="46.5004" lon="-1.80041">
        <ele>9.9</ele>
        <time>2021-06-19T15:41:05Z</time>
      </trkpt>
      <trkpt lat="46.50039" lon="-1.80041">
        <ele>9.8</ele>
        <time>2021-06-19T15:41:06Z</time>
      </trkpt>
      <trkpt lat="46.50038" lon="-1.80041">
        <ele>9.8</ele>
        <time>2021-06-19T15:41:07Z</time>
      </trkpt>
      <trkpt lat="46.50037" lon="-1.8004">
        <ele>9.8</ele>
        <time>2021-06-19T15:41:09Z</time>
      </trkpt>
      <trkpt lat="46.50035" lon="-1.80039">
        <ele>9.8</ele>
        <time>2021-06-19T15:41:10Z</time>
      </trkpt>
      <trkpt lat="46.50034" lon="-1.80038">
        <ele>9.8</ele>
        <time>2021-06-19T15:41:11Z</time>
      </trkpt>
      <trkpt lat="46.50032" lon="-1.80037">
        <ele>9.8</ele>
        <time>2021-06-19T15:41:12Z</time>
      </trkpt>
      <trkpt lat="46.50032" lon="-1.80036">
        <ele>9.9</ele>
        <time>2021-06-19T15:41:13Z</time>
      </trkpt>
      <trkpt lat="46.50031" lon="-1.80035">
        <ele>9.9</ele>
        <time>2021-06-19T15:41:14Z</time>
      </trkpt>
      <trkpt lat="46.5003" lon="-1.80034">
        <ele>9.9</ele>
        <time>2021-06-19T15:41:16Z</time>
      </trkpt>
      <trkpt lat="46.50029" lon="-1.80033">
        <ele>9.9</ele>
        <time>2021-06-19T15:41:17Z</time>
      </trkpt>
      <trkpt lat="46.50027" lon="-1.80029">
        <ele>9.9</ele>
        <time>2021-06-19T15:41:19Z</time>
      </trkpt>
      <trkpt lat="46.50025" lon="-1.80028">
        <ele>9.9</ele>
        <time>2021-06-19T15:41:20Z</time>
      </trkpt>
      <trkpt lat="46.50024" lon="-1.80028">
        <ele>9.9</ele>
        <time>2021-06-19T15:41:22Z</time>
      </trkpt>
      <trkpt lat="46.50023" lon="-1.80027">
        <ele>9.9</ele>
        <time>2021-06-19T15:41:23Z</time>
      </trkpt>
      <trkpt lat="46.50022" lon="-1.80026">
        <ele>9.9</ele>
        <time>2021-06-19T15:41:24Z</time>
      </trkpt>
      <trkpt lat="46.50021" lon="-1.80025">
        <ele>9.9</ele>
        <time>2021-06-19T15:41:25Z</time>
      </trkpt>
      <trkpt lat="46.50021" lon="-1.80024">
        <ele>9.9</ele>
        <time>2021-06-19T15:41:27Z</time>
      </trkpt>
      <trkpt lat="46.50019" lon="-1.80023">
        <ele>9.9</ele>
        <time>2021-06-19T15:41:28Z</time>
      </trkpt>
      <trkpt lat="46.50017" lon="-1.80022">
        <ele>9.9</ele>
        <time>2021-06-19T15:41:30Z</time>
      </trkpt>
      <trkpt lat="46.50016" lon="-1.80021">
        <ele>9.9</ele>
        <time>2021-06-19T15:41:31Z</time>
      </trkpt>
      <trkpt lat="46.50015" lon="-1.8002">
        <ele>9.9</ele>
        <time>2021-06-19T15:41:32Z</time>
      </trkpt>
      <trkpt lat="46.50015" lon="-1.80019">
        <ele>9.9</ele>
        <time>2021-06-19T15:41:33Z</time>
      </trkpt>
      <trkpt lat="46.50013" lon="-1.80018">
        <ele>9.9</ele>
        <time>2021-06-19T15:41:35Z</time>
      </trkpt>
      <trkpt lat="46.50012" lon="-1.80017">
        <ele>9.9</ele>
        <time>2021-06-19T15:41:36Z</time>
      </trkpt>
      <trkpt lat="46.50011" lon="-1.80016">
        <ele>9.9</ele>
        <time>2021-06-19T15:41:37Z</time>
      </trkpt>
      <trkpt lat="46.50009" lon="-1.80014">
        <ele>9.9</ele>
        <time>2021-06-19T15:41:38Z</time>
      </trkpt>
      <trkpt lat="46.50008" lon="-1.80014">
        <ele>10</ele>
        <time>2021-06-19T15:41:39Z</time>
      </trkpt>
      <trkpt lat="46.50007" lon="-1.80013">
        <ele>10</ele>
        <time>2021-06-19T15:41:40Z</time>
      </trkpt>
      <trkpt lat="46.50005" lon="-1.80012">
        <ele>10</ele>
        <time>2021-06-19T15:41:42Z</time>
      </trkpt>
      <trkpt lat="46.50004" lon="-1.80011">
        <ele>10</ele>
        <time>2021-06-19T15:41:43Z</time>
      </trkpt>
      <trkpt lat="46.50003" lon="-1.80011">
        <ele>10</ele>
        <time>2021-06-19T15:41:44Z</time>
      </trkpt>
      <trkpt lat="46.50002" lon="-1.80012">
        <ele>10</ele>
        <time>2021-06-19T15:41:45Z</time>
      </trkpt>
      <trkpt lat="46.5" lon="-1.8001">
        <ele>10</ele>
        <time>2021-06-19T15:41:47Z</time>
      </trkpt>
      <trkpt lat="46.49997" lon="-1.80009">
        <ele>10.2</ele>
        <time>2021-06-19T15:41:48Z</time>
      </trkpt>
      <trkpt lat="46.49996" lon="-1.80008">
        <ele>10.2</ele>
        <time>2021-06-19T15:41:49Z</time>
      </trkpt>
      <trkpt lat="46.49994" lon="-1.80007">
        <ele>10.2</ele>
        <time>2021-06-19T15:41:50Z</time>
      </trkpt>
      <trkpt lat="46.49992" lon="-1.80006">
        <ele>10.2</ele>
        <time>2021-06-19T15:41:52Z</time>
      </trkpt>
      <trkpt lat="46.49989" lon="-1.80005">
        <ele>10.2</ele>
        <time>2021-06-19T15:41:53Z</time>
      </trkpt>
      <trkpt lat="46.49988" lon="-1.80005">
        <ele>10.2</ele>
        <time>2021-06-19T15:41:54Z</time>
      </trkpt>
      <trkpt lat="46.49986" lon="-1.80004">
        <ele>10.2</ele>
        <time>2021-06-19T15:41:55Z</time>
      </trkpt>
      <trkpt lat="46.49985" lon="-1.80004">
        <ele>10.2</ele>
        <time>2021-06-19T15:41:56Z</time>
      </trkpt>
      <trkpt lat="46.49983" lon="-1.80003">
        <ele>10.2</ele>
        <time>2021-06-19T15:41:57Z</time>
      </trkpt>
      <trkpt lat="46.49982" lon="-1.80002">
        <ele>10.2</ele>
        <time>2021-06-19T15:41:58Z</time>
      </trkpt>
      <trkpt lat="46.4998" lon="-1.80001">
        <ele>10.2</ele>
        <time>2021-06-19T15:41:59Z</time>
      </trkpt>
      <trkpt lat="46.49979" lon="-1.8">
        <ele>10.2</ele>
        <time>2021-06-19T15:42:00Z</time>
      </trkpt>
      <trkpt lat="46.49978" lon="-1.79999">
        <ele>10.2</ele>
        <time>2021-06-19T15:42:01Z</time>
      </trkpt>
      <trkpt lat="46.49976" lon="-1.79998">
        <ele>10.2</ele>
        <time>2021-06-19T15:42:03Z</time>
      </trkpt>
      <trkpt lat="46.49974" lon="-1.79997">
        <ele>10.2</ele>
        <time>2021-06-19T15:42:04Z</time>
      </trkpt>
      <trkpt lat="46.49972" lon="-1.79996">
        <ele>10.2</ele>
        <time>2021-06-19T15:42:06Z</time>
      </trkpt>
      <trkpt lat="46.49971" lon="-1.79995">
        <ele>10.2</ele>
        <time>2021-06-19T15:42:07Z</time>
      </trkpt>
      <trkpt lat="46.49969" lon="-1.79993">
        <ele>10.2</ele>
        <time>2021-06-19T15:42:08Z</time>
      </trkpt>
      <trkpt lat="46.49968" lon="-1.79992">
        <ele>10.2</ele>
        <time>2021-06-19T15:42:09Z</time>
      </trkpt>
      <trkpt lat="46.49967" lon="-1.79991">
        <ele>10.2</ele>
        <time>2021-06-19T15:42:10Z</time>
      </trkpt>
      <trkpt lat="46.49965" lon="-1.79989">
        <ele>10.1</ele>
        <time>2021-06-19T15:42:12Z</time>
      </trkpt>
      <trkpt lat="46.49964" lon="-1.79988">
        <ele>10.1</ele>
        <time>2021-06-19T15:42:13Z</time>
      </trkpt>
      <trkpt lat="46.49963" lon="-1.79987">
        <ele>10.1</ele>
        <time>2021-06-19T15:42:14Z</time>
      </trkpt>
      <trkpt lat="46.49962" lon="-1.79986">
        <ele>10.1</ele>
        <time>2021-06-19T15:42:15Z</time>
      </trkpt>
      <trkpt lat="46.4996" lon="-1.79984">
        <ele>10.1</ele>
        <time>2021-06-19T15:42:17Z</time>
      </trkpt>
      <trkpt lat="46.49959" lon="-1.79983">
        <ele>10.1</ele>
        <time>2021-06-19T15:42:18Z</time>
      </trkpt>
      <trkpt lat="46.49958" lon="-1.79982">
        <ele>10.1</ele>
        <time>2021-06-19T15:42:19Z</time>
      </trkpt>
      <trkpt lat="46.49957" lon="-1.79981">
        <ele>10.1</ele>
        <time>2021-06-19T15:42:20Z</time>
      </trkpt>
      <trkpt lat="46.49956" lon="-1.7998">
        <ele>10.1</ele>
        <time>2021-06-19T15:42:21Z</time>
      </trkpt>
      <trkpt lat="46.49955" lon="-1.79979">
        <ele>10.1</ele>
        <time>2021-06-19T15:42:22Z</time>
      </trkpt>
      <trkpt lat="46.49955" lon="-1.79978">
        <ele>10.1</ele>
        <time>2021-06-19T15:42:23Z</time>
      </trkpt>
      <trkpt lat="46.49953" lon="-1.79978">
        <ele>10.1</ele>
        <time>2021-06-19T15:42:24Z</time>
      </trkpt>
      <trkpt lat="46.49953" lon="-1.79977">
        <ele>10.1</ele>
        <time>2021-06-19T15:42:25Z</time>
      </trkpt>
      <trkpt lat="46.49952" lon="-1.79976">
        <ele>10</ele>
        <time>2021-06-19T15:42:26Z</time>
      </trkpt>
      <trkpt lat="46.4995" lon="-1.79975">
        <ele>10</ele>
        <time>2021-06-19T15:42:28Z</time>
      </trkpt>
      <trkpt lat="46.49949" lon="-1.79975">
        <ele>10</ele>
        <time>2021-06-19T15:42:29Z</time>
      </trkpt>
      <trkpt lat="46.49947" lon="-1.79974">
        <ele>10</ele>
        <time>2021-06-19T15:42:30Z</time>
      </trkpt>
      <trkpt lat="46.49945" lon="-1.79973">
        <ele>10</ele>
        <time>2021-06-19T15:42:32Z</time>
      </trkpt>
      <trkpt lat="46.49943" lon="-1.79972">
        <ele>10</ele>
        <time>2021-06-19T15:42:33Z</time>
      </trkpt>
      <trkpt lat="46.49942" lon="-1.79971">
        <ele>10</ele>
        <time>2021-06-19T15:42:34Z</time>
      </trkpt>
      <trkpt lat="46.49941" lon="-1.7997">
        <ele>10</ele>
        <time>2021-06-19T15:42:35Z</time>
      </trkpt>
      <trkpt lat="46.49939" lon="-1.79968">
        <ele>10</ele>
        <time>2021-06-19T15:42:37Z</time>
      </trkpt>
      <trkpt lat="46.49937" lon="-1.79968">
        <ele>10</ele>
        <time>2021-06-19T15:42:38Z</time>
      </trkpt>
      <trkpt lat="46.49936" lon="-1.79968">
        <ele>10</ele>
        <time>2021-06-19T15:42:40Z</time>
      </trkpt>
      <trkpt lat="46.49934" lon="-1.79967">
        <ele>10</ele>
        <time>2021-06-19T15:42:41Z</time>
      </trkpt>
      <trkpt lat="46.49933" lon="-1.79967">
        <ele>9.9</ele>
        <time>2021-06-19T15:42:42Z</time>
      </trkpt>
      <trkpt lat="46.49932" lon="-1.79966">
        <ele>9.9</ele>
        <time>2021-06-19T15:42:43Z</time>
      </trkpt>
      <trkpt lat="46.4993" lon="-1.79967">
        <ele>10</ele>
        <time>2021-06-19T15:42:45Z</time>
      </trkpt>
      <trkpt lat="46.49929" lon="-1.79967">
        <ele>10</ele>
        <time>2021-06-19T15:42:46Z</time>
      </trkpt>
      <trkpt lat="46.49927" lon="-1.79968">
        <ele>10.1</ele>
        <time>2021-06-19T15:42:47Z</time>
      </trkpt>
      <trkpt lat="46.49926" lon="-1.7997">
        <ele>10.1</ele>
        <time>2021-06-19T15:42:48Z</time>
      </trkpt>
      <trkpt lat="46.49925" lon="-1.79972">
        <ele>10.2</ele>
        <time>2021-06-19T15:42:50Z</time>
      </trkpt>
      <trkpt lat="46.49924" lon="-1.79974">
        <ele>10.2</ele>
        <time>2021-06-19T15:42:51Z</time>
      </trkpt>
      <trkpt lat="46.49923" lon="-1.79975">
        <ele>10.3</ele>
        <time>2021-06-19T15:42:52Z</time>
      </trkpt>
      <trkpt lat="46.49923" lon="-1.79978">
        <ele>10.3</ele>
        <time>2021-06-19T15:42:53Z</time>
      </trkpt>
      <trkpt lat="46.49922" lon="-1.7998">
        <ele>10.4</ele>
        <time>2021-06-19T15:42:54Z</time>
      </trkpt>
      <trkpt lat="46.49922" lon="-1.79981">
        <ele>10.4</ele>
        <time>2021-06-19T15:42:55Z</time>
      </trkpt>
      <trkpt lat="46.49921" lon="-1.79982">
        <ele>10.4</ele>
        <time>2021-06-19T15:42:56Z</time>
      </trkpt>
      <trkpt lat="46.49921" lon="-1.79985">
        <ele>10.5</ele>
        <time>2021-06-19T15:42:58Z</time>
      </trkpt>
      <trkpt lat="46.4992" lon="-1.79987">
        <ele>10.5</ele>
        <time>2021-06-19T15:42:59Z</time>
      </trkpt>
      <trkpt lat="46.4992" lon="-1.7999">
        <ele>10.6</ele>
        <time>2021-06-19T15:43:00Z</time>
      </trkpt>
      <trkpt lat="46.49919" lon="-1.79991">
        <ele>10.6</ele>
        <time>2021-06-19T15:43:01Z</time>
      </trkpt>
      <trkpt lat="46.49919" lon="-1.79992">
        <ele>10.6</ele>
        <time>2021-06-19T15:43:02Z</time>
      </trkpt>
      <trkpt lat="46.49918" lon="-1.79995">
        <ele>10.7</ele>
        <time>2021-06-19T15:43:04Z</time>
      </trkpt>
      <trkpt lat="46.49918" lon="-1.79996">
        <ele>10.7</ele>
        <time>2021-06-19T15:43:05Z</time>
      </trkpt>
      <trkpt lat="46.49916" lon="-1.79999">
        <ele>10.8</ele>
        <time>2021-06-19T15:43:06Z</time>
      </trkpt>
      <trkpt lat="46.49916" lon="-1.80001">
        <ele>10.8</ele>
        <time>2021-06-19T15:43:07Z</time>
      </trkpt>
      <trkpt lat="46.49915" lon="-1.80003">
        <ele>10.9</ele>
        <time>2021-06-19T15:43:08Z</time>
      </trkpt>
      <trkpt lat="46.49916" lon="-1.80003">
        <ele>10.9</ele>
        <time>2021-06-19T15:43:10Z</time>
      </trkpt>
      <trkpt lat="46.49916" lon="-1.80004">
        <ele>10.9</ele>
        <time>2021-06-19T15:43:11Z</time>
      </trkpt>
      <trkpt lat="46.49914" lon="-1.80008">
        <ele>11</ele>
        <time>2021-06-19T15:43:13Z</time>
      </trkpt>
      <trkpt lat="46.49913" lon="-1.8001">
        <ele>11</ele>
        <time>2021-06-19T15:43:15Z</time>
      </trkpt>
      <trkpt lat="46.49913" lon="-1.80012">
        <ele>11.1</ele>
        <time>2021-06-19T15:43:16Z</time>
      </trkpt>
      <trkpt lat="46.49911" lon="-1.80015">
        <ele>11.1</ele>
        <time>2021-06-19T15:43:18Z</time>
      </trkpt>
      <trkpt lat="46.49911" lon="-1.80016">
        <ele>11.2</ele>
        <time>2021-06-19T15:43:19Z</time>
      </trkpt>
      <trkpt lat="46.4991" lon="-1.80017">
        <ele>11.2</ele>
        <time>2021-06-19T15:43:20Z</time>
      </trkpt>
      <trkpt lat="46.49909" lon="-1.80019">
        <ele>11.2</ele>
        <time>2021-06-19T15:43:21Z</time>
      </trkpt>
      <trkpt lat="46.49908" lon="-1.80021">
        <ele>11.3</ele>
        <time>2021-06-19T15:43:23Z</time>
      </trkpt>
      <trkpt lat="46.49906" lon="-1.80023">
        <ele>11.3</ele>
        <time>2021-06-19T15:43:24Z</time>
      </trkpt>
      <trkpt lat="46.49906" lon="-1.80024">
        <ele>11.3</ele>
        <time>2021-06-19T15:43:25Z</time>
      </trkpt>
      <trkpt lat="46.49905" lon="-1.80025">
        <ele>11.4</ele>
        <time>2021-06-19T15:43:26Z</time>
      </trkpt>
      <trkpt lat="46.49904" lon="-1.80028">
        <ele>11.4</ele>
        <time>2021-06-19T15:43:28Z</time>
      </trkpt>
      <trkpt lat="46.49904" lon="-1.8003">
        <ele>11.4</ele>
        <time>2021-06-19T15:43:29Z</time>
      </trkpt>
      <trkpt lat="46.49903" lon="-1.80032">
        <ele>11.5</ele>
        <time>2021-06-19T15:43:30Z</time>
      </trkpt>
      <trkpt lat="46.49902" lon="-1.80034">
        <ele>11.5</ele>
        <time>2021-06-19T15:43:31Z</time>
      </trkpt>
      <trkpt lat="46.49902" lon="-1.80035">
        <ele>11.5</ele>
        <time>2021-06-19T15:43:32Z</time>
      </trkpt>
      <trkpt lat="46.49901" lon="-1.80039">
        <ele>11.5</ele>
        <time>2021-06-19T15:43:34Z</time>
      </trkpt>
      <trkpt lat="46.49901" lon="-1.80041">
        <ele>11.6</ele>
        <time>2021-06-19T15:43:35Z</time>
      </trkpt>
      <trkpt lat="46.499" lon="-1.80042">
        <ele>11.6</ele>
        <time>2021-06-19T15:43:37Z</time>
      </trkpt>
      <trkpt lat="46.49899" lon="-1.80044">
        <ele>11.6</ele>
        <time>2021-06-19T15:43:38Z</time>
      </trkpt>
      <trkpt lat="46.49898" lon="-1.80046">
        <ele>11.6</ele>
        <time>2021-06-19T15:43:39Z</time>
      </trkpt>
      <trkpt lat="46.49898" lon="-1.80048">
        <ele>11.7</ele>
        <time>2021-06-19T15:43:40Z</time>
      </trkpt>
      <trkpt lat="46.49896" lon="-1.80049">
        <ele>11.7</ele>
        <time>2021-06-19T15:43:41Z</time>
      </trkpt>
      <trkpt lat="46.49895" lon="-1.80051">
        <ele>11.7</ele>
        <time>2021-06-19T15:43:43Z</time>
      </trkpt>
      <trkpt lat="46.49894" lon="-1.80052">
        <ele>11.7</ele>
        <time>2021-06-19T15:43:44Z</time>
      </trkpt>
      <trkpt lat="46.49893" lon="-1.80053">
        <ele>11.8</ele>
        <time>2021-06-19T15:43:45Z</time>
      </trkpt>
      <trkpt lat="46.49892" lon="-1.80055">
        <ele>11.8</ele>
        <time>2021-06-19T15:43:46Z</time>
      </trkpt>
      <trkpt lat="46.49892" lon="-1.80057">
        <ele>11.8</ele>
        <time>2021-06-19T15:43:47Z</time>
      </trkpt>
      <trkpt lat="46.49892" lon="-1.80059">
        <ele>11.9</ele>
        <time>2021-06-19T15:43:48Z</time>
      </trkpt>
      <trkpt lat="46.49892" lon="-1.80062">
        <ele>11.9</ele>
        <time>2021-06-19T15:43:50Z</time>
      </trkpt>
      <trkpt lat="46.49892" lon="-1.80064">
        <ele>11.9</ele>
        <time>2021-06-19T15:43:51Z</time>
      </trkpt>
      <trkpt lat="46.49891" lon="-1.80065">
        <ele>12</ele>
        <time>2021-06-19T15:43:52Z</time>
      </trkpt>
      <trkpt lat="46.4989" lon="-1.80068">
        <ele>12</ele>
        <time>2021-06-19T15:43:53Z</time>
      </trkpt>
      <trkpt lat="46.49888" lon="-1.80071">
        <ele>12.1</ele>
        <time>2021-06-19T15:43:55Z</time>
      </trkpt>
      <trkpt lat="46.49887" lon="-1.80072">
        <ele>12.1</ele>
        <time>2021-06-19T15:43:56Z</time>
      </trkpt>
      <trkpt lat="46.49886" lon="-1.80075">
        <ele>12.1</ele>
        <time>2021-06-19T15:43:57Z</time>
      </trkpt>
      <trkpt lat="46.49885" lon="-1.80076">
        <ele>12.2</ele>
        <time>2021-06-19T15:43:58Z</time>
      </trkpt>
      <trkpt lat="46.49885" lon="-1.80077">
        <ele>12.2</ele>
        <time>2021-06-19T15:43:59Z</time>
      </trkpt>
      <trkpt lat="46.49884" lon="-1.80079">
        <ele>12.2</ele>
        <time>2021-06-19T15:44:00Z</time>
      </trkpt>
      <trkpt lat="46.49884" lon="-1.80081">
        <ele>12.2</ele>
        <time>2021-06-19T15:44:01Z</time>
      </trkpt>
      <trkpt lat="46.49883" lon="-1.80084">
        <ele>12.3</ele>
        <time>2021-06-19T15:44:03Z</time>
      </trkpt>
      <trkpt lat="46.49882" lon="-1.80086">
        <ele>12.3</ele>
        <time>2021-06-19T15:44:04Z</time>
      </trkpt>
      <trkpt lat="46.49882" lon="-1.8009">
        <ele>12.4</ele>
        <time>2021-06-19T15:44:06Z</time>
      </trkpt>
      <trkpt lat="46.49881" lon="-1.80092">
        <ele>12.4</ele>
        <time>2021-06-19T15:44:07Z</time>
      </trkpt>
      <trkpt lat="46.49881" lon="-1.80094">
        <ele>12.5</ele>
        <time>2021-06-19T15:44:08Z</time>
      </trkpt>
      <trkpt lat="46.49881" lon="-1.80095">
        <ele>12.5</ele>
        <time>2021-06-19T15:44:09Z</time>
      </trkpt>
      <trkpt lat="46.4988" lon="-1.80096">
        <ele>12.5</ele>
        <time>2021-06-19T15:44:10Z</time>
      </trkpt>
      <trkpt lat="46.4988" lon="-1.80098">
        <ele>12.5</ele>
        <time>2021-06-19T15:44:11Z</time>
      </trkpt>
      <trkpt lat="46.49879" lon="-1.80099">
        <ele>12.6</ele>
        <time>2021-06-19T15:44:13Z</time>
      </trkpt>
      <trkpt lat="46.49879" lon="-1.80101">
        <ele>12.6</ele>
        <time>2021-06-19T15:44:14Z</time>
      </trkpt>
      <trkpt lat="46.49878" lon="-1.80104">
        <ele>12.6</ele>
        <time>2021-06-19T15:44:15Z</time>
      </trkpt>
      <trkpt lat="46.49878" lon="-1.80105">
        <ele>12.7</ele>
        <time>2021-06-19T15:44:16Z</time>
      </trkpt>
      <trkpt lat="46.49876" lon="-1.80108">
        <ele>12.7</ele>
        <time>2021-06-19T15:44:17Z</time>
      </trkpt>
      <trkpt lat="46.49876" lon="-1.80109">
        <ele>12.8</ele>
        <time>2021-06-19T15:44:18Z</time>
      </trkpt>
      <trkpt lat="46.49875" lon="-1.8011">
        <ele>12.8</ele>
        <time>2021-06-19T15:44:19Z</time>
      </trkpt>
      <trkpt lat="46.49875" lon="-1.80112">
        <ele>12.8</ele>
        <time>2021-06-19T15:44:20Z</time>
      </trkpt>
      <trkpt lat="46.49874" lon="-1.80113">
        <ele>12.8</ele>
        <time>2021-06-19T15:44:21Z</time>
      </trkpt>
      <trkpt lat="46.49874" lon="-1.80115">
        <ele>12.9</ele>
        <time>2021-06-19T15:44:23Z</time>
      </trkpt>
      <trkpt lat="46.49873" lon="-1.80117">
        <ele>12.9</ele>
        <time>2021-06-19T15:44:24Z</time>
      </trkpt>
      <trkpt lat="46.49872" lon="-1.8012">
        <ele>12.9</ele>
        <time>2021-06-19T15:44:25Z</time>
      </trkpt>
      <trkpt lat="46.49873" lon="-1.80123">
        <ele>13</ele>
        <time>2021-06-19T15:44:28Z</time>
      </trkpt>
      <trkpt lat="46.49873" lon="-1.80126">
        <ele>13</ele>
        <time>2021-06-19T15:44:30Z</time>
      </trkpt>
      <trkpt lat="46.49873" lon="-1.80129">
        <ele>13.1</ele>
        <time>2021-06-19T15:44:32Z</time>
      </trkpt>
      <trkpt lat="46.49872" lon="-1.80131">
        <ele>13.1</ele>
        <time>2021-06-19T15:44:33Z</time>
      </trkpt>
      <trkpt lat="46.4987" lon="-1.80132">
        <ele>13.1</ele>
        <time>2021-06-19T15:44:35Z</time>
      </trkpt>
      <trkpt lat="46.49869" lon="-1.80135">
        <ele>13.2</ele>
        <time>2021-06-19T15:44:37Z</time>
      </trkpt>
      <trkpt lat="46.49868" lon="-1.80137">
        <ele>13.2</ele>
        <time>2021-06-19T15:44:38Z</time>
      </trkpt>
      <trkpt lat="46.49867" lon="-1.8014">
        <ele>13.2</ele>
        <time>2021-06-19T15:44:40Z</time>
      </trkpt>
      <trkpt lat="46.49866" lon="-1.80143">
        <ele>13.2</ele>
        <time>2021-06-19T15:44:42Z</time>
      </trkpt>
      <trkpt lat="46.49865" lon="-1.80145">
        <ele>13.3</ele>
        <time>2021-06-19T15:44:44Z</time>
      </trkpt>
      <trkpt lat="46.49864" lon="-1.80146">
        <ele>13.3</ele>
        <time>2021-06-19T15:44:45Z</time>
      </trkpt>
      <trkpt lat="46.49864" lon="-1.80146">
        <ele>13.3</ele>
        <time>2021-06-19T15:44:46Z</time>
      </trkpt>
      <trkpt lat="46.49863" lon="-1.80148">
        <ele>13.3</ele>
        <time>2021-06-19T15:44:48Z</time>
      </trkpt>
      <trkpt lat="46.49862" lon="-1.80151">
        <ele>13.3</ele>
        <time>2021-06-19T15:44:49Z</time>
      </trkpt>
      <trkpt lat="46.49862" lon="-1.80153">
        <ele>13.3</ele>
        <time>2021-06-19T15:44:50Z</time>
      </trkpt>
      <trkpt lat="46.4986" lon="-1.80159">
        <ele>13.4</ele>
        <time>2021-06-19T15:44:52Z</time>
      </trkpt>
      <trkpt lat="46.49859" lon="-1.80163">
        <ele>13.5</ele>
        <time>2021-06-19T15:44:54Z</time>
      </trkpt>
      <trkpt lat="46.49859" lon="-1.80167">
        <ele>13.5</ele>
        <time>2021-06-19T15:44:56Z</time>
      </trkpt>
      <trkpt lat="46.49858" lon="-1.80169">
        <ele>13.5</ele>
        <time>2021-06-19T15:44:57Z</time>
      </trkpt>
      <trkpt lat="46.49857" lon="-1.80173">
        <ele>13.6</ele>
        <time>2021-06-19T15:44:59Z</time>
      </trkpt>
      <trkpt lat="46.49855" lon="-1.80175">
        <ele>13.6</ele>
        <time>2021-06-19T15:45:00Z</time>
      </trkpt>
      <trkpt lat="46.49854" lon="-1.80176">
        <ele>13.6</ele>
        <time>2021-06-19T15:45:01Z</time>
      </trkpt>
      <trkpt lat="46.49853" lon="-1.80178">
        <ele>13.7</ele>
        <time>2021-06-19T15:45:03Z</time>
      </trkpt>
      <trkpt lat="46.49852" lon="-1.8018">
        <ele>13.7</ele>
        <time>2021-06-19T15:45:04Z</time>
      </trkpt>
      <trkpt lat="46.49851" lon="-1.80183">
        <ele>13.7</ele>
        <time>2021-06-19T15:45:05Z</time>
      </trkpt>
      <trkpt lat="46.49851" lon="-1.80185">
        <ele>13.7</ele>
        <time>2021-06-19T15:45:06Z</time>
      </trkpt>
      <trkpt lat="46.49851" lon="-1.80186">
        <ele>13.8</ele>
        <time>2021-06-19T15:45:07Z</time>
      </trkpt>
      <trkpt lat="46.4985" lon="-1.80188">
        <ele>13.8</ele>
        <time>2021-06-19T15:45:08Z</time>
      </trkpt>
      <trkpt lat="46.4985" lon="-1.8019">
        <ele>13.8</ele>
        <time>2021-06-19T15:45:09Z</time>
      </trkpt>
      <trkpt lat="46.4985" lon="-1.80192">
        <ele>13.8</ele>
        <time>2021-06-19T15:45:11Z</time>
      </trkpt>
      <trkpt lat="46.4985" lon="-1.80194">
        <ele>13.9</ele>
        <time>2021-06-19T15:45:12Z</time>
      </trkpt>
      <trkpt lat="46.49851" lon="-1.80194">
        <ele>13.9</ele>
        <time>2021-06-19T15:45:13Z</time>
      </trkpt>
      <trkpt lat="46.49851" lon="-1.80195">
        <ele>13.9</ele>
        <time>2021-06-19T15:45:14Z</time>
      </trkpt>
      <trkpt lat="46.49852" lon="-1.80196">
        <ele>13.9</ele>
        <time>2021-06-19T15:45:16Z</time>
      </trkpt>
      <trkpt lat="46.49852" lon="-1.80197">
        <ele>13.9</ele>
        <time>2021-06-19T15:45:17Z</time>
      </trkpt>
      <trkpt lat="46.49852" lon="-1.80198">
        <ele>13.9</ele>
        <time>2021-06-19T15:45:18Z</time>
      </trkpt>
      <trkpt lat="46.49852" lon="-1.802">
        <ele>14</ele>
        <time>2021-06-19T15:45:19Z</time>
      </trkpt>
      <trkpt lat="46.49851" lon="-1.80203">
        <ele>14</ele>
        <time>2021-06-19T15:45:20Z</time>
      </trkpt>
      <trkpt lat="46.4985" lon="-1.80207">
        <ele>14</ele>
        <time>2021-06-19T15:45:22Z</time>
      </trkpt>
      <trkpt lat="46.49849" lon="-1.80211">
        <ele>14.1</ele>
        <time>2021-06-19T15:45:23Z</time>
      </trkpt>
      <trkpt lat="46.49849" lon="-1.80212">
        <ele>14.1</ele>
        <time>2021-06-19T15:45:25Z</time>
      </trkpt>
      <trkpt lat="46.49849" lon="-1.80214">
        <ele>14.1</ele>
        <time>2021-06-19T15:45:26Z</time>
      </trkpt>
      <trkpt lat="46.49848" lon="-1.80216">
        <ele>14.1</ele>
        <time>2021-06-19T15:45:27Z</time>
      </trkpt>
      <trkpt lat="46.49848" lon="-1.80218">
        <ele>14.2</ele>
        <time>2021-06-19T15:45:28Z</time>
      </trkpt>
      <trkpt lat="46.49847" lon="-1.80223">
        <ele>14.2</ele>
        <time>2021-06-19T15:45:30Z</time>
      </trkpt>
      <trkpt lat="46.49847" lon="-1.80224">
        <ele>14.2</ele>
        <time>2021-06-19T15:45:31Z</time>
      </trkpt>
      <trkpt lat="46.49847" lon="-1.80227">
        <ele>14.2</ele>
        <time>2021-06-19T15:45:32Z</time>
      </trkpt>
      <trkpt lat="46.49846" lon="-1.80232">
        <ele>14.3</ele>
        <time>2021-06-19T15:45:34Z</time>
      </trkpt>
      <trkpt lat="46.49845" lon="-1.80236">
        <ele>14.3</ele>
        <time>2021-06-19T15:45:36Z</time>
      </trkpt>
      <trkpt lat="46.49844" lon="-1.80239">
        <ele>14.3</ele>
        <time>2021-06-19T15:45:37Z</time>
      </trkpt>
      <trkpt lat="46.49843" lon="-1.80242">
        <ele>14.3</ele>
        <time>2021-06-19T15:45:39Z</time>
      </trkpt>
      <trkpt lat="46.49843" lon="-1.80245">
        <ele>14.4</ele>
        <time>2021-06-19T15:45:40Z</time>
      </trkpt>
      <trkpt lat="46.49842" lon="-1.80247">
        <ele>14.4</ele>
        <time>2021-06-19T15:45:41Z</time>
      </trkpt>
      <trkpt lat="46.49842" lon="-1.80248">
        <ele>14.4</ele>
        <time>2021-06-19T15:45:42Z</time>
      </trkpt>
      <trkpt lat="46.49842" lon="-1.8025">
        <ele>14.4</ele>
        <time>2021-06-19T15:45:43Z</time>
      </trkpt>
      <trkpt lat="46.49841" lon="-1.80253">
        <ele>14.4</ele>
        <time>2021-06-19T15:45:44Z</time>
      </trkpt>
      <trkpt lat="46.49841" lon="-1.80255">
        <ele>14.4</ele>
        <time>2021-06-19T15:45:45Z</time>
      </trkpt>
      <trkpt lat="46.4984" lon="-1.80257">
        <ele>14.4</ele>
        <time>2021-06-19T15:45:46Z</time>
      </trkpt>
      <trkpt lat="46.4984" lon="-1.80259">
        <ele>14.5</ele>
        <time>2021-06-19T15:45:47Z</time>
      </trkpt>
      <trkpt lat="46.49837" lon="-1.80261">
        <ele>14.4</ele>
        <time>2021-06-19T15:45:49Z</time>
      </trkpt>
      <trkpt lat="46.49834" lon="-1.80262">
        <ele>14.4</ele>
        <time>2021-06-19T15:45:51Z</time>
      </trkpt>
      <trkpt lat="46.49833" lon="-1.80263">
        <ele>14.4</ele>
        <time>2021-06-19T15:45:52Z</time>
      </trkpt>
      <trkpt lat="46.4983" lon="-1.80264">
        <ele>14.4</ele>
        <time>2021-06-19T15:45:53Z</time>
      </trkpt>
      <trkpt lat="46.49828" lon="-1.80265">
        <ele>14.4</ele>
        <time>2021-06-19T15:45:55Z</time>
      </trkpt>
      <trkpt lat="46.49826" lon="-1.80266">
        <ele>14.4</ele>
        <time>2021-06-19T15:45:56Z</time>
      </trkpt>
      <trkpt lat="46.49824" lon="-1.80266">
        <ele>14.4</ele>
        <time>2021-06-19T15:45:58Z</time>
      </trkpt>
      <trkpt lat="46.49821" lon="-1.80268">
        <ele>14.3</ele>
        <time>2021-06-19T15:45:59Z</time>
      </trkpt>
      <trkpt lat="46.49819" lon="-1.80269">
        <ele>14.3</ele>
        <time>2021-06-19T15:46:01Z</time>
      </trkpt>
      <trkpt lat="46.49818" lon="-1.80269">
        <ele>14.3</ele>
        <time>2021-06-19T15:46:02Z</time>
      </trkpt>
      <trkpt lat="46.49816" lon="-1.80271">
        <ele>14.3</ele>
        <time>2021-06-19T15:46:03Z</time>
      </trkpt>
      <trkpt lat="46.49815" lon="-1.80271">
        <ele>14.3</ele>
        <time>2021-06-19T15:46:04Z</time>
      </trkpt>
      <trkpt lat="46.49815" lon="-1.80272">
        <ele>14.3</ele>
        <time>2021-06-19T15:46:05Z</time>
      </trkpt>
      <trkpt lat="46.49814" lon="-1.80273">
        <ele>14.3</ele>
        <time>2021-06-19T15:46:06Z</time>
      </trkpt>
      <trkpt lat="46.49813" lon="-1.80274">
        <ele>14.3</ele>
        <time>2021-06-19T15:46:07Z</time>
      </trkpt>
      <trkpt lat="46.49811" lon="-1.80275">
        <ele>14.3</ele>
        <time>2021-06-19T15:46:09Z</time>
      </trkpt>
      <trkpt lat="46.4981" lon="-1.80277">
        <ele>14.3</ele>
        <time>2021-06-19T15:46:10Z</time>
      </trkpt>
      <trkpt lat="46.49809" lon="-1.80279">
        <ele>14.3</ele>
        <time>2021-06-19T15:46:11Z</time>
      </trkpt>
      <trkpt lat="46.49809" lon="-1.80281">
        <ele>14.3</ele>
        <time>2021-06-19T15:46:12Z</time>
      </trkpt>
      <trkpt lat="46.49809" lon="-1.80283">
        <ele>14.3</ele>
        <time>2021-06-19T15:46:14Z</time>
      </trkpt>
      <trkpt lat="46.49809" lon="-1.80284">
        <ele>14.3</ele>
        <time>2021-06-19T15:46:16Z</time>
      </trkpt>
      <trkpt lat="46.49809" lon="-1.80283">
        <ele>14.3</ele>
        <time>2021-06-19T15:46:18Z</time>
      </trkpt>
      <trkpt lat="46.49809" lon="-1.80283">
        <ele>14.3</ele>
        <time>2021-06-19T15:46:20Z</time>
      </trkpt>
      <trkpt lat="46.49809" lon="-1.80283">
        <ele>14.3</ele>
        <time>2021-06-19T15:46:21Z</time>
      </trkpt>
      <trkpt lat="46.49809" lon="-1.80284">
        <ele>14.3</ele>
        <time>2021-06-19T15:46:22Z</time>
      </trkpt>
      <trkpt lat="46.49808" lon="-1.80286">
        <ele>14.3</ele>
        <time>2021-06-19T15:46:23Z</time>
      </trkpt>
      <trkpt lat="46.49808" lon="-1.80287">
        <ele>14.3</ele>
        <time>2021-06-19T15:46:24Z</time>
      </trkpt>
      <trkpt lat="46.49807" lon="-1.80289">
        <ele>14.3</ele>
        <time>2021-06-19T15:46:25Z</time>
      </trkpt>
      <trkpt lat="46.49806" lon="-1.80291">
        <ele>14.3</ele>
        <time>2021-06-19T15:46:26Z</time>
      </trkpt>
      <trkpt lat="46.49805" lon="-1.80293">
        <ele>14.3</ele>
        <time>2021-06-19T15:46:27Z</time>
      </trkpt>
      <trkpt lat="46.49805" lon="-1.80295">
        <ele>14.3</ele>
        <time>2021-06-19T15:46:28Z</time>
      </trkpt>
      <trkpt lat="46.49803" lon="-1.80298">
        <ele>14.2</ele>
        <time>2021-06-19T15:46:29Z</time>
      </trkpt>
      <trkpt lat="46.49803" lon="-1.80299">
        <ele>14.2</ele>
        <time>2021-06-19T15:46:30Z</time>
      </trkpt>
      <trkpt lat="46.49802" lon="-1.80301">
        <ele>14.2</ele>
        <time>2021-06-19T15:46:31Z</time>
      </trkpt>
      <trkpt lat="46.49801" lon="-1.80304">
        <ele>14.2</ele>
        <time>2021-06-19T15:46:33Z</time>
      </trkpt>
      <trkpt lat="46.49799" lon="-1.80305">
        <ele>14.2</ele>
        <time>2021-06-19T15:46:34Z</time>
      </trkpt>
      <trkpt lat="46.49798" lon="-1.80307">
        <ele>14.2</ele>
        <time>2021-06-19T15:46:35Z</time>
      </trkpt>
      <trkpt lat="46.49797" lon="-1.80308">
        <ele>14.2</ele>
        <time>2021-06-19T15:46:36Z</time>
      </trkpt>
      <trkpt lat="46.49796" lon="-1.80309">
        <ele>14.2</ele>
        <time>2021-06-19T15:46:37Z</time>
      </trkpt>
      <trkpt lat="46.49795" lon="-1.80311">
        <ele>14.2</ele>
        <time>2021-06-19T15:46:38Z</time>
      </trkpt>
      <trkpt lat="46.49794" lon="-1.80313">
        <ele>14.2</ele>
        <time>2021-06-19T15:46:39Z</time>
      </trkpt>
      <trkpt lat="46.49793" lon="-1.80315">
        <ele>14.2</ele>
        <time>2021-06-19T15:46:40Z</time>
      </trkpt>
      <trkpt lat="46.49792" lon="-1.80317">
        <ele>14.1</ele>
        <time>2021-06-19T15:46:41Z</time>
      </trkpt>
      <trkpt lat="46.4979" lon="-1.80323">
        <ele>14.1</ele>
        <time>2021-06-19T15:46:43Z</time>
      </trkpt>
      <trkpt lat="46.4979" lon="-1.80324">
        <ele>14.1</ele>
        <time>2021-06-19T15:46:45Z</time>
      </trkpt>
      <trkpt lat="46.49789" lon="-1.80326">
        <ele>14.1</ele>
        <time>2021-06-19T15:46:46Z</time>
      </trkpt>
      <trkpt lat="46.49789" lon="-1.80328">
        <ele>14.1</ele>
        <time>2021-06-19T15:46:47Z</time>
      </trkpt>
      <trkpt lat="46.49788" lon="-1.8033">
        <ele>14.1</ele>
        <time>2021-06-19T15:46:48Z</time>
      </trkpt>
      <trkpt lat="46.49786" lon="-1.80334">
        <ele>14.1</ele>
        <time>2021-06-19T15:46:50Z</time>
      </trkpt>
      <trkpt lat="46.49785" lon="-1.80336">
        <ele>14</ele>
        <time>2021-06-19T15:46:51Z</time>
      </trkpt>
      <trkpt lat="46.49785" lon="-1.80338">
        <ele>14</ele>
        <time>2021-06-19T15:46:52Z</time>
      </trkpt>
      <trkpt lat="46.49784" lon="-1.8034">
        <ele>14</ele>
        <time>2021-06-19T15:46:54Z</time>
      </trkpt>
      <trkpt lat="46.49783" lon="-1.80342">
        <ele>14</ele>
        <time>2021-06-19T15:46:55Z</time>
      </trkpt>
      <trkpt lat="46.49783" lon="-1.80344">
        <ele>14</ele>
        <time>2021-06-19T15:46:56Z</time>
      </trkpt>
      <trkpt lat="46.49783" lon="-1.80347">
        <ele>13.9</ele>
        <time>2021-06-19T15:46:58Z</time>
      </trkpt>
      <trkpt lat="46.49782" lon="-1.80351">
        <ele>13.9</ele>
        <time>2021-06-19T15:47:00Z</time>
      </trkpt>
      <trkpt lat="46.49782" lon="-1.80352">
        <ele>13.9</ele>
        <time>2021-06-19T15:47:01Z</time>
      </trkpt>
      <trkpt lat="46.49781" lon="-1.80353">
        <ele>13.9</ele>
        <time>2021-06-19T15:47:02Z</time>
      </trkpt>
      <trkpt lat="46.49781" lon="-1.80355">
        <ele>13.9</ele>
        <time>2021-06-19T15:47:03Z</time>
      </trkpt>
      <trkpt lat="46.4978" lon="-1.80356">
        <ele>13.8</ele>
        <time>2021-06-19T15:47:04Z</time>
      </trkpt>
      <trkpt lat="46.49779" lon="-1.80359">
        <ele>13.8</ele>
        <time>2021-06-19T15:47:06Z</time>
      </trkpt>
      <trkpt lat="46.49778" lon="-1.80361">
        <ele>13.8</ele>
        <time>2021-06-19T15:47:07Z</time>
      </trkpt>
      <trkpt lat="46.49778" lon="-1.80364">
        <ele>13.8</ele>
        <time>2021-06-19T15:47:08Z</time>
      </trkpt>
      <trkpt lat="46.49777" lon="-1.80365">
        <ele>13.8</ele>
        <time>2021-06-19T15:47:09Z</time>
      </trkpt>
      <trkpt lat="46.49777" lon="-1.80366">
        <ele>13.8</ele>
        <time>2021-06-19T15:47:11Z</time>
      </trkpt>
      <trkpt lat="46.49776" lon="-1.80368">
        <ele>13.7</ele>
        <time>2021-06-19T15:47:12Z</time>
      </trkpt>
      <trkpt lat="46.49776" lon="-1.80369">
        <ele>13.7</ele>
        <time>2021-06-19T15:47:13Z</time>
      </trkpt>
      <trkpt lat="46.49776" lon="-1.80371">
        <ele>13.7</ele>
        <time>2021-06-19T15:47:14Z</time>
      </trkpt>
      <trkpt lat="46.49774" lon="-1.80373">
        <ele>13.7</ele>
        <time>2021-06-19T15:47:15Z</time>
      </trkpt>
      <trkpt lat="46.49774" lon="-1.80374">
        <ele>13.7</ele>
        <time>2021-06-19T15:47:16Z</time>
      </trkpt>
      <trkpt lat="46.49774" lon="-1.80375">
        <ele>13.7</ele>
        <time>2021-06-19T15:47:17Z</time>
      </trkpt>
      <trkpt lat="46.49772" lon="-1.8038">
        <ele>13.7</ele>
        <time>2021-06-19T15:47:19Z</time>
      </trkpt>
      <trkpt lat="46.49772" lon="-1.80381">
        <ele>13.7</ele>
        <time>2021-06-19T15:47:20Z</time>
      </trkpt>
      <trkpt lat="46.49772" lon="-1.80382">
        <ele>13.6</ele>
        <time>2021-06-19T15:47:21Z</time>
      </trkpt>
      <trkpt lat="46.49772" lon="-1.80384">
        <ele>13.6</ele>
        <time>2021-06-19T15:47:22Z</time>
      </trkpt>
      <trkpt lat="46.49772" lon="-1.80386">
        <ele>13.6</ele>
        <time>2021-06-19T15:47:24Z</time>
      </trkpt>
      <trkpt lat="46.49772" lon="-1.80389">
        <ele>13.6</ele>
        <time>2021-06-19T15:47:25Z</time>
      </trkpt>
      <trkpt lat="46.49772" lon="-1.8039">
        <ele>13.6</ele>
        <time>2021-06-19T15:47:26Z</time>
      </trkpt>
      <trkpt lat="46.49772" lon="-1.80391">
        <ele>13.6</ele>
        <time>2021-06-19T15:47:27Z</time>
      </trkpt>
      <trkpt lat="46.49771" lon="-1.80395">
        <ele>13.6</ele>
        <time>2021-06-19T15:47:28Z</time>
      </trkpt>
      <trkpt lat="46.49771" lon="-1.80396">
        <ele>13.6</ele>
        <time>2021-06-19T15:47:29Z</time>
      </trkpt>
      <trkpt lat="46.49771" lon="-1.80397">
        <ele>13.5</ele>
        <time>2021-06-19T15:47:30Z</time>
      </trkpt>
      <trkpt lat="46.4977" lon="-1.804">
        <ele>13.5</ele>
        <time>2021-06-19T15:47:32Z</time>
      </trkpt>
      <trkpt lat="46.4977" lon="-1.80402">
        <ele>13.5</ele>
        <time>2021-06-19T15:47:33Z</time>
      </trkpt>
      <trkpt lat="46.49769" lon="-1.80403">
        <ele>13.5</ele>
        <time>2021-06-19T15:47:34Z</time>
      </trkpt>
      <trkpt lat="46.49769" lon="-1.80406">
        <ele>13.5</ele>
        <time>2021-06-19T15:47:35Z</time>
      </trkpt>
      <trkpt lat="46.49768" lon="-1.80407">
        <ele>13.5</ele>
        <time>2021-06-19T15:47:36Z</time>
      </trkpt>
      <trkpt lat="46.49768" lon="-1.80409">
        <ele>13.5</ele>
        <time>2021-06-19T15:47:37Z</time>
      </trkpt>
      <trkpt lat="46.49767" lon="-1.8041">
        <ele>13.5</ele>
        <time>2021-06-19T15:47:38Z</time>
      </trkpt>
      <trkpt lat="46.49767" lon="-1.80412">
        <ele>13.5</ele>
        <time>2021-06-19T15:47:40Z</time>
      </trkpt>
      <trkpt lat="46.49766" lon="-1.80414">
        <ele>13.5</ele>
        <time>2021-06-19T15:47:41Z</time>
      </trkpt>
      <trkpt lat="46.49766" lon="-1.80417">
        <ele>13.4</ele>
        <time>2021-06-19T15:47:42Z</time>
      </trkpt>
      <trkpt lat="46.49765" lon="-1.80418">
        <ele>13.4</ele>
        <time>2021-06-19T15:47:43Z</time>
      </trkpt>
      <trkpt lat="46.49765" lon="-1.80419">
        <ele>13.4</ele>
        <time>2021-06-19T15:47:44Z</time>
      </trkpt>
      <trkpt lat="46.49765" lon="-1.80422">
        <ele>13.4</ele>
        <time>2021-06-19T15:47:45Z</time>
      </trkpt>
      <trkpt lat="46.49764" lon="-1.80423">
        <ele>13.4</ele>
        <time>2021-06-19T15:47:46Z</time>
      </trkpt>
      <trkpt lat="46.49764" lon="-1.80425">
        <ele>13.4</ele>
        <time>2021-06-19T15:47:47Z</time>
      </trkpt>
      <trkpt lat="46.49763" lon="-1.80427">
        <ele>13.4</ele>
        <time>2021-06-19T15:47:48Z</time>
      </trkpt>
      <trkpt lat="46.49763" lon="-1.80429">
        <ele>13.4</ele>
        <time>2021-06-19T15:47:49Z</time>
      </trkpt>
      <trkpt lat="46.49763" lon="-1.80431">
        <ele>13.4</ele>
        <time>2021-06-19T15:47:50Z</time>
      </trkpt>
      <trkpt lat="46.49763" lon="-1.80433">
        <ele>13.4</ele>
        <time>2021-06-19T15:47:52Z</time>
      </trkpt>
      <trkpt lat="46.49763" lon="-1.80435">
        <ele>13.4</ele>
        <time>2021-06-19T15:47:53Z</time>
      </trkpt>
      <trkpt lat="46.49763" lon="-1.80436">
        <ele>13.4</ele>
        <time>2021-06-19T15:47:54Z</time>
      </trkpt>
      <trkpt lat="46.49763" lon="-1.80438">
        <ele>13.4</ele>
        <time>2021-06-19T15:47:55Z</time>
      </trkpt>
      <trkpt lat="46.49763" lon="-1.80442">
        <ele>13.3</ele>
        <time>2021-06-19T15:47:56Z</time>
      </trkpt>
      <trkpt lat="46.49763" lon="-1.80445">
        <ele>13.3</ele>
        <time>2021-06-19T15:47:58Z</time>
      </trkpt>
      <trkpt lat="46.49763" lon="-1.80446">
        <ele>13.3</ele>
        <time>2021-06-19T15:47:59Z</time>
      </trkpt>
      <trkpt lat="46.49763" lon="-1.80449">
        <ele>13.3</ele>
        <time>2021-06-19T15:48:00Z</time>
      </trkpt>
      <trkpt lat="46.49763" lon="-1.8045">
        <ele>13.3</ele>
        <time>2021-06-19T15:48:01Z</time>
      </trkpt>
      <trkpt lat="46.49763" lon="-1.80453">
        <ele>13.3</ele>
        <time>2021-06-19T15:48:02Z</time>
      </trkpt>
      <trkpt lat="46.49763" lon="-1.80454">
        <ele>13.3</ele>
        <time>2021-06-19T15:48:03Z</time>
      </trkpt>
      <trkpt lat="46.49763" lon="-1.80457">
        <ele>13.3</ele>
        <time>2021-06-19T15:48:04Z</time>
      </trkpt>
      <trkpt lat="46.49764" lon="-1.80459">
        <ele>13.3</ele>
        <time>2021-06-19T15:48:06Z</time>
      </trkpt>
      <trkpt lat="46.49764" lon="-1.8046">
        <ele>13.3</ele>
        <time>2021-06-19T15:48:07Z</time>
      </trkpt>
      <trkpt lat="46.49764" lon="-1.80463">
        <ele>13.3</ele>
        <time>2021-06-19T15:48:08Z</time>
      </trkpt>
      <trkpt lat="46.49764" lon="-1.80467">
        <ele>13.3</ele>
        <time>2021-06-19T15:48:10Z</time>
      </trkpt>
      <trkpt lat="46.49764" lon="-1.80469">
        <ele>13.2</ele>
        <time>2021-06-19T15:48:11Z</time>
      </trkpt>
      <trkpt lat="46.49764" lon="-1.80471">
        <ele>13.2</ele>
        <time>2021-06-19T15:48:12Z</time>
      </trkpt>
      <trkpt lat="46.49764" lon="-1.80473">
        <ele>13.2</ele>
        <time>2021-06-19T15:48:13Z</time>
      </trkpt>
      <trkpt lat="46.49765" lon="-1.80474">
        <ele>13.2</ele>
        <time>2021-06-19T15:48:14Z</time>
      </trkpt>
      <trkpt lat="46.49765" lon="-1.80476">
        <ele>13.2</ele>
        <time>2021-06-19T15:48:16Z</time>
      </trkpt>
      <trkpt lat="46.49765" lon="-1.80478">
        <ele>13.2</ele>
        <time>2021-06-19T15:48:17Z</time>
      </trkpt>
      <trkpt lat="46.49766" lon="-1.80481">
        <ele>13.2</ele>
        <time>2021-06-19T15:48:18Z</time>
      </trkpt>
      <trkpt lat="46.49767" lon="-1.80483">
        <ele>13.2</ele>
        <time>2021-06-19T15:48:19Z</time>
      </trkpt>
      <trkpt lat="46.49768" lon="-1.80485">
        <ele>13.2</ele>
        <time>2021-06-19T15:48:20Z</time>
      </trkpt>
      <trkpt lat="46.49768" lon="-1.80487">
        <ele>13.1</ele>
        <time>2021-06-19T15:48:21Z</time>
      </trkpt>
      <trkpt lat="46.49768" lon="-1.8049">
        <ele>13.1</ele>
        <time>2021-06-19T15:48:23Z</time>
      </trkpt>
      <trkpt lat="46.49769" lon="-1.80493">
        <ele>13.1</ele>
        <time>2021-06-19T15:48:24Z</time>
      </trkpt>
      <trkpt lat="46.49769" lon="-1.80495">
        <ele>13.1</ele>
        <time>2021-06-19T15:48:25Z</time>
      </trkpt>
      <trkpt lat="46.49769" lon="-1.805">
        <ele>13.1</ele>
        <time>2021-06-19T15:48:27Z</time>
      </trkpt>
      <trkpt lat="46.49769" lon="-1.805">
        <ele>13.1</ele>
        <time>2021-06-19T15:48:28Z</time>
      </trkpt>
      <trkpt lat="46.49769" lon="-1.80502">
        <ele>13.1</ele>
        <time>2021-06-19T15:48:29Z</time>
      </trkpt>
      <trkpt lat="46.49769" lon="-1.80505">
        <ele>13.1</ele>
        <time>2021-06-19T15:48:30Z</time>
      </trkpt>
      <trkpt lat="46.4977" lon="-1.80507">
        <ele>13.1</ele>
        <time>2021-06-19T15:48:31Z</time>
      </trkpt>
      <trkpt lat="46.4977" lon="-1.80509">
        <ele>13.1</ele>
        <time>2021-06-19T15:48:32Z</time>
      </trkpt>
      <trkpt lat="46.4977" lon="-1.80512">
        <ele>13</ele>
        <time>2021-06-19T15:48:34Z</time>
      </trkpt>
      <trkpt lat="46.4977" lon="-1.80514">
        <ele>13</ele>
        <time>2021-06-19T15:48:35Z</time>
      </trkpt>
      <trkpt lat="46.49769" lon="-1.80516">
        <ele>13</ele>
        <time>2021-06-19T15:48:36Z</time>
      </trkpt>
      <trkpt lat="46.49769" lon="-1.80518">
        <ele>13</ele>
        <time>2021-06-19T15:48:37Z</time>
      </trkpt>
      <trkpt lat="46.49769" lon="-1.8052">
        <ele>13</ele>
        <time>2021-06-19T15:48:38Z</time>
      </trkpt>
      <trkpt lat="46.49769" lon="-1.80523">
        <ele>13</ele>
        <time>2021-06-19T15:48:40Z</time>
      </trkpt>
      <trkpt lat="46.4977" lon="-1.80525">
        <ele>13</ele>
        <time>2021-06-19T15:48:41Z</time>
      </trkpt>
      <trkpt lat="46.4977" lon="-1.80527">
        <ele>13</ele>
        <time>2021-06-19T15:48:42Z</time>
      </trkpt>
      <trkpt lat="46.49771" lon="-1.8053">
        <ele>13</ele>
        <time>2021-06-19T15:48:44Z</time>
      </trkpt>
      <trkpt lat="46.49772" lon="-1.80533">
        <ele>13</ele>
        <time>2021-06-19T15:48:45Z</time>
      </trkpt>
      <trkpt lat="46.49772" lon="-1.80534">
        <ele>13</ele>
        <time>2021-06-19T15:48:47Z</time>
      </trkpt>
      <trkpt lat="46.49773" lon="-1.80535">
        <ele>13</ele>
        <time>2021-06-19T15:48:48Z</time>
      </trkpt>
      <trkpt lat="46.49774" lon="-1.80538">
        <ele>13</ele>
        <time>2021-06-19T15:48:50Z</time>
      </trkpt>
      <trkpt lat="46.49774" lon="-1.80542">
        <ele>13</ele>
        <time>2021-06-19T15:48:52Z</time>
      </trkpt>
      <trkpt lat="46.49774" lon="-1.80544">
        <ele>13</ele>
        <time>2021-06-19T15:48:53Z</time>
      </trkpt>
      <trkpt lat="46.49774" lon="-1.80545">
        <ele>13</ele>
        <time>2021-06-19T15:48:54Z</time>
      </trkpt>
      <trkpt lat="46.49773" lon="-1.80547">
        <ele>13</ele>
        <time>2021-06-19T15:48:56Z</time>
      </trkpt>
      <trkpt lat="46.49773" lon="-1.8055">
        <ele>12.9</ele>
        <time>2021-06-19T15:48:57Z</time>
      </trkpt>
      <trkpt lat="46.49772" lon="-1.80552">
        <ele>12.9</ele>
        <time>2021-06-19T15:48:59Z</time>
      </trkpt>
      <trkpt lat="46.49771" lon="-1.80554">
        <ele>12.9</ele>
        <time>2021-06-19T15:49:01Z</time>
      </trkpt>
      <trkpt lat="46.49771" lon="-1.80557">
        <ele>12.9</ele>
        <time>2021-06-19T15:49:03Z</time>
      </trkpt>
      <trkpt lat="46.4977" lon="-1.8056">
        <ele>12.9</ele>
        <time>2021-06-19T15:49:04Z</time>
      </trkpt>
      <trkpt lat="46.4977" lon="-1.80562">
        <ele>12.9</ele>
        <time>2021-06-19T15:49:05Z</time>
      </trkpt>
      <trkpt lat="46.4977" lon="-1.80563">
        <ele>13</ele>
        <time>2021-06-19T15:49:06Z</time>
      </trkpt>
      <trkpt lat="46.4977" lon="-1.80565">
        <ele>13</ele>
        <time>2021-06-19T15:49:07Z</time>
      </trkpt>
      <trkpt lat="46.49771" lon="-1.80567">
        <ele>13</ele>
        <time>2021-06-19T15:49:08Z</time>
      </trkpt>
      <trkpt lat="46.49772" lon="-1.8057">
        <ele>13</ele>
        <time>2021-06-19T15:49:09Z</time>
      </trkpt>
      <trkpt lat="46.49772" lon="-1.80571">
        <ele>13</ele>
        <time>2021-06-19T15:49:11Z</time>
      </trkpt>
      <trkpt lat="46.49772" lon="-1.80572">
        <ele>13</ele>
        <time>2021-06-19T15:49:12Z</time>
      </trkpt>
      <trkpt lat="46.49772" lon="-1.80574">
        <ele>13</ele>
        <time>2021-06-19T15:49:13Z</time>
      </trkpt>
      <trkpt lat="46.49772" lon="-1.80576">
        <ele>13</ele>
        <time>2021-06-19T15:49:14Z</time>
      </trkpt>
      <trkpt lat="46.49773" lon="-1.80577">
        <ele>13</ele>
        <time>2021-06-19T15:49:16Z</time>
      </trkpt>
      <trkpt lat="46.49773" lon="-1.80578">
        <ele>13</ele>
        <time>2021-06-19T15:49:18Z</time>
      </trkpt>
      <trkpt lat="46.49773" lon="-1.80579">
        <ele>13</ele>
        <time>2021-06-19T15:49:19Z</time>
      </trkpt>
      <trkpt lat="46.49774" lon="-1.8058">
        <ele>13</ele>
        <time>2021-06-19T15:49:20Z</time>
      </trkpt>
      <trkpt lat="46.49774" lon="-1.80582">
        <ele>13</ele>
        <time>2021-06-19T15:49:21Z</time>
      </trkpt>
      <trkpt lat="46.49775" lon="-1.80584">
        <ele>13</ele>
        <time>2021-06-19T15:49:22Z</time>
      </trkpt>
      <trkpt lat="46.49775" lon="-1.80586">
        <ele>13</ele>
        <time>2021-06-19T15:49:23Z</time>
      </trkpt>
      <trkpt lat="46.49776" lon="-1.80588">
        <ele>13</ele>
        <time>2021-06-19T15:49:25Z</time>
      </trkpt>
      <trkpt lat="46.49776" lon="-1.8059">
        <ele>13</ele>
        <time>2021-06-19T15:49:26Z</time>
      </trkpt>
      <trkpt lat="46.49777" lon="-1.80592">
        <ele>13</ele>
        <time>2021-06-19T15:49:27Z</time>
      </trkpt>
      <trkpt lat="46.49778" lon="-1.80596">
        <ele>13</ele>
        <time>2021-06-19T15:49:29Z</time>
      </trkpt>
      <trkpt lat="46.49779" lon="-1.806">
        <ele>13</ele>
        <time>2021-06-19T15:49:30Z</time>
      </trkpt>
      <trkpt lat="46.4978" lon="-1.80601">
        <ele>13</ele>
        <time>2021-06-19T15:49:31Z</time>
      </trkpt>
      <trkpt lat="46.49781" lon="-1.80605">
        <ele>13</ele>
        <time>2021-06-19T15:49:33Z</time>
      </trkpt>
      <trkpt lat="46.49782" lon="-1.80607">
        <ele>13</ele>
        <time>2021-06-19T15:49:34Z</time>
      </trkpt>
      <trkpt lat="46.49782" lon="-1.80609">
        <ele>13</ele>
        <time>2021-06-19T15:49:35Z</time>
      </trkpt>
      <trkpt lat="46.49782" lon="-1.80614">
        <ele>13</ele>
        <time>2021-06-19T15:49:37Z</time>
      </trkpt>
      <trkpt lat="46.49783" lon="-1.80616">
        <ele>13</ele>
        <time>2021-06-19T15:49:38Z</time>
      </trkpt>
      <trkpt lat="46.49783" lon="-1.80618">
        <ele>13</ele>
        <time>2021-06-19T15:49:39Z</time>
      </trkpt>
      <trkpt lat="46.49783" lon="-1.80619">
        <ele>13</ele>
        <time>2021-06-19T15:49:40Z</time>
      </trkpt>
      <trkpt lat="46.49783" lon="-1.80622">
        <ele>13</ele>
        <time>2021-06-19T15:49:42Z</time>
      </trkpt>
      <trkpt lat="46.49784" lon="-1.80624">
        <ele>12.9</ele>
        <time>2021-06-19T15:49:43Z</time>
      </trkpt>
      <trkpt lat="46.49784" lon="-1.80626">
        <ele>12.9</ele>
        <time>2021-06-19T15:49:44Z</time>
      </trkpt>
      <trkpt lat="46.49783" lon="-1.80629">
        <ele>12.9</ele>
        <time>2021-06-19T15:49:46Z</time>
      </trkpt>
      <trkpt lat="46.49783" lon="-1.80631">
        <ele>12.9</ele>
        <time>2021-06-19T15:49:47Z</time>
      </trkpt>
      <trkpt lat="46.49783" lon="-1.80633">
        <ele>12.9</ele>
        <time>2021-06-19T15:49:48Z</time>
      </trkpt>
      <trkpt lat="46.49784" lon="-1.80636">
        <ele>12.9</ele>
        <time>2021-06-19T15:49:50Z</time>
      </trkpt>
      <trkpt lat="46.49784" lon="-1.80638">
        <ele>12.9</ele>
        <time>2021-06-19T15:49:51Z</time>
      </trkpt>
      <trkpt lat="46.49784" lon="-1.80639">
        <ele>12.9</ele>
        <time>2021-06-19T15:49:52Z</time>
      </trkpt>
      <trkpt lat="46.49784" lon="-1.80641">
        <ele>12.9</ele>
        <time>2021-06-19T15:49:53Z</time>
      </trkpt>
      <trkpt lat="46.49784" lon="-1.80644">
        <ele>12.9</ele>
        <time>2021-06-19T15:49:54Z</time>
      </trkpt>
      <trkpt lat="46.49785" lon="-1.80647">
        <ele>12.9</ele>
        <time>2021-06-19T15:49:56Z</time>
      </trkpt>
      <trkpt lat="46.49785" lon="-1.80649">
        <ele>12.9</ele>
        <time>2021-06-19T15:49:57Z</time>
      </trkpt>
      <trkpt lat="46.49786" lon="-1.80651">
        <ele>12.9</ele>
        <time>2021-06-19T15:49:58Z</time>
      </trkpt>
      <trkpt lat="46.49787" lon="-1.80653">
        <ele>12.9</ele>
        <time>2021-06-19T15:49:59Z</time>
      </trkpt>
      <trkpt lat="46.49787" lon="-1.80655">
        <ele>12.9</ele>
        <time>2021-06-19T15:50:00Z</time>
      </trkpt>
      <trkpt lat="46.49787" lon="-1.80657">
        <ele>12.9</ele>
        <time>2021-06-19T15:50:01Z</time>
      </trkpt>
      <trkpt lat="46.49788" lon="-1.80659">
        <ele>12.9</ele>
        <time>2021-06-19T15:50:03Z</time>
      </trkpt>
      <trkpt lat="46.49789" lon="-1.80662">
        <ele>12.9</ele>
        <time>2021-06-19T15:50:04Z</time>
      </trkpt>
      <trkpt lat="46.49789" lon="-1.80664">
        <ele>12.9</ele>
        <time>2021-06-19T15:50:05Z</time>
      </trkpt>
      <trkpt lat="46.49789" lon="-1.80666">
        <ele>12.9</ele>
        <time>2021-06-19T15:50:06Z</time>
      </trkpt>
      <trkpt lat="46.49789" lon="-1.80668">
        <ele>12.9</ele>
        <time>2021-06-19T15:50:07Z</time>
      </trkpt>
      <trkpt lat="46.49789" lon="-1.8067">
        <ele>12.9</ele>
        <time>2021-06-19T15:50:08Z</time>
      </trkpt>
      <trkpt lat="46.49789" lon="-1.80672">
        <ele>12.9</ele>
        <time>2021-06-19T15:50:09Z</time>
      </trkpt>
      <trkpt lat="46.49789" lon="-1.80674">
        <ele>12.9</ele>
        <time>2021-06-19T15:50:11Z</time>
      </trkpt>
      <trkpt lat="46.49789" lon="-1.80676">
        <ele>12.9</ele>
        <time>2021-06-19T15:50:12Z</time>
      </trkpt>
      <trkpt lat="46.49789" lon="-1.80678">
        <ele>12.9</ele>
        <time>2021-06-19T15:50:13Z</time>
      </trkpt>
      <trkpt lat="46.49789" lon="-1.8068">
        <ele>12.9</ele>
        <time>2021-06-19T15:50:14Z</time>
      </trkpt>
      <trkpt lat="46.4979" lon="-1.80684">
        <ele>12.9</ele>
        <time>2021-06-19T15:50:16Z</time>
      </trkpt>
      <trkpt lat="46.4979" lon="-1.80685">
        <ele>12.9</ele>
        <time>2021-06-19T15:50:17Z</time>
      </trkpt>
      <trkpt lat="46.49791" lon="-1.80687">
        <ele>12.9</ele>
        <time>2021-06-19T15:50:18Z</time>
      </trkpt>
      <trkpt lat="46.49792" lon="-1.80688">
        <ele>12.9</ele>
        <time>2021-06-19T15:50:20Z</time>
      </trkpt>
      <trkpt lat="46.49794" lon="-1.80688">
        <ele>12.9</ele>
        <time>2021-06-19T15:50:21Z</time>
      </trkpt>
      <trkpt lat="46.49795" lon="-1.80688">
        <ele>12.9</ele>
        <time>2021-06-19T15:50:22Z</time>
      </trkpt>
      <trkpt lat="46.49796" lon="-1.80688">
        <ele>12.9</ele>
        <time>2021-06-19T15:50:24Z</time>
      </trkpt>
      <trkpt lat="46.49796" lon="-1.80688">
        <ele>12.9</ele>
        <time>2021-06-19T15:50:26Z</time>
      </trkpt>
      <trkpt lat="46.49796" lon="-1.80687">
        <ele>12.9</ele>
        <time>2021-06-19T15:50:27Z</time>
      </trkpt>
      <trkpt lat="46.49796" lon="-1.80688">
        <ele>12.9</ele>
        <time>2021-06-19T15:50:29Z</time>
      </trkpt>
      <trkpt lat="46.49796" lon="-1.80689">
        <ele>12.9</ele>
        <time>2021-06-19T15:50:30Z</time>
      </trkpt>
      <trkpt lat="46.49796" lon="-1.80691">
        <ele>12.8</ele>
        <time>2021-06-19T15:50:32Z</time>
      </trkpt>
      <trkpt lat="46.49798" lon="-1.80696">
        <ele>12.8</ele>
        <time>2021-06-19T15:50:33Z</time>
      </trkpt>
      <trkpt lat="46.49798" lon="-1.80698">
        <ele>12.8</ele>
        <time>2021-06-19T15:50:34Z</time>
      </trkpt>
      <trkpt lat="46.49798" lon="-1.807">
        <ele>12.8</ele>
        <time>2021-06-19T15:50:35Z</time>
      </trkpt>
      <trkpt lat="46.49798" lon="-1.80703">
        <ele>12.8</ele>
        <time>2021-06-19T15:50:37Z</time>
      </trkpt>
      <trkpt lat="46.498" lon="-1.80701">
        <ele>12.8</ele>
        <time>2021-06-19T15:50:38Z</time>
      </trkpt>
      <trkpt lat="46.49801" lon="-1.80705">
        <ele>12.8</ele>
        <time>2021-06-19T15:50:40Z</time>
      </trkpt>
      <trkpt lat="46.49801" lon="-1.80707">
        <ele>12.8</ele>
        <time>2021-06-19T15:50:42Z</time>
      </trkpt>
      <trkpt lat="46.49802" lon="-1.80707">
        <ele>12.8</ele>
        <time>2021-06-19T15:50:43Z</time>
      </trkpt>
      <trkpt lat="46.49802" lon="-1.80709">
        <ele>12.8</ele>
        <time>2021-06-19T15:50:44Z</time>
      </trkpt>
      <trkpt lat="46.49803" lon="-1.80713">
        <ele>12.8</ele>
        <time>2021-06-19T15:50:46Z</time>
      </trkpt>
      <trkpt lat="46.49804" lon="-1.80714">
        <ele>12.8</ele>
        <time>2021-06-19T15:50:47Z</time>
      </trkpt>
      <trkpt lat="46.49804" lon="-1.80715">
        <ele>12.8</ele>
        <time>2021-06-19T15:50:48Z</time>
      </trkpt>
      <trkpt lat="46.49805" lon="-1.80716">
        <ele>12.8</ele>
        <time>2021-06-19T15:50:49Z</time>
      </trkpt>
      <trkpt lat="46.49805" lon="-1.80719">
        <ele>12.8</ele>
        <time>2021-06-19T15:50:51Z</time>
      </trkpt>
      <trkpt lat="46.49806" lon="-1.80721">
        <ele>12.8</ele>
        <time>2021-06-19T15:50:52Z</time>
      </trkpt>
      <trkpt lat="46.49807" lon="-1.80723">
        <ele>12.8</ele>
        <time>2021-06-19T15:50:53Z</time>
      </trkpt>
      <trkpt lat="46.49808" lon="-1.80727">
        <ele>12.8</ele>
        <time>2021-06-19T15:50:55Z</time>
      </trkpt>
      <trkpt lat="46.49809" lon="-1.80728">
        <ele>12.8</ele>
        <time>2021-06-19T15:50:57Z</time>
      </trkpt>
      <trkpt lat="46.4981" lon="-1.80729">
        <ele>12.8</ele>
        <time>2021-06-19T15:50:58Z</time>
      </trkpt>
      <trkpt lat="46.4981" lon="-1.8073">
        <ele>12.8</ele>
        <time>2021-06-19T15:50:59Z</time>
      </trkpt>
      <trkpt lat="46.49811" lon="-1.80731">
        <ele>12.8</ele>
        <time>2021-06-19T15:51:00Z</time>
      </trkpt>
      <trkpt lat="46.49812" lon="-1.80735">
        <ele>12.8</ele>
        <time>2021-06-19T15:51:02Z</time>
      </trkpt>
      <trkpt lat="46.49814" lon="-1.80737">
        <ele>12.7</ele>
        <time>2021-06-19T15:51:03Z</time>
      </trkpt>
      <trkpt lat="46.49814" lon="-1.80741">
        <ele>12.7</ele>
        <time>2021-06-19T15:51:05Z</time>
      </trkpt>
      <trkpt lat="46.49816" lon="-1.80745">
        <ele>12.7</ele>
        <time>2021-06-19T15:51:06Z</time>
      </trkpt>
      <trkpt lat="46.49816" lon="-1.80747">
        <ele>12.7</ele>
        <time>2021-06-19T15:51:07Z</time>
      </trkpt>
      <trkpt lat="46.49818" lon="-1.8075">
        <ele>12.7</ele>
        <time>2021-06-19T15:51:08Z</time>
      </trkpt>
      <trkpt lat="46.49819" lon="-1.80752">
        <ele>12.7</ele>
        <time>2021-06-19T15:51:10Z</time>
      </trkpt>
      <trkpt lat="46.49819" lon="-1.80753">
        <ele>12.7</ele>
        <time>2021-06-19T15:51:11Z</time>
      </trkpt>
      <trkpt lat="46.4982" lon="-1.80755">
        <ele>12.7</ele>
        <time>2021-06-19T15:51:12Z</time>
      </trkpt>
      <trkpt lat="46.4982" lon="-1.80756">
        <ele>12.7</ele>
        <time>2021-06-19T15:51:13Z</time>
      </trkpt>
      <trkpt lat="46.49822" lon="-1.80759">
        <ele>12.7</ele>
        <time>2021-06-19T15:51:15Z</time>
      </trkpt>
      <trkpt lat="46.49823" lon="-1.8076">
        <ele>12.6</ele>
        <time>2021-06-19T15:51:16Z</time>
      </trkpt>
      <trkpt lat="46.49824" lon="-1.80762">
        <ele>12.6</ele>
        <time>2021-06-19T15:51:17Z</time>
      </trkpt>
      <trkpt lat="46.49825" lon="-1.80762">
        <ele>12.6</ele>
        <time>2021-06-19T15:51:18Z</time>
      </trkpt>
      <trkpt lat="46.49826" lon="-1.80762">
        <ele>12.6</ele>
        <time>2021-06-19T15:51:20Z</time>
      </trkpt>
      <trkpt lat="46.49826" lon="-1.80761">
        <ele>12.6</ele>
        <time>2021-06-19T15:51:22Z</time>
      </trkpt>
      <trkpt lat="46.49827" lon="-1.8076">
        <ele>12.6</ele>
        <time>2021-06-19T15:51:23Z</time>
      </trkpt>
      <trkpt lat="46.49827" lon="-1.8076">
        <ele>12.6</ele>
        <time>2021-06-19T15:51:24Z</time>
      </trkpt>
      <trkpt lat="46.49828" lon="-1.80759">
        <ele>12.6</ele>
        <time>2021-06-19T15:51:25Z</time>
      </trkpt>
      <trkpt lat="46.49829" lon="-1.8076">
        <ele>12.6</ele>
        <time>2021-06-19T15:51:26Z</time>
      </trkpt>
      <trkpt lat="46.49829" lon="-1.80761">
        <ele>12.6</ele>
        <time>2021-06-19T15:51:27Z</time>
      </trkpt>
      <trkpt lat="46.49829" lon="-1.80763">
        <ele>12.6</ele>
        <time>2021-06-19T15:51:29Z</time>
      </trkpt>
      <trkpt lat="46.49829" lon="-1.80764">
        <ele>12.6</ele>
        <time>2021-06-19T15:51:30Z</time>
      </trkpt>
      <trkpt lat="46.4983" lon="-1.80765">
        <ele>12.6</ele>
        <time>2021-06-19T15:51:31Z</time>
      </trkpt>
      <trkpt lat="46.4983" lon="-1.80767">
        <ele>12.5</ele>
        <time>2021-06-19T15:51:32Z</time>
      </trkpt>
      <trkpt lat="46.4983" lon="-1.80769">
        <ele>12.5</ele>
        <time>2021-06-19T15:51:33Z</time>
      </trkpt>
      <trkpt lat="46.49831" lon="-1.80771">
        <ele>12.5</ele>
        <time>2021-06-19T15:51:34Z</time>
      </trkpt>
      <trkpt lat="46.49832" lon="-1.80773">
        <ele>12.5</ele>
        <time>2021-06-19T15:51:35Z</time>
      </trkpt>
      <trkpt lat="46.49833" lon="-1.80774">
        <ele>12.5</ele>
        <time>2021-06-19T15:51:36Z</time>
      </trkpt>
      <trkpt lat="46.49833" lon="-1.80775">
        <ele>12.5</ele>
        <time>2021-06-19T15:51:37Z</time>
      </trkpt>
      <trkpt lat="46.49833" lon="-1.80778">
        <ele>12.5</ele>
        <time>2021-06-19T15:51:39Z</time>
      </trkpt>
      <trkpt lat="46.49835" lon="-1.8078">
        <ele>12.5</ele>
        <time>2021-06-19T15:51:40Z</time>
      </trkpt>
      <trkpt lat="46.49836" lon="-1.80781">
        <ele>12.5</ele>
        <time>2021-06-19T15:51:41Z</time>
      </trkpt>
      <trkpt lat="46.49837" lon="-1.80782">
        <ele>12.5</ele>
        <time>2021-06-19T15:51:43Z</time>
      </trkpt>
      <trkpt lat="46.49838" lon="-1.80782">
        <ele>12.5</ele>
        <time>2021-06-19T15:51:45Z</time>
      </trkpt>
      <trkpt lat="46.49838" lon="-1.80782">
        <ele>12.5</ele>
        <time>2021-06-19T15:51:46Z</time>
      </trkpt>
      <trkpt lat="46.49839" lon="-1.80783">
        <ele>12.5</ele>
        <time>2021-06-19T15:51:48Z</time>
      </trkpt>
      <trkpt lat="46.4984" lon="-1.80785">
        <ele>12.5</ele>
        <time>2021-06-19T15:51:49Z</time>
      </trkpt>
      <trkpt lat="46.49841" lon="-1.80788">
        <ele>12.4</ele>
        <time>2021-06-19T15:51:51Z</time>
      </trkpt>
      <trkpt lat="46.49841" lon="-1.80791">
        <ele>12.4</ele>
        <time>2021-06-19T15:51:52Z</time>
      </trkpt>
      <trkpt lat="46.49842" lon="-1.80793">
        <ele>12.4</ele>
        <time>2021-06-19T15:51:53Z</time>
      </trkpt>
      <trkpt lat="46.49842" lon="-1.80794">
        <ele>12.4</ele>
        <time>2021-06-19T15:51:54Z</time>
      </trkpt>
      <trkpt lat="46.49843" lon="-1.80798">
        <ele>12.3</ele>
        <time>2021-06-19T15:51:56Z</time>
      </trkpt>
      <trkpt lat="46.49844" lon="-1.80799">
        <ele>12.3</ele>
        <time>2021-06-19T15:51:57Z</time>
      </trkpt>
      <trkpt lat="46.49845" lon="-1.808">
        <ele>12.3</ele>
        <time>2021-06-19T15:51:59Z</time>
      </trkpt>
      <trkpt lat="46.49845" lon="-1.80801">
        <ele>12.3</ele>
        <time>2021-06-19T15:52:00Z</time>
      </trkpt>
      <trkpt lat="46.49846" lon="-1.80803">
        <ele>12.3</ele>
        <time>2021-06-19T15:52:01Z</time>
      </trkpt>
      <trkpt lat="46.49847" lon="-1.80805">
        <ele>12.2</ele>
        <time>2021-06-19T15:52:03Z</time>
      </trkpt>
      <trkpt lat="46.49847" lon="-1.80807">
        <ele>12.2</ele>
        <time>2021-06-19T15:52:04Z</time>
      </trkpt>
      <trkpt lat="46.49849" lon="-1.80809">
        <ele>12.2</ele>
        <time>2021-06-19T15:52:05Z</time>
      </trkpt>
      <trkpt lat="46.49849" lon="-1.8081">
        <ele>12.2</ele>
        <time>2021-06-19T15:52:07Z</time>
      </trkpt>
      <trkpt lat="46.4985" lon="-1.8081">
        <ele>12.2</ele>
        <time>2021-06-19T15:52:08Z</time>
      </trkpt>
      <trkpt lat="46.49851" lon="-1.80811">
        <ele>12.1</ele>
        <time>2021-06-19T15:52:09Z</time>
      </trkpt>
      <trkpt lat="46.49852" lon="-1.80812">
        <ele>12.1</ele>
        <time>2021-06-19T15:52:11Z</time>
      </trkpt>
      <trkpt lat="46.49852" lon="-1.80813">
        <ele>12.1</ele>
        <time>2021-06-19T15:52:12Z</time>
      </trkpt>
      <trkpt lat="46.49853" lon="-1.80815">
        <ele>12.1</ele>
        <time>2021-06-19T15:52:13Z</time>
      </trkpt>
      <trkpt lat="46.49854" lon="-1.80816">
        <ele>12.1</ele>
        <time>2021-06-19T15:52:14Z</time>
      </trkpt>
      <trkpt lat="46.49856" lon="-1.80818">
        <ele>12</ele>
        <time>2021-06-19T15:52:16Z</time>
      </trkpt>
      <trkpt lat="46.49857" lon="-1.8082">
        <ele>12</ele>
        <time>2021-06-19T15:52:17Z</time>
      </trkpt>
      <trkpt lat="46.49858" lon="-1.80821">
        <ele>12</ele>
        <time>2021-06-19T15:52:18Z</time>
      </trkpt>
      <trkpt lat="46.49859" lon="-1.80824">
        <ele>11.9</ele>
        <time>2021-06-19T15:52:20Z</time>
      </trkpt>
      <trkpt lat="46.49862" lon="-1.80829">
        <ele>11.9</ele>
        <time>2021-06-19T15:52:22Z</time>
      </trkpt>
      <trkpt lat="46.49863" lon="-1.8083">
        <ele>11.8</ele>
        <time>2021-06-19T15:52:23Z</time>
      </trkpt>
      <trkpt lat="46.49864" lon="-1.80832">
        <ele>11.8</ele>
        <time>2021-06-19T15:52:24Z</time>
      </trkpt>
      <trkpt lat="46.49867" lon="-1.80835">
        <ele>11.7</ele>
        <time>2021-06-19T15:52:26Z</time>
      </trkpt>
      <trkpt lat="46.49868" lon="-1.80837">
        <ele>11.7</ele>
        <time>2021-06-19T15:52:27Z</time>
      </trkpt>
      <trkpt lat="46.49871" lon="-1.80839">
        <ele>11.7</ele>
        <time>2021-06-19T15:52:29Z</time>
      </trkpt>
      <trkpt lat="46.49872" lon="-1.80841">
        <ele>11.6</ele>
        <time>2021-06-19T15:52:30Z</time>
      </trkpt>
      <trkpt lat="46.49873" lon="-1.80842">
        <ele>11.6</ele>
        <time>2021-06-19T15:52:31Z</time>
      </trkpt>
      <trkpt lat="46.49875" lon="-1.80843">
        <ele>11.6</ele>
        <time>2021-06-19T15:52:32Z</time>
      </trkpt>
      <trkpt lat="46.49876" lon="-1.80845">
        <ele>11.5</ele>
        <time>2021-06-19T15:52:33Z</time>
      </trkpt>
      <trkpt lat="46.49879" lon="-1.80848">
        <ele>11.5</ele>
        <time>2021-06-19T15:52:35Z</time>
      </trkpt>
      <trkpt lat="46.4988" lon="-1.8085">
        <ele>11.5</ele>
        <time>2021-06-19T15:52:37Z</time>
      </trkpt>
      <trkpt lat="46.49881" lon="-1.80851">
        <ele>11.5</ele>
        <time>2021-06-19T15:52:38Z</time>
      </trkpt>
      <trkpt lat="46.49883" lon="-1.80853">
        <ele>11.4</ele>
        <time>2021-06-19T15:52:40Z</time>
      </trkpt>
      <trkpt lat="46.49884" lon="-1.80854">
        <ele>11.4</ele>
        <time>2021-06-19T15:52:41Z</time>
      </trkpt>
      <trkpt lat="46.49885" lon="-1.80856">
        <ele>11.4</ele>
        <time>2021-06-19T15:52:42Z</time>
      </trkpt>
      <trkpt lat="46.49886" lon="-1.80857">
        <ele>11.4</ele>
        <time>2021-06-19T15:52:43Z</time>
      </trkpt>
      <trkpt lat="46.49887" lon="-1.80859">
        <ele>11.4</ele>
        <time>2021-06-19T15:52:44Z</time>
      </trkpt>
      <trkpt lat="46.49888" lon="-1.80861">
        <ele>11.3</ele>
        <time>2021-06-19T15:52:45Z</time>
      </trkpt>
      <trkpt lat="46.49888" lon="-1.80863">
        <ele>11.3</ele>
        <time>2021-06-19T15:52:46Z</time>
      </trkpt>
      <trkpt lat="46.49889" lon="-1.80864">
        <ele>11.3</ele>
        <time>2021-06-19T15:52:47Z</time>
      </trkpt>
      <trkpt lat="46.49891" lon="-1.80868">
        <ele>11.3</ele>
        <time>2021-06-19T15:52:49Z</time>
      </trkpt>
      <trkpt lat="46.49892" lon="-1.80869">
        <ele>11.2</ele>
        <time>2021-06-19T15:52:50Z</time>
      </trkpt>
      <trkpt lat="46.49893" lon="-1.80871">
        <ele>11.2</ele>
        <time>2021-06-19T15:52:52Z</time>
      </trkpt>
      <trkpt lat="46.49893" lon="-1.80873">
        <ele>11.2</ele>
        <time>2021-06-19T15:52:53Z</time>
      </trkpt>
      <trkpt lat="46.49894" lon="-1.80874">
        <ele>11.2</ele>
        <time>2021-06-19T15:52:54Z</time>
      </trkpt>
      <trkpt lat="46.49896" lon="-1.80877">
        <ele>11.1</ele>
        <time>2021-06-19T15:52:55Z</time>
      </trkpt>
      <trkpt lat="46.49896" lon="-1.80878">
        <ele>11.1</ele>
        <time>2021-06-19T15:52:56Z</time>
      </trkpt>
      <trkpt lat="46.49896" lon="-1.80879">
        <ele>11.1</ele>
        <time>2021-06-19T15:52:57Z</time>
      </trkpt>
      <trkpt lat="46.49897" lon="-1.80881">
        <ele>11.1</ele>
        <time>2021-06-19T15:52:58Z</time>
      </trkpt>
      <trkpt lat="46.49899" lon="-1.80883">
        <ele>11</ele>
        <time>2021-06-19T15:53:00Z</time>
      </trkpt>
      <trkpt lat="46.499" lon="-1.80885">
        <ele>11</ele>
        <time>2021-06-19T15:53:01Z</time>
      </trkpt>
      <trkpt lat="46.49901" lon="-1.80887">
        <ele>11</ele>
        <time>2021-06-19T15:53:02Z</time>
      </trkpt>
      <trkpt lat="46.49902" lon="-1.80888">
        <ele>11</ele>
        <time>2021-06-19T15:53:03Z</time>
      </trkpt>
      <trkpt lat="46.49903" lon="-1.8089">
        <ele>10.9</ele>
        <time>2021-06-19T15:53:04Z</time>
      </trkpt>
      <trkpt lat="46.49904" lon="-1.80891">
        <ele>10.9</ele>
        <time>2021-06-19T15:53:05Z</time>
      </trkpt>
      <trkpt lat="46.49904" lon="-1.80893">
        <ele>10.9</ele>
        <time>2021-06-19T15:53:06Z</time>
      </trkpt>
      <trkpt lat="46.49906" lon="-1.80897">
        <ele>10.9</ele>
        <time>2021-06-19T15:53:08Z</time>
      </trkpt>
      <trkpt lat="46.49906" lon="-1.809">
        <ele>10.8</ele>
        <time>2021-06-19T15:53:10Z</time>
      </trkpt>
      <trkpt lat="46.49906" lon="-1.80902">
        <ele>10.8</ele>
        <time>2021-06-19T15:53:11Z</time>
      </trkpt>
      <trkpt lat="46.49906" lon="-1.80904">
        <ele>10.8</ele>
        <time>2021-06-19T15:53:12Z</time>
      </trkpt>
      <trkpt lat="46.49906" lon="-1.80906">
        <ele>10.8</ele>
        <time>2021-06-19T15:53:13Z</time>
      </trkpt>
      <trkpt lat="46.49907" lon="-1.80909">
        <ele>10.7</ele>
        <time>2021-06-19T15:53:14Z</time>
      </trkpt>
      <trkpt lat="46.49907" lon="-1.8091">
        <ele>10.7</ele>
        <time>2021-06-19T15:53:16Z</time>
      </trkpt>
      <trkpt lat="46.49907" lon="-1.80911">
        <ele>10.7</ele>
        <time>2021-06-19T15:53:17Z</time>
      </trkpt>
      <trkpt lat="46.49908" lon="-1.80913">
        <ele>10.7</ele>
        <time>2021-06-19T15:53:18Z</time>
      </trkpt>
      <trkpt lat="46.49908" lon="-1.80915">
        <ele>10.7</ele>
        <time>2021-06-19T15:53:19Z</time>
      </trkpt>
      <trkpt lat="46.49909" lon="-1.80918">
        <ele>10.6</ele>
        <time>2021-06-19T15:53:20Z</time>
      </trkpt>
      <trkpt lat="46.49909" lon="-1.8092">
        <ele>10.6</ele>
        <time>2021-06-19T15:53:21Z</time>
      </trkpt>
      <trkpt lat="46.49909" lon="-1.80923">
        <ele>10.6</ele>
        <time>2021-06-19T15:53:23Z</time>
      </trkpt>
      <trkpt lat="46.49909" lon="-1.80927">
        <ele>10.5</ele>
        <time>2021-06-19T15:53:25Z</time>
      </trkpt>
      <trkpt lat="46.49909" lon="-1.80927">
        <ele>10.5</ele>
        <time>2021-06-19T15:53:26Z</time>
      </trkpt>
      <trkpt lat="46.4991" lon="-1.8093">
        <ele>10.5</ele>
        <time>2021-06-19T15:53:28Z</time>
      </trkpt>
      <trkpt lat="46.4991" lon="-1.80933">
        <ele>10.4</ele>
        <time>2021-06-19T15:53:30Z</time>
      </trkpt>
      <trkpt lat="46.49911" lon="-1.80936">
        <ele>10.4</ele>
        <time>2021-06-19T15:53:31Z</time>
      </trkpt>
      <trkpt lat="46.49911" lon="-1.80937">
        <ele>10.4</ele>
        <time>2021-06-19T15:53:32Z</time>
      </trkpt>
      <trkpt lat="46.49911" lon="-1.80938">
        <ele>10.4</ele>
        <time>2021-06-19T15:53:33Z</time>
      </trkpt>
      <trkpt lat="46.49912" lon="-1.80941">
        <ele>10.3</ele>
        <time>2021-06-19T15:53:35Z</time>
      </trkpt>
      <trkpt lat="46.49912" lon="-1.80944">
        <ele>10.3</ele>
        <time>2021-06-19T15:53:36Z</time>
      </trkpt>
      <trkpt lat="46.49913" lon="-1.80948">
        <ele>10.3</ele>
        <time>2021-06-19T15:53:38Z</time>
      </trkpt>
      <trkpt lat="46.49913" lon="-1.80949">
        <ele>10.2</ele>
        <time>2021-06-19T15:53:39Z</time>
      </trkpt>
      <trkpt lat="46.49914" lon="-1.80952">
        <ele>10.2</ele>
        <time>2021-06-19T15:53:40Z</time>
      </trkpt>
      <trkpt lat="46.49914" lon="-1.80955">
        <ele>10.2</ele>
        <time>2021-06-19T15:53:42Z</time>
      </trkpt>
      <trkpt lat="46.49915" lon="-1.80956">
        <ele>10.2</ele>
        <time>2021-06-19T15:53:43Z</time>
      </trkpt>
      <trkpt lat="46.49915" lon="-1.80958">
        <ele>10.1</ele>
        <time>2021-06-19T15:53:44Z</time>
      </trkpt>
      <trkpt lat="46.49916" lon="-1.80961">
        <ele>10.1</ele>
        <time>2021-06-19T15:53:45Z</time>
      </trkpt>
      <trkpt lat="46.49916" lon="-1.80963">
        <ele>10.1</ele>
        <time>2021-06-19T15:53:46Z</time>
      </trkpt>
      <trkpt lat="46.49916" lon="-1.80965">
        <ele>10.1</ele>
        <time>2021-06-19T15:53:48Z</time>
      </trkpt>
      <trkpt lat="46.49917" lon="-1.80968">
        <ele>10</ele>
        <time>2021-06-19T15:53:49Z</time>
      </trkpt>
      <trkpt lat="46.49917" lon="-1.8097">
        <ele>10</ele>
        <time>2021-06-19T15:53:50Z</time>
      </trkpt>
      <trkpt lat="46.49918" lon="-1.80973">
        <ele>9.9</ele>
        <time>2021-06-19T15:53:52Z</time>
      </trkpt>
      <trkpt lat="46.49919" lon="-1.80977">
        <ele>9.9</ele>
        <time>2021-06-19T15:53:54Z</time>
      </trkpt>
      <trkpt lat="46.49919" lon="-1.8098">
        <ele>9.8</ele>
        <time>2021-06-19T15:53:56Z</time>
      </trkpt>
      <trkpt lat="46.4992" lon="-1.80982">
        <ele>9.8</ele>
        <time>2021-06-19T15:53:57Z</time>
      </trkpt>
      <trkpt lat="46.4992" lon="-1.80984">
        <ele>9.8</ele>
        <time>2021-06-19T15:53:58Z</time>
      </trkpt>
      <trkpt lat="46.49921" lon="-1.80986">
        <ele>9.8</ele>
        <time>2021-06-19T15:53:59Z</time>
      </trkpt>
      <trkpt lat="46.49921" lon="-1.80988">
        <ele>9.7</ele>
        <time>2021-06-19T15:54:00Z</time>
      </trkpt>
      <trkpt lat="46.49922" lon="-1.80991">
        <ele>9.7</ele>
        <time>2021-06-19T15:54:02Z</time>
      </trkpt>
      <trkpt lat="46.49923" lon="-1.80993">
        <ele>9.7</ele>
        <time>2021-06-19T15:54:03Z</time>
      </trkpt>
      <trkpt lat="46.49923" lon="-1.80996">
        <ele>9.6</ele>
        <time>2021-06-19T15:54:05Z</time>
      </trkpt>
      <trkpt lat="46.49923" lon="-1.80998">
        <ele>9.6</ele>
        <time>2021-06-19T15:54:06Z</time>
      </trkpt>
      <trkpt lat="46.49924" lon="-1.81001">
        <ele>9.6</ele>
        <time>2021-06-19T15:54:07Z</time>
      </trkpt>
      <trkpt lat="46.49924" lon="-1.81002">
        <ele>9.5</ele>
        <time>2021-06-19T15:54:08Z</time>
      </trkpt>
      <trkpt lat="46.49925" lon="-1.81005">
        <ele>9.5</ele>
        <time>2021-06-19T15:54:10Z</time>
      </trkpt>
      <trkpt lat="46.49925" lon="-1.81007">
        <ele>9.5</ele>
        <time>2021-06-19T15:54:11Z</time>
      </trkpt>
      <trkpt lat="46.49924" lon="-1.8101">
        <ele>9.4</ele>
        <time>2021-06-19T15:54:12Z</time>
      </trkpt>
      <trkpt lat="46.49924" lon="-1.81011">
        <ele>9.4</ele>
        <time>2021-06-19T15:54:13Z</time>
      </trkpt>
      <trkpt lat="46.49924" lon="-1.81013">
        <ele>9.4</ele>
        <time>2021-06-19T15:54:14Z</time>
      </trkpt>
      <trkpt lat="46.49923" lon="-1.81014">
        <ele>9.4</ele>
        <time>2021-06-19T15:54:15Z</time>
      </trkpt>
      <trkpt lat="46.49922" lon="-1.81016">
        <ele>9.4</ele>
        <time>2021-06-19T15:54:17Z</time>
      </trkpt>
      <trkpt lat="46.49921" lon="-1.81018">
        <ele>9.4</ele>
        <time>2021-06-19T15:54:18Z</time>
      </trkpt>
      <trkpt lat="46.49919" lon="-1.81022">
        <ele>9.3</ele>
        <time>2021-06-19T15:54:20Z</time>
      </trkpt>
      <trkpt lat="46.49919" lon="-1.81022">
        <ele>9.3</ele>
        <time>2021-06-19T15:54:21Z</time>
      </trkpt>
      <trkpt lat="46.49919" lon="-1.81025">
        <ele>9.4</ele>
        <time>2021-06-19T15:54:23Z</time>
      </trkpt>
      <trkpt lat="46.49919" lon="-1.81027">
        <ele>9.3</ele>
        <time>2021-06-19T15:54:24Z</time>
      </trkpt>
      <trkpt lat="46.49918" lon="-1.81029">
        <ele>9.3</ele>
        <time>2021-06-19T15:54:25Z</time>
      </trkpt>
      <trkpt lat="46.49918" lon="-1.8103">
        <ele>9.3</ele>
        <time>2021-06-19T15:54:26Z</time>
      </trkpt>
      <trkpt lat="46.49918" lon="-1.81032">
        <ele>9.3</ele>
        <time>2021-06-19T15:54:27Z</time>
      </trkpt>
      <trkpt lat="46.49918" lon="-1.81033">
        <ele>9.3</ele>
        <time>2021-06-19T15:54:28Z</time>
      </trkpt>
      <trkpt lat="46.49919" lon="-1.81035">
        <ele>9.2</ele>
        <time>2021-06-19T15:54:29Z</time>
      </trkpt>
      <trkpt lat="46.4992" lon="-1.81038">
        <ele>9.2</ele>
        <time>2021-06-19T15:54:31Z</time>
      </trkpt>
      <trkpt lat="46.49921" lon="-1.81042">
        <ele>9.2</ele>
        <time>2021-06-19T15:54:33Z</time>
      </trkpt>
      <trkpt lat="46.49921" lon="-1.81043">
        <ele>9.2</ele>
        <time>2021-06-19T15:54:34Z</time>
      </trkpt>
      <trkpt lat="46.49922" lon="-1.81045">
        <ele>9.1</ele>
        <time>2021-06-19T15:54:35Z</time>
      </trkpt>
      <trkpt lat="46.49922" lon="-1.81046">
        <ele>9.1</ele>
        <time>2021-06-19T15:54:36Z</time>
      </trkpt>
      <trkpt lat="46.49923" lon="-1.81052">
        <ele>9</ele>
        <time>2021-06-19T15:54:38Z</time>
      </trkpt>
      <trkpt lat="46.49924" lon="-1.81053">
        <ele>9</ele>
        <time>2021-06-19T15:54:39Z</time>
      </trkpt>
      <trkpt lat="46.49924" lon="-1.81054">
        <ele>9</ele>
        <time>2021-06-19T15:54:40Z</time>
      </trkpt>
      <trkpt lat="46.49924" lon="-1.81055">
        <ele>8.9</ele>
        <time>2021-06-19T15:54:41Z</time>
      </trkpt>
      <trkpt lat="46.49925" lon="-1.81057">
        <ele>8.9</ele>
        <time>2021-06-19T15:54:42Z</time>
      </trkpt>
      <trkpt lat="46.49926" lon="-1.81061">
        <ele>8.9</ele>
        <time>2021-06-19T15:54:44Z</time>
      </trkpt>
      <trkpt lat="46.49927" lon="-1.81064">
        <ele>8.8</ele>
        <time>2021-06-19T15:54:45Z</time>
      </trkpt>
      <trkpt lat="46.49927" lon="-1.81065">
        <ele>8.8</ele>
        <time>2021-06-19T15:54:46Z</time>
      </trkpt>
      <trkpt lat="46.49927" lon="-1.81067">
        <ele>8.8</ele>
        <time>2021-06-19T15:54:48Z</time>
      </trkpt>
      <trkpt lat="46.49928" lon="-1.81068">
        <ele>8.7</ele>
        <time>2021-06-19T15:54:49Z</time>
      </trkpt>
      <trkpt lat="46.49928" lon="-1.81069">
        <ele>8.7</ele>
        <time>2021-06-19T15:54:50Z</time>
      </trkpt>
      <trkpt lat="46.49928" lon="-1.81071">
        <ele>8.7</ele>
        <time>2021-06-19T15:54:51Z</time>
      </trkpt>
      <trkpt lat="46.49929" lon="-1.81072">
        <ele>8.6</ele>
        <time>2021-06-19T15:54:52Z</time>
      </trkpt>
      <trkpt lat="46.49929" lon="-1.81075">
        <ele>8.6</ele>
        <time>2021-06-19T15:54:53Z</time>
      </trkpt>
      <trkpt lat="46.4993" lon="-1.81076">
        <ele>8.6</ele>
        <time>2021-06-19T15:54:55Z</time>
      </trkpt>
      <trkpt lat="46.4993" lon="-1.81078">
        <ele>8.5</ele>
        <time>2021-06-19T15:54:56Z</time>
      </trkpt>
      <trkpt lat="46.49931" lon="-1.8108">
        <ele>8.5</ele>
        <time>2021-06-19T15:54:57Z</time>
      </trkpt>
      <trkpt lat="46.49932" lon="-1.81083">
        <ele>8.4</ele>
        <time>2021-06-19T15:54:58Z</time>
      </trkpt>
      <trkpt lat="46.49933" lon="-1.81085">
        <ele>8.4</ele>
        <time>2021-06-19T15:54:59Z</time>
      </trkpt>
      <trkpt lat="46.49933" lon="-1.81087">
        <ele>8.4</ele>
        <time>2021-06-19T15:55:00Z</time>
      </trkpt>
      <trkpt lat="46.49934" lon="-1.81088">
        <ele>8.3</ele>
        <time>2021-06-19T15:55:01Z</time>
      </trkpt>
      <trkpt lat="46.49934" lon="-1.8109">
        <ele>8.3</ele>
        <time>2021-06-19T15:55:03Z</time>
      </trkpt>
      <trkpt lat="46.49935" lon="-1.81093">
        <ele>8.2</ele>
        <time>2021-06-19T15:55:04Z</time>
      </trkpt>
      <trkpt lat="46.49935" lon="-1.81094">
        <ele>8.2</ele>
        <time>2021-06-19T15:55:05Z</time>
      </trkpt>
      <trkpt lat="46.49936" lon="-1.81098">
        <ele>8.1</ele>
        <time>2021-06-19T15:55:07Z</time>
      </trkpt>
      <trkpt lat="46.49936" lon="-1.81099">
        <ele>8.1</ele>
        <time>2021-06-19T15:55:09Z</time>
      </trkpt>
      <trkpt lat="46.49937" lon="-1.81101">
        <ele>8.1</ele>
        <time>2021-06-19T15:55:10Z</time>
      </trkpt>
      <trkpt lat="46.49937" lon="-1.81102">
        <ele>8.1</ele>
        <time>2021-06-19T15:55:11Z</time>
      </trkpt>
      <trkpt lat="46.49937" lon="-1.81105">
        <ele>8</ele>
        <time>2021-06-19T15:55:12Z</time>
      </trkpt>
      <trkpt lat="46.49938" lon="-1.81106">
        <ele>8</ele>
        <time>2021-06-19T15:55:13Z</time>
      </trkpt>
      <trkpt lat="46.49938" lon="-1.81108">
        <ele>8</ele>
        <time>2021-06-19T15:55:14Z</time>
      </trkpt>
      <trkpt lat="46.49938" lon="-1.8111">
        <ele>8</ele>
        <time>2021-06-19T15:55:15Z</time>
      </trkpt>
      <trkpt lat="46.49938" lon="-1.81113">
        <ele>7.9</ele>
        <time>2021-06-19T15:55:17Z</time>
      </trkpt>
      <trkpt lat="46.49938" lon="-1.81116">
        <ele>7.9</ele>
        <time>2021-06-19T15:55:19Z</time>
      </trkpt>
      <trkpt lat="46.49938" lon="-1.81116">
        <ele>7.9</ele>
        <time>2021-06-19T15:55:20Z</time>
      </trkpt>
      <trkpt lat="46.49938" lon="-1.81118">
        <ele>7.9</ele>
        <time>2021-06-19T15:55:22Z</time>
      </trkpt>
      <trkpt lat="46.49937" lon="-1.81121">
        <ele>7.9</ele>
        <time>2021-06-19T15:55:23Z</time>
      </trkpt>
      <trkpt lat="46.49937" lon="-1.81122">
        <ele>7.9</ele>
        <time>2021-06-19T15:55:24Z</time>
      </trkpt>
      <trkpt lat="46.49937" lon="-1.81124">
        <ele>7.9</ele>
        <time>2021-06-19T15:55:25Z</time>
      </trkpt>
      <trkpt lat="46.49937" lon="-1.81126">
        <ele>7.9</ele>
        <time>2021-06-19T15:55:26Z</time>
      </trkpt>
      <trkpt lat="46.49937" lon="-1.81127">
        <ele>7.9</ele>
        <time>2021-06-19T15:55:27Z</time>
      </trkpt>
      <trkpt lat="46.49938" lon="-1.81128">
        <ele>7.9</ele>
        <time>2021-06-19T15:55:28Z</time>
      </trkpt>
      <trkpt lat="46.49939" lon="-1.81125">
        <ele>7.9</ele>
        <time>2021-06-19T15:55:30Z</time>
      </trkpt>
      <trkpt lat="46.49939" lon="-1.81122">
        <ele>7.9</ele>
        <time>2021-06-19T15:55:32Z</time>
      </trkpt>
      <trkpt lat="46.49938" lon="-1.81118">
        <ele>7.9</ele>
        <time>2021-06-19T15:55:34Z</time>
      </trkpt>
      <trkpt lat="46.49939" lon="-1.81117">
        <ele>7.9</ele>
        <time>2021-06-19T15:55:35Z</time>
      </trkpt>
      <trkpt lat="46.49939" lon="-1.81118">
        <ele>7.9</ele>
        <time>2021-06-19T15:55:36Z</time>
      </trkpt>
      <trkpt lat="46.49939" lon="-1.8112">
        <ele>7.9</ele>
        <time>2021-06-19T15:55:37Z</time>
      </trkpt>
      <trkpt lat="46.49938" lon="-1.81126">
        <ele>7.9</ele>
        <time>2021-06-19T15:55:39Z</time>
      </trkpt>
      <trkpt lat="46.49938" lon="-1.8113">
        <ele>7.8</ele>
        <time>2021-06-19T15:55:41Z</time>
      </trkpt>
      <trkpt lat="46.49938" lon="-1.81132">
        <ele>7.8</ele>
        <time>2021-06-19T15:55:42Z</time>
      </trkpt>
      <trkpt lat="46.49939" lon="-1.81136">
        <ele>7.8</ele>
        <time>2021-06-19T15:55:43Z</time>
      </trkpt>
      <trkpt lat="46.49939" lon="-1.81137">
        <ele>7.8</ele>
        <time>2021-06-19T15:55:44Z</time>
      </trkpt>
      <trkpt lat="46.4994" lon="-1.81141">
        <ele>7.8</ele>
        <time>2021-06-19T15:55:46Z</time>
      </trkpt>
      <trkpt lat="46.49941" lon="-1.81143">
        <ele>7.8</ele>
        <time>2021-06-19T15:55:48Z</time>
      </trkpt>
      <trkpt lat="46.49942" lon="-1.81144">
        <ele>7.8</ele>
        <time>2021-06-19T15:55:50Z</time>
      </trkpt>
      <trkpt lat="46.49942" lon="-1.81145">
        <ele>7.8</ele>
        <time>2021-06-19T15:55:52Z</time>
      </trkpt>
      <trkpt lat="46.49941" lon="-1.81145">
        <ele>7.8</ele>
        <time>2021-06-19T15:55:53Z</time>
      </trkpt>
      <trkpt lat="46.49941" lon="-1.81145">
        <ele>7.8</ele>
        <time>2021-06-19T15:55:54Z</time>
      </trkpt>
      <trkpt lat="46.49941" lon="-1.81146">
        <ele>7.8</ele>
        <time>2021-06-19T15:55:56Z</time>
      </trkpt>
      <trkpt lat="46.4994" lon="-1.81147">
        <ele>7.8</ele>
        <time>2021-06-19T15:55:57Z</time>
      </trkpt>
      <trkpt lat="46.49939" lon="-1.8115">
        <ele>7.8</ele>
        <time>2021-06-19T15:55:58Z</time>
      </trkpt>
      <trkpt lat="46.49938" lon="-1.81151">
        <ele>7.8</ele>
        <time>2021-06-19T15:55:59Z</time>
      </trkpt>
      <trkpt lat="46.49937" lon="-1.81156">
        <ele>7.8</ele>
        <time>2021-06-19T15:56:01Z</time>
      </trkpt>
      <trkpt lat="46.49936" lon="-1.81158">
        <ele>7.8</ele>
        <time>2021-06-19T15:56:02Z</time>
      </trkpt>
      <trkpt lat="46.49936" lon="-1.81161">
        <ele>7.8</ele>
        <time>2021-06-19T15:56:04Z</time>
      </trkpt>
      <trkpt lat="46.49936" lon="-1.81166">
        <ele>7.8</ele>
        <time>2021-06-19T15:56:05Z</time>
      </trkpt>
      <trkpt lat="46.49935" lon="-1.81167">
        <ele>7.8</ele>
        <time>2021-06-19T15:56:06Z</time>
      </trkpt>
      <trkpt lat="46.49935" lon="-1.81172">
        <ele>7.8</ele>
        <time>2021-06-19T15:56:07Z</time>
      </trkpt>
      <trkpt lat="46.49935" lon="-1.81174">
        <ele>7.7</ele>
        <time>2021-06-19T15:56:08Z</time>
      </trkpt>
      <trkpt lat="46.49935" lon="-1.81175">
        <ele>7.7</ele>
        <time>2021-06-19T15:56:09Z</time>
      </trkpt>
      <trkpt lat="46.49934" lon="-1.81177">
        <ele>7.7</ele>
        <time>2021-06-19T15:56:10Z</time>
      </trkpt>
      <trkpt lat="46.49934" lon="-1.8118">
        <ele>7.7</ele>
        <time>2021-06-19T15:56:12Z</time>
      </trkpt>
      <trkpt lat="46.49933" lon="-1.81184">
        <ele>7.7</ele>
        <time>2021-06-19T15:56:13Z</time>
      </trkpt>
      <trkpt lat="46.49933" lon="-1.81185">
        <ele>7.7</ele>
        <time>2021-06-19T15:56:14Z</time>
      </trkpt>
      <trkpt lat="46.49932" lon="-1.81187">
        <ele>7.7</ele>
        <time>2021-06-19T15:56:15Z</time>
      </trkpt>
      <trkpt lat="46.49932" lon="-1.81189">
        <ele>7.7</ele>
        <time>2021-06-19T15:56:17Z</time>
      </trkpt>
      <trkpt lat="46.49932" lon="-1.81191">
        <ele>7.7</ele>
        <time>2021-06-19T15:56:18Z</time>
      </trkpt>
      <trkpt lat="46.49931" lon="-1.81193">
        <ele>7.7</ele>
        <time>2021-06-19T15:56:19Z</time>
      </trkpt>
      <trkpt lat="46.49931" lon="-1.81196">
        <ele>7.7</ele>
        <time>2021-06-19T15:56:20Z</time>
      </trkpt>
      <trkpt lat="46.49931" lon="-1.81198">
        <ele>7.8</ele>
        <time>2021-06-19T15:56:22Z</time>
      </trkpt>
      <trkpt lat="46.49932" lon="-1.812">
        <ele>7.8</ele>
        <time>2021-06-19T15:56:23Z</time>
      </trkpt>
      <trkpt lat="46.49932" lon="-1.81203">
        <ele>7.9</ele>
        <time>2021-06-19T15:56:24Z</time>
      </trkpt>
      <trkpt lat="46.49933" lon="-1.81205">
        <ele>7.9</ele>
        <time>2021-06-19T15:56:25Z</time>
      </trkpt>
      <trkpt lat="46.49933" lon="-1.81206">
        <ele>8</ele>
        <time>2021-06-19T15:56:26Z</time>
      </trkpt>
      <trkpt lat="46.49934" lon="-1.81208">
        <ele>8</ele>
        <time>2021-06-19T15:56:27Z</time>
      </trkpt>
      <trkpt lat="46.49935" lon="-1.81212">
        <ele>8.1</ele>
        <time>2021-06-19T15:56:29Z</time>
      </trkpt>
      <trkpt lat="46.49936" lon="-1.81214">
        <ele>8.2</ele>
        <time>2021-06-19T15:56:30Z</time>
      </trkpt>
      <trkpt lat="46.49937" lon="-1.81217">
        <ele>8.2</ele>
        <time>2021-06-19T15:56:32Z</time>
      </trkpt>
      <trkpt lat="46.49937" lon="-1.8122">
        <ele>8.3</ele>
        <time>2021-06-19T15:56:33Z</time>
      </trkpt>
      <trkpt lat="46.49938" lon="-1.81221">
        <ele>8.3</ele>
        <time>2021-06-19T15:56:34Z</time>
      </trkpt>
      <trkpt lat="46.49938" lon="-1.81223">
        <ele>8.4</ele>
        <time>2021-06-19T15:56:35Z</time>
      </trkpt>
      <trkpt lat="46.49939" lon="-1.81226">
        <ele>8.4</ele>
        <time>2021-06-19T15:56:37Z</time>
      </trkpt>
      <trkpt lat="46.4994" lon="-1.81229">
        <ele>8.5</ele>
        <time>2021-06-19T15:56:38Z</time>
      </trkpt>
      <trkpt lat="46.4994" lon="-1.8123">
        <ele>8.5</ele>
        <time>2021-06-19T15:56:40Z</time>
      </trkpt>
      <trkpt lat="46.4994" lon="-1.81232">
        <ele>8.5</ele>
        <time>2021-06-19T15:56:41Z</time>
      </trkpt>
      <trkpt lat="46.49941" lon="-1.81234">
        <ele>8.5</ele>
        <time>2021-06-19T15:56:42Z</time>
      </trkpt>
      <trkpt lat="46.49942" lon="-1.81236">
        <ele>8.5</ele>
        <time>2021-06-19T15:56:43Z</time>
      </trkpt>
      <trkpt lat="46.49943" lon="-1.81238">
        <ele>8.5</ele>
        <time>2021-06-19T15:56:45Z</time>
      </trkpt>
      <trkpt lat="46.49944" lon="-1.8124">
        <ele>8.5</ele>
        <time>2021-06-19T15:56:46Z</time>
      </trkpt>
      <trkpt lat="46.49944" lon="-1.81244">
        <ele>8.4</ele>
        <time>2021-06-19T15:56:48Z</time>
      </trkpt>
      <trkpt lat="46.49944" lon="-1.81245">
        <ele>8.4</ele>
        <time>2021-06-19T15:56:49Z</time>
      </trkpt>
      <trkpt lat="46.49944" lon="-1.81247">
        <ele>8.4</ele>
        <time>2021-06-19T15:56:50Z</time>
      </trkpt>
      <trkpt lat="46.49944" lon="-1.81249">
        <ele>8.3</ele>
        <time>2021-06-19T15:56:52Z</time>
      </trkpt>
      <trkpt lat="46.49944" lon="-1.81251">
        <ele>8.3</ele>
        <time>2021-06-19T15:56:53Z</time>
      </trkpt>
      <trkpt lat="46.49944" lon="-1.81253">
        <ele>8.3</ele>
        <time>2021-06-19T15:56:54Z</time>
      </trkpt>
      <trkpt lat="46.49944" lon="-1.81256">
        <ele>8.3</ele>
        <time>2021-06-19T15:56:55Z</time>
      </trkpt>
      <trkpt lat="46.49944" lon="-1.81258">
        <ele>8.2</ele>
        <time>2021-06-19T15:56:56Z</time>
      </trkpt>
      <trkpt lat="46.49944" lon="-1.81262">
        <ele>8.2</ele>
        <time>2021-06-19T15:56:58Z</time>
      </trkpt>
      <trkpt lat="46.49944" lon="-1.81263">
        <ele>8.2</ele>
        <time>2021-06-19T15:56:59Z</time>
      </trkpt>
      <trkpt lat="46.49944" lon="-1.81265">
        <ele>8.2</ele>
        <time>2021-06-19T15:57:00Z</time>
      </trkpt>
      <trkpt lat="46.49943" lon="-1.81267">
        <ele>8.1</ele>
        <time>2021-06-19T15:57:01Z</time>
      </trkpt>
      <trkpt lat="46.49943" lon="-1.81271">
        <ele>8.1</ele>
        <time>2021-06-19T15:57:03Z</time>
      </trkpt>
      <trkpt lat="46.49943" lon="-1.81274">
        <ele>8</ele>
        <time>2021-06-19T15:57:05Z</time>
      </trkpt>
      <trkpt lat="46.49943" lon="-1.81278">
        <ele>8</ele>
        <time>2021-06-19T15:57:07Z</time>
      </trkpt>
      <trkpt lat="46.49942" lon="-1.81281">
        <ele>7.9</ele>
        <time>2021-06-19T15:57:08Z</time>
      </trkpt>
      <trkpt lat="46.49942" lon="-1.81282">
        <ele>7.9</ele>
        <time>2021-06-19T15:57:09Z</time>
      </trkpt>
      <trkpt lat="46.49942" lon="-1.81283">
        <ele>7.9</ele>
        <time>2021-06-19T15:57:10Z</time>
      </trkpt>
      <trkpt lat="46.49942" lon="-1.81285">
        <ele>7.9</ele>
        <time>2021-06-19T15:57:12Z</time>
      </trkpt>
      <trkpt lat="46.49941" lon="-1.81287">
        <ele>7.8</ele>
        <time>2021-06-19T15:57:13Z</time>
      </trkpt>
      <trkpt lat="46.49941" lon="-1.81289">
        <ele>7.8</ele>
        <time>2021-06-19T15:57:14Z</time>
      </trkpt>
      <trkpt lat="46.49941" lon="-1.81292">
        <ele>7.8</ele>
        <time>2021-06-19T15:57:15Z</time>
      </trkpt>
      <trkpt lat="46.4994" lon="-1.81294">
        <ele>7.8</ele>
        <time>2021-06-19T15:57:16Z</time>
      </trkpt>
      <trkpt lat="46.4994" lon="-1.81295">
        <ele>7.7</ele>
        <time>2021-06-19T15:57:17Z</time>
      </trkpt>
      <trkpt lat="46.4994" lon="-1.81298">
        <ele>7.7</ele>
        <time>2021-06-19T15:57:19Z</time>
      </trkpt>
      <trkpt lat="46.4994" lon="-1.81301">
        <ele>7.7</ele>
        <time>2021-06-19T15:57:20Z</time>
      </trkpt>
      <trkpt lat="46.4994" lon="-1.81302">
        <ele>7.7</ele>
        <time>2021-06-19T15:57:21Z</time>
      </trkpt>
      <trkpt lat="46.49939" lon="-1.81303">
        <ele>7.6</ele>
        <time>2021-06-19T15:57:22Z</time>
      </trkpt>
      <trkpt lat="46.49939" lon="-1.81307">
        <ele>7.6</ele>
        <time>2021-06-19T15:57:24Z</time>
      </trkpt>
      <trkpt lat="46.49938" lon="-1.81311">
        <ele>7.6</ele>
        <time>2021-06-19T15:57:26Z</time>
      </trkpt>
      <trkpt lat="46.49938" lon="-1.81314">
        <ele>7.5</ele>
        <time>2021-06-19T15:57:28Z</time>
      </trkpt>
      <trkpt lat="46.49938" lon="-1.81316">
        <ele>7.5</ele>
        <time>2021-06-19T15:57:29Z</time>
      </trkpt>
      <trkpt lat="46.49938" lon="-1.81319">
        <ele>7.5</ele>
        <time>2021-06-19T15:57:30Z</time>
      </trkpt>
      <trkpt lat="46.49938" lon="-1.81322">
        <ele>7.5</ele>
        <time>2021-06-19T15:57:32Z</time>
      </trkpt>
      <trkpt lat="46.49937" lon="-1.81326">
        <ele>7.5</ele>
        <time>2021-06-19T15:57:34Z</time>
      </trkpt>
      <trkpt lat="46.49939" lon="-1.81327">
        <ele>7.4</ele>
        <time>2021-06-19T15:57:36Z</time>
      </trkpt>
      <trkpt lat="46.4994" lon="-1.81328">
        <ele>7.4</ele>
        <time>2021-06-19T15:57:37Z</time>
      </trkpt>
      <trkpt lat="46.4994" lon="-1.81328">
        <ele>7.4</ele>
        <time>2021-06-19T15:57:39Z</time>
      </trkpt>
      <trkpt lat="46.4994" lon="-1.81329">
        <ele>7.4</ele>
        <time>2021-06-19T15:57:40Z</time>
      </trkpt>
      <trkpt lat="46.49939" lon="-1.81331">
        <ele>7.4</ele>
        <time>2021-06-19T15:57:42Z</time>
      </trkpt>
      <trkpt lat="46.49939" lon="-1.81332">
        <ele>7.4</ele>
        <time>2021-06-19T15:57:44Z</time>
      </trkpt>
      <trkpt lat="46.49939" lon="-1.81333">
        <ele>7.4</ele>
        <time>2021-06-19T15:57:46Z</time>
      </trkpt>
      <trkpt lat="46.49938" lon="-1.81335">
        <ele>7.4</ele>
        <time>2021-06-19T15:57:47Z</time>
      </trkpt>
      <trkpt lat="46.49938" lon="-1.81336">
        <ele>7.4</ele>
        <time>2021-06-19T15:57:48Z</time>
      </trkpt>
      <trkpt lat="46.49938" lon="-1.81338">
        <ele>7.3</ele>
        <time>2021-06-19T15:57:49Z</time>
      </trkpt>
      <trkpt lat="46.49937" lon="-1.8134">
        <ele>7.3</ele>
        <time>2021-06-19T15:57:50Z</time>
      </trkpt>
      <trkpt lat="46.49937" lon="-1.81342">
        <ele>7.3</ele>
        <time>2021-06-19T15:57:51Z</time>
      </trkpt>
      <trkpt lat="46.49937" lon="-1.81343">
        <ele>7.3</ele>
        <time>2021-06-19T15:57:53Z</time>
      </trkpt>
      <trkpt lat="46.49936" lon="-1.81345">
        <ele>7.2</ele>
        <time>2021-06-19T15:57:54Z</time>
      </trkpt>
      <trkpt lat="46.49936" lon="-1.81346">
        <ele>7.2</ele>
        <time>2021-06-19T15:57:55Z</time>
      </trkpt>
      <trkpt lat="46.49936" lon="-1.81348">
        <ele>7.2</ele>
        <time>2021-06-19T15:57:56Z</time>
      </trkpt>
      <trkpt lat="46.49935" lon="-1.81349">
        <ele>7.2</ele>
        <time>2021-06-19T15:57:57Z</time>
      </trkpt>
      <trkpt lat="46.49935" lon="-1.8135">
        <ele>7.2</ele>
        <time>2021-06-19T15:57:58Z</time>
      </trkpt>
      <trkpt lat="46.49935" lon="-1.81352">
        <ele>7.1</ele>
        <time>2021-06-19T15:58:00Z</time>
      </trkpt>
      <trkpt lat="46.49934" lon="-1.81353">
        <ele>7.1</ele>
        <time>2021-06-19T15:58:01Z</time>
      </trkpt>
      <trkpt lat="46.49934" lon="-1.81355">
        <ele>7.1</ele>
        <time>2021-06-19T15:58:02Z</time>
      </trkpt>
      <trkpt lat="46.49933" lon="-1.81357">
        <ele>7.1</ele>
        <time>2021-06-19T15:58:03Z</time>
      </trkpt>
      <trkpt lat="46.49933" lon="-1.81359">
        <ele>7</ele>
        <time>2021-06-19T15:58:04Z</time>
      </trkpt>
      <trkpt lat="46.49932" lon="-1.81362">
        <ele>7</ele>
        <time>2021-06-19T15:58:06Z</time>
      </trkpt>
      <trkpt lat="46.49932" lon="-1.81366">
        <ele>6.9</ele>
        <time>2021-06-19T15:58:07Z</time>
      </trkpt>
      <trkpt lat="46.49932" lon="-1.81368">
        <ele>6.8</ele>
        <time>2021-06-19T15:58:08Z</time>
      </trkpt>
      <trkpt lat="46.49931" lon="-1.81373">
        <ele>6.8</ele>
        <time>2021-06-19T15:58:09Z</time>
      </trkpt>
      <trkpt lat="46.49931" lon="-1.81374">
        <ele>6.7</ele>
        <time>2021-06-19T15:58:10Z</time>
      </trkpt>
      <trkpt lat="46.49931" lon="-1.81376">
        <ele>6.7</ele>
        <time>2021-06-19T15:58:11Z</time>
      </trkpt>
      <trkpt lat="46.49931" lon="-1.81379">
        <ele>6.6</ele>
        <time>2021-06-19T15:58:12Z</time>
      </trkpt>
      <trkpt lat="46.4993" lon="-1.81383">
        <ele>6.6</ele>
        <time>2021-06-19T15:58:14Z</time>
      </trkpt>
      <trkpt lat="46.4993" lon="-1.81385">
        <ele>6.5</ele>
        <time>2021-06-19T15:58:15Z</time>
      </trkpt>
      <trkpt lat="46.49929" lon="-1.81387">
        <ele>6.5</ele>
        <time>2021-06-19T15:58:16Z</time>
      </trkpt>
      <trkpt lat="46.49929" lon="-1.81389">
        <ele>6.4</ele>
        <time>2021-06-19T15:58:17Z</time>
      </trkpt>
      <trkpt lat="46.49928" lon="-1.81393">
        <ele>6.4</ele>
        <time>2021-06-19T15:58:19Z</time>
      </trkpt>
      <trkpt lat="46.49928" lon="-1.81395">
        <ele>6.3</ele>
        <time>2021-06-19T15:58:20Z</time>
      </trkpt>
      <trkpt lat="46.49928" lon="-1.81397">
        <ele>6.3</ele>
        <time>2021-06-19T15:58:21Z</time>
      </trkpt>
      <trkpt lat="46.49927" lon="-1.81399">
        <ele>6.3</ele>
        <time>2021-06-19T15:58:22Z</time>
      </trkpt>
      <trkpt lat="46.49927" lon="-1.81402">
        <ele>6.2</ele>
        <time>2021-06-19T15:58:24Z</time>
      </trkpt>
      <trkpt lat="46.49926" lon="-1.81405">
        <ele>6.2</ele>
        <time>2021-06-19T15:58:25Z</time>
      </trkpt>
      <trkpt lat="46.49926" lon="-1.81407">
        <ele>6.2</ele>
        <time>2021-06-19T15:58:26Z</time>
      </trkpt>
      <trkpt lat="46.49925" lon="-1.81408">
        <ele>6.1</ele>
        <time>2021-06-19T15:58:27Z</time>
      </trkpt>
      <trkpt lat="46.49925" lon="-1.81411">
        <ele>6.1</ele>
        <time>2021-06-19T15:58:28Z</time>
      </trkpt>
      <trkpt lat="46.49924" lon="-1.81413">
        <ele>6.1</ele>
        <time>2021-06-19T15:58:30Z</time>
      </trkpt>
      <trkpt lat="46.49924" lon="-1.81415">
        <ele>6</ele>
        <time>2021-06-19T15:58:31Z</time>
      </trkpt>
      <trkpt lat="46.49924" lon="-1.81416">
        <ele>6</ele>
        <time>2021-06-19T15:58:32Z</time>
      </trkpt>
      <trkpt lat="46.49923" lon="-1.81418">
        <ele>6</ele>
        <time>2021-06-19T15:58:33Z</time>
      </trkpt>
      <trkpt lat="46.49923" lon="-1.8142">
        <ele>6</ele>
        <time>2021-06-19T15:58:35Z</time>
      </trkpt>
      <trkpt lat="46.49923" lon="-1.81422">
        <ele>5.9</ele>
        <time>2021-06-19T15:58:36Z</time>
      </trkpt>
      <trkpt lat="46.49922" lon="-1.81424">
        <ele>5.9</ele>
        <time>2021-06-19T15:58:37Z</time>
      </trkpt>
      <trkpt lat="46.49922" lon="-1.81426">
        <ele>5.9</ele>
        <time>2021-06-19T15:58:38Z</time>
      </trkpt>
      <trkpt lat="46.49922" lon="-1.81429">
        <ele>5.9</ele>
        <time>2021-06-19T15:58:40Z</time>
      </trkpt>
      <trkpt lat="46.49922" lon="-1.81431">
        <ele>5.8</ele>
        <time>2021-06-19T15:58:41Z</time>
      </trkpt>
      <trkpt lat="46.49922" lon="-1.81433">
        <ele>5.8</ele>
        <time>2021-06-19T15:58:42Z</time>
      </trkpt>
      <trkpt lat="46.49922" lon="-1.81435">
        <ele>5.8</ele>
        <time>2021-06-19T15:58:43Z</time>
      </trkpt>
      <trkpt lat="46.49922" lon="-1.81437">
        <ele>5.7</ele>
        <time>2021-06-19T15:58:44Z</time>
      </trkpt>
      <trkpt lat="46.49922" lon="-1.8144">
        <ele>5.7</ele>
        <time>2021-06-19T15:58:46Z</time>
      </trkpt>
      <trkpt lat="46.49922" lon="-1.81444">
        <ele>5.7</ele>
        <time>2021-06-19T15:58:48Z</time>
      </trkpt>
      <trkpt lat="46.49922" lon="-1.81445">
        <ele>5.6</ele>
        <time>2021-06-19T15:58:49Z</time>
      </trkpt>
      <trkpt lat="46.49922" lon="-1.81448">
        <ele>5.6</ele>
        <time>2021-06-19T15:58:51Z</time>
      </trkpt>
      <trkpt lat="46.49922" lon="-1.8145">
        <ele>5.5</ele>
        <time>2021-06-19T15:58:52Z</time>
      </trkpt>
      <trkpt lat="46.49922" lon="-1.81452">
        <ele>5.5</ele>
        <time>2021-06-19T15:58:53Z</time>
      </trkpt>
      <trkpt lat="46.49922" lon="-1.81454">
        <ele>5.4</ele>
        <time>2021-06-19T15:58:55Z</time>
      </trkpt>
      <trkpt lat="46.49922" lon="-1.81457">
        <ele>5.4</ele>
        <time>2021-06-19T15:58:56Z</time>
      </trkpt>
      <trkpt lat="46.49922" lon="-1.81458">
        <ele>5.3</ele>
        <time>2021-06-19T15:58:57Z</time>
      </trkpt>
      <trkpt lat="46.49923" lon="-1.8146">
        <ele>5.3</ele>
        <time>2021-06-19T15:58:59Z</time>
      </trkpt>
      <trkpt lat="46.49923" lon="-1.81463">
        <ele>5.2</ele>
        <time>2021-06-19T15:59:00Z</time>
      </trkpt>
      <trkpt lat="46.49924" lon="-1.81464">
        <ele>5.2</ele>
        <time>2021-06-19T15:59:01Z</time>
      </trkpt>
      <trkpt lat="46.49925" lon="-1.81467">
        <ele>5.2</ele>
        <time>2021-06-19T15:59:02Z</time>
      </trkpt>
      <trkpt lat="46.49926" lon="-1.81468">
        <ele>5.1</ele>
        <time>2021-06-19T15:59:04Z</time>
      </trkpt>
      <trkpt lat="46.49926" lon="-1.81469">
        <ele>5.1</ele>
        <time>2021-06-19T15:59:05Z</time>
      </trkpt>
      <trkpt lat="46.49926" lon="-1.81471">
        <ele>5.1</ele>
        <time>2021-06-19T15:59:06Z</time>
      </trkpt>
      <trkpt lat="46.49927" lon="-1.81472">
        <ele>5</ele>
        <time>2021-06-19T15:59:07Z</time>
      </trkpt>
      <trkpt lat="46.49927" lon="-1.81474">
        <ele>5</ele>
        <time>2021-06-19T15:59:08Z</time>
      </trkpt>
      <trkpt lat="46.49927" lon="-1.81476">
        <ele>5</ele>
        <time>2021-06-19T15:59:09Z</time>
      </trkpt>
      <trkpt lat="46.49928" lon="-1.81478">
        <ele>5</ele>
        <time>2021-06-19T15:59:11Z</time>
      </trkpt>
      <trkpt lat="46.49928" lon="-1.8148">
        <ele>4.9</ele>
        <time>2021-06-19T15:59:12Z</time>
      </trkpt>
      <trkpt lat="46.49928" lon="-1.81482">
        <ele>4.9</ele>
        <time>2021-06-19T15:59:13Z</time>
      </trkpt>
      <trkpt lat="46.49929" lon="-1.81484">
        <ele>4.9</ele>
        <time>2021-06-19T15:59:14Z</time>
      </trkpt>
      <trkpt lat="46.49929" lon="-1.81486">
        <ele>4.9</ele>
        <time>2021-06-19T15:59:15Z</time>
      </trkpt>
      <trkpt lat="46.49929" lon="-1.81487">
        <ele>4.9</ele>
        <time>2021-06-19T15:59:16Z</time>
      </trkpt>
      <trkpt lat="46.4993" lon="-1.8149">
        <ele>4.8</ele>
        <time>2021-06-19T15:59:18Z</time>
      </trkpt>
      <trkpt lat="46.49931" lon="-1.81492">
        <ele>4.8</ele>
        <time>2021-06-19T15:59:19Z</time>
      </trkpt>
      <trkpt lat="46.49932" lon="-1.81494">
        <ele>4.8</ele>
        <time>2021-06-19T15:59:21Z</time>
      </trkpt>
      <trkpt lat="46.49932" lon="-1.81497">
        <ele>4.8</ele>
        <time>2021-06-19T15:59:23Z</time>
      </trkpt>
      <trkpt lat="46.49931" lon="-1.81498">
        <ele>4.8</ele>
        <time>2021-06-19T15:59:25Z</time>
      </trkpt>
      <trkpt lat="46.49931" lon="-1.81498">
        <ele>4.8</ele>
        <time>2021-06-19T15:59:26Z</time>
      </trkpt>
      <trkpt lat="46.49931" lon="-1.81498">
        <ele>4.8</ele>
        <time>2021-06-19T15:59:27Z</time>
      </trkpt>
      <trkpt lat="46.49931" lon="-1.81498">
        <ele>4.8</ele>
        <time>2021-06-19T15:59:29Z</time>
      </trkpt>
      <trkpt lat="46.49931" lon="-1.81498">
        <ele>4.8</ele>
        <time>2021-06-19T15:59:30Z</time>
      </trkpt>
      <trkpt lat="46.49931" lon="-1.81497">
        <ele>4.8</ele>
        <time>2021-06-19T15:59:31Z</time>
      </trkpt>
      <trkpt lat="46.49931" lon="-1.81497">
        <ele>4.8</ele>
        <time>2021-06-19T15:59:32Z</time>
      </trkpt>
      <trkpt lat="46.49931" lon="-1.81497">
        <ele>4.8</ele>
        <time>2021-06-19T15:59:34Z</time>
      </trkpt>
      <trkpt lat="46.49931" lon="-1.81497">
        <ele>4.8</ele>
        <time>2021-06-19T15:59:36Z</time>
      </trkpt>
      <trkpt lat="46.49931" lon="-1.81497">
        <ele>4.8</ele>
        <time>2021-06-19T15:59:38Z</time>
      </trkpt>
      <trkpt lat="46.49931" lon="-1.81497">
        <ele>4.8</ele>
        <time>2021-06-19T15:59:39Z</time>
      </trkpt>
      <trkpt lat="46.49931" lon="-1.81495">
        <ele>4.8</ele>
        <time>2021-06-19T15:59:41Z</time>
      </trkpt>
      <trkpt lat="46.49932" lon="-1.81493">
        <ele>4.8</ele>
        <time>2021-06-19T15:59:43Z</time>
      </trkpt>
      <trkpt lat="46.49933" lon="-1.81493">
        <ele>4.8</ele>
        <time>2021-06-19T15:59:44Z</time>
      </trkpt>
      <trkpt lat="46.49933" lon="-1.81494">
        <ele>4.8</ele>
        <time>2021-06-19T15:59:45Z</time>
      </trkpt>
      <trkpt lat="46.49933" lon="-1.81493">
        <ele>4.8</ele>
        <time>2021-06-19T15:59:46Z</time>
      </trkpt>
      <trkpt lat="46.49934" lon="-1.81494">
        <ele>4.8</ele>
        <time>2021-06-19T15:59:48Z</time>
      </trkpt>
      <trkpt lat="46.49934" lon="-1.81494">
        <ele>4.8</ele>
        <time>2021-06-19T15:59:49Z</time>
      </trkpt>
      <trkpt lat="46.49934" lon="-1.81493">
        <ele>4.8</ele>
        <time>2021-06-19T15:59:51Z</time>
      </trkpt>
      <trkpt lat="46.49934" lon="-1.81493">
        <ele>4.8</ele>
        <time>2021-06-19T15:59:53Z</time>
      </trkpt>
      <trkpt lat="46.49934" lon="-1.81493">
        <ele>4.8</ele>
        <time>2021-06-19T15:59:55Z</time>
      </trkpt>
      <trkpt lat="46.49934" lon="-1.81493">
        <ele>4.8</ele>
        <time>2021-06-19T15:59:57Z</time>
      </trkpt>
      <trkpt lat="46.49934" lon="-1.81493">
        <ele>4.8</ele>
        <time>2021-06-19T15:59:59Z</time>
      </trkpt>
      <trkpt lat="46.49934" lon="-1.81493">
        <ele>4.8</ele>
        <time>2021-06-19T16:00:01Z</time>
      </trkpt>
      <trkpt lat="46.49934" lon="-1.81493">
        <ele>4.8</ele>
        <time>2021-06-19T16:00:03Z</time>
      </trkpt>
      <trkpt lat="46.49935" lon="-1.81494">
        <ele>4.8</ele>
        <time>2021-06-19T16:00:04Z</time>
      </trkpt>
      <trkpt lat="46.49936" lon="-1.81495">
        <ele>4.8</ele>
        <time>2021-06-19T16:00:06Z</time>
      </trkpt>
      <trkpt lat="46.49935" lon="-1.81495">
        <ele>4.8</ele>
        <time>2021-06-19T16:00:07Z</time>
      </trkpt>
      <trkpt lat="46.49935" lon="-1.81495">
        <ele>4.8</ele>
        <time>2021-06-19T16:00:09Z</time>
      </trkpt>
      <trkpt lat="46.49935" lon="-1.81495">
        <ele>4.8</ele>
        <time>2021-06-19T16:00:10Z</time>
      </trkpt>
      <trkpt lat="46.49934" lon="-1.81496">
        <ele>4.8</ele>
        <time>2021-06-19T16:00:12Z</time>
      </trkpt>
      <trkpt lat="46.49934" lon="-1.81496">
        <ele>4.9</ele>
        <time>2021-06-19T16:00:14Z</time>
      </trkpt>
      <trkpt lat="46.49934" lon="-1.81496">
        <ele>4.9</ele>
        <time>2021-06-19T16:00:16Z</time>
      </trkpt>
      <trkpt lat="46.49934" lon="-1.81496">
        <ele>4.9</ele>
        <time>2021-06-19T16:00:18Z</time>
      </trkpt>
      <trkpt lat="46.49934" lon="-1.81497">
        <ele>4.9</ele>
        <time>2021-06-19T16:00:20Z</time>
      </trkpt>
      <trkpt lat="46.49934" lon="-1.81498">
        <ele>4.9</ele>
        <time>2021-06-19T16:00:21Z</time>
      </trkpt>
      <trkpt lat="46.49935" lon="-1.81499">
        <ele>4.9</ele>
        <time>2021-06-19T16:00:23Z</time>
      </trkpt>
      <trkpt lat="46.49935" lon="-1.81499">
        <ele>4.9</ele>
        <time>2021-06-19T16:00:24Z</time>
      </trkpt>
      <trkpt lat="46.49936" lon="-1.81499">
        <ele>4.9</ele>
        <time>2021-06-19T16:00:26Z</time>
      </trkpt>
      <trkpt lat="46.49937" lon="-1.815">
        <ele>4.9</ele>
        <time>2021-06-19T16:00:28Z</time>
      </trkpt>
      <trkpt lat="46.49937" lon="-1.81499">
        <ele>4.9</ele>
        <time>2021-06-19T16:00:29Z</time>
      </trkpt>
      <trkpt lat="46.49937" lon="-1.81499">
        <ele>4.9</ele>
        <time>2021-06-19T16:00:31Z</time>
      </trkpt>
      <trkpt lat="46.49937" lon="-1.81499">
        <ele>4.9</ele>
        <time>2021-06-19T16:00:33Z</time>
      </trkpt>
      <trkpt lat="46.49937" lon="-1.81499">
        <ele>4.9</ele>
        <time>2021-06-19T16:00:35Z</time>
      </trkpt>
      <trkpt lat="46.49937" lon="-1.81499">
        <ele>4.9</ele>
        <time>2021-06-19T16:00:36Z</time>
      </trkpt>
      <trkpt lat="46.49937" lon="-1.81499">
        <ele>4.9</ele>
        <time>2021-06-19T16:00:38Z</time>
      </trkpt>
      <trkpt lat="46.49937" lon="-1.81499">
        <ele>4.9</ele>
        <time>2021-06-19T16:00:40Z</time>
      </trkpt>
      <trkpt lat="46.49937" lon="-1.81499">
        <ele>4.9</ele>
        <time>2021-06-19T16:00:41Z</time>
      </trkpt>
      <trkpt lat="46.49937" lon="-1.81499">
        <ele>4.9</ele>
        <time>2021-06-19T16:00:42Z</time>
      </trkpt>
      <trkpt lat="46.49937" lon="-1.81499">
        <ele>4.9</ele>
        <time>2021-06-19T16:00:44Z</time>
      </trkpt>
      <trkpt lat="46.49937" lon="-1.81499">
        <ele>4.9</ele>
        <time>2021-06-19T16:00:45Z</time>
      </trkpt>
      <trkpt lat="46.49937" lon="-1.81499">
        <ele>4.9</ele>
        <time>2021-06-19T16:00:47Z</time>
      </trkpt>
      <trkpt lat="46.49937" lon="-1.81499">
        <ele>4.9</ele>
        <time>2021-06-19T16:00:49Z</time>
      </trkpt>
      <trkpt lat="46.49937" lon="-1.81499">
        <ele>4.9</ele>
        <time>2021-06-19T16:00:51Z</time>
      </trkpt>
      <trkpt lat="46.49937" lon="-1.81499">
        <ele>4.9</ele>
        <time>2021-06-19T16:00:53Z</time>
      </trkpt>
      <trkpt lat="46.49937" lon="-1.81499">
        <ele>4.9</ele>
        <time>2021-06-19T16:00:55Z</time>
      </trkpt>
      <trkpt lat="46.49937" lon="-1.81499">
        <ele>4.9</ele>
        <time>2021-06-19T16:00:56Z</time>
      </trkpt>
      <trkpt lat="46.49937" lon="-1.81499">
        <ele>4.9</ele>
        <time>2021-06-19T16:00:58Z</time>
      </trkpt>
      <trkpt lat="46.49937" lon="-1.81499">
        <ele>4.9</ele>
        <time>2021-06-19T16:01:00Z</time>
      </trkpt>
      <trkpt lat="46.49937" lon="-1.81499">
        <ele>4.9</ele>
        <time>2021-06-19T16:01:01Z</time>
      </trkpt>
      <trkpt lat="46.49937" lon="-1.81499">
        <ele>4.9</ele>
        <time>2021-06-19T16:01:03Z</time>
      </trkpt>
      <trkpt lat="46.49937" lon="-1.81499">
        <ele>4.9</ele>
        <time>2021-06-19T16:01:04Z</time>
      </trkpt>
      <trkpt lat="46.49937" lon="-1.81499">
        <ele>4.9</ele>
        <time>2021-06-19T16:01:05Z</time>
      </trkpt>
      <trkpt lat="46.49937" lon="-1.81499">
        <ele>4.9</ele>
        <time>2021-06-19T16:01:07Z</time>
      </trkpt>
      <trkpt lat="46.49937" lon="-1.81499">
        <ele>4.9</ele>
        <time>2021-06-19T16:01:09Z</time>
      </trkpt>
      <trkpt lat="46.49937" lon="-1.81499">
        <ele>4.9</ele>
        <time>2021-06-19T16:01:11Z</time>
      </trkpt>
      <trkpt lat="46.49937" lon="-1.81499">
        <ele>4.9</ele>
        <time>2021-06-19T16:01:12Z</time>
      </trkpt>
      <trkpt lat="46.49937" lon="-1.81499">
        <ele>4.9</ele>
        <time>2021-06-19T16:01:13Z</time>
      </trkpt>
      <trkpt lat="46.49937" lon="-1.81499">
        <ele>4.9</ele>
        <time>2021-06-19T16:01:14Z</time>
      </trkpt>
      <trkpt lat="46.49937" lon="-1.81499">
        <ele>4.9</ele>
        <time>2021-06-19T16:01:16Z</time>
      </trkpt>
      <trkpt lat="46.49937" lon="-1.81499">
        <ele>4.9</ele>
        <time>2021-06-19T16:01:17Z</time>
      </trkpt>
      <trkpt lat="46.49937" lon="-1.81499">
        <ele>4.9</ele>
        <time>2021-06-19T16:01:18Z</time>
      </trkpt>
      <trkpt lat="46.49937" lon="-1.81499">
        <ele>4.9</ele>
        <time>2021-06-19T16:01:20Z</time>
      </trkpt>
      <trkpt lat="46.49937" lon="-1.81499">
        <ele>4.9</ele>
        <time>2021-06-19T16:01:21Z</time>
      </trkpt>
      <trkpt lat="46.49937" lon="-1.81499">
        <ele>4.9</ele>
        <time>2021-06-19T16:01:23Z</time>
      </trkpt>
      <trkpt lat="46.49937" lon="-1.81499">
        <ele>4.9</ele>
        <time>2021-06-19T16:01:25Z</time>
      </trkpt>
      <trkpt lat="46.49937" lon="-1.81499">
        <ele>4.9</ele>
        <time>2021-06-19T16:01:26Z</time>
      </trkpt>
      <trkpt lat="46.49937" lon="-1.81499">
        <ele>4.9</ele>
        <time>2021-06-19T16:01:28Z</time>
      </trkpt>
      <trkpt lat="46.49937" lon="-1.81499">
        <ele>4.9</ele>
        <time>2021-06-19T16:01:29Z</time>
      </trkpt>
      <trkpt lat="46.49937" lon="-1.81499">
        <ele>4.9</ele>
        <time>2021-06-19T16:01:31Z</time>
      </trkpt>
      <trkpt lat="46.49937" lon="-1.81499">
        <ele>4.9</ele>
        <time>2021-06-19T16:01:33Z</time>
      </trkpt>
      <trkpt lat="46.49937" lon="-1.81499">
        <ele>4.9</ele>
        <time>2021-06-19T16:01:35Z</time>
      </trkpt>
      <trkpt lat="46.49937" lon="-1.81499">
        <ele>4.9</ele>
        <time>2021-06-19T16:01:36Z</time>
      </trkpt>
      <trkpt lat="46.49937" lon="-1.81499">
        <ele>4.9</ele>
        <time>2021-06-19T16:01:38Z</time>
      </trkpt>
      <trkpt lat="46.49937" lon="-1.81499">
        <ele>4.9</ele>
        <time>2021-06-19T16:01:40Z</time>
      </trkpt>
      <trkpt lat="46.49937" lon="-1.81499">
        <ele>4.9</ele>
        <time>2021-06-19T16:01:41Z</time>
      </trkpt>
      <trkpt lat="46.49937" lon="-1.81499">
        <ele>4.9</ele>
        <time>2021-06-19T16:01:42Z</time>
      </trkpt>
      <trkpt lat="46.49937" lon="-1.81499">
        <ele>4.9</ele>
        <time>2021-06-19T16:01:44Z</time>
      </trkpt>
      <trkpt lat="46.49937" lon="-1.81499">
        <ele>4.9</ele>
        <time>2021-06-19T16:01:45Z</time>
      </trkpt>
      <trkpt lat="46.49938" lon="-1.81498">
        <ele>4.9</ele>
        <time>2021-06-19T16:01:46Z</time>
      </trkpt>
      <trkpt lat="46.49939" lon="-1.81496">
        <ele>4.9</ele>
        <time>2021-06-19T16:01:48Z</time>
      </trkpt>
      <trkpt lat="46.4994" lon="-1.81495">
        <ele>4.9</ele>
        <time>2021-06-19T16:01:49Z</time>
      </trkpt>
      <trkpt lat="46.49941" lon="-1.81494">
        <ele>4.9</ele>
        <time>2021-06-19T16:01:51Z</time>
      </trkpt>
      <trkpt lat="46.49941" lon="-1.81494">
        <ele>4.9</ele>
        <time>2021-06-19T16:01:52Z</time>
      </trkpt>
      <trkpt lat="46.49942" lon="-1.81494">
        <ele>4.9</ele>
        <time>2021-06-19T16:01:54Z</time>
      </trkpt>
      <trkpt lat="46.49942" lon="-1.81494">
        <ele>4.9</ele>
        <time>2021-06-19T16:01:55Z</time>
      </trkpt>
      <trkpt lat="46.49943" lon="-1.81494">
        <ele>4.9</ele>
        <time>2021-06-19T16:01:56Z</time>
      </trkpt>
      <trkpt lat="46.49944" lon="-1.81494">
        <ele>4.9</ele>
        <time>2021-06-19T16:01:57Z</time>
      </trkpt>
      <trkpt lat="46.49944" lon="-1.81493">
        <ele>4.9</ele>
        <time>2021-06-19T16:01:59Z</time>
      </trkpt>
      <trkpt lat="46.49944" lon="-1.81493">
        <ele>4.9</ele>
        <time>2021-06-19T16:02:00Z</time>
      </trkpt>
      <trkpt lat="46.49944" lon="-1.81493">
        <ele>4.9</ele>
        <time>2021-06-19T16:02:01Z</time>
      </trkpt>
      <trkpt lat="46.49944" lon="-1.81492">
        <ele>4.9</ele>
        <time>2021-06-19T16:02:02Z</time>
      </trkpt>
      <trkpt lat="46.49943" lon="-1.81491">
        <ele>4.9</ele>
        <time>2021-06-19T16:02:03Z</time>
      </trkpt>
      <trkpt lat="46.49942" lon="-1.8149">
        <ele>4.9</ele>
        <time>2021-06-19T16:02:05Z</time>
      </trkpt>
      <trkpt lat="46.49942" lon="-1.81488">
        <ele>4.9</ele>
        <time>2021-06-19T16:02:06Z</time>
      </trkpt>
      <trkpt lat="46.49943" lon="-1.81486">
        <ele>4.9</ele>
        <time>2021-06-19T16:02:08Z</time>
      </trkpt>
      <trkpt lat="46.49943" lon="-1.81485">
        <ele>4.9</ele>
        <time>2021-06-19T16:02:09Z</time>
      </trkpt>
      <trkpt lat="46.49945" lon="-1.81486">
        <ele>4.9</ele>
        <time>2021-06-19T16:02:10Z</time>
      </trkpt>
      <trkpt lat="46.49946" lon="-1.81486">
        <ele>4.9</ele>
        <time>2021-06-19T16:02:12Z</time>
      </trkpt>
      <trkpt lat="46.49947" lon="-1.81486">
        <ele>4.8</ele>
        <time>2021-06-19T16:02:13Z</time>
      </trkpt>
      <trkpt lat="46.49948" lon="-1.81487">
        <ele>4.8</ele>
        <time>2021-06-19T16:02:14Z</time>
      </trkpt>
      <trkpt lat="46.49949" lon="-1.81487">
        <ele>4.8</ele>
        <time>2021-06-19T16:02:16Z</time>
      </trkpt>
      <trkpt lat="46.4995" lon="-1.81486">
        <ele>4.8</ele>
        <time>2021-06-19T16:02:17Z</time>
      </trkpt>
      <trkpt lat="46.49951" lon="-1.81486">
        <ele>4.8</ele>
        <time>2021-06-19T16:02:18Z</time>
      </trkpt>
      <trkpt lat="46.49952" lon="-1.81486">
        <ele>4.8</ele>
        <time>2021-06-19T16:02:20Z</time>
      </trkpt>
      <trkpt lat="46.49953" lon="-1.81487">
        <ele>4.8</ele>
        <time>2021-06-19T16:02:21Z</time>
      </trkpt>
      <trkpt lat="46.49954" lon="-1.81487">
        <ele>4.8</ele>
        <time>2021-06-19T16:02:22Z</time>
      </trkpt>
      <trkpt lat="46.49955" lon="-1.81488">
        <ele>4.8</ele>
        <time>2021-06-19T16:02:23Z</time>
      </trkpt>
      <trkpt lat="46.49955" lon="-1.81489">
        <ele>4.8</ele>
        <time>2021-06-19T16:02:24Z</time>
      </trkpt>
      <trkpt lat="46.49957" lon="-1.8149">
        <ele>4.8</ele>
        <time>2021-06-19T16:02:26Z</time>
      </trkpt>
      <trkpt lat="46.49959" lon="-1.81491">
        <ele>4.8</ele>
        <time>2021-06-19T16:02:27Z</time>
      </trkpt>
      <trkpt lat="46.4996" lon="-1.81492">
        <ele>4.8</ele>
        <time>2021-06-19T16:02:28Z</time>
      </trkpt>
      <trkpt lat="46.49961" lon="-1.81492">
        <ele>4.8</ele>
        <time>2021-06-19T16:02:30Z</time>
      </trkpt>
      <trkpt lat="46.49963" lon="-1.81493">
        <ele>4.8</ele>
        <time>2021-06-19T16:02:32Z</time>
      </trkpt>
      <trkpt lat="46.49964" lon="-1.81494">
        <ele>4.7</ele>
        <time>2021-06-19T16:02:33Z</time>
      </trkpt>
      <trkpt lat="46.49965" lon="-1.81494">
        <ele>4.7</ele>
        <time>2021-06-19T16:02:34Z</time>
      </trkpt>
      <trkpt lat="46.49967" lon="-1.81495">
        <ele>4.7</ele>
        <time>2021-06-19T16:02:36Z</time>
      </trkpt>
      <trkpt lat="46.4997" lon="-1.81496">
        <ele>4.7</ele>
        <time>2021-06-19T16:02:37Z</time>
      </trkpt>
      <trkpt lat="46.49971" lon="-1.81497">
        <ele>4.7</ele>
        <time>2021-06-19T16:02:38Z</time>
      </trkpt>
      <trkpt lat="46.49975" lon="-1.81498">
        <ele>4.7</ele>
        <time>2021-06-19T16:02:40Z</time>
      </trkpt>
      <trkpt lat="46.49976" lon="-1.81499">
        <ele>4.7</ele>
        <time>2021-06-19T16:02:41Z</time>
      </trkpt>
      <trkpt lat="46.49978" lon="-1.81499">
        <ele>4.7</ele>
        <time>2021-06-19T16:02:43Z</time>
      </trkpt>
      <trkpt lat="46.4998" lon="-1.81499">
        <ele>4.7</ele>
        <time>2021-06-19T16:02:45Z</time>
      </trkpt>
      <trkpt lat="46.49981" lon="-1.815">
        <ele>4.7</ele>
        <time>2021-06-19T16:02:46Z</time>
      </trkpt>
      <trkpt lat="46.49983" lon="-1.815">
        <ele>4.6</ele>
        <time>2021-06-19T16:02:47Z</time>
      </trkpt>
      <trkpt lat="46.49983" lon="-1.815">
        <ele>4.6</ele>
        <time>2021-06-19T16:02:48Z</time>
      </trkpt>
      <trkpt lat="46.49985" lon="-1.815">
        <ele>4.6</ele>
        <time>2021-06-19T16:02:49Z</time>
      </trkpt>
      <trkpt lat="46.49986" lon="-1.815">
        <ele>4.5</ele>
        <time>2021-06-19T16:02:50Z</time>
      </trkpt>
      <trkpt lat="46.49987" lon="-1.815">
        <ele>4.5</ele>
        <time>2021-06-19T16:02:52Z</time>
      </trkpt>
      <trkpt lat="46.49988" lon="-1.815">
        <ele>4.5</ele>
        <time>2021-06-19T16:02:53Z</time>
      </trkpt>
      <trkpt lat="46.49989" lon="-1.815">
        <ele>4.4</ele>
        <time>2021-06-19T16:02:54Z</time>
      </trkpt>
      <trkpt lat="46.4999" lon="-1.815">
        <ele>4.4</ele>
        <time>2021-06-19T16:02:55Z</time>
      </trkpt>
      <trkpt lat="46.49992" lon="-1.815">
        <ele>4.4</ele>
        <time>2021-06-19T16:02:57Z</time>
      </trkpt>
      <trkpt lat="46.49993" lon="-1.815">
        <ele>4.4</ele>
        <time>2021-06-19T16:02:58Z</time>
      </trkpt>
      <trkpt lat="46.49994" lon="-1.815">
        <ele>4.3</ele>
        <time>2021-06-19T16:02:59Z</time>
      </trkpt>
      <trkpt lat="46.49996" lon="-1.81501">
        <ele>4.3</ele>
        <time>2021-06-19T16:03:01Z</time>
      </trkpt>
      <trkpt lat="46.49999" lon="-1.81501">
        <ele>4.3</ele>
        <time>2021-06-19T16:03:02Z</time>
      </trkpt>
      <trkpt lat="46.5" lon="-1.815">
        <ele>4.3</ele>
        <time>2021-06-19T16:03:04Z</time>
      </trkpt>
      <trkpt lat="46.50001" lon="-1.815">
        <ele>4.3</ele>
        <time>2021-06-19T16:03:05Z</time>
      </trkpt>
      <trkpt lat="46.50003" lon="-1.81499">
        <ele>4.3</ele>
        <time>2021-06-19T16:03:06Z</time>
      </trkpt>
      <trkpt lat="46.50004" lon="-1.81498">
        <ele>4.3</ele>
        <time>2021-06-19T16:03:07Z</time>
      </trkpt>
      <trkpt lat="46.50006" lon="-1.81498">
        <ele>4.3</ele>
        <time>2021-06-19T16:03:08Z</time>
      </trkpt>
      <trkpt lat="46.50008" lon="-1.81497">
        <ele>4.3</ele>
        <time>2021-06-19T16:03:10Z</time>
      </trkpt>
      <trkpt lat="46.50009" lon="-1.81497">
        <ele>4.3</ele>
        <time>2021-06-19T16:03:11Z</time>
      </trkpt>
      <trkpt lat="46.50009" lon="-1.81497">
        <ele>4.3</ele>
        <time>2021-06-19T16:03:12Z</time>
      </trkpt>
      <trkpt lat="46.5001" lon="-1.81496">
        <ele>4.4</ele>
        <time>2021-06-19T16:03:13Z</time>
      </trkpt>
      <trkpt lat="46.50011" lon="-1.81495">
        <ele>4.4</ele>
        <time>2021-06-19T16:03:14Z</time>
      </trkpt>
      <trkpt lat="46.50012" lon="-1.81493">
        <ele>4.5</ele>
        <time>2021-06-19T16:03:16Z</time>
      </trkpt>
      <trkpt lat="46.50014" lon="-1.81492">
        <ele>4.5</ele>
        <time>2021-06-19T16:03:17Z</time>
      </trkpt>
      <trkpt lat="46.50015" lon="-1.81491">
        <ele>4.6</ele>
        <time>2021-06-19T16:03:18Z</time>
      </trkpt>
      <trkpt lat="46.50016" lon="-1.8149">
        <ele>4.7</ele>
        <time>2021-06-19T16:03:19Z</time>
      </trkpt>
      <trkpt lat="46.50018" lon="-1.81489">
        <ele>4.8</ele>
        <time>2021-06-19T16:03:21Z</time>
      </trkpt>
      <trkpt lat="46.50019" lon="-1.81487">
        <ele>4.9</ele>
        <time>2021-06-19T16:03:22Z</time>
      </trkpt>
      <trkpt lat="46.5002" lon="-1.81486">
        <ele>5</ele>
        <time>2021-06-19T16:03:23Z</time>
      </trkpt>
      <trkpt lat="46.50021" lon="-1.81483">
        <ele>5.2</ele>
        <time>2021-06-19T16:03:24Z</time>
      </trkpt>
      <trkpt lat="46.50022" lon="-1.81482">
        <ele>5.3</ele>
        <time>2021-06-19T16:03:26Z</time>
      </trkpt>
      <trkpt lat="46.50022" lon="-1.81481">
        <ele>5.4</ele>
        <time>2021-06-19T16:03:27Z</time>
      </trkpt>
      <trkpt lat="46.50023" lon="-1.8148">
        <ele>5.5</ele>
        <time>2021-06-19T16:03:28Z</time>
      </trkpt>
      <trkpt lat="46.50024" lon="-1.81478">
        <ele>5.6</ele>
        <time>2021-06-19T16:03:29Z</time>
      </trkpt>
      <trkpt lat="46.50025" lon="-1.81477">
        <ele>5.7</ele>
        <time>2021-06-19T16:03:31Z</time>
      </trkpt>
      <trkpt lat="46.50026" lon="-1.81476">
        <ele>5.8</ele>
        <time>2021-06-19T16:03:32Z</time>
      </trkpt>
      <trkpt lat="46.50027" lon="-1.81475">
        <ele>5.9</ele>
        <time>2021-06-19T16:03:33Z</time>
      </trkpt>
      <trkpt lat="46.50028" lon="-1.81474">
        <ele>6</ele>
        <time>2021-06-19T16:03:34Z</time>
      </trkpt>
      <trkpt lat="46.50031" lon="-1.81473">
        <ele>6.6</ele>
        <time>2021-06-19T16:03:36Z</time>
      </trkpt>
      <trkpt lat="46.50032" lon="-1.81473">
        <ele>6.6</ele>
        <time>2021-06-19T16:03:37Z</time>
      </trkpt>
      <trkpt lat="46.50034" lon="-1.81473">
        <ele>6.6</ele>
        <time>2021-06-19T16:03:39Z</time>
      </trkpt>
      <trkpt lat="46.50035" lon="-1.81472">
        <ele>6.6</ele>
        <time>2021-06-19T16:03:40Z</time>
      </trkpt>
      <trkpt lat="46.50037" lon="-1.81473">
        <ele>6.7</ele>
        <time>2021-06-19T16:03:41Z</time>
      </trkpt>
      <trkpt lat="46.50038" lon="-1.81473">
        <ele>6.8</ele>
        <time>2021-06-19T16:03:42Z</time>
      </trkpt>
      <trkpt lat="46.5004" lon="-1.81474">
        <ele>6.8</ele>
        <time>2021-06-19T16:03:44Z</time>
      </trkpt>
      <trkpt lat="46.50041" lon="-1.81475">
        <ele>6.8</ele>
        <time>2021-06-19T16:03:46Z</time>
      </trkpt>
      <trkpt lat="46.50042" lon="-1.81475">
        <ele>6.8</ele>
        <time>2021-06-19T16:03:47Z</time>
      </trkpt>
      <trkpt lat="46.50044" lon="-1.81475">
        <ele>6.8</ele>
        <time>2021-06-19T16:03:49Z</time>
      </trkpt>
      <trkpt lat="46.50045" lon="-1.81476">
        <ele>6.8</ele>
        <time>2021-06-19T16:03:50Z</time>
      </trkpt>
      <trkpt lat="46.50047" lon="-1.81476">
        <ele>6.9</ele>
        <time>2021-06-19T16:03:52Z</time>
      </trkpt>
      <trkpt lat="46.50048" lon="-1.81476">
        <ele>6.9</ele>
        <time>2021-06-19T16:03:53Z</time>
      </trkpt>
      <trkpt lat="46.50049" lon="-1.81476">
        <ele>6.9</ele>
        <time>2021-06-19T16:03:54Z</time>
      </trkpt>
      <trkpt lat="46.5005" lon="-1.81476">
        <ele>6.9</ele>
        <time>2021-06-19T16:03:55Z</time>
      </trkpt>
      <trkpt lat="46.50051" lon="-1.81472">
        <ele>6.9</ele>
        <time>2021-06-19T16:03:57Z</time>
      </trkpt>
      <trkpt lat="46.5005" lon="-1.8147">
        <ele>6.9</ele>
        <time>2021-06-19T16:03:59Z</time>
      </trkpt>
      <trkpt lat="46.5005" lon="-1.81468">
        <ele>6.9</ele>
        <time>2021-06-19T16:04:01Z</time>
      </trkpt>
      <trkpt lat="46.5005" lon="-1.81468">
        <ele>6.9</ele>
        <time>2021-06-19T16:04:02Z</time>
      </trkpt>
      <trkpt lat="46.50051" lon="-1.81469">
        <ele>6.9</ele>
        <time>2021-06-19T16:04:04Z</time>
      </trkpt>
      <trkpt lat="46.50052" lon="-1.81469">
        <ele>6.9</ele>
        <time>2021-06-19T16:04:05Z</time>
      </trkpt>
      <trkpt lat="46.50053" lon="-1.8147">
        <ele>6.9</ele>
        <time>2021-06-19T16:04:07Z</time>
      </trkpt>
      <trkpt lat="46.50054" lon="-1.8147">
        <ele>6.9</ele>
        <time>2021-06-19T16:04:08Z</time>
      </trkpt>
      <trkpt lat="46.50056" lon="-1.8147">
        <ele>6.9</ele>
        <time>2021-06-19T16:04:09Z</time>
      </trkpt>
      <trkpt lat="46.50057" lon="-1.8147">
        <ele>6.9</ele>
        <time>2021-06-19T16:04:11Z</time>
      </trkpt>
      <trkpt lat="46.50059" lon="-1.81469">
        <ele>6.9</ele>
        <time>2021-06-19T16:04:12Z</time>
      </trkpt>
      <trkpt lat="46.50061" lon="-1.81469">
        <ele>6.9</ele>
        <time>2021-06-19T16:04:14Z</time>
      </trkpt>
      <trkpt lat="46.50063" lon="-1.81469">
        <ele>6.9</ele>
        <time>2021-06-19T16:04:15Z</time>
      </trkpt>
      <trkpt lat="46.50064" lon="-1.81468">
        <ele>6.9</ele>
        <time>2021-06-19T16:04:16Z</time>
      </trkpt>
      <trkpt lat="46.50065" lon="-1.81468">
        <ele>6.9</ele>
        <time>2021-06-19T16:04:18Z</time>
      </trkpt>
      <trkpt lat="46.50066" lon="-1.81468">
        <ele>6.9</ele>
        <time>2021-06-19T16:04:20Z</time>
      </trkpt>
      <trkpt lat="46.50067" lon="-1.81467">
        <ele>6.9</ele>
        <time>2021-06-19T16:04:21Z</time>
      </trkpt>
      <trkpt lat="46.50068" lon="-1.81467">
        <ele>6.9</ele>
        <time>2021-06-19T16:04:22Z</time>
      </trkpt>
      <trkpt lat="46.50069" lon="-1.81467">
        <ele>6.9</ele>
        <time>2021-06-19T16:04:23Z</time>
      </trkpt>
      <trkpt lat="46.5007" lon="-1.81467">
        <ele>6.9</ele>
        <time>2021-06-19T16:04:24Z</time>
      </trkpt>
      <trkpt lat="46.50072" lon="-1.81467">
        <ele>6.9</ele>
        <time>2021-06-19T16:04:26Z</time>
      </trkpt>
      <trkpt lat="46.50074" lon="-1.81466">
        <ele>6.9</ele>
        <time>2021-06-19T16:04:27Z</time>
      </trkpt>
      <trkpt lat="46.50075" lon="-1.81467">
        <ele>6.9</ele>
        <time>2021-06-19T16:04:28Z</time>
      </trkpt>
      <trkpt lat="46.50077" lon="-1.81466">
        <ele>6.9</ele>
        <time>2021-06-19T16:04:30Z</time>
      </trkpt>
      <trkpt lat="46.50078" lon="-1.81466">
        <ele>6.9</ele>
        <time>2021-06-19T16:04:31Z</time>
      </trkpt>
      <trkpt lat="46.50079" lon="-1.81466">
        <ele>6.9</ele>
        <time>2021-06-19T16:04:32Z</time>
      </trkpt>
      <trkpt lat="46.50081" lon="-1.81465">
        <ele>6.9</ele>
        <time>2021-06-19T16:04:33Z</time>
      </trkpt>
      <trkpt lat="46.50083" lon="-1.81465">
        <ele>6.9</ele>
        <time>2021-06-19T16:04:35Z</time>
      </trkpt>
      <trkpt lat="46.50084" lon="-1.81465">
        <ele>6.9</ele>
        <time>2021-06-19T16:04:37Z</time>
      </trkpt>
      <trkpt lat="46.50084" lon="-1.81465">
        <ele>6.9</ele>
        <time>2021-06-19T16:04:38Z</time>
      </trkpt>
      <trkpt lat="46.50086" lon="-1.81464">
        <ele>6.9</ele>
        <time>2021-06-19T16:04:39Z</time>
      </trkpt>
      <trkpt lat="46.50089" lon="-1.81464">
        <ele>6.9</ele>
        <time>2021-06-19T16:04:41Z</time>
      </trkpt>
      <trkpt lat="46.5009" lon="-1.81464">
        <ele>6.9</ele>
        <time>2021-06-19T16:04:42Z</time>
      </trkpt>
      <trkpt lat="46.50091" lon="-1.81464">
        <ele>6.9</ele>
        <time>2021-06-19T16:04:43Z</time>
      </trkpt>
      <trkpt lat="46.50093" lon="-1.81464">
        <ele>6.9</ele>
        <time>2021-06-19T16:04:45Z</time>
      </trkpt>
      <trkpt lat="46.50094" lon="-1.81464">
        <ele>6.9</ele>
        <time>2021-06-19T16:04:46Z</time>
      </trkpt>
      <trkpt lat="46.50095" lon="-1.81464">
        <ele>7</ele>
        <time>2021-06-19T16:04:47Z</time>
      </trkpt>
      <trkpt lat="46.50097" lon="-1.81463">
        <ele>7</ele>
        <time>2021-06-19T16:04:48Z</time>
      </trkpt>
      <trkpt lat="46.50098" lon="-1.81463">
        <ele>7</ele>
        <time>2021-06-19T16:04:49Z</time>
      </trkpt>
      <trkpt lat="46.50099" lon="-1.81464">
        <ele>7</ele>
        <time>2021-06-19T16:04:50Z</time>
      </trkpt>
      <trkpt lat="46.50103" lon="-1.81463">
        <ele>7</ele>
        <time>2021-06-19T16:04:52Z</time>
      </trkpt>
      <trkpt lat="46.50104" lon="-1.81464">
        <ele>7</ele>
        <time>2021-06-19T16:04:53Z</time>
      </trkpt>
      <trkpt lat="46.50105" lon="-1.81464">
        <ele>7</ele>
        <time>2021-06-19T16:04:54Z</time>
      </trkpt>
      <trkpt lat="46.50108" lon="-1.81463">
        <ele>7</ele>
        <time>2021-06-19T16:04:56Z</time>
      </trkpt>
      <trkpt lat="46.5011" lon="-1.81463">
        <ele>7</ele>
        <time>2021-06-19T16:04:58Z</time>
      </trkpt>
      <trkpt lat="46.50112" lon="-1.81463">
        <ele>7</ele>
        <time>2021-06-19T16:04:59Z</time>
      </trkpt>
      <trkpt lat="46.50113" lon="-1.81463">
        <ele>7</ele>
        <time>2021-06-19T16:05:00Z</time>
      </trkpt>
      <trkpt lat="46.50115" lon="-1.81463">
        <ele>7</ele>
        <time>2021-06-19T16:05:01Z</time>
      </trkpt>
      <trkpt lat="46.50117" lon="-1.81464">
        <ele>7</ele>
        <time>2021-06-19T16:05:03Z</time>
      </trkpt>
      <trkpt lat="46.50119" lon="-1.81464">
        <ele>7</ele>
        <time>2021-06-19T16:05:04Z</time>
      </trkpt>
      <trkpt lat="46.5012" lon="-1.81464">
        <ele>7</ele>
        <time>2021-06-19T16:05:05Z</time>
      </trkpt>
      <trkpt lat="46.50122" lon="-1.81464">
        <ele>7.1</ele>
        <time>2021-06-19T16:05:06Z</time>
      </trkpt>
      <trkpt lat="46.50125" lon="-1.81464">
        <ele>7.1</ele>
        <time>2021-06-19T16:05:08Z</time>
      </trkpt>
      <trkpt lat="46.50126" lon="-1.81464">
        <ele>7.1</ele>
        <time>2021-06-19T16:05:09Z</time>
      </trkpt>
      <trkpt lat="46.50128" lon="-1.81464">
        <ele>7.1</ele>
        <time>2021-06-19T16:05:10Z</time>
      </trkpt>
      <trkpt lat="46.50129" lon="-1.81464">
        <ele>7.1</ele>
        <time>2021-06-19T16:05:12Z</time>
      </trkpt>
      <trkpt lat="46.5013" lon="-1.81464">
        <ele>7.1</ele>
        <time>2021-06-19T16:05:13Z</time>
      </trkpt>
      <trkpt lat="46.50132" lon="-1.81464">
        <ele>7.1</ele>
        <time>2021-06-19T16:05:14Z</time>
      </trkpt>
      <trkpt lat="46.50133" lon="-1.81463">
        <ele>7.1</ele>
        <time>2021-06-19T16:05:15Z</time>
      </trkpt>
      <trkpt lat="46.50134" lon="-1.81463">
        <ele>7.1</ele>
        <time>2021-06-19T16:05:16Z</time>
      </trkpt>
      <trkpt lat="46.50135" lon="-1.81462">
        <ele>7.1</ele>
        <time>2021-06-19T16:05:18Z</time>
      </trkpt>
      <trkpt lat="46.50136" lon="-1.81461">
        <ele>7.1</ele>
        <time>2021-06-19T16:05:19Z</time>
      </trkpt>
      <trkpt lat="46.50137" lon="-1.81461">
        <ele>7.1</ele>
        <time>2021-06-19T16:05:20Z</time>
      </trkpt>
      <trkpt lat="46.50139" lon="-1.8146">
        <ele>7.1</ele>
        <time>2021-06-19T16:05:21Z</time>
      </trkpt>
      <trkpt lat="46.50142" lon="-1.81459">
        <ele>7</ele>
        <time>2021-06-19T16:05:23Z</time>
      </trkpt>
      <trkpt lat="46.50143" lon="-1.81458">
        <ele>7</ele>
        <time>2021-06-19T16:05:24Z</time>
      </trkpt>
      <trkpt lat="46.50145" lon="-1.81458">
        <ele>7</ele>
        <time>2021-06-19T16:05:25Z</time>
      </trkpt>
      <trkpt lat="46.50146" lon="-1.81457">
        <ele>7</ele>
        <time>2021-06-19T16:05:26Z</time>
      </trkpt>
      <trkpt lat="46.50148" lon="-1.81457">
        <ele>7</ele>
        <time>2021-06-19T16:05:28Z</time>
      </trkpt>
      <trkpt lat="46.5015" lon="-1.81456">
        <ele>7</ele>
        <time>2021-06-19T16:05:29Z</time>
      </trkpt>
      <trkpt lat="46.50151" lon="-1.81456">
        <ele>7</ele>
        <time>2021-06-19T16:05:30Z</time>
      </trkpt>
      <trkpt lat="46.50154" lon="-1.81455">
        <ele>7</ele>
        <time>2021-06-19T16:05:32Z</time>
      </trkpt>
      <trkpt lat="46.50155" lon="-1.81455">
        <ele>7</ele>
        <time>2021-06-19T16:05:33Z</time>
      </trkpt>
      <trkpt lat="46.50157" lon="-1.81454">
        <ele>7</ele>
        <time>2021-06-19T16:05:35Z</time>
      </trkpt>
      <trkpt lat="46.50158" lon="-1.81454">
        <ele>7</ele>
        <time>2021-06-19T16:05:36Z</time>
      </trkpt>
      <trkpt lat="46.50161" lon="-1.81453">
        <ele>7</ele>
        <time>2021-06-19T16:05:38Z</time>
      </trkpt>
      <trkpt lat="46.50163" lon="-1.81453">
        <ele>7.1</ele>
        <time>2021-06-19T16:05:39Z</time>
      </trkpt>
      <trkpt lat="46.50164" lon="-1.81452">
        <ele>7.1</ele>
        <time>2021-06-19T16:05:40Z</time>
      </trkpt>
      <trkpt lat="46.50166" lon="-1.81452">
        <ele>7.1</ele>
        <time>2021-06-19T16:05:41Z</time>
      </trkpt>
      <trkpt lat="46.50168" lon="-1.81451">
        <ele>7.1</ele>
        <time>2021-06-19T16:05:43Z</time>
      </trkpt>
      <trkpt lat="46.5017" lon="-1.81451">
        <ele>7.2</ele>
        <time>2021-06-19T16:05:44Z</time>
      </trkpt>
      <trkpt lat="46.50171" lon="-1.81451">
        <ele>7.2</ele>
        <time>2021-06-19T16:05:45Z</time>
      </trkpt>
      <trkpt lat="46.50172" lon="-1.8145">
        <ele>7.2</ele>
        <time>2021-06-19T16:05:46Z</time>
      </trkpt>
      <trkpt lat="46.50174" lon="-1.8145">
        <ele>7.2</ele>
        <time>2021-06-19T16:05:47Z</time>
      </trkpt>
      <trkpt lat="46.50176" lon="-1.8145">
        <ele>7.3</ele>
        <time>2021-06-19T16:05:49Z</time>
      </trkpt>
      <trkpt lat="46.50177" lon="-1.8145">
        <ele>7.3</ele>
        <time>2021-06-19T16:05:50Z</time>
      </trkpt>
      <trkpt lat="46.50179" lon="-1.8145">
        <ele>7.4</ele>
        <time>2021-06-19T16:05:51Z</time>
      </trkpt>
      <trkpt lat="46.50182" lon="-1.8145">
        <ele>7.5</ele>
        <time>2021-06-19T16:05:53Z</time>
      </trkpt>
      <trkpt lat="46.50183" lon="-1.81449">
        <ele>7.5</ele>
        <time>2021-06-19T16:05:54Z</time>
      </trkpt>
      <trkpt lat="46.50185" lon="-1.81449">
        <ele>7.5</ele>
        <time>2021-06-19T16:05:56Z</time>
      </trkpt>
      <trkpt lat="46.50187" lon="-1.81449">
        <ele>7.6</ele>
        <time>2021-06-19T16:05:57Z</time>
      </trkpt>
      <trkpt lat="46.50188" lon="-1.81449">
        <ele>7.6</ele>
        <time>2021-06-19T16:05:58Z</time>
      </trkpt>
      <trkpt lat="46.5019" lon="-1.81449">
        <ele>7.7</ele>
        <time>2021-06-19T16:05:59Z</time>
      </trkpt>
      <trkpt lat="46.50193" lon="-1.81449">
        <ele>7.8</ele>
        <time>2021-06-19T16:06:01Z</time>
      </trkpt>
      <trkpt lat="46.50194" lon="-1.81449">
        <ele>7.8</ele>
        <time>2021-06-19T16:06:03Z</time>
      </trkpt>
      <trkpt lat="46.50196" lon="-1.81448">
        <ele>7.8</ele>
        <time>2021-06-19T16:06:04Z</time>
      </trkpt>
      <trkpt lat="46.50198" lon="-1.81448">
        <ele>7.9</ele>
        <time>2021-06-19T16:06:05Z</time>
      </trkpt>
      <trkpt lat="46.50199" lon="-1.81446">
        <ele>7.9</ele>
        <time>2021-06-19T16:06:06Z</time>
      </trkpt>
      <trkpt lat="46.502" lon="-1.81445">
        <ele>7.9</ele>
        <time>2021-06-19T16:06:07Z</time>
      </trkpt>
      <trkpt lat="46.502" lon="-1.81443">
        <ele>7.9</ele>
        <time>2021-06-19T16:06:09Z</time>
      </trkpt>
      <trkpt lat="46.50201" lon="-1.81442">
        <ele>8</ele>
        <time>2021-06-19T16:06:10Z</time>
      </trkpt>
      <trkpt lat="46.50202" lon="-1.81442">
        <ele>8</ele>
        <time>2021-06-19T16:06:11Z</time>
      </trkpt>
      <trkpt lat="46.50204" lon="-1.81441">
        <ele>8</ele>
        <time>2021-06-19T16:06:13Z</time>
      </trkpt>
      <trkpt lat="46.50206" lon="-1.81441">
        <ele>8</ele>
        <time>2021-06-19T16:06:14Z</time>
      </trkpt>
      <trkpt lat="46.50208" lon="-1.81441">
        <ele>8</ele>
        <time>2021-06-19T16:06:16Z</time>
      </trkpt>
      <trkpt lat="46.5021" lon="-1.81439">
        <ele>8.1</ele>
        <time>2021-06-19T16:06:17Z</time>
      </trkpt>
      <trkpt lat="46.50213" lon="-1.81438">
        <ele>8.1</ele>
        <time>2021-06-19T16:06:19Z</time>
      </trkpt>
      <trkpt lat="46.50214" lon="-1.81435">
        <ele>8.1</ele>
        <time>2021-06-19T16:06:21Z</time>
      </trkpt>
      <trkpt lat="46.50214" lon="-1.81435">
        <ele>8.1</ele>
        <time>2021-06-19T16:06:22Z</time>
      </trkpt>
      <trkpt lat="46.50215" lon="-1.81433">
        <ele>8.1</ele>
        <time>2021-06-19T16:06:24Z</time>
      </trkpt>
      <trkpt lat="46.50215" lon="-1.81433">
        <ele>8.1</ele>
        <time>2021-06-19T16:06:26Z</time>
      </trkpt>
      <trkpt lat="46.50215" lon="-1.81434">
        <ele>8.1</ele>
        <time>2021-06-19T16:06:28Z</time>
      </trkpt>
      <trkpt lat="46.50215" lon="-1.81434">
        <ele>8.1</ele>
        <time>2021-06-19T16:06:29Z</time>
      </trkpt>
      <trkpt lat="46.50215" lon="-1.81434">
        <ele>8.1</ele>
        <time>2021-06-19T16:06:30Z</time>
      </trkpt>
      <trkpt lat="46.50215" lon="-1.81435">
        <ele>8.1</ele>
        <time>2021-06-19T16:06:32Z</time>
      </trkpt>
      <trkpt lat="46.50215" lon="-1.81435">
        <ele>8.1</ele>
        <time>2021-06-19T16:06:33Z</time>
      </trkpt>
      <trkpt lat="46.50215" lon="-1.81436">
        <ele>8.1</ele>
        <time>2021-06-19T16:06:35Z</time>
      </trkpt>
      <trkpt lat="46.50216" lon="-1.81435">
        <ele>8.1</ele>
        <time>2021-06-19T16:06:36Z</time>
      </trkpt>
      <trkpt lat="46.50217" lon="-1.81434">
        <ele>8.1</ele>
        <time>2021-06-19T16:06:37Z</time>
      </trkpt>
      <trkpt lat="46.50217" lon="-1.81433">
        <ele>8.1</ele>
        <time>2021-06-19T16:06:38Z</time>
      </trkpt>
      <trkpt lat="46.50217" lon="-1.81433">
        <ele>8.1</ele>
        <time>2021-06-19T16:06:39Z</time>
      </trkpt>
      <trkpt lat="46.50217" lon="-1.81433">
        <ele>8.1</ele>
        <time>2021-06-19T16:06:40Z</time>
      </trkpt>
      <trkpt lat="46.50217" lon="-1.81433">
        <ele>8.1</ele>
        <time>2021-06-19T16:06:41Z</time>
      </trkpt>
      <trkpt lat="46.50217" lon="-1.81433">
        <ele>8.1</ele>
        <time>2021-06-19T16:06:42Z</time>
      </trkpt>
      <trkpt lat="46.50217" lon="-1.81433">
        <ele>8.1</ele>
        <time>2021-06-19T16:06:44Z</time>
      </trkpt>
      <trkpt lat="46.50217" lon="-1.81433">
        <ele>8.1</ele>
        <time>2021-06-19T16:06:45Z</time>
      </trkpt>
      <trkpt lat="46.50217" lon="-1.81433">
        <ele>8.1</ele>
        <time>2021-06-19T16:06:46Z</time>
      </trkpt>
      <trkpt lat="46.50217" lon="-1.81433">
        <ele>8.1</ele>
        <time>2021-06-19T16:06:48Z</time>
      </trkpt>
      <trkpt lat="46.50217" lon="-1.81433">
        <ele>8.1</ele>
        <time>2021-06-19T16:06:49Z</time>
      </trkpt>
      <trkpt lat="46.50218" lon="-1.81433">
        <ele>8.1</ele>
        <time>2021-06-19T16:06:51Z</time>
      </trkpt>
      <trkpt lat="46.50219" lon="-1.81433">
        <ele>8.1</ele>
        <time>2021-06-19T16:06:53Z</time>
      </trkpt>
      <trkpt lat="46.5022" lon="-1.81433">
        <ele>8.1</ele>
        <time>2021-06-19T16:06:54Z</time>
      </trkpt>
      <trkpt lat="46.5022" lon="-1.81433">
        <ele>8.1</ele>
        <time>2021-06-19T16:06:55Z</time>
      </trkpt>
      <trkpt lat="46.5022" lon="-1.81433">
        <ele>8.1</ele>
        <time>2021-06-19T16:06:56Z</time>
      </trkpt>
      <trkpt lat="46.50222" lon="-1.81433">
        <ele>8.1</ele>
        <time>2021-06-19T16:06:57Z</time>
      </trkpt>
      <trkpt lat="46.50223" lon="-1.81433">
        <ele>8.1</ele>
        <time>2021-06-19T16:06:59Z</time>
      </trkpt>
      <trkpt lat="46.50224" lon="-1.81434">
        <ele>8.1</ele>
        <time>2021-06-19T16:07:00Z</time>
      </trkpt>
      <trkpt lat="46.50225" lon="-1.81434">
        <ele>8.1</ele>
        <time>2021-06-19T16:07:01Z</time>
      </trkpt>
      <trkpt lat="46.50227" lon="-1.81434">
        <ele>8.1</ele>
        <time>2021-06-19T16:07:03Z</time>
      </trkpt>
      <trkpt lat="46.50227" lon="-1.81435">
        <ele>8</ele>
        <time>2021-06-19T16:07:04Z</time>
      </trkpt>
      <trkpt lat="46.50228" lon="-1.81436">
        <ele>8</ele>
        <time>2021-06-19T16:07:06Z</time>
      </trkpt>
      <trkpt lat="46.50229" lon="-1.81436">
        <ele>8</ele>
        <time>2021-06-19T16:07:07Z</time>
      </trkpt>
      <trkpt lat="46.5023" lon="-1.81436">
        <ele>8</ele>
        <time>2021-06-19T16:07:08Z</time>
      </trkpt>
      <trkpt lat="46.5023" lon="-1.81433">
        <ele>8</ele>
        <time>2021-06-19T16:07:09Z</time>
      </trkpt>
      <trkpt lat="46.50231" lon="-1.81432">
        <ele>8</ele>
        <time>2021-06-19T16:07:11Z</time>
      </trkpt>
      <trkpt lat="46.50231" lon="-1.81431">
        <ele>8</ele>
        <time>2021-06-19T16:07:12Z</time>
      </trkpt>
      <trkpt lat="46.50232" lon="-1.81429">
        <ele>8</ele>
        <time>2021-06-19T16:07:13Z</time>
      </trkpt>
      <trkpt lat="46.50232" lon="-1.81426">
        <ele>7.9</ele>
        <time>2021-06-19T16:07:14Z</time>
      </trkpt>
      <trkpt lat="46.50234" lon="-1.81424">
        <ele>7.9</ele>
        <time>2021-06-19T16:07:16Z</time>
      </trkpt>
      <trkpt lat="46.50235" lon="-1.81422">
        <ele>7.9</ele>
        <time>2021-06-19T16:07:17Z</time>
      </trkpt>
      <trkpt lat="46.50236" lon="-1.81421">
        <ele>7.9</ele>
        <time>2021-06-19T16:07:18Z</time>
      </trkpt>
      <trkpt lat="46.50236" lon="-1.8142">
        <ele>7.8</ele>
        <time>2021-06-19T16:07:19Z</time>
      </trkpt>
      <trkpt lat="46.50238" lon="-1.81419">
        <ele>7.8</ele>
        <time>2021-06-19T16:07:21Z</time>
      </trkpt>
      <trkpt lat="46.50238" lon="-1.81418">
        <ele>7.8</ele>
        <time>2021-06-19T16:07:22Z</time>
      </trkpt>
      <trkpt lat="46.5024" lon="-1.81418">
        <ele>7.8</ele>
        <time>2021-06-19T16:07:23Z</time>
      </trkpt>
      <trkpt lat="46.50241" lon="-1.81418">
        <ele>7.8</ele>
        <time>2021-06-19T16:07:24Z</time>
      </trkpt>
      <trkpt lat="46.50244" lon="-1.81416">
        <ele>7.7</ele>
        <time>2021-06-19T16:07:26Z</time>
      </trkpt>
      <trkpt lat="46.50245" lon="-1.81416">
        <ele>7.7</ele>
        <time>2021-06-19T16:07:27Z</time>
      </trkpt>
      <trkpt lat="46.50249" lon="-1.81414">
        <ele>7.7</ele>
        <time>2021-06-19T16:07:28Z</time>
      </trkpt>
      <trkpt lat="46.5025" lon="-1.81414">
        <ele>7.6</ele>
        <time>2021-06-19T16:07:29Z</time>
      </trkpt>
      <trkpt lat="46.50251" lon="-1.81413">
        <ele>7.6</ele>
        <time>2021-06-19T16:07:30Z</time>
      </trkpt>
      <trkpt lat="46.50253" lon="-1.81413">
        <ele>7.6</ele>
        <time>2021-06-19T16:07:31Z</time>
      </trkpt>
      <trkpt lat="46.50255" lon="-1.81412">
        <ele>7.6</ele>
        <time>2021-06-19T16:07:32Z</time>
      </trkpt>
      <trkpt lat="46.50256" lon="-1.81411">
        <ele>7.6</ele>
        <time>2021-06-19T16:07:34Z</time>
      </trkpt>
      <trkpt lat="46.50257" lon="-1.81411">
        <ele>7.6</ele>
        <time>2021-06-19T16:07:36Z</time>
      </trkpt>
      <trkpt lat="46.50258" lon="-1.8141">
        <ele>7.6</ele>
        <time>2021-06-19T16:07:37Z</time>
      </trkpt>
      <trkpt lat="46.50259" lon="-1.81409">
        <ele>7.6</ele>
        <time>2021-06-19T16:07:38Z</time>
      </trkpt>
      <trkpt lat="46.5026" lon="-1.81409">
        <ele>7.6</ele>
        <time>2021-06-19T16:07:39Z</time>
      </trkpt>
      <trkpt lat="46.50262" lon="-1.8141">
        <ele>7.5</ele>
        <time>2021-06-19T16:07:41Z</time>
      </trkpt>
      <trkpt lat="46.50264" lon="-1.81411">
        <ele>7.4</ele>
        <time>2021-06-19T16:07:43Z</time>
      </trkpt>
      <trkpt lat="46.50267" lon="-1.81412">
        <ele>7.4</ele>
        <time>2021-06-19T16:07:44Z</time>
      </trkpt>
      <trkpt lat="46.50268" lon="-1.81412">
        <ele>7.3</ele>
        <time>2021-06-19T16:07:45Z</time>
      </trkpt>
      <trkpt lat="46.50269" lon="-1.81413">
        <ele>7.3</ele>
        <time>2021-06-19T16:07:46Z</time>
      </trkpt>
      <trkpt lat="46.50272" lon="-1.81415">
        <ele>7.2</ele>
        <time>2021-06-19T16:07:48Z</time>
      </trkpt>
      <trkpt lat="46.50276" lon="-1.81417">
        <ele>7.1</ele>
        <time>2021-06-19T16:07:49Z</time>
      </trkpt>
      <trkpt lat="46.50277" lon="-1.81418">
        <ele>7.1</ele>
        <time>2021-06-19T16:07:50Z</time>
      </trkpt>
      <trkpt lat="46.50281" lon="-1.8142">
        <ele>7</ele>
        <time>2021-06-19T16:07:51Z</time>
      </trkpt>
      <trkpt lat="46.50282" lon="-1.81422">
        <ele>7</ele>
        <time>2021-06-19T16:07:52Z</time>
      </trkpt>
      <trkpt lat="46.50284" lon="-1.81423">
        <ele>7</ele>
        <time>2021-06-19T16:07:53Z</time>
      </trkpt>
      <trkpt lat="46.50287" lon="-1.81424">
        <ele>6.9</ele>
        <time>2021-06-19T16:07:55Z</time>
      </trkpt>
      <trkpt lat="46.50289" lon="-1.81425">
        <ele>6.9</ele>
        <time>2021-06-19T16:07:57Z</time>
      </trkpt>
      <trkpt lat="46.50291" lon="-1.81426">
        <ele>6.9</ele>
        <time>2021-06-19T16:07:58Z</time>
      </trkpt>
      <trkpt lat="46.50292" lon="-1.81426">
        <ele>6.9</ele>
        <time>2021-06-19T16:07:59Z</time>
      </trkpt>
      <trkpt lat="46.50294" lon="-1.81427">
        <ele>6.9</ele>
        <time>2021-06-19T16:08:00Z</time>
      </trkpt>
      <trkpt lat="46.50297" lon="-1.81429">
        <ele>6.8</ele>
        <time>2021-06-19T16:08:01Z</time>
      </trkpt>
      <trkpt lat="46.50299" lon="-1.81429">
        <ele>6.8</ele>
        <time>2021-06-19T16:08:02Z</time>
      </trkpt>
      <trkpt lat="46.50301" lon="-1.81431">
        <ele>6.8</ele>
        <time>2021-06-19T16:08:04Z</time>
      </trkpt>
      <trkpt lat="46.50302" lon="-1.81431">
        <ele>6.8</ele>
        <time>2021-06-19T16:08:05Z</time>
      </trkpt>
      <trkpt lat="46.50306" lon="-1.81432">
        <ele>6.9</ele>
        <time>2021-06-19T16:08:06Z</time>
      </trkpt>
      <trkpt lat="46.50307" lon="-1.81432">
        <ele>6.9</ele>
        <time>2021-06-19T16:08:07Z</time>
      </trkpt>
      <trkpt lat="46.50311" lon="-1.81432">
        <ele>6.9</ele>
        <time>2021-06-19T16:08:08Z</time>
      </trkpt>
      <trkpt lat="46.50313" lon="-1.81432">
        <ele>6.9</ele>
        <time>2021-06-19T16:08:09Z</time>
      </trkpt>
      <trkpt lat="46.50315" lon="-1.81432">
        <ele>6.9</ele>
        <time>2021-06-19T16:08:10Z</time>
      </trkpt>
      <trkpt lat="46.50317" lon="-1.81432">
        <ele>6.9</ele>
        <time>2021-06-19T16:08:11Z</time>
      </trkpt>
      <trkpt lat="46.50318" lon="-1.81432">
        <ele>6.9</ele>
        <time>2021-06-19T16:08:12Z</time>
      </trkpt>
      <trkpt lat="46.5032" lon="-1.81433">
        <ele>6.9</ele>
        <time>2021-06-19T16:08:14Z</time>
      </trkpt>
      <trkpt lat="46.50322" lon="-1.81434">
        <ele>6.9</ele>
        <time>2021-06-19T16:08:15Z</time>
      </trkpt>
      <trkpt lat="46.50324" lon="-1.81434">
        <ele>6.9</ele>
        <time>2021-06-19T16:08:17Z</time>
      </trkpt>
      <trkpt lat="46.50326" lon="-1.81433">
        <ele>6.9</ele>
        <time>2021-06-19T16:08:18Z</time>
      </trkpt>
      <trkpt lat="46.50327" lon="-1.81432">
        <ele>6.9</ele>
        <time>2021-06-19T16:08:19Z</time>
      </trkpt>
      <trkpt lat="46.50328" lon="-1.81432">
        <ele>6.9</ele>
        <time>2021-06-19T16:08:20Z</time>
      </trkpt>
      <trkpt lat="46.5033" lon="-1.81433">
        <ele>6.9</ele>
        <time>2021-06-19T16:08:21Z</time>
      </trkpt>
      <trkpt lat="46.50331" lon="-1.81433">
        <ele>6.9</ele>
        <time>2021-06-19T16:08:22Z</time>
      </trkpt>
      <trkpt lat="46.50332" lon="-1.81434">
        <ele>6.9</ele>
        <time>2021-06-19T16:08:23Z</time>
      </trkpt>
      <trkpt lat="46.50334" lon="-1.81435">
        <ele>6.9</ele>
        <time>2021-06-19T16:08:25Z</time>
      </trkpt>
      <trkpt lat="46.50335" lon="-1.81436">
        <ele>6.9</ele>
        <time>2021-06-19T16:08:26Z</time>
      </trkpt>
      <trkpt lat="46.50336" lon="-1.81436">
        <ele>6.9</ele>
        <time>2021-06-19T16:08:27Z</time>
      </trkpt>
      <trkpt lat="46.50337" lon="-1.81437">
        <ele>6.9</ele>
        <time>2021-06-19T16:08:28Z</time>
      </trkpt>
      <trkpt lat="46.50337" lon="-1.81437">
        <ele>6.9</ele>
        <time>2021-06-19T16:08:30Z</time>
      </trkpt>
      <trkpt lat="46.50338" lon="-1.81438">
        <ele>6.9</ele>
        <time>2021-06-19T16:08:31Z</time>
      </trkpt>
      <trkpt lat="46.50339" lon="-1.81438">
        <ele>6.9</ele>
        <time>2021-06-19T16:08:32Z</time>
      </trkpt>
      <trkpt lat="46.5034" lon="-1.81437">
        <ele>6.9</ele>
        <time>2021-06-19T16:08:33Z</time>
      </trkpt>
      <trkpt lat="46.5034" lon="-1.81435">
        <ele>6.9</ele>
        <time>2021-06-19T16:08:34Z</time>
      </trkpt>
      <trkpt lat="46.5034" lon="-1.81433">
        <ele>6.9</ele>
        <time>2021-06-19T16:08:35Z</time>
      </trkpt>
      <trkpt lat="46.50341" lon="-1.81432">
        <ele>6.9</ele>
        <time>2021-06-19T16:08:36Z</time>
      </trkpt>
      <trkpt lat="46.50342" lon="-1.8143">
        <ele>6.9</ele>
        <time>2021-06-19T16:08:37Z</time>
      </trkpt>
      <trkpt lat="46.50343" lon="-1.81429">
        <ele>6.9</ele>
        <time>2021-06-19T16:08:38Z</time>
      </trkpt>
      <trkpt lat="46.50344" lon="-1.81428">
        <ele>6.9</ele>
        <time>2021-06-19T16:08:39Z</time>
      </trkpt>
      <trkpt lat="46.50344" lon="-1.81428">
        <ele>6.9</ele>
        <time>2021-06-19T16:08:40Z</time>
      </trkpt>
      <trkpt lat="46.50345" lon="-1.81425">
        <ele>7</ele>
        <time>2021-06-19T16:08:42Z</time>
      </trkpt>
      <trkpt lat="46.50346" lon="-1.81424">
        <ele>7</ele>
        <time>2021-06-19T16:08:43Z</time>
      </trkpt>
      <trkpt lat="46.50348" lon="-1.81424">
        <ele>7</ele>
        <time>2021-06-19T16:08:44Z</time>
      </trkpt>
      <trkpt lat="46.50349" lon="-1.81423">
        <ele>7.1</ele>
        <time>2021-06-19T16:08:46Z</time>
      </trkpt>
      <trkpt lat="46.50351" lon="-1.81422">
        <ele>7.1</ele>
        <time>2021-06-19T16:08:47Z</time>
      </trkpt>
      <trkpt lat="46.50352" lon="-1.81421">
        <ele>7.1</ele>
        <time>2021-06-19T16:08:48Z</time>
      </trkpt>
      <trkpt lat="46.50353" lon="-1.81419">
        <ele>8.1</ele>
        <time>2021-06-19T16:08:50Z</time>
      </trkpt>
      <trkpt lat="46.50354" lon="-1.81418">
        <ele>7.9</ele>
        <time>2021-06-19T16:08:52Z</time>
      </trkpt>
      <trkpt lat="46.50355" lon="-1.81417">
        <ele>7.9</ele>
        <time>2021-06-19T16:08:53Z</time>
      </trkpt>
      <trkpt lat="46.50356" lon="-1.81418">
        <ele>7.9</ele>
        <time>2021-06-19T16:08:54Z</time>
      </trkpt>
      <trkpt lat="46.50356" lon="-1.8142">
        <ele>7.9</ele>
        <time>2021-06-19T16:08:56Z</time>
      </trkpt>
      <trkpt lat="46.50356" lon="-1.81422">
        <ele>7.8</ele>
        <time>2021-06-19T16:08:57Z</time>
      </trkpt>
      <trkpt lat="46.50356" lon="-1.81422">
        <ele>7.8</ele>
        <time>2021-06-19T16:08:58Z</time>
      </trkpt>
      <trkpt lat="46.50357" lon="-1.81422">
        <ele>7.8</ele>
        <time>2021-06-19T16:08:59Z</time>
      </trkpt>
      <trkpt lat="46.50357" lon="-1.81422">
        <ele>7.8</ele>
        <time>2021-06-19T16:09:01Z</time>
      </trkpt>
      <trkpt lat="46.50358" lon="-1.81421">
        <ele>7.8</ele>
        <time>2021-06-19T16:09:02Z</time>
      </trkpt>
      <trkpt lat="46.50359" lon="-1.8142">
        <ele>7.8</ele>
        <time>2021-06-19T16:09:03Z</time>
      </trkpt>
      <trkpt lat="46.5036" lon="-1.8142">
        <ele>7.8</ele>
        <time>2021-06-19T16:09:04Z</time>
      </trkpt>
      <trkpt lat="46.50361" lon="-1.8142">
        <ele>7.8</ele>
        <time>2021-06-19T16:09:05Z</time>
      </trkpt>
      <trkpt lat="46.50362" lon="-1.8142">
        <ele>7.8</ele>
        <time>2021-06-19T16:09:07Z</time>
      </trkpt>
      <trkpt lat="46.50363" lon="-1.8142">
        <ele>7.8</ele>
        <time>2021-06-19T16:09:08Z</time>
      </trkpt>
      <trkpt lat="46.50364" lon="-1.81421">
        <ele>7.7</ele>
        <time>2021-06-19T16:09:09Z</time>
      </trkpt>
      <trkpt lat="46.50364" lon="-1.81422">
        <ele>7.7</ele>
        <time>2021-06-19T16:09:10Z</time>
      </trkpt>
      <trkpt lat="46.50366" lon="-1.81423">
        <ele>7.7</ele>
        <time>2021-06-19T16:09:12Z</time>
      </trkpt>
      <trkpt lat="46.50367" lon="-1.81423">
        <ele>7.7</ele>
        <time>2021-06-19T16:09:13Z</time>
      </trkpt>
      <trkpt lat="46.50367" lon="-1.81423">
        <ele>7.7</ele>
        <time>2021-06-19T16:09:14Z</time>
      </trkpt>
      <trkpt lat="46.50368" lon="-1.81424">
        <ele>7.7</ele>
        <time>2021-06-19T16:09:15Z</time>
      </trkpt>
      <trkpt lat="46.50368" lon="-1.81425">
        <ele>7.7</ele>
        <time>2021-06-19T16:09:17Z</time>
      </trkpt>
      <trkpt lat="46.50369" lon="-1.81425">
        <ele>7.7</ele>
        <time>2021-06-19T16:09:19Z</time>
      </trkpt>
      <trkpt lat="46.5037" lon="-1.81427">
        <ele>7.6</ele>
        <time>2021-06-19T16:09:20Z</time>
      </trkpt>
      <trkpt lat="46.50371" lon="-1.81428">
        <ele>7.6</ele>
        <time>2021-06-19T16:09:21Z</time>
      </trkpt>
      <trkpt lat="46.50372" lon="-1.81431">
        <ele>7.6</ele>
        <time>2021-06-19T16:09:22Z</time>
      </trkpt>
      <trkpt lat="46.50372" lon="-1.81432">
        <ele>7.6</ele>
        <time>2021-06-19T16:09:24Z</time>
      </trkpt>
      <trkpt lat="46.50372" lon="-1.81434">
        <ele>7.6</ele>
        <time>2021-06-19T16:09:25Z</time>
      </trkpt>
      <trkpt lat="46.50372" lon="-1.81436">
        <ele>7.6</ele>
        <time>2021-06-19T16:09:26Z</time>
      </trkpt>
      <trkpt lat="46.50373" lon="-1.81437">
        <ele>7.6</ele>
        <time>2021-06-19T16:09:27Z</time>
      </trkpt>
      <trkpt lat="46.50373" lon="-1.81439">
        <ele>7.5</ele>
        <time>2021-06-19T16:09:28Z</time>
      </trkpt>
      <trkpt lat="46.50374" lon="-1.81442">
        <ele>7.5</ele>
        <time>2021-06-19T16:09:30Z</time>
      </trkpt>
      <trkpt lat="46.50375" lon="-1.81442">
        <ele>7.5</ele>
        <time>2021-06-19T16:09:31Z</time>
      </trkpt>
      <trkpt lat="46.50375" lon="-1.81443">
        <ele>7.5</ele>
        <time>2021-06-19T16:09:32Z</time>
      </trkpt>
      <trkpt lat="46.50377" lon="-1.81445">
        <ele>7.5</ele>
        <time>2021-06-19T16:09:34Z</time>
      </trkpt>
      <trkpt lat="46.50378" lon="-1.81446">
        <ele>7.5</ele>
        <time>2021-06-19T16:09:35Z</time>
      </trkpt>
      <trkpt lat="46.50378" lon="-1.81448">
        <ele>7.4</ele>
        <time>2021-06-19T16:09:36Z</time>
      </trkpt>
      <trkpt lat="46.50379" lon="-1.81449">
        <ele>7.4</ele>
        <time>2021-06-19T16:09:37Z</time>
      </trkpt>
      <trkpt lat="46.5038" lon="-1.81451">
        <ele>7.4</ele>
        <time>2021-06-19T16:09:39Z</time>
      </trkpt>
      <trkpt lat="46.50381" lon="-1.81452">
        <ele>7.4</ele>
        <time>2021-06-19T16:09:40Z</time>
      </trkpt>
      <trkpt lat="46.50381" lon="-1.81454">
        <ele>7.4</ele>
        <time>2021-06-19T16:09:41Z</time>
      </trkpt>
      <trkpt lat="46.50382" lon="-1.81455">
        <ele>7.4</ele>
        <time>2021-06-19T16:09:42Z</time>
      </trkpt>
      <trkpt lat="46.50383" lon="-1.81458">
        <ele>7.4</ele>
        <time>2021-06-19T16:09:44Z</time>
      </trkpt>
      <trkpt lat="46.50384" lon="-1.81459">
        <ele>7.3</ele>
        <time>2021-06-19T16:09:46Z</time>
      </trkpt>
      <trkpt lat="46.50385" lon="-1.81461">
        <ele>7.3</ele>
        <time>2021-06-19T16:09:47Z</time>
      </trkpt>
      <trkpt lat="46.50385" lon="-1.81462">
        <ele>7.3</ele>
        <time>2021-06-19T16:09:48Z</time>
      </trkpt>
      <trkpt lat="46.50386" lon="-1.81464">
        <ele>7.3</ele>
        <time>2021-06-19T16:09:49Z</time>
      </trkpt>
      <trkpt lat="46.50387" lon="-1.81468">
        <ele>7.3</ele>
        <time>2021-06-19T16:09:51Z</time>
      </trkpt>
      <trkpt lat="46.50388" lon="-1.81469">
        <ele>7.3</ele>
        <time>2021-06-19T16:09:52Z</time>
      </trkpt>
      <trkpt lat="46.50389" lon="-1.81471">
        <ele>7.3</ele>
        <time>2021-06-19T16:09:53Z</time>
      </trkpt>
      <trkpt lat="46.5039" lon="-1.81474">
        <ele>7.2</ele>
        <time>2021-06-19T16:09:55Z</time>
      </trkpt>
      <trkpt lat="46.50391" lon="-1.81476">
        <ele>7.2</ele>
        <time>2021-06-19T16:09:56Z</time>
      </trkpt>
      <trkpt lat="46.50392" lon="-1.81478">
        <ele>7.2</ele>
        <time>2021-06-19T16:09:57Z</time>
      </trkpt>
      <trkpt lat="46.50393" lon="-1.8148">
        <ele>7.2</ele>
        <time>2021-06-19T16:09:58Z</time>
      </trkpt>
      <trkpt lat="46.50394" lon="-1.81483">
        <ele>7.2</ele>
        <time>2021-06-19T16:10:00Z</time>
      </trkpt>
      <trkpt lat="46.50396" lon="-1.81485">
        <ele>7.1</ele>
        <time>2021-06-19T16:10:02Z</time>
      </trkpt>
      <trkpt lat="46.50396" lon="-1.81487">
        <ele>7.1</ele>
        <time>2021-06-19T16:10:03Z</time>
      </trkpt>
      <trkpt lat="46.50397" lon="-1.81489">
        <ele>7.1</ele>
        <time>2021-06-19T16:10:04Z</time>
      </trkpt>
      <trkpt lat="46.50398" lon="-1.81492">
        <ele>7.1</ele>
        <time>2021-06-19T16:10:06Z</time>
      </trkpt>
      <trkpt lat="46.50399" lon="-1.81495">
        <ele>7.1</ele>
        <time>2021-06-19T16:10:08Z</time>
      </trkpt>
      <trkpt lat="46.50399" lon="-1.81496">
        <ele>7.1</ele>
        <time>2021-06-19T16:10:09Z</time>
      </trkpt>
      <trkpt lat="46.504" lon="-1.81497">
        <ele>7.1</ele>
        <time>2021-06-19T16:10:10Z</time>
      </trkpt>
      <trkpt lat="46.504" lon="-1.81498">
        <ele>7.1</ele>
        <time>2021-06-19T16:10:11Z</time>
      </trkpt>
      <trkpt lat="46.504" lon="-1.815">
        <ele>7.1</ele>
        <time>2021-06-19T16:10:12Z</time>
      </trkpt>
      <trkpt lat="46.50401" lon="-1.81501">
        <ele>7.1</ele>
        <time>2021-06-19T16:10:13Z</time>
      </trkpt>
      <trkpt lat="46.50401" lon="-1.81503">
        <ele>7</ele>
        <time>2021-06-19T16:10:14Z</time>
      </trkpt>
      <trkpt lat="46.50402" lon="-1.81504">
        <ele>7</ele>
        <time>2021-06-19T16:10:15Z</time>
      </trkpt>
      <trkpt lat="46.50402" lon="-1.81505">
        <ele>7</ele>
        <time>2021-06-19T16:10:17Z</time>
      </trkpt>
      <trkpt lat="46.50403" lon="-1.81506">
        <ele>7</ele>
        <time>2021-06-19T16:10:18Z</time>
      </trkpt>
      <trkpt lat="46.50403" lon="-1.81507">
        <ele>7</ele>
        <time>2021-06-19T16:10:20Z</time>
      </trkpt>
      <trkpt lat="46.50404" lon="-1.81509">
        <ele>7</ele>
        <time>2021-06-19T16:10:21Z</time>
      </trkpt>
      <trkpt lat="46.50405" lon="-1.8151">
        <ele>7</ele>
        <time>2021-06-19T16:10:22Z</time>
      </trkpt>
      <trkpt lat="46.50405" lon="-1.81512">
        <ele>7</ele>
        <time>2021-06-19T16:10:23Z</time>
      </trkpt>
      <trkpt lat="46.50406" lon="-1.81513">
        <ele>7</ele>
        <time>2021-06-19T16:10:24Z</time>
      </trkpt>
      <trkpt lat="46.50407" lon="-1.81514">
        <ele>6.9</ele>
        <time>2021-06-19T16:10:25Z</time>
      </trkpt>
      <trkpt lat="46.50408" lon="-1.81516">
        <ele>6.9</ele>
        <time>2021-06-19T16:10:26Z</time>
      </trkpt>
      <trkpt lat="46.50409" lon="-1.81517">
        <ele>6.9</ele>
        <time>2021-06-19T16:10:27Z</time>
      </trkpt>
      <trkpt lat="46.5041" lon="-1.81518">
        <ele>6.9</ele>
        <time>2021-06-19T16:10:28Z</time>
      </trkpt>
      <trkpt lat="46.50411" lon="-1.81519">
        <ele>6.9</ele>
        <time>2021-06-19T16:10:30Z</time>
      </trkpt>
      <trkpt lat="46.50412" lon="-1.81521">
        <ele>6.9</ele>
        <time>2021-06-19T16:10:31Z</time>
      </trkpt>
      <trkpt lat="46.50413" lon="-1.81522">
        <ele>6.9</ele>
        <time>2021-06-19T16:10:32Z</time>
      </trkpt>
      <trkpt lat="46.50415" lon="-1.81524">
        <ele>6.8</ele>
        <time>2021-06-19T16:10:34Z</time>
      </trkpt>
      <trkpt lat="46.50416" lon="-1.81525">
        <ele>6.8</ele>
        <time>2021-06-19T16:10:35Z</time>
      </trkpt>
      <trkpt lat="46.50418" lon="-1.81526">
        <ele>6.8</ele>
        <time>2021-06-19T16:10:36Z</time>
      </trkpt>
      <trkpt lat="46.50419" lon="-1.81527">
        <ele>6.8</ele>
        <time>2021-06-19T16:10:37Z</time>
      </trkpt>
      <trkpt lat="46.5042" lon="-1.81528">
        <ele>6.8</ele>
        <time>2021-06-19T16:10:38Z</time>
      </trkpt>
      <trkpt lat="46.50422" lon="-1.8153">
        <ele>6.8</ele>
        <time>2021-06-19T16:10:39Z</time>
      </trkpt>
      <trkpt lat="46.50423" lon="-1.8153">
        <ele>6.8</ele>
        <time>2021-06-19T16:10:40Z</time>
      </trkpt>
      <trkpt lat="46.50423" lon="-1.81531">
        <ele>6.8</ele>
        <time>2021-06-19T16:10:41Z</time>
      </trkpt>
      <trkpt lat="46.50424" lon="-1.81532">
        <ele>6.8</ele>
        <time>2021-06-19T16:10:42Z</time>
      </trkpt>
      <trkpt lat="46.50427" lon="-1.81535">
        <ele>6.8</ele>
        <time>2021-06-19T16:10:44Z</time>
      </trkpt>
      <trkpt lat="46.50428" lon="-1.81537">
        <ele>6.8</ele>
        <time>2021-06-19T16:10:45Z</time>
      </trkpt>
      <trkpt lat="46.50429" lon="-1.81538">
        <ele>6.8</ele>
        <time>2021-06-19T16:10:47Z</time>
      </trkpt>
      <trkpt lat="46.5043" lon="-1.81539">
        <ele>6.8</ele>
        <time>2021-06-19T16:10:48Z</time>
      </trkpt>
      <trkpt lat="46.50431" lon="-1.81541">
        <ele>6.8</ele>
        <time>2021-06-19T16:10:49Z</time>
      </trkpt>
      <trkpt lat="46.50433" lon="-1.81543">
        <ele>6.8</ele>
        <time>2021-06-19T16:10:51Z</time>
      </trkpt>
      <trkpt lat="46.50434" lon="-1.81544">
        <ele>6.8</ele>
        <time>2021-06-19T16:10:52Z</time>
      </trkpt>
      <trkpt lat="46.50435" lon="-1.81546">
        <ele>6.8</ele>
        <time>2021-06-19T16:10:53Z</time>
      </trkpt>
      <trkpt lat="46.50437" lon="-1.81548">
        <ele>6.8</ele>
        <time>2021-06-19T16:10:54Z</time>
      </trkpt>
      <trkpt lat="46.50438" lon="-1.81548">
        <ele>6.8</ele>
        <time>2021-06-19T16:10:55Z</time>
      </trkpt>
      <trkpt lat="46.50439" lon="-1.81549">
        <ele>6.8</ele>
        <time>2021-06-19T16:10:57Z</time>
      </trkpt>
      <trkpt lat="46.50439" lon="-1.8155">
        <ele>6.8</ele>
        <time>2021-06-19T16:10:58Z</time>
      </trkpt>
      <trkpt lat="46.5044" lon="-1.81551">
        <ele>6.8</ele>
        <time>2021-06-19T16:10:59Z</time>
      </trkpt>
      <trkpt lat="46.50441" lon="-1.81552">
        <ele>6.8</ele>
        <time>2021-06-19T16:11:00Z</time>
      </trkpt>
      <trkpt lat="46.50442" lon="-1.81554">
        <ele>6.8</ele>
        <time>2021-06-19T16:11:01Z</time>
      </trkpt>
      <trkpt lat="46.50443" lon="-1.81555">
        <ele>6.8</ele>
        <time>2021-06-19T16:11:02Z</time>
      </trkpt>
      <trkpt lat="46.50444" lon="-1.81556">
        <ele>6.8</ele>
        <time>2021-06-19T16:11:03Z</time>
      </trkpt>
      <trkpt lat="46.50446" lon="-1.81558">
        <ele>6.8</ele>
        <time>2021-06-19T16:11:05Z</time>
      </trkpt>
      <trkpt lat="46.50447" lon="-1.81559">
        <ele>6.8</ele>
        <time>2021-06-19T16:11:06Z</time>
      </trkpt>
      <trkpt lat="46.50449" lon="-1.8156">
        <ele>6.8</ele>
        <time>2021-06-19T16:11:07Z</time>
      </trkpt>
      <trkpt lat="46.50451" lon="-1.81562">
        <ele>6.9</ele>
        <time>2021-06-19T16:11:09Z</time>
      </trkpt>
      <trkpt lat="46.50452" lon="-1.81563">
        <ele>6.9</ele>
        <time>2021-06-19T16:11:10Z</time>
      </trkpt>
      <trkpt lat="46.50453" lon="-1.81564">
        <ele>6.9</ele>
        <time>2021-06-19T16:11:11Z</time>
      </trkpt>
      <trkpt lat="46.50455" lon="-1.81566">
        <ele>6.9</ele>
        <time>2021-06-19T16:11:13Z</time>
      </trkpt>
      <trkpt lat="46.50456" lon="-1.81567">
        <ele>6.9</ele>
        <time>2021-06-19T16:11:14Z</time>
      </trkpt>
      <trkpt lat="46.50457" lon="-1.81568">
        <ele>6.9</ele>
        <time>2021-06-19T16:11:15Z</time>
      </trkpt>
      <trkpt lat="46.50458" lon="-1.81568">
        <ele>6.9</ele>
        <time>2021-06-19T16:11:16Z</time>
      </trkpt>
      <trkpt lat="46.50459" lon="-1.81569">
        <ele>6.9</ele>
        <time>2021-06-19T16:11:17Z</time>
      </trkpt>
      <trkpt lat="46.50461" lon="-1.8157">
        <ele>7</ele>
        <time>2021-06-19T16:11:18Z</time>
      </trkpt>
      <trkpt lat="46.50462" lon="-1.81571">
        <ele>7</ele>
        <time>2021-06-19T16:11:19Z</time>
      </trkpt>
      <trkpt lat="46.50463" lon="-1.81572">
        <ele>7</ele>
        <time>2021-06-19T16:11:20Z</time>
      </trkpt>
      <trkpt lat="46.50464" lon="-1.81572">
        <ele>7</ele>
        <time>2021-06-19T16:11:22Z</time>
      </trkpt>
      <trkpt lat="46.50466" lon="-1.81574">
        <ele>7</ele>
        <time>2021-06-19T16:11:23Z</time>
      </trkpt>
      <trkpt lat="46.50468" lon="-1.81574">
        <ele>7</ele>
        <time>2021-06-19T16:11:24Z</time>
      </trkpt>
      <trkpt lat="46.50468" lon="-1.81575">
        <ele>7</ele>
        <time>2021-06-19T16:11:26Z</time>
      </trkpt>
      <trkpt lat="46.50469" lon="-1.81575">
        <ele>7</ele>
        <time>2021-06-19T16:11:27Z</time>
      </trkpt>
      <trkpt lat="46.50471" lon="-1.81576">
        <ele>7</ele>
        <time>2021-06-19T16:11:28Z</time>
      </trkpt>
      <trkpt lat="46.50473" lon="-1.81578">
        <ele>7.1</ele>
        <time>2021-06-19T16:11:30Z</time>
      </trkpt>
      <trkpt lat="46.50474" lon="-1.81579">
        <ele>7.1</ele>
        <time>2021-06-19T16:11:31Z</time>
      </trkpt>
      <trkpt lat="46.50476" lon="-1.81579">
        <ele>7.1</ele>
        <time>2021-06-19T16:11:32Z</time>
      </trkpt>
      <trkpt lat="46.50477" lon="-1.8158">
        <ele>7.1</ele>
        <time>2021-06-19T16:11:34Z</time>
      </trkpt>
      <trkpt lat="46.50479" lon="-1.81581">
        <ele>7.1</ele>
        <time>2021-06-19T16:11:35Z</time>
      </trkpt>
      <trkpt lat="46.5048" lon="-1.81582">
        <ele>7.1</ele>
        <time>2021-06-19T16:11:36Z</time>
      </trkpt>
      <trkpt lat="46.50481" lon="-1.81583">
        <ele>7.1</ele>
        <time>2021-06-19T16:11:37Z</time>
      </trkpt>
      <trkpt lat="46.50483" lon="-1.81583">
        <ele>7.1</ele>
        <time>2021-06-19T16:11:38Z</time>
      </trkpt>
      <trkpt lat="46.50484" lon="-1.81583">
        <ele>7.2</ele>
        <time>2021-06-19T16:11:40Z</time>
      </trkpt>
      <trkpt lat="46.50485" lon="-1.81584">
        <ele>7.2</ele>
        <time>2021-06-19T16:11:41Z</time>
      </trkpt>
      <trkpt lat="46.50486" lon="-1.81584">
        <ele>7.2</ele>
        <time>2021-06-19T16:11:42Z</time>
      </trkpt>
      <trkpt lat="46.50487" lon="-1.81584">
        <ele>7.2</ele>
        <time>2021-06-19T16:11:43Z</time>
      </trkpt>
      <trkpt lat="46.50488" lon="-1.81584">
        <ele>7.2</ele>
        <time>2021-06-19T16:11:44Z</time>
      </trkpt>
      <trkpt lat="46.50489" lon="-1.81583">
        <ele>7.2</ele>
        <time>2021-06-19T16:11:45Z</time>
      </trkpt>
      <trkpt lat="46.5049" lon="-1.81583">
        <ele>7.2</ele>
        <time>2021-06-19T16:11:46Z</time>
      </trkpt>
      <trkpt lat="46.50491" lon="-1.81582">
        <ele>7.2</ele>
        <time>2021-06-19T16:11:47Z</time>
      </trkpt>
      <trkpt lat="46.50493" lon="-1.81582">
        <ele>7.2</ele>
        <time>2021-06-19T16:11:48Z</time>
      </trkpt>
      <trkpt lat="46.50494" lon="-1.81584">
        <ele>7.2</ele>
        <time>2021-06-19T16:11:50Z</time>
      </trkpt>
      <trkpt lat="46.50495" lon="-1.81585">
        <ele>7.2</ele>
        <time>2021-06-19T16:11:51Z</time>
      </trkpt>
      <trkpt lat="46.50497" lon="-1.81586">
        <ele>7.2</ele>
        <time>2021-06-19T16:11:53Z</time>
      </trkpt>
      <trkpt lat="46.50498" lon="-1.81587">
        <ele>7.3</ele>
        <time>2021-06-19T16:11:54Z</time>
      </trkpt>
      <trkpt lat="46.50499" lon="-1.81588">
        <ele>7.3</ele>
        <time>2021-06-19T16:11:55Z</time>
      </trkpt>
      <trkpt lat="46.505" lon="-1.81589">
        <ele>7.3</ele>
        <time>2021-06-19T16:11:56Z</time>
      </trkpt>
      <trkpt lat="46.50501" lon="-1.8159">
        <ele>7.3</ele>
        <time>2021-06-19T16:11:57Z</time>
      </trkpt>
      <trkpt lat="46.50502" lon="-1.81591">
        <ele>7.3</ele>
        <time>2021-06-19T16:11:58Z</time>
      </trkpt>
      <trkpt lat="46.50503" lon="-1.8159">
        <ele>7.3</ele>
        <time>2021-06-19T16:11:59Z</time>
      </trkpt>
      <trkpt lat="46.50503" lon="-1.81587">
        <ele>7.3</ele>
        <time>2021-06-19T16:12:01Z</time>
      </trkpt>
      <trkpt lat="46.50504" lon="-1.81585">
        <ele>7.3</ele>
        <time>2021-06-19T16:12:03Z</time>
      </trkpt>
      <trkpt lat="46.50504" lon="-1.81584">
        <ele>7.3</ele>
        <time>2021-06-19T16:12:05Z</time>
      </trkpt>
      <trkpt lat="46.50504" lon="-1.81584">
        <ele>7.3</ele>
        <time>2021-06-19T16:12:06Z</time>
      </trkpt>
      <trkpt lat="46.50504" lon="-1.81583">
        <ele>7.3</ele>
        <time>2021-06-19T16:12:08Z</time>
      </trkpt>
      <trkpt lat="46.50506" lon="-1.81584">
        <ele>7.3</ele>
        <time>2021-06-19T16:12:10Z</time>
      </trkpt>
      <trkpt lat="46.50507" lon="-1.81585">
        <ele>7.3</ele>
        <time>2021-06-19T16:12:11Z</time>
      </trkpt>
      <trkpt lat="46.50509" lon="-1.81586">
        <ele>7.4</ele>
        <time>2021-06-19T16:12:12Z</time>
      </trkpt>
      <trkpt lat="46.50511" lon="-1.81586">
        <ele>7.4</ele>
        <time>2021-06-19T16:12:13Z</time>
      </trkpt>
      <trkpt lat="46.50512" lon="-1.81587">
        <ele>7.4</ele>
        <time>2021-06-19T16:12:14Z</time>
      </trkpt>
      <trkpt lat="46.50517" lon="-1.81588">
        <ele>7.4</ele>
        <time>2021-06-19T16:12:16Z</time>
      </trkpt>
      <trkpt lat="46.50518" lon="-1.81589">
        <ele>7.4</ele>
        <time>2021-06-19T16:12:18Z</time>
      </trkpt>
      <trkpt lat="46.50519" lon="-1.8159">
        <ele>7.4</ele>
        <time>2021-06-19T16:12:19Z</time>
      </trkpt>
      <trkpt lat="46.5052" lon="-1.81591">
        <ele>7.4</ele>
        <time>2021-06-19T16:12:20Z</time>
      </trkpt>
      <trkpt lat="46.50522" lon="-1.81593">
        <ele>7.4</ele>
        <time>2021-06-19T16:12:21Z</time>
      </trkpt>
      <trkpt lat="46.50525" lon="-1.81596">
        <ele>7.4</ele>
        <time>2021-06-19T16:12:23Z</time>
      </trkpt>
      <trkpt lat="46.50527" lon="-1.81599">
        <ele>7.4</ele>
        <time>2021-06-19T16:12:25Z</time>
      </trkpt>
      <trkpt lat="46.50529" lon="-1.81602">
        <ele>7.4</ele>
        <time>2021-06-19T16:12:26Z</time>
      </trkpt>
      <trkpt lat="46.5053" lon="-1.81605">
        <ele>7.4</ele>
        <time>2021-06-19T16:12:27Z</time>
      </trkpt>
      <trkpt lat="46.50532" lon="-1.81607">
        <ele>7.4</ele>
        <time>2021-06-19T16:12:29Z</time>
      </trkpt>
      <trkpt lat="46.50533" lon="-1.81609">
        <ele>7.4</ele>
        <time>2021-06-19T16:12:30Z</time>
      </trkpt>
      <trkpt lat="46.50535" lon="-1.81611">
        <ele>7.4</ele>
        <time>2021-06-19T16:12:32Z</time>
      </trkpt>
      <trkpt lat="46.50536" lon="-1.81612">
        <ele>7.4</ele>
        <time>2021-06-19T16:12:33Z</time>
      </trkpt>
      <trkpt lat="46.50536" lon="-1.81613">
        <ele>7.3</ele>
        <time>2021-06-19T16:12:34Z</time>
      </trkpt>
      <trkpt lat="46.50538" lon="-1.81614">
        <ele>7.3</ele>
        <time>2021-06-19T16:12:35Z</time>
      </trkpt>
      <trkpt lat="46.50539" lon="-1.81616">
        <ele>7.3</ele>
        <time>2021-06-19T16:12:36Z</time>
      </trkpt>
      <trkpt lat="46.5054" lon="-1.81618">
        <ele>7.3</ele>
        <time>2021-06-19T16:12:37Z</time>
      </trkpt>
      <trkpt lat="46.50541" lon="-1.8162">
        <ele>7.3</ele>
        <time>2021-06-19T16:12:38Z</time>
      </trkpt>
      <trkpt lat="46.50543" lon="-1.81622">
        <ele>7.3</ele>
        <time>2021-06-19T16:12:39Z</time>
      </trkpt>
      <trkpt lat="46.50544" lon="-1.81623">
        <ele>7.3</ele>
        <time>2021-06-19T16:12:40Z</time>
      </trkpt>
      <trkpt lat="46.50547" lon="-1.81625">
        <ele>7.2</ele>
        <time>2021-06-19T16:12:41Z</time>
      </trkpt>
      <trkpt lat="46.50548" lon="-1.81626">
        <ele>7.2</ele>
        <time>2021-06-19T16:12:43Z</time>
      </trkpt>
      <trkpt lat="46.5055" lon="-1.81627">
        <ele>7.2</ele>
        <time>2021-06-19T16:12:44Z</time>
      </trkpt>
      <trkpt lat="46.50551" lon="-1.81628">
        <ele>7.2</ele>
        <time>2021-06-19T16:12:45Z</time>
      </trkpt>
      <trkpt lat="46.50553" lon="-1.8163">
        <ele>7.2</ele>
        <time>2021-06-19T16:12:46Z</time>
      </trkpt>
      <trkpt lat="46.50555" lon="-1.81633">
        <ele>7.1</ele>
        <time>2021-06-19T16:12:48Z</time>
      </trkpt>
      <trkpt lat="46.50556" lon="-1.81634">
        <ele>7.1</ele>
        <time>2021-06-19T16:12:49Z</time>
      </trkpt>
      <trkpt lat="46.50558" lon="-1.81635">
        <ele>7.1</ele>
        <time>2021-06-19T16:12:50Z</time>
      </trkpt>
      <trkpt lat="46.50559" lon="-1.81637">
        <ele>7.1</ele>
        <time>2021-06-19T16:12:51Z</time>
      </trkpt>
      <trkpt lat="46.5056" lon="-1.81638">
        <ele>7.1</ele>
        <time>2021-06-19T16:12:52Z</time>
      </trkpt>
      <trkpt lat="46.50561" lon="-1.81639">
        <ele>7.1</ele>
        <time>2021-06-19T16:12:53Z</time>
      </trkpt>
      <trkpt lat="46.50562" lon="-1.81641">
        <ele>7</ele>
        <time>2021-06-19T16:12:54Z</time>
      </trkpt>
      <trkpt lat="46.50563" lon="-1.81642">
        <ele>7</ele>
        <time>2021-06-19T16:12:56Z</time>
      </trkpt>
      <trkpt lat="46.50565" lon="-1.81644">
        <ele>7</ele>
        <time>2021-06-19T16:12:57Z</time>
      </trkpt>
      <trkpt lat="46.50566" lon="-1.81645">
        <ele>7</ele>
        <time>2021-06-19T16:12:58Z</time>
      </trkpt>
      <trkpt lat="46.50567" lon="-1.81647">
        <ele>7</ele>
        <time>2021-06-19T16:12:59Z</time>
      </trkpt>
      <trkpt lat="46.50568" lon="-1.81648">
        <ele>7</ele>
        <time>2021-06-19T16:13:00Z</time>
      </trkpt>
      <trkpt lat="46.5057" lon="-1.8165">
        <ele>6.9</ele>
        <time>2021-06-19T16:13:02Z</time>
      </trkpt>
      <trkpt lat="46.50571" lon="-1.81651">
        <ele>6.9</ele>
        <time>2021-06-19T16:13:03Z</time>
      </trkpt>
      <trkpt lat="46.50572" lon="-1.81652">
        <ele>6.9</ele>
        <time>2021-06-19T16:13:04Z</time>
      </trkpt>
      <trkpt lat="46.50574" lon="-1.81652">
        <ele>6.9</ele>
        <time>2021-06-19T16:13:05Z</time>
      </trkpt>
      <trkpt lat="46.50575" lon="-1.81653">
        <ele>6.9</ele>
        <time>2021-06-19T16:13:06Z</time>
      </trkpt>
      <trkpt lat="46.50576" lon="-1.81654">
        <ele>6.9</ele>
        <time>2021-06-19T16:13:07Z</time>
      </trkpt>
      <trkpt lat="46.50578" lon="-1.81655">
        <ele>6.9</ele>
        <time>2021-06-19T16:13:08Z</time>
      </trkpt>
      <trkpt lat="46.5058" lon="-1.81657">
        <ele>6.9</ele>
        <time>2021-06-19T16:13:10Z</time>
      </trkpt>
      <trkpt lat="46.50582" lon="-1.81658">
        <ele>6.9</ele>
        <time>2021-06-19T16:13:11Z</time>
      </trkpt>
      <trkpt lat="46.50583" lon="-1.81658">
        <ele>6.8</ele>
        <time>2021-06-19T16:13:12Z</time>
      </trkpt>
      <trkpt lat="46.50584" lon="-1.81659">
        <ele>6.8</ele>
        <time>2021-06-19T16:13:13Z</time>
      </trkpt>
      <trkpt lat="46.50586" lon="-1.81662">
        <ele>6.8</ele>
        <time>2021-06-19T16:13:15Z</time>
      </trkpt>
      <trkpt lat="46.50586" lon="-1.81662">
        <ele>6.8</ele>
        <time>2021-06-19T16:13:16Z</time>
      </trkpt>
      <trkpt lat="46.50588" lon="-1.81665">
        <ele>6.8</ele>
        <time>2021-06-19T16:13:17Z</time>
      </trkpt>
      <trkpt lat="46.50589" lon="-1.81668">
        <ele>6.8</ele>
        <time>2021-06-19T16:13:19Z</time>
      </trkpt>
      <trkpt lat="46.5059" lon="-1.8167">
        <ele>6.7</ele>
        <time>2021-06-19T16:13:20Z</time>
      </trkpt>
      <trkpt lat="46.5059" lon="-1.81672">
        <ele>6.7</ele>
        <time>2021-06-19T16:13:21Z</time>
      </trkpt>
      <trkpt lat="46.50591" lon="-1.81673">
        <ele>6.7</ele>
        <time>2021-06-19T16:13:22Z</time>
      </trkpt>
      <trkpt lat="46.50593" lon="-1.81675">
        <ele>6.7</ele>
        <time>2021-06-19T16:13:24Z</time>
      </trkpt>
      <trkpt lat="46.50594" lon="-1.81675">
        <ele>6.7</ele>
        <time>2021-06-19T16:13:25Z</time>
      </trkpt>
      <trkpt lat="46.50595" lon="-1.81677">
        <ele>6.7</ele>
        <time>2021-06-19T16:13:26Z</time>
      </trkpt>
      <trkpt lat="46.50598" lon="-1.8168">
        <ele>6.6</ele>
        <time>2021-06-19T16:13:28Z</time>
      </trkpt>
      <trkpt lat="46.50598" lon="-1.81681">
        <ele>6.6</ele>
        <time>2021-06-19T16:13:29Z</time>
      </trkpt>
      <trkpt lat="46.50599" lon="-1.81682">
        <ele>6.6</ele>
        <time>2021-06-19T16:13:30Z</time>
      </trkpt>
      <trkpt lat="46.506" lon="-1.81683">
        <ele>6.6</ele>
        <time>2021-06-19T16:13:31Z</time>
      </trkpt>
      <trkpt lat="46.50601" lon="-1.81681">
        <ele>6.6</ele>
        <time>2021-06-19T16:13:33Z</time>
      </trkpt>
      <trkpt lat="46.50601" lon="-1.81679">
        <ele>6.6</ele>
        <time>2021-06-19T16:13:34Z</time>
      </trkpt>
      <trkpt lat="46.50601" lon="-1.81678">
        <ele>6.5</ele>
        <time>2021-06-19T16:13:35Z</time>
      </trkpt>
      <trkpt lat="46.50602" lon="-1.81678">
        <ele>6.5</ele>
        <time>2021-06-19T16:13:36Z</time>
      </trkpt>
      <trkpt lat="46.50602" lon="-1.81679">
        <ele>6.5</ele>
        <time>2021-06-19T16:13:38Z</time>
      </trkpt>
      <trkpt lat="46.50604" lon="-1.8168">
        <ele>6.5</ele>
        <time>2021-06-19T16:13:39Z</time>
      </trkpt>
      <trkpt lat="46.50606" lon="-1.81682">
        <ele>6.5</ele>
        <time>2021-06-19T16:13:41Z</time>
      </trkpt>
      <trkpt lat="46.50607" lon="-1.81683">
        <ele>6.5</ele>
        <time>2021-06-19T16:13:42Z</time>
      </trkpt>
      <trkpt lat="46.50608" lon="-1.81684">
        <ele>6.5</ele>
        <time>2021-06-19T16:13:44Z</time>
      </trkpt>
      <trkpt lat="46.50609" lon="-1.81685">
        <ele>6.5</ele>
        <time>2021-06-19T16:13:45Z</time>
      </trkpt>
      <trkpt lat="46.50611" lon="-1.81686">
        <ele>6.5</ele>
        <time>2021-06-19T16:13:46Z</time>
      </trkpt>
      <trkpt lat="46.50612" lon="-1.81687">
        <ele>6.5</ele>
        <time>2021-06-19T16:13:47Z</time>
      </trkpt>
      <trkpt lat="46.50614" lon="-1.81688">
        <ele>6.5</ele>
        <time>2021-06-19T16:13:48Z</time>
      </trkpt>
      <trkpt lat="46.50615" lon="-1.81689">
        <ele>6.5</ele>
        <time>2021-06-19T16:13:50Z</time>
      </trkpt>
      <trkpt lat="46.50616" lon="-1.8169">
        <ele>6.5</ele>
        <time>2021-06-19T16:13:51Z</time>
      </trkpt>
      <trkpt lat="46.50617" lon="-1.81691">
        <ele>6.5</ele>
        <time>2021-06-19T16:13:52Z</time>
      </trkpt>
      <trkpt lat="46.50618" lon="-1.81692">
        <ele>6.5</ele>
        <time>2021-06-19T16:13:53Z</time>
      </trkpt>
      <trkpt lat="46.50619" lon="-1.81693">
        <ele>6.4</ele>
        <time>2021-06-19T16:13:54Z</time>
      </trkpt>
      <trkpt lat="46.5062" lon="-1.81694">
        <ele>6.4</ele>
        <time>2021-06-19T16:13:55Z</time>
      </trkpt>
      <trkpt lat="46.50622" lon="-1.81695">
        <ele>6.4</ele>
        <time>2021-06-19T16:13:57Z</time>
      </trkpt>
      <trkpt lat="46.50623" lon="-1.81695">
        <ele>6.4</ele>
        <time>2021-06-19T16:13:58Z</time>
      </trkpt>
      <trkpt lat="46.50624" lon="-1.81695">
        <ele>6.4</ele>
        <time>2021-06-19T16:13:59Z</time>
      </trkpt>
      <trkpt lat="46.50626" lon="-1.81696">
        <ele>6.4</ele>
        <time>2021-06-19T16:14:01Z</time>
      </trkpt>
      <trkpt lat="46.50627" lon="-1.81696">
        <ele>6.4</ele>
        <time>2021-06-19T16:14:02Z</time>
      </trkpt>
      <trkpt lat="46.50628" lon="-1.81696">
        <ele>6.4</ele>
        <time>2021-06-19T16:14:03Z</time>
      </trkpt>
      <trkpt lat="46.50628" lon="-1.81696">
        <ele>6.4</ele>
        <time>2021-06-19T16:14:04Z</time>
      </trkpt>
      <trkpt lat="46.5063" lon="-1.81696">
        <ele>6.4</ele>
        <time>2021-06-19T16:14:06Z</time>
      </trkpt>
      <trkpt lat="46.50632" lon="-1.81696">
        <ele>6.4</ele>
        <time>2021-06-19T16:14:07Z</time>
      </trkpt>
      <trkpt lat="46.50633" lon="-1.81696">
        <ele>6.4</ele>
        <time>2021-06-19T16:14:08Z</time>
      </trkpt>
      <trkpt lat="46.50634" lon="-1.81696">
        <ele>6.4</ele>
        <time>2021-06-19T16:14:09Z</time>
      </trkpt>
      <trkpt lat="46.50635" lon="-1.81697">
        <ele>6.4</ele>
        <time>2021-06-19T16:14:10Z</time>
      </trkpt>
      <trkpt lat="46.50637" lon="-1.81697">
        <ele>6.4</ele>
        <time>2021-06-19T16:14:11Z</time>
      </trkpt>
      <trkpt lat="46.50638" lon="-1.81697">
        <ele>6.4</ele>
        <time>2021-06-19T16:14:12Z</time>
      </trkpt>
      <trkpt lat="46.5064" lon="-1.81698">
        <ele>6.4</ele>
        <time>2021-06-19T16:14:14Z</time>
      </trkpt>
      <trkpt lat="46.50641" lon="-1.81698">
        <ele>6.4</ele>
        <time>2021-06-19T16:14:15Z</time>
      </trkpt>
      <trkpt lat="46.50643" lon="-1.81698">
        <ele>6.4</ele>
        <time>2021-06-19T16:14:16Z</time>
      </trkpt>
      <trkpt lat="46.50644" lon="-1.81699">
        <ele>6.4</ele>
        <time>2021-06-19T16:14:17Z</time>
      </trkpt>
      <trkpt lat="46.50645" lon="-1.81699">
        <ele>6.3</ele>
        <time>2021-06-19T16:14:18Z</time>
      </trkpt>
      <trkpt lat="46.50646" lon="-1.81699">
        <ele>6.3</ele>
        <time>2021-06-19T16:14:19Z</time>
      </trkpt>
      <trkpt lat="46.50648" lon="-1.817">
        <ele>6.3</ele>
        <time>2021-06-19T16:14:21Z</time>
      </trkpt>
      <trkpt lat="46.50649" lon="-1.81701">
        <ele>6.3</ele>
        <time>2021-06-19T16:14:22Z</time>
      </trkpt>
      <trkpt lat="46.5065" lon="-1.81701">
        <ele>6.3</ele>
        <time>2021-06-19T16:14:23Z</time>
      </trkpt>
      <trkpt lat="46.50651" lon="-1.81702">
        <ele>6.3</ele>
        <time>2021-06-19T16:14:24Z</time>
      </trkpt>
      <trkpt lat="46.50652" lon="-1.81702">
        <ele>6.3</ele>
        <time>2021-06-19T16:14:25Z</time>
      </trkpt>
      <trkpt lat="46.50654" lon="-1.81702">
        <ele>6.2</ele>
        <time>2021-06-19T16:14:27Z</time>
      </trkpt>
      <trkpt lat="46.50655" lon="-1.81703">
        <ele>6.2</ele>
        <time>2021-06-19T16:14:28Z</time>
      </trkpt>
      <trkpt lat="46.50657" lon="-1.81703">
        <ele>6.2</ele>
        <time>2021-06-19T16:14:29Z</time>
      </trkpt>
      <trkpt lat="46.50658" lon="-1.81703">
        <ele>6.2</ele>
        <time>2021-06-19T16:14:30Z</time>
      </trkpt>
      <trkpt lat="46.50661" lon="-1.81705">
        <ele>6.2</ele>
        <time>2021-06-19T16:14:32Z</time>
      </trkpt>
      <trkpt lat="46.50662" lon="-1.81705">
        <ele>6.2</ele>
        <time>2021-06-19T16:14:33Z</time>
      </trkpt>
      <trkpt lat="46.50664" lon="-1.81706">
        <ele>6.2</ele>
        <time>2021-06-19T16:14:34Z</time>
      </trkpt>
      <trkpt lat="46.50665" lon="-1.81706">
        <ele>6.1</ele>
        <time>2021-06-19T16:14:35Z</time>
      </trkpt>
      <trkpt lat="46.50666" lon="-1.81707">
        <ele>6.1</ele>
        <time>2021-06-19T16:14:36Z</time>
      </trkpt>
      <trkpt lat="46.50667" lon="-1.81707">
        <ele>6.1</ele>
        <time>2021-06-19T16:14:37Z</time>
      </trkpt>
      <trkpt lat="46.50669" lon="-1.81708">
        <ele>6.1</ele>
        <time>2021-06-19T16:14:39Z</time>
      </trkpt>
      <trkpt lat="46.5067" lon="-1.81708">
        <ele>6.1</ele>
        <time>2021-06-19T16:14:40Z</time>
      </trkpt>
      <trkpt lat="46.50672" lon="-1.81709">
        <ele>6.1</ele>
        <time>2021-06-19T16:14:41Z</time>
      </trkpt>
      <trkpt lat="46.50673" lon="-1.8171">
        <ele>6.1</ele>
        <time>2021-06-19T16:14:42Z</time>
      </trkpt>
      <trkpt lat="46.50674" lon="-1.8171">
        <ele>6.1</ele>
        <time>2021-06-19T16:14:43Z</time>
      </trkpt>
      <trkpt lat="46.50675" lon="-1.81711">
        <ele>6.1</ele>
        <time>2021-06-19T16:14:44Z</time>
      </trkpt>
      <trkpt lat="46.50676" lon="-1.81711">
        <ele>6.1</ele>
        <time>2021-06-19T16:14:45Z</time>
      </trkpt>
      <trkpt lat="46.50679" lon="-1.81712">
        <ele>6.2</ele>
        <time>2021-06-19T16:14:46Z</time>
      </trkpt>
      <trkpt lat="46.5068" lon="-1.81712">
        <ele>6.2</ele>
        <time>2021-06-19T16:14:48Z</time>
      </trkpt>
      <trkpt lat="46.50681" lon="-1.81712">
        <ele>6.2</ele>
        <time>2021-06-19T16:14:49Z</time>
      </trkpt>
      <trkpt lat="46.50682" lon="-1.81712">
        <ele>6.2</ele>
        <time>2021-06-19T16:14:50Z</time>
      </trkpt>
      <trkpt lat="46.50683" lon="-1.81712">
        <ele>6.2</ele>
        <time>2021-06-19T16:14:51Z</time>
      </trkpt>
      <trkpt lat="46.50684" lon="-1.81712">
        <ele>6.2</ele>
        <time>2021-06-19T16:14:52Z</time>
      </trkpt>
      <trkpt lat="46.50686" lon="-1.81713">
        <ele>6.2</ele>
        <time>2021-06-19T16:14:54Z</time>
      </trkpt>
      <trkpt lat="46.50687" lon="-1.81713">
        <ele>6.2</ele>
        <time>2021-06-19T16:14:55Z</time>
      </trkpt>
      <trkpt lat="46.50689" lon="-1.81713">
        <ele>6.2</ele>
        <time>2021-06-19T16:14:56Z</time>
      </trkpt>
      <trkpt lat="46.5069" lon="-1.81713">
        <ele>6.2</ele>
        <time>2021-06-19T16:14:58Z</time>
      </trkpt>
      <trkpt lat="46.50692" lon="-1.81713">
        <ele>6.2</ele>
        <time>2021-06-19T16:14:59Z</time>
      </trkpt>
      <trkpt lat="46.50693" lon="-1.81713">
        <ele>6.3</ele>
        <time>2021-06-19T16:15:00Z</time>
      </trkpt>
      <trkpt lat="46.50697" lon="-1.81713">
        <ele>6.3</ele>
        <time>2021-06-19T16:15:02Z</time>
      </trkpt>
      <trkpt lat="46.50698" lon="-1.81713">
        <ele>6.3</ele>
        <time>2021-06-19T16:15:03Z</time>
      </trkpt>
      <trkpt lat="46.507" lon="-1.81713">
        <ele>6.3</ele>
        <time>2021-06-19T16:15:04Z</time>
      </trkpt>
      <trkpt lat="46.50702" lon="-1.81713">
        <ele>6.3</ele>
        <time>2021-06-19T16:15:05Z</time>
      </trkpt>
      <trkpt lat="46.50703" lon="-1.81714">
        <ele>6.3</ele>
        <time>2021-06-19T16:15:06Z</time>
      </trkpt>
      <trkpt lat="46.50705" lon="-1.81714">
        <ele>6.3</ele>
        <time>2021-06-19T16:15:08Z</time>
      </trkpt>
      <trkpt lat="46.50706" lon="-1.81714">
        <ele>6.3</ele>
        <time>2021-06-19T16:15:09Z</time>
      </trkpt>
      <trkpt lat="46.50708" lon="-1.81715">
        <ele>6.4</ele>
        <time>2021-06-19T16:15:10Z</time>
      </trkpt>
      <trkpt lat="46.5071" lon="-1.81715">
        <ele>6.4</ele>
        <time>2021-06-19T16:15:11Z</time>
      </trkpt>
      <trkpt lat="46.50711" lon="-1.81716">
        <ele>6.4</ele>
        <time>2021-06-19T16:15:12Z</time>
      </trkpt>
      <trkpt lat="46.50713" lon="-1.81716">
        <ele>6.4</ele>
        <time>2021-06-19T16:15:13Z</time>
      </trkpt>
      <trkpt lat="46.50714" lon="-1.81717">
        <ele>6.4</ele>
        <time>2021-06-19T16:15:15Z</time>
      </trkpt>
      <trkpt lat="46.50716" lon="-1.81718">
        <ele>6.4</ele>
        <time>2021-06-19T16:15:16Z</time>
      </trkpt>
      <trkpt lat="46.50717" lon="-1.81718">
        <ele>6.4</ele>
        <time>2021-06-19T16:15:17Z</time>
      </trkpt>
      <trkpt lat="46.50719" lon="-1.81719">
        <ele>6.4</ele>
        <time>2021-06-19T16:15:18Z</time>
      </trkpt>
      <trkpt lat="46.5072" lon="-1.8172">
        <ele>6.4</ele>
        <time>2021-06-19T16:15:19Z</time>
      </trkpt>
      <trkpt lat="46.50722" lon="-1.8172">
        <ele>6.4</ele>
        <time>2021-06-19T16:15:20Z</time>
      </trkpt>
      <trkpt lat="46.50723" lon="-1.81722">
        <ele>6.4</ele>
        <time>2021-06-19T16:15:21Z</time>
      </trkpt>
      <trkpt lat="46.50724" lon="-1.81722">
        <ele>6.4</ele>
        <time>2021-06-19T16:15:22Z</time>
      </trkpt>
      <trkpt lat="46.50725" lon="-1.81723">
        <ele>6.4</ele>
        <time>2021-06-19T16:15:23Z</time>
      </trkpt>
      <trkpt lat="46.50727" lon="-1.81723">
        <ele>6.4</ele>
        <time>2021-06-19T16:15:24Z</time>
      </trkpt>
      <trkpt lat="46.50728" lon="-1.81724">
        <ele>6.4</ele>
        <time>2021-06-19T16:15:26Z</time>
      </trkpt>
      <trkpt lat="46.50729" lon="-1.81724">
        <ele>6.4</ele>
        <time>2021-06-19T16:15:27Z</time>
      </trkpt>
      <trkpt lat="46.5073" lon="-1.81724">
        <ele>6.4</ele>
        <time>2021-06-19T16:15:28Z</time>
      </trkpt>
      <trkpt lat="46.50731" lon="-1.81724">
        <ele>6.4</ele>
        <time>2021-06-19T16:15:29Z</time>
      </trkpt>
      <trkpt lat="46.50733" lon="-1.81725">
        <ele>6.4</ele>
        <time>2021-06-19T16:15:31Z</time>
      </trkpt>
      <trkpt lat="46.50735" lon="-1.81725">
        <ele>6.4</ele>
        <time>2021-06-19T16:15:33Z</time>
      </trkpt>
      <trkpt lat="46.50738" lon="-1.81725">
        <ele>6.4</ele>
        <time>2021-06-19T16:15:35Z</time>
      </trkpt>
      <trkpt lat="46.50739" lon="-1.81725">
        <ele>6.4</ele>
        <time>2021-06-19T16:15:36Z</time>
      </trkpt>
      <trkpt lat="46.5074" lon="-1.81725">
        <ele>6.4</ele>
        <time>2021-06-19T16:15:38Z</time>
      </trkpt>
      <trkpt lat="46.50742" lon="-1.81725">
        <ele>6.4</ele>
        <time>2021-06-19T16:15:39Z</time>
      </trkpt>
      <trkpt lat="46.50743" lon="-1.81725">
        <ele>6.4</ele>
        <time>2021-06-19T16:15:40Z</time>
      </trkpt>
      <trkpt lat="46.50744" lon="-1.81725">
        <ele>6.4</ele>
        <time>2021-06-19T16:15:41Z</time>
      </trkpt>
      <trkpt lat="46.50745" lon="-1.81725">
        <ele>6.4</ele>
        <time>2021-06-19T16:15:42Z</time>
      </trkpt>
      <trkpt lat="46.50747" lon="-1.81726">
        <ele>6.4</ele>
        <time>2021-06-19T16:15:44Z</time>
      </trkpt>
      <trkpt lat="46.50749" lon="-1.81726">
        <ele>6.3</ele>
        <time>2021-06-19T16:15:45Z</time>
      </trkpt>
      <trkpt lat="46.5075" lon="-1.81726">
        <ele>6.3</ele>
        <time>2021-06-19T16:15:46Z</time>
      </trkpt>
      <trkpt lat="46.50752" lon="-1.81727">
        <ele>6.3</ele>
        <time>2021-06-19T16:15:48Z</time>
      </trkpt>
      <trkpt lat="46.50754" lon="-1.81728">
        <ele>6.3</ele>
        <time>2021-06-19T16:15:49Z</time>
      </trkpt>
      <trkpt lat="46.50755" lon="-1.81728">
        <ele>6.3</ele>
        <time>2021-06-19T16:15:50Z</time>
      </trkpt>
      <trkpt lat="46.50757" lon="-1.81729">
        <ele>6.3</ele>
        <time>2021-06-19T16:15:52Z</time>
      </trkpt>
      <trkpt lat="46.50758" lon="-1.81728">
        <ele>6.3</ele>
        <time>2021-06-19T16:15:53Z</time>
      </trkpt>
      <trkpt lat="46.5076" lon="-1.81728">
        <ele>6.3</ele>
        <time>2021-06-19T16:15:55Z</time>
      </trkpt>
      <trkpt lat="46.50762" lon="-1.81727">
        <ele>6.3</ele>
        <time>2021-06-19T16:15:57Z</time>
      </trkpt>
      <trkpt lat="46.50765" lon="-1.81727">
        <ele>6.3</ele>
        <time>2021-06-19T16:15:59Z</time>
      </trkpt>
      <trkpt lat="46.50766" lon="-1.81727">
        <ele>6.3</ele>
        <time>2021-06-19T16:16:00Z</time>
      </trkpt>
      <trkpt lat="46.5077" lon="-1.81727">
        <ele>6.2</ele>
        <time>2021-06-19T16:16:02Z</time>
      </trkpt>
      <trkpt lat="46.50773" lon="-1.81727">
        <ele>6.2</ele>
        <time>2021-06-19T16:16:03Z</time>
      </trkpt>
      <trkpt lat="46.50775" lon="-1.81727">
        <ele>6.2</ele>
        <time>2021-06-19T16:16:05Z</time>
      </trkpt>
      <trkpt lat="46.50777" lon="-1.81727">
        <ele>6.2</ele>
        <time>2021-06-19T16:16:06Z</time>
      </trkpt>
      <trkpt lat="46.50779" lon="-1.81727">
        <ele>6.2</ele>
        <time>2021-06-19T16:16:07Z</time>
      </trkpt>
      <trkpt lat="46.50782" lon="-1.81727">
        <ele>6.2</ele>
        <time>2021-06-19T16:16:09Z</time>
      </trkpt>
      <trkpt lat="46.50783" lon="-1.81727">
        <ele>6.2</ele>
        <time>2021-06-19T16:16:10Z</time>
      </trkpt>
      <trkpt lat="46.50785" lon="-1.81728">
        <ele>6.2</ele>
        <time>2021-06-19T16:16:11Z</time>
      </trkpt>
      <trkpt lat="46.50788" lon="-1.81729">
        <ele>6.2</ele>
        <time>2021-06-19T16:16:13Z</time>
      </trkpt>
      <trkpt lat="46.50789" lon="-1.81729">
        <ele>6.2</ele>
        <time>2021-06-19T16:16:14Z</time>
      </trkpt>
      <trkpt lat="46.50792" lon="-1.81729">
        <ele>6.2</ele>
        <time>2021-06-19T16:16:16Z</time>
      </trkpt>
      <trkpt lat="46.50795" lon="-1.8173">
        <ele>6.2</ele>
        <time>2021-06-19T16:16:17Z</time>
      </trkpt>
      <trkpt lat="46.50796" lon="-1.8173">
        <ele>6.2</ele>
        <time>2021-06-19T16:16:18Z</time>
      </trkpt>
      <trkpt lat="46.508" lon="-1.81731">
        <ele>6.2</ele>
        <time>2021-06-19T16:16:20Z</time>
      </trkpt>
      <trkpt lat="46.50801" lon="-1.81731">
        <ele>6.2</ele>
        <time>2021-06-19T16:16:21Z</time>
      </trkpt>
      <trkpt lat="46.50804" lon="-1.81732">
        <ele>6.2</ele>
        <time>2021-06-19T16:16:22Z</time>
      </trkpt>
      <trkpt lat="46.50804" lon="-1.81733">
        <ele>6.2</ele>
        <time>2021-06-19T16:16:23Z</time>
      </trkpt>
      <trkpt lat="46.50809" lon="-1.81735">
        <ele>6.2</ele>
        <time>2021-06-19T16:16:25Z</time>
      </trkpt>
      <trkpt lat="46.5081" lon="-1.81735">
        <ele>6.2</ele>
        <time>2021-06-19T16:16:27Z</time>
      </trkpt>
      <trkpt lat="46.50811" lon="-1.81736">
        <ele>6.2</ele>
        <time>2021-06-19T16:16:28Z</time>
      </trkpt>
      <trkpt lat="46.50815" lon="-1.81738">
        <ele>6.2</ele>
        <time>2021-06-19T16:16:30Z</time>
      </trkpt>
      <trkpt lat="46.50816" lon="-1.81739">
        <ele>6.2</ele>
        <time>2021-06-19T16:16:31Z</time>
      </trkpt>
      <trkpt lat="46.50817" lon="-1.8174">
        <ele>6.2</ele>
        <time>2021-06-19T16:16:33Z</time>
      </trkpt>
      <trkpt lat="46.50818" lon="-1.81741">
        <ele>6.1</ele>
        <time>2021-06-19T16:16:34Z</time>
      </trkpt>
      <trkpt lat="46.50819" lon="-1.81742">
        <ele>6.1</ele>
        <time>2021-06-19T16:16:35Z</time>
      </trkpt>
      <trkpt lat="46.5082" lon="-1.81743">
        <ele>6.1</ele>
        <time>2021-06-19T16:16:36Z</time>
      </trkpt>
      <trkpt lat="46.50821" lon="-1.81743">
        <ele>6.1</ele>
        <time>2021-06-19T16:16:37Z</time>
      </trkpt>
      <trkpt lat="46.50822" lon="-1.81744">
        <ele>6.1</ele>
        <time>2021-06-19T16:16:38Z</time>
      </trkpt>
      <trkpt lat="46.50822" lon="-1.81745">
        <ele>6.1</ele>
        <time>2021-06-19T16:16:39Z</time>
      </trkpt>
      <trkpt lat="46.50823" lon="-1.81745">
        <ele>6.1</ele>
        <time>2021-06-19T16:16:41Z</time>
      </trkpt>
      <trkpt lat="46.50823" lon="-1.81746">
        <ele>6.1</ele>
        <time>2021-06-19T16:16:42Z</time>
      </trkpt>
      <trkpt lat="46.50824" lon="-1.81746">
        <ele>6.1</ele>
        <time>2021-06-19T16:16:43Z</time>
      </trkpt>
      <trkpt lat="46.50825" lon="-1.81747">
        <ele>6.1</ele>
        <time>2021-06-19T16:16:44Z</time>
      </trkpt>
      <trkpt lat="46.50825" lon="-1.81747">
        <ele>6.1</ele>
        <time>2021-06-19T16:16:46Z</time>
      </trkpt>
      <trkpt lat="46.50825" lon="-1.81747">
        <ele>6.1</ele>
        <time>2021-06-19T16:16:47Z</time>
      </trkpt>
      <trkpt lat="46.50826" lon="-1.81748">
        <ele>6.1</ele>
        <time>2021-06-19T16:16:48Z</time>
      </trkpt>
      <trkpt lat="46.50827" lon="-1.81748">
        <ele>6.1</ele>
        <time>2021-06-19T16:16:49Z</time>
      </trkpt>
      <trkpt lat="46.50828" lon="-1.81749">
        <ele>6.1</ele>
        <time>2021-06-19T16:16:50Z</time>
      </trkpt>
      <trkpt lat="46.50829" lon="-1.8175">
        <ele>6.1</ele>
        <time>2021-06-19T16:16:51Z</time>
      </trkpt>
      <trkpt lat="46.5083" lon="-1.81752">
        <ele>6.1</ele>
        <time>2021-06-19T16:16:52Z</time>
      </trkpt>
      <trkpt lat="46.50832" lon="-1.81753">
        <ele>6.1</ele>
        <time>2021-06-19T16:16:53Z</time>
      </trkpt>
      <trkpt lat="46.50833" lon="-1.81754">
        <ele>6.1</ele>
        <time>2021-06-19T16:16:54Z</time>
      </trkpt>
      <trkpt lat="46.50836" lon="-1.81755">
        <ele>6.1</ele>
        <time>2021-06-19T16:16:55Z</time>
      </trkpt>
      <trkpt lat="46.50837" lon="-1.81756">
        <ele>6</ele>
        <time>2021-06-19T16:16:57Z</time>
      </trkpt>
      <trkpt lat="46.50839" lon="-1.81758">
        <ele>6</ele>
        <time>2021-06-19T16:16:58Z</time>
      </trkpt>
      <trkpt lat="46.5084" lon="-1.81759">
        <ele>6</ele>
        <time>2021-06-19T16:16:59Z</time>
      </trkpt>
      <trkpt lat="46.50841" lon="-1.8176">
        <ele>6</ele>
        <time>2021-06-19T16:17:00Z</time>
      </trkpt>
      <trkpt lat="46.50843" lon="-1.81761">
        <ele>6</ele>
        <time>2021-06-19T16:17:01Z</time>
      </trkpt>
      <trkpt lat="46.50844" lon="-1.81762">
        <ele>6</ele>
        <time>2021-06-19T16:17:02Z</time>
      </trkpt>
      <trkpt lat="46.50845" lon="-1.81763">
        <ele>6</ele>
        <time>2021-06-19T16:17:03Z</time>
      </trkpt>
      <trkpt lat="46.50847" lon="-1.81765">
        <ele>6</ele>
        <time>2021-06-19T16:17:04Z</time>
      </trkpt>
      <trkpt lat="46.50849" lon="-1.81767">
        <ele>6</ele>
        <time>2021-06-19T16:17:06Z</time>
      </trkpt>
      <trkpt lat="46.5085" lon="-1.81767">
        <ele>6</ele>
        <time>2021-06-19T16:17:07Z</time>
      </trkpt>
      <trkpt lat="46.50851" lon="-1.81769">
        <ele>6</ele>
        <time>2021-06-19T16:17:09Z</time>
      </trkpt>
      <trkpt lat="46.50854" lon="-1.81771">
        <ele>6</ele>
        <time>2021-06-19T16:17:11Z</time>
      </trkpt>
      <trkpt lat="46.50855" lon="-1.81772">
        <ele>6</ele>
        <time>2021-06-19T16:17:12Z</time>
      </trkpt>
      <trkpt lat="46.50856" lon="-1.81774">
        <ele>6</ele>
        <time>2021-06-19T16:17:13Z</time>
      </trkpt>
      <trkpt lat="46.50856" lon="-1.81776">
        <ele>6</ele>
        <time>2021-06-19T16:17:15Z</time>
      </trkpt>
      <trkpt lat="46.50857" lon="-1.81777">
        <ele>6</ele>
        <time>2021-06-19T16:17:16Z</time>
      </trkpt>
      <trkpt lat="46.50859" lon="-1.81778">
        <ele>6</ele>
        <time>2021-06-19T16:17:17Z</time>
      </trkpt>
      <trkpt lat="46.50861" lon="-1.81781">
        <ele>6</ele>
        <time>2021-06-19T16:17:19Z</time>
      </trkpt>
      <trkpt lat="46.50862" lon="-1.81781">
        <ele>6</ele>
        <time>2021-06-19T16:17:20Z</time>
      </trkpt>
      <trkpt lat="46.50863" lon="-1.81782">
        <ele>6</ele>
        <time>2021-06-19T16:17:21Z</time>
      </trkpt>
      <trkpt lat="46.50864" lon="-1.81783">
        <ele>6</ele>
        <time>2021-06-19T16:17:22Z</time>
      </trkpt>
      <trkpt lat="46.50867" lon="-1.81784">
        <ele>6</ele>
        <time>2021-06-19T16:17:24Z</time>
      </trkpt>
      <trkpt lat="46.50869" lon="-1.81785">
        <ele>6</ele>
        <time>2021-06-19T16:17:26Z</time>
      </trkpt>
      <trkpt lat="46.5087" lon="-1.81785">
        <ele>6</ele>
        <time>2021-06-19T16:17:27Z</time>
      </trkpt>
      <trkpt lat="46.50871" lon="-1.81786">
        <ele>6</ele>
        <time>2021-06-19T16:17:28Z</time>
      </trkpt>
      <trkpt lat="46.50873" lon="-1.81787">
        <ele>6</ele>
        <time>2021-06-19T16:17:29Z</time>
      </trkpt>
      <trkpt lat="46.50875" lon="-1.81788">
        <ele>6</ele>
        <time>2021-06-19T16:17:31Z</time>
      </trkpt>
      <trkpt lat="46.50876" lon="-1.81788">
        <ele>6</ele>
        <time>2021-06-19T16:17:32Z</time>
      </trkpt>
      <trkpt lat="46.50877" lon="-1.81789">
        <ele>6</ele>
        <time>2021-06-19T16:17:33Z</time>
      </trkpt>
      <trkpt lat="46.50878" lon="-1.8179">
        <ele>6</ele>
        <time>2021-06-19T16:17:34Z</time>
      </trkpt>
      <trkpt lat="46.50879" lon="-1.81791">
        <ele>6</ele>
        <time>2021-06-19T16:17:36Z</time>
      </trkpt>
      <trkpt lat="46.5088" lon="-1.81792">
        <ele>6</ele>
        <time>2021-06-19T16:17:37Z</time>
      </trkpt>
      <trkpt lat="46.50882" lon="-1.81793">
        <ele>6</ele>
        <time>2021-06-19T16:17:38Z</time>
      </trkpt>
      <trkpt lat="46.50884" lon="-1.81794">
        <ele>6</ele>
        <time>2021-06-19T16:17:40Z</time>
      </trkpt>
      <trkpt lat="46.50885" lon="-1.81795">
        <ele>6</ele>
        <time>2021-06-19T16:17:41Z</time>
      </trkpt>
      <trkpt lat="46.50886" lon="-1.81796">
        <ele>6.1</ele>
        <time>2021-06-19T16:17:42Z</time>
      </trkpt>
      <trkpt lat="46.50888" lon="-1.81797">
        <ele>6.1</ele>
        <time>2021-06-19T16:17:44Z</time>
      </trkpt>
      <trkpt lat="46.50889" lon="-1.81798">
        <ele>6.1</ele>
        <time>2021-06-19T16:17:45Z</time>
      </trkpt>
      <trkpt lat="46.5089" lon="-1.81799">
        <ele>6.1</ele>
        <time>2021-06-19T16:17:46Z</time>
      </trkpt>
      <trkpt lat="46.50894" lon="-1.81802">
        <ele>6.1</ele>
        <time>2021-06-19T16:17:48Z</time>
      </trkpt>
      <trkpt lat="46.50895" lon="-1.81803">
        <ele>6.1</ele>
        <time>2021-06-19T16:17:49Z</time>
      </trkpt>
      <trkpt lat="46.50896" lon="-1.81803">
        <ele>6.1</ele>
        <time>2021-06-19T16:17:51Z</time>
      </trkpt>
      <trkpt lat="46.50897" lon="-1.81804">
        <ele>6.1</ele>
        <time>2021-06-19T16:17:52Z</time>
      </trkpt>
      <trkpt lat="46.50898" lon="-1.81805">
        <ele>6.2</ele>
        <time>2021-06-19T16:17:53Z</time>
      </trkpt>
      <trkpt lat="46.50899" lon="-1.81806">
        <ele>6.2</ele>
        <time>2021-06-19T16:17:54Z</time>
      </trkpt>
      <trkpt lat="46.50901" lon="-1.81806">
        <ele>6.2</ele>
        <time>2021-06-19T16:17:55Z</time>
      </trkpt>
      <trkpt lat="46.50902" lon="-1.81807">
        <ele>6.2</ele>
        <time>2021-06-19T16:17:56Z</time>
      </trkpt>
      <trkpt lat="46.50903" lon="-1.81807">
        <ele>6.2</ele>
        <time>2021-06-19T16:17:57Z</time>
      </trkpt>
      <trkpt lat="46.50906" lon="-1.81807">
        <ele>6.2</ele>
        <time>2021-06-19T16:17:59Z</time>
      </trkpt>
      <trkpt lat="46.50906" lon="-1.81808">
        <ele>6.2</ele>
        <time>2021-06-19T16:18:00Z</time>
      </trkpt>
      <trkpt lat="46.50908" lon="-1.81808">
        <ele>6.3</ele>
        <time>2021-06-19T16:18:01Z</time>
      </trkpt>
      <trkpt lat="46.50909" lon="-1.81809">
        <ele>6.3</ele>
        <time>2021-06-19T16:18:02Z</time>
      </trkpt>
      <trkpt lat="46.50911" lon="-1.8181">
        <ele>6.3</ele>
        <time>2021-06-19T16:18:04Z</time>
      </trkpt>
      <trkpt lat="46.50912" lon="-1.8181">
        <ele>6.3</ele>
        <time>2021-06-19T16:18:05Z</time>
      </trkpt>
      <trkpt lat="46.50914" lon="-1.8181">
        <ele>6.3</ele>
        <time>2021-06-19T16:18:06Z</time>
      </trkpt>
      <trkpt lat="46.50915" lon="-1.81811">
        <ele>6.3</ele>
        <time>2021-06-19T16:18:07Z</time>
      </trkpt>
      <trkpt lat="46.50916" lon="-1.81812">
        <ele>6.3</ele>
        <time>2021-06-19T16:18:09Z</time>
      </trkpt>
      <trkpt lat="46.50917" lon="-1.81812">
        <ele>6.4</ele>
        <time>2021-06-19T16:18:10Z</time>
      </trkpt>
      <trkpt lat="46.50919" lon="-1.81813">
        <ele>6.4</ele>
        <time>2021-06-19T16:18:11Z</time>
      </trkpt>
      <trkpt lat="46.5092" lon="-1.81813">
        <ele>6.4</ele>
        <time>2021-06-19T16:18:12Z</time>
      </trkpt>
      <trkpt lat="46.50921" lon="-1.81814">
        <ele>6.4</ele>
        <time>2021-06-19T16:18:13Z</time>
      </trkpt>
      <trkpt lat="46.50922" lon="-1.81814">
        <ele>6.4</ele>
        <time>2021-06-19T16:18:14Z</time>
      </trkpt>
      <trkpt lat="46.50924" lon="-1.81815">
        <ele>6.4</ele>
        <time>2021-06-19T16:18:16Z</time>
      </trkpt>
      <trkpt lat="46.50925" lon="-1.81816">
        <ele>6.4</ele>
        <time>2021-06-19T16:18:17Z</time>
      </trkpt>
      <trkpt lat="46.50927" lon="-1.81817">
        <ele>6.4</ele>
        <time>2021-06-19T16:18:19Z</time>
      </trkpt>
      <trkpt lat="46.50928" lon="-1.81818">
        <ele>6.5</ele>
        <time>2021-06-19T16:18:20Z</time>
      </trkpt>
      <trkpt lat="46.5093" lon="-1.81818">
        <ele>6.5</ele>
        <time>2021-06-19T16:18:21Z</time>
      </trkpt>
      <trkpt lat="46.50932" lon="-1.81819">
        <ele>6.5</ele>
        <time>2021-06-19T16:18:22Z</time>
      </trkpt>
      <trkpt lat="46.50932" lon="-1.8182">
        <ele>6.5</ele>
        <time>2021-06-19T16:18:23Z</time>
      </trkpt>
      <trkpt lat="46.50933" lon="-1.8182">
        <ele>6.5</ele>
        <time>2021-06-19T16:18:24Z</time>
      </trkpt>
      <trkpt lat="46.50934" lon="-1.81821">
        <ele>6.5</ele>
        <time>2021-06-19T16:18:25Z</time>
      </trkpt>
      <trkpt lat="46.50935" lon="-1.81822">
        <ele>6.5</ele>
        <time>2021-06-19T16:18:26Z</time>
      </trkpt>
      <trkpt lat="46.50936" lon="-1.81822">
        <ele>6.5</ele>
        <time>2021-06-19T16:18:27Z</time>
      </trkpt>
      <trkpt lat="46.50937" lon="-1.81823">
        <ele>6.6</ele>
        <time>2021-06-19T16:18:28Z</time>
      </trkpt>
      <trkpt lat="46.50939" lon="-1.81824">
        <ele>6.6</ele>
        <time>2021-06-19T16:18:30Z</time>
      </trkpt>
      <trkpt lat="46.5094" lon="-1.81825">
        <ele>6.6</ele>
        <time>2021-06-19T16:18:31Z</time>
      </trkpt>
      <trkpt lat="46.50941" lon="-1.81826">
        <ele>6.6</ele>
        <time>2021-06-19T16:18:32Z</time>
      </trkpt>
      <trkpt lat="46.50943" lon="-1.81826">
        <ele>6.6</ele>
        <time>2021-06-19T16:18:33Z</time>
      </trkpt>
      <trkpt lat="46.50944" lon="-1.81827">
        <ele>6.6</ele>
        <time>2021-06-19T16:18:35Z</time>
      </trkpt>
      <trkpt lat="46.50946" lon="-1.81828">
        <ele>6.7</ele>
        <time>2021-06-19T16:18:36Z</time>
      </trkpt>
      <trkpt lat="46.50947" lon="-1.81829">
        <ele>6.7</ele>
        <time>2021-06-19T16:18:37Z</time>
      </trkpt>
      <trkpt lat="46.50948" lon="-1.81829">
        <ele>6.7</ele>
        <time>2021-06-19T16:18:38Z</time>
      </trkpt>
      <trkpt lat="46.5095" lon="-1.8183">
        <ele>6.7</ele>
        <time>2021-06-19T16:18:39Z</time>
      </trkpt>
      <trkpt lat="46.50951" lon="-1.81831">
        <ele>6.7</ele>
        <time>2021-06-19T16:18:40Z</time>
      </trkpt>
      <trkpt lat="46.50953" lon="-1.81833">
        <ele>6.8</ele>
        <time>2021-06-19T16:18:41Z</time>
      </trkpt>
      <trkpt lat="46.50954" lon="-1.81835">
        <ele>6.8</ele>
        <time>2021-06-19T16:18:42Z</time>
      </trkpt>
      <trkpt lat="46.50955" lon="-1.81836">
        <ele>6.8</ele>
        <time>2021-06-19T16:18:43Z</time>
      </trkpt>
      <trkpt lat="46.50956" lon="-1.81837">
        <ele>6.8</ele>
        <time>2021-06-19T16:18:44Z</time>
      </trkpt>
      <trkpt lat="46.50957" lon="-1.81839">
        <ele>6.9</ele>
        <time>2021-06-19T16:18:46Z</time>
      </trkpt>
      <trkpt lat="46.50958" lon="-1.8184">
        <ele>6.9</ele>
        <time>2021-06-19T16:18:47Z</time>
      </trkpt>
      <trkpt lat="46.50959" lon="-1.81841">
        <ele>6.9</ele>
        <time>2021-06-19T16:18:48Z</time>
      </trkpt>
      <trkpt lat="46.5096" lon="-1.81842">
        <ele>6.9</ele>
        <time>2021-06-19T16:18:49Z</time>
      </trkpt>
      <trkpt lat="46.50962" lon="-1.81844">
        <ele>7</ele>
        <time>2021-06-19T16:18:50Z</time>
      </trkpt>
      <trkpt lat="46.50964" lon="-1.81846">
        <ele>7</ele>
        <time>2021-06-19T16:18:52Z</time>
      </trkpt>
      <trkpt lat="46.50965" lon="-1.81847">
        <ele>7.1</ele>
        <time>2021-06-19T16:18:53Z</time>
      </trkpt>
      <trkpt lat="46.50967" lon="-1.81848">
        <ele>7.1</ele>
        <time>2021-06-19T16:18:54Z</time>
      </trkpt>
      <trkpt lat="46.50968" lon="-1.8185">
        <ele>7.2</ele>
        <time>2021-06-19T16:18:55Z</time>
      </trkpt>
      <trkpt lat="46.5097" lon="-1.81851">
        <ele>7.2</ele>
        <time>2021-06-19T16:18:56Z</time>
      </trkpt>
      <trkpt lat="46.50972" lon="-1.81853">
        <ele>7.3</ele>
        <time>2021-06-19T16:18:57Z</time>
      </trkpt>
      <trkpt lat="46.50973" lon="-1.81854">
        <ele>7.3</ele>
        <time>2021-06-19T16:18:58Z</time>
      </trkpt>
      <trkpt lat="46.50977" lon="-1.81855">
        <ele>7.3</ele>
        <time>2021-06-19T16:19:00Z</time>
      </trkpt>
      <trkpt lat="46.50978" lon="-1.81856">
        <ele>7.3</ele>
        <time>2021-06-19T16:19:01Z</time>
      </trkpt>
      <trkpt lat="46.50979" lon="-1.81855">
        <ele>7.3</ele>
        <time>2021-06-19T16:19:03Z</time>
      </trkpt>
      <trkpt lat="46.5098" lon="-1.81855">
        <ele>7.4</ele>
        <time>2021-06-19T16:19:04Z</time>
      </trkpt>
      <trkpt lat="46.50981" lon="-1.81855">
        <ele>7.4</ele>
        <time>2021-06-19T16:19:05Z</time>
      </trkpt>
      <trkpt lat="46.50983" lon="-1.81855">
        <ele>7.4</ele>
        <time>2021-06-19T16:19:06Z</time>
      </trkpt>
      <trkpt lat="46.50984" lon="-1.81855">
        <ele>7.4</ele>
        <time>2021-06-19T16:19:08Z</time>
      </trkpt>
      <trkpt lat="46.50985" lon="-1.81855">
        <ele>7.4</ele>
        <time>2021-06-19T16:19:09Z</time>
      </trkpt>
      <trkpt lat="46.50988" lon="-1.81856">
        <ele>7.4</ele>
        <time>2021-06-19T16:19:11Z</time>
      </trkpt>
      <trkpt lat="46.50989" lon="-1.81856">
        <ele>7.4</ele>
        <time>2021-06-19T16:19:12Z</time>
      </trkpt>
      <trkpt lat="46.50991" lon="-1.81856">
        <ele>7.4</ele>
        <time>2021-06-19T16:19:13Z</time>
      </trkpt>
      <trkpt lat="46.50992" lon="-1.81856">
        <ele>7.4</ele>
        <time>2021-06-19T16:19:14Z</time>
      </trkpt>
      <trkpt lat="46.50993" lon="-1.81856">
        <ele>7.5</ele>
        <time>2021-06-19T16:19:15Z</time>
      </trkpt>
      <trkpt lat="46.50994" lon="-1.81856">
        <ele>7.5</ele>
        <time>2021-06-19T16:19:16Z</time>
      </trkpt>
      <trkpt lat="46.50998" lon="-1.81855">
        <ele>7.5</ele>
        <time>2021-06-19T16:19:18Z</time>
      </trkpt>
      <trkpt lat="46.50999" lon="-1.81855">
        <ele>7.5</ele>
        <time>2021-06-19T16:19:19Z</time>
      </trkpt>
      <trkpt lat="46.51003" lon="-1.81855">
        <ele>7.5</ele>
        <time>2021-06-19T16:19:21Z</time>
      </trkpt>
      <trkpt lat="46.51006" lon="-1.81857">
        <ele>7.5</ele>
        <time>2021-06-19T16:19:22Z</time>
      </trkpt>
      <trkpt lat="46.51008" lon="-1.81857">
        <ele>7.5</ele>
        <time>2021-06-19T16:19:23Z</time>
      </trkpt>
      <trkpt lat="46.5101" lon="-1.81858">
        <ele>7.5</ele>
        <time>2021-06-19T16:19:24Z</time>
      </trkpt>
      <trkpt lat="46.51014" lon="-1.81859">
        <ele>7.5</ele>
        <time>2021-06-19T16:19:26Z</time>
      </trkpt>
      <trkpt lat="46.51017" lon="-1.8186">
        <ele>7.5</ele>
        <time>2021-06-19T16:19:27Z</time>
      </trkpt>
      <trkpt lat="46.5102" lon="-1.81861">
        <ele>7.5</ele>
        <time>2021-06-19T16:19:29Z</time>
      </trkpt>
      <trkpt lat="46.51021" lon="-1.81861">
        <ele>7.5</ele>
        <time>2021-06-19T16:19:30Z</time>
      </trkpt>
      <trkpt lat="46.51022" lon="-1.81862">
        <ele>7.5</ele>
        <time>2021-06-19T16:19:32Z</time>
      </trkpt>
      <trkpt lat="46.51023" lon="-1.81862">
        <ele>7.5</ele>
        <time>2021-06-19T16:19:33Z</time>
      </trkpt>
      <trkpt lat="46.51024" lon="-1.81862">
        <ele>7.5</ele>
        <time>2021-06-19T16:19:34Z</time>
      </trkpt>
      <trkpt lat="46.51025" lon="-1.81861">
        <ele>7.5</ele>
        <time>2021-06-19T16:19:35Z</time>
      </trkpt>
      <trkpt lat="46.51025" lon="-1.81861">
        <ele>7.5</ele>
        <time>2021-06-19T16:19:36Z</time>
      </trkpt>
      <trkpt lat="46.51026" lon="-1.81861">
        <ele>7.6</ele>
        <time>2021-06-19T16:19:37Z</time>
      </trkpt>
      <trkpt lat="46.51027" lon="-1.8186">
        <ele>7.6</ele>
        <time>2021-06-19T16:19:38Z</time>
      </trkpt>
      <trkpt lat="46.51029" lon="-1.8186">
        <ele>7.6</ele>
        <time>2021-06-19T16:19:40Z</time>
      </trkpt>
      <trkpt lat="46.5103" lon="-1.8186">
        <ele>7.6</ele>
        <time>2021-06-19T16:19:41Z</time>
      </trkpt>
      <trkpt lat="46.51032" lon="-1.81857">
        <ele>7.6</ele>
        <time>2021-06-19T16:19:42Z</time>
      </trkpt>
      <trkpt lat="46.51033" lon="-1.81856">
        <ele>7.6</ele>
        <time>2021-06-19T16:19:44Z</time>
      </trkpt>
      <trkpt lat="46.51034" lon="-1.81855">
        <ele>7.6</ele>
        <time>2021-06-19T16:19:45Z</time>
      </trkpt>
      <trkpt lat="46.51035" lon="-1.81854">
        <ele>7.6</ele>
        <time>2021-06-19T16:19:47Z</time>
      </trkpt>
      <trkpt lat="46.51036" lon="-1.81852">
        <ele>7.6</ele>
        <time>2021-06-19T16:19:48Z</time>
      </trkpt>
      <trkpt lat="46.51038" lon="-1.8185">
        <ele>7.6</ele>
        <time>2021-06-19T16:19:50Z</time>
      </trkpt>
      <trkpt lat="46.51039" lon="-1.81849">
        <ele>7.6</ele>
        <time>2021-06-19T16:19:51Z</time>
      </trkpt>
      <trkpt lat="46.51041" lon="-1.81845">
        <ele>7.6</ele>
        <time>2021-06-19T16:19:52Z</time>
      </trkpt>
      <trkpt lat="46.51041" lon="-1.81844">
        <ele>7.7</ele>
        <time>2021-06-19T16:19:53Z</time>
      </trkpt>
      <trkpt lat="46.51042" lon="-1.81842">
        <ele>7.7</ele>
        <time>2021-06-19T16:19:54Z</time>
      </trkpt>
      <trkpt lat="46.51044" lon="-1.8184">
        <ele>7.8</ele>
        <time>2021-06-19T16:19:56Z</time>
      </trkpt>
      <trkpt lat="46.51047" lon="-1.81837">
        <ele>7.9</ele>
        <time>2021-06-19T16:19:57Z</time>
      </trkpt>
      <trkpt lat="46.51048" lon="-1.81836">
        <ele>7.9</ele>
        <time>2021-06-19T16:19:58Z</time>
      </trkpt>
      <trkpt lat="46.5105" lon="-1.81832">
        <ele>8</ele>
        <time>2021-06-19T16:19:59Z</time>
      </trkpt>
      <trkpt lat="46.51052" lon="-1.81826">
        <ele>8.2</ele>
        <time>2021-06-19T16:20:01Z</time>
      </trkpt>
      <trkpt lat="46.51052" lon="-1.81825">
        <ele>8.2</ele>
        <time>2021-06-19T16:20:03Z</time>
      </trkpt>
      <trkpt lat="46.51053" lon="-1.81823">
        <ele>8.3</ele>
        <time>2021-06-19T16:20:04Z</time>
      </trkpt>
      <trkpt lat="46.51053" lon="-1.81819">
        <ele>8.4</ele>
        <time>2021-06-19T16:20:05Z</time>
      </trkpt>
      <trkpt lat="46.51053" lon="-1.81817">
        <ele>8.4</ele>
        <time>2021-06-19T16:20:06Z</time>
      </trkpt>
      <trkpt lat="46.51053" lon="-1.81815">
        <ele>8.5</ele>
        <time>2021-06-19T16:20:07Z</time>
      </trkpt>
      <trkpt lat="46.51052" lon="-1.81812">
        <ele>8.6</ele>
        <time>2021-06-19T16:20:09Z</time>
      </trkpt>
      <trkpt lat="46.51052" lon="-1.81808">
        <ele>8.7</ele>
        <time>2021-06-19T16:20:10Z</time>
      </trkpt>
      <trkpt lat="46.51051" lon="-1.81806">
        <ele>8.8</ele>
        <time>2021-06-19T16:20:11Z</time>
      </trkpt>
      <trkpt lat="46.51051" lon="-1.81802">
        <ele>8.9</ele>
        <time>2021-06-19T16:20:13Z</time>
      </trkpt>
      <trkpt lat="46.5105" lon="-1.81798">
        <ele>9</ele>
        <time>2021-06-19T16:20:14Z</time>
      </trkpt>
      <trkpt lat="46.5105" lon="-1.81797">
        <ele>9.1</ele>
        <time>2021-06-19T16:20:15Z</time>
      </trkpt>
      <trkpt lat="46.51048" lon="-1.81791">
        <ele>9.3</ele>
        <time>2021-06-19T16:20:17Z</time>
      </trkpt>
      <trkpt lat="46.51048" lon="-1.81789">
        <ele>9.3</ele>
        <time>2021-06-19T16:20:19Z</time>
      </trkpt>
      <trkpt lat="46.51047" lon="-1.81787">
        <ele>9.4</ele>
        <time>2021-06-19T16:20:20Z</time>
      </trkpt>
      <trkpt lat="46.51047" lon="-1.81785">
        <ele>9.5</ele>
        <time>2021-06-19T16:20:21Z</time>
      </trkpt>
      <trkpt lat="46.51046" lon="-1.81782">
        <ele>9.6</ele>
        <time>2021-06-19T16:20:23Z</time>
      </trkpt>
      <trkpt lat="46.51046" lon="-1.81779">
        <ele>9.6</ele>
        <time>2021-06-19T16:20:24Z</time>
      </trkpt>
      <trkpt lat="46.51046" lon="-1.81777">
        <ele>9.7</ele>
        <time>2021-06-19T16:20:25Z</time>
      </trkpt>
      <trkpt lat="46.51046" lon="-1.81775">
        <ele>9.8</ele>
        <time>2021-06-19T16:20:26Z</time>
      </trkpt>
      <trkpt lat="46.51047" lon="-1.81771">
        <ele>9.9</ele>
        <time>2021-06-19T16:20:28Z</time>
      </trkpt>
      <trkpt lat="46.51047" lon="-1.81766">
        <ele>10</ele>
        <time>2021-06-19T16:20:29Z</time>
      </trkpt>
      <trkpt lat="46.51046" lon="-1.81765">
        <ele>10</ele>
        <time>2021-06-19T16:20:30Z</time>
      </trkpt>
      <trkpt lat="46.51046" lon="-1.81763">
        <ele>10.1</ele>
        <time>2021-06-19T16:20:31Z</time>
      </trkpt>
      <trkpt lat="46.51047" lon="-1.81761">
        <ele>10.1</ele>
        <time>2021-06-19T16:20:32Z</time>
      </trkpt>
      <trkpt lat="46.51047" lon="-1.81758">
        <ele>10.2</ele>
        <time>2021-06-19T16:20:33Z</time>
      </trkpt>
      <trkpt lat="46.51047" lon="-1.81755">
        <ele>10.2</ele>
        <time>2021-06-19T16:20:35Z</time>
      </trkpt>
      <trkpt lat="46.51046" lon="-1.81753">
        <ele>10.3</ele>
        <time>2021-06-19T16:20:37Z</time>
      </trkpt>
      <trkpt lat="46.51046" lon="-1.81751">
        <ele>10.3</ele>
        <time>2021-06-19T16:20:38Z</time>
      </trkpt>
      <trkpt lat="46.51046" lon="-1.8175">
        <ele>10.3</ele>
        <time>2021-06-19T16:20:39Z</time>
      </trkpt>
      <trkpt lat="46.51046" lon="-1.81748">
        <ele>10.3</ele>
        <time>2021-06-19T16:20:40Z</time>
      </trkpt>
      <trkpt lat="46.51046" lon="-1.81747">
        <ele>10.4</ele>
        <time>2021-06-19T16:20:41Z</time>
      </trkpt>
      <trkpt lat="46.51047" lon="-1.81745">
        <ele>10.4</ele>
        <time>2021-06-19T16:20:42Z</time>
      </trkpt>
      <trkpt lat="46.51047" lon="-1.81743">
        <ele>10.4</ele>
        <time>2021-06-19T16:20:44Z</time>
      </trkpt>
      <trkpt lat="46.51048" lon="-1.81741">
        <ele>10.4</ele>
        <time>2021-06-19T16:20:45Z</time>
      </trkpt>
      <trkpt lat="46.51048" lon="-1.81739">
        <ele>10.4</ele>
        <time>2021-06-19T16:20:46Z</time>
      </trkpt>
      <trkpt lat="46.51048" lon="-1.81738">
        <ele>10.4</ele>
        <time>2021-06-19T16:20:47Z</time>
      </trkpt>
      <trkpt lat="46.51049" lon="-1.81736">
        <ele>10.4</ele>
        <time>2021-06-19T16:20:48Z</time>
      </trkpt>
      <trkpt lat="46.51049" lon="-1.81735">
        <ele>10.5</ele>
        <time>2021-06-19T16:20:49Z</time>
      </trkpt>
      <trkpt lat="46.51049" lon="-1.81733">
        <ele>10.5</ele>
        <time>2021-06-19T16:20:50Z</time>
      </trkpt>
      <trkpt lat="46.51049" lon="-1.81732">
        <ele>10.5</ele>
        <time>2021-06-19T16:20:51Z</time>
      </trkpt>
      <trkpt lat="46.5105" lon="-1.8173">
        <ele>10.5</ele>
        <time>2021-06-19T16:20:52Z</time>
      </trkpt>
      <trkpt lat="46.5105" lon="-1.81728">
        <ele>10.5</ele>
        <time>2021-06-19T16:20:53Z</time>
      </trkpt>
      <trkpt lat="46.51051" lon="-1.81724">
        <ele>10.4</ele>
        <time>2021-06-19T16:20:55Z</time>
      </trkpt>
      <trkpt lat="46.51053" lon="-1.8172">
        <ele>10.4</ele>
        <time>2021-06-19T16:20:57Z</time>
      </trkpt>
      <trkpt lat="46.51053" lon="-1.81717">
        <ele>10.4</ele>
        <time>2021-06-19T16:20:58Z</time>
      </trkpt>
      <trkpt lat="46.51054" lon="-1.81714">
        <ele>10.4</ele>
        <time>2021-06-19T16:21:00Z</time>
      </trkpt>
      <trkpt lat="46.51056" lon="-1.8171">
        <ele>10.4</ele>
        <time>2021-06-19T16:21:01Z</time>
      </trkpt>
      <trkpt lat="46.51057" lon="-1.81709">
        <ele>10.4</ele>
        <time>2021-06-19T16:21:02Z</time>
      </trkpt>
      <trkpt lat="46.51057" lon="-1.81707">
        <ele>10.4</ele>
        <time>2021-06-19T16:21:04Z</time>
      </trkpt>
      <trkpt lat="46.51058" lon="-1.81706">
        <ele>10.4</ele>
        <time>2021-06-19T16:21:05Z</time>
      </trkpt>
      <trkpt lat="46.51058" lon="-1.81704">
        <ele>10.4</ele>
        <time>2021-06-19T16:21:06Z</time>
      </trkpt>
      <trkpt lat="46.51058" lon="-1.81705">
        <ele>10.4</ele>
        <time>2021-06-19T16:21:07Z</time>
      </trkpt>
      <trkpt lat="46.51058" lon="-1.81703">
        <ele>10.4</ele>
        <time>2021-06-19T16:21:08Z</time>
      </trkpt>
      <trkpt lat="46.51057" lon="-1.81702">
        <ele>10.4</ele>
        <time>2021-06-19T16:21:10Z</time>
      </trkpt>
      <trkpt lat="46.51057" lon="-1.817">
        <ele>10.4</ele>
        <time>2021-06-19T16:21:12Z</time>
      </trkpt>
      <trkpt lat="46.51057" lon="-1.81697">
        <ele>10.4</ele>
        <time>2021-06-19T16:21:14Z</time>
      </trkpt>
      <trkpt lat="46.51057" lon="-1.81695">
        <ele>10.4</ele>
        <time>2021-06-19T16:21:15Z</time>
      </trkpt>
      <trkpt lat="46.51057" lon="-1.81693">
        <ele>10.4</ele>
        <time>2021-06-19T16:21:17Z</time>
      </trkpt>
      <trkpt lat="46.51058" lon="-1.81689">
        <ele>10.4</ele>
        <time>2021-06-19T16:21:19Z</time>
      </trkpt>
      <trkpt lat="46.51058" lon="-1.81687">
        <ele>10.4</ele>
        <time>2021-06-19T16:21:20Z</time>
      </trkpt>
      <trkpt lat="46.51058" lon="-1.81683">
        <ele>10.4</ele>
        <time>2021-06-19T16:21:22Z</time>
      </trkpt>
      <trkpt lat="46.51059" lon="-1.8168">
        <ele>10.5</ele>
        <time>2021-06-19T16:21:23Z</time>
      </trkpt>
      <trkpt lat="46.5106" lon="-1.81678">
        <ele>10.5</ele>
        <time>2021-06-19T16:21:24Z</time>
      </trkpt>
      <trkpt lat="46.51061" lon="-1.81674">
        <ele>10.5</ele>
        <time>2021-06-19T16:21:26Z</time>
      </trkpt>
      <trkpt lat="46.51062" lon="-1.8167">
        <ele>10.6</ele>
        <time>2021-06-19T16:21:28Z</time>
      </trkpt>
      <trkpt lat="46.51063" lon="-1.81665">
        <ele>10.7</ele>
        <time>2021-06-19T16:21:30Z</time>
      </trkpt>
      <trkpt lat="46.51064" lon="-1.81661">
        <ele>10.8</ele>
        <time>2021-06-19T16:21:31Z</time>
      </trkpt>
      <trkpt lat="46.51064" lon="-1.81658">
        <ele>10.9</ele>
        <time>2021-06-19T16:21:33Z</time>
      </trkpt>
      <trkpt lat="46.51064" lon="-1.81656">
        <ele>10.9</ele>
        <time>2021-06-19T16:21:34Z</time>
      </trkpt>
      <trkpt lat="46.51064" lon="-1.81654">
        <ele>10.9</ele>
        <time>2021-06-19T16:21:35Z</time>
      </trkpt>
      <trkpt lat="46.51064" lon="-1.81652">
        <ele>11</ele>
        <time>2021-06-19T16:21:36Z</time>
      </trkpt>
      <trkpt lat="46.51064" lon="-1.8165">
        <ele>11</ele>
        <time>2021-06-19T16:21:37Z</time>
      </trkpt>
      <trkpt lat="46.51064" lon="-1.81649">
        <ele>11.1</ele>
        <time>2021-06-19T16:21:38Z</time>
      </trkpt>
      <trkpt lat="46.51064" lon="-1.81644">
        <ele>11.2</ele>
        <time>2021-06-19T16:21:40Z</time>
      </trkpt>
      <trkpt lat="46.51064" lon="-1.81643">
        <ele>11.2</ele>
        <time>2021-06-19T16:21:41Z</time>
      </trkpt>
      <trkpt lat="46.51064" lon="-1.81641">
        <ele>11.3</ele>
        <time>2021-06-19T16:21:43Z</time>
      </trkpt>
      <trkpt lat="46.51064" lon="-1.81638">
        <ele>11.4</ele>
        <time>2021-06-19T16:21:44Z</time>
      </trkpt>
      <trkpt lat="46.51064" lon="-1.81637">
        <ele>11.5</ele>
        <time>2021-06-19T16:21:45Z</time>
      </trkpt>
      <trkpt lat="46.51065" lon="-1.81635">
        <ele>11.5</ele>
        <time>2021-06-19T16:21:46Z</time>
      </trkpt>
      <trkpt lat="46.51065" lon="-1.81632">
        <ele>11.7</ele>
        <time>2021-06-19T16:21:48Z</time>
      </trkpt>
      <trkpt lat="46.51066" lon="-1.81627">
        <ele>11.8</ele>
        <time>2021-06-19T16:21:51Z</time>
      </trkpt>
      <trkpt lat="46.51066" lon="-1.81623">
        <ele>12</ele>
        <time>2021-06-19T16:21:52Z</time>
      </trkpt>
      <trkpt lat="46.51067" lon="-1.8162">
        <ele>12.1</ele>
        <time>2021-06-19T16:21:54Z</time>
      </trkpt>
      <trkpt lat="46.51067" lon="-1.81618">
        <ele>12.2</ele>
        <time>2021-06-19T16:21:56Z</time>
      </trkpt>
      <trkpt lat="46.51068" lon="-1.81615">
        <ele>12.3</ele>
        <time>2021-06-19T16:21:57Z</time>
      </trkpt>
      <trkpt lat="46.51068" lon="-1.81613">
        <ele>12.4</ele>
        <time>2021-06-19T16:21:58Z</time>
      </trkpt>
      <trkpt lat="46.51068" lon="-1.81612">
        <ele>12.4</ele>
        <time>2021-06-19T16:21:59Z</time>
      </trkpt>
      <trkpt lat="46.51069" lon="-1.8161">
        <ele>12.5</ele>
        <time>2021-06-19T16:22:01Z</time>
      </trkpt>
      <trkpt lat="46.51069" lon="-1.81609">
        <ele>12.6</ele>
        <time>2021-06-19T16:22:03Z</time>
      </trkpt>
      <trkpt lat="46.5107" lon="-1.81607">
        <ele>12.7</ele>
        <time>2021-06-19T16:22:04Z</time>
      </trkpt>
      <trkpt lat="46.5107" lon="-1.81605">
        <ele>12.8</ele>
        <time>2021-06-19T16:22:05Z</time>
      </trkpt>
      <trkpt lat="46.51072" lon="-1.81602">
        <ele>12.9</ele>
        <time>2021-06-19T16:22:06Z</time>
      </trkpt>
      <trkpt lat="46.51072" lon="-1.81601">
        <ele>13</ele>
        <time>2021-06-19T16:22:08Z</time>
      </trkpt>
      <trkpt lat="46.51073" lon="-1.816">
        <ele>13.1</ele>
        <time>2021-06-19T16:22:09Z</time>
      </trkpt>
      <trkpt lat="46.51075" lon="-1.81599">
        <ele>13.2</ele>
        <time>2021-06-19T16:22:11Z</time>
      </trkpt>
      <trkpt lat="46.51076" lon="-1.81599">
        <ele>13.2</ele>
        <time>2021-06-19T16:22:12Z</time>
      </trkpt>
      <trkpt lat="46.51077" lon="-1.81599">
        <ele>13.3</ele>
        <time>2021-06-19T16:22:13Z</time>
      </trkpt>
      <trkpt lat="46.51078" lon="-1.81599">
        <ele>13.4</ele>
        <time>2021-06-19T16:22:14Z</time>
      </trkpt>
      <trkpt lat="46.51079" lon="-1.816">
        <ele>13.4</ele>
        <time>2021-06-19T16:22:16Z</time>
      </trkpt>
      <trkpt lat="46.51079" lon="-1.81599">
        <ele>13.5</ele>
        <time>2021-06-19T16:22:17Z</time>
      </trkpt>
      <trkpt lat="46.5108" lon="-1.81598">
        <ele>13.6</ele>
        <time>2021-06-19T16:22:18Z</time>
      </trkpt>
      <trkpt lat="46.51082" lon="-1.81596">
        <ele>13.7</ele>
        <time>2021-06-19T16:22:19Z</time>
      </trkpt>
      <trkpt lat="46.51083" lon="-1.81595">
        <ele>13.8</ele>
        <time>2021-06-19T16:22:21Z</time>
      </trkpt>
      <trkpt lat="46.51084" lon="-1.81594">
        <ele>13.8</ele>
        <time>2021-06-19T16:22:22Z</time>
      </trkpt>
      <trkpt lat="46.51086" lon="-1.81592">
        <ele>13.9</ele>
        <time>2021-06-19T16:22:23Z</time>
      </trkpt>
      <trkpt lat="46.51087" lon="-1.81591">
        <ele>14</ele>
        <time>2021-06-19T16:22:24Z</time>
      </trkpt>
      <trkpt lat="46.51088" lon="-1.81589">
        <ele>14.1</ele>
        <time>2021-06-19T16:22:25Z</time>
      </trkpt>
      <trkpt lat="46.5109" lon="-1.81587">
        <ele>14.2</ele>
        <time>2021-06-19T16:22:27Z</time>
      </trkpt>
      <trkpt lat="46.51091" lon="-1.81585">
        <ele>14.4</ele>
        <time>2021-06-19T16:22:28Z</time>
      </trkpt>
      <trkpt lat="46.51092" lon="-1.81584">
        <ele>14.4</ele>
        <time>2021-06-19T16:22:29Z</time>
      </trkpt>
      <trkpt lat="46.51092" lon="-1.81583">
        <ele>14.4</ele>
        <time>2021-06-19T16:22:30Z</time>
      </trkpt>
      <trkpt lat="46.51093" lon="-1.81582">
        <ele>14.5</ele>
        <time>2021-06-19T16:22:31Z</time>
      </trkpt>
      <trkpt lat="46.51094" lon="-1.8158">
        <ele>14.5</ele>
        <time>2021-06-19T16:22:33Z</time>
      </trkpt>
      <trkpt lat="46.51095" lon="-1.81579">
        <ele>14.6</ele>
        <time>2021-06-19T16:22:34Z</time>
      </trkpt>
      <trkpt lat="46.51097" lon="-1.81578">
        <ele>14.6</ele>
        <time>2021-06-19T16:22:35Z</time>
      </trkpt>
      <trkpt lat="46.511" lon="-1.81575">
        <ele>14.8</ele>
        <time>2021-06-19T16:22:36Z</time>
      </trkpt>
      <trkpt lat="46.51101" lon="-1.81573">
        <ele>14.9</ele>
        <time>2021-06-19T16:22:37Z</time>
      </trkpt>
      <trkpt lat="46.51104" lon="-1.81567">
        <ele>15</ele>
        <time>2021-06-19T16:22:39Z</time>
      </trkpt>
      <trkpt lat="46.51106" lon="-1.81563">
        <ele>15.1</ele>
        <time>2021-06-19T16:22:40Z</time>
      </trkpt>
      <trkpt lat="46.51107" lon="-1.81558">
        <ele>15.2</ele>
        <time>2021-06-19T16:22:41Z</time>
      </trkpt>
      <trkpt lat="46.51108" lon="-1.81554">
        <ele>15.3</ele>
        <time>2021-06-19T16:22:42Z</time>
      </trkpt>
      <trkpt lat="46.5111" lon="-1.81548">
        <ele>15.4</ele>
        <time>2021-06-19T16:22:44Z</time>
      </trkpt>
      <trkpt lat="46.5111" lon="-1.81546">
        <ele>15.4</ele>
        <time>2021-06-19T16:22:45Z</time>
      </trkpt>
      <trkpt lat="46.51111" lon="-1.81541">
        <ele>15.5</ele>
        <time>2021-06-19T16:22:46Z</time>
      </trkpt>
      <trkpt lat="46.51111" lon="-1.81536">
        <ele>15.5</ele>
        <time>2021-06-19T16:22:48Z</time>
      </trkpt>
      <trkpt lat="46.51111" lon="-1.81534">
        <ele>15.5</ele>
        <time>2021-06-19T16:22:49Z</time>
      </trkpt>
      <trkpt lat="46.51112" lon="-1.8153">
        <ele>15.6</ele>
        <time>2021-06-19T16:22:50Z</time>
      </trkpt>
      <trkpt lat="46.51112" lon="-1.81527">
        <ele>15.6</ele>
        <time>2021-06-19T16:22:51Z</time>
      </trkpt>
      <trkpt lat="46.51113" lon="-1.81522">
        <ele>15.7</ele>
        <time>2021-06-19T16:22:53Z</time>
      </trkpt>
      <trkpt lat="46.51113" lon="-1.81519">
        <ele>15.7</ele>
        <time>2021-06-19T16:22:54Z</time>
      </trkpt>
      <trkpt lat="46.51113" lon="-1.81515">
        <ele>15.8</ele>
        <time>2021-06-19T16:22:56Z</time>
      </trkpt>
      <trkpt lat="46.51113" lon="-1.8151">
        <ele>15.9</ele>
        <time>2021-06-19T16:22:58Z</time>
      </trkpt>
      <trkpt lat="46.51113" lon="-1.81509">
        <ele>15.9</ele>
        <time>2021-06-19T16:22:59Z</time>
      </trkpt>
      <trkpt lat="46.51113" lon="-1.81505">
        <ele>15.9</ele>
        <time>2021-06-19T16:23:01Z</time>
      </trkpt>
      <trkpt lat="46.51113" lon="-1.81504">
        <ele>16</ele>
        <time>2021-06-19T16:23:02Z</time>
      </trkpt>
      <trkpt lat="46.51114" lon="-1.81502">
        <ele>16</ele>
        <time>2021-06-19T16:23:03Z</time>
      </trkpt>
      <trkpt lat="46.51114" lon="-1.81499">
        <ele>16.1</ele>
        <time>2021-06-19T16:23:05Z</time>
      </trkpt>
      <trkpt lat="46.51114" lon="-1.81497">
        <ele>16.1</ele>
        <time>2021-06-19T16:23:06Z</time>
      </trkpt>
      <trkpt lat="46.51115" lon="-1.81494">
        <ele>16.2</ele>
        <time>2021-06-19T16:23:07Z</time>
      </trkpt>
      <trkpt lat="46.51115" lon="-1.81492">
        <ele>16.2</ele>
        <time>2021-06-19T16:23:09Z</time>
      </trkpt>
      <trkpt lat="46.51115" lon="-1.81489">
        <ele>16.3</ele>
        <time>2021-06-19T16:23:10Z</time>
      </trkpt>
      <trkpt lat="46.51116" lon="-1.81487">
        <ele>16.3</ele>
        <time>2021-06-19T16:23:11Z</time>
      </trkpt>
      <trkpt lat="46.51116" lon="-1.81485">
        <ele>16.4</ele>
        <time>2021-06-19T16:23:12Z</time>
      </trkpt>
      <trkpt lat="46.51117" lon="-1.81483">
        <ele>16.4</ele>
        <time>2021-06-19T16:23:13Z</time>
      </trkpt>
      <trkpt lat="46.51117" lon="-1.81481">
        <ele>16.5</ele>
        <time>2021-06-19T16:23:14Z</time>
      </trkpt>
      <trkpt lat="46.51118" lon="-1.81478">
        <ele>16.5</ele>
        <time>2021-06-19T16:23:16Z</time>
      </trkpt>
      <trkpt lat="46.51118" lon="-1.81477">
        <ele>16.6</ele>
        <time>2021-06-19T16:23:17Z</time>
      </trkpt>
      <trkpt lat="46.51119" lon="-1.81475">
        <ele>16.6</ele>
        <time>2021-06-19T16:23:18Z</time>
      </trkpt>
      <trkpt lat="46.51119" lon="-1.81473">
        <ele>16.7</ele>
        <time>2021-06-19T16:23:19Z</time>
      </trkpt>
      <trkpt lat="46.5112" lon="-1.81469">
        <ele>16.8</ele>
        <time>2021-06-19T16:23:21Z</time>
      </trkpt>
      <trkpt lat="46.51121" lon="-1.81467">
        <ele>16.8</ele>
        <time>2021-06-19T16:23:22Z</time>
      </trkpt>
      <trkpt lat="46.51122" lon="-1.81464">
        <ele>16.9</ele>
        <time>2021-06-19T16:23:24Z</time>
      </trkpt>
      <trkpt lat="46.51122" lon="-1.81462">
        <ele>16.9</ele>
        <time>2021-06-19T16:23:25Z</time>
      </trkpt>
      <trkpt lat="46.51123" lon="-1.81461">
        <ele>17</ele>
        <time>2021-06-19T16:23:26Z</time>
      </trkpt>
      <trkpt lat="46.51124" lon="-1.81459">
        <ele>17</ele>
        <time>2021-06-19T16:23:27Z</time>
      </trkpt>
      <trkpt lat="46.51124" lon="-1.81457">
        <ele>17.1</ele>
        <time>2021-06-19T16:23:28Z</time>
      </trkpt>
      <trkpt lat="46.51124" lon="-1.81453">
        <ele>17.2</ele>
        <time>2021-06-19T16:23:29Z</time>
      </trkpt>
      <trkpt lat="46.51124" lon="-1.81451">
        <ele>17.2</ele>
        <time>2021-06-19T16:23:30Z</time>
      </trkpt>
      <trkpt lat="46.51124" lon="-1.8145">
        <ele>17.2</ele>
        <time>2021-06-19T16:23:32Z</time>
      </trkpt>
      <trkpt lat="46.51124" lon="-1.81449">
        <ele>17.3</ele>
        <time>2021-06-19T16:23:33Z</time>
      </trkpt>
      <trkpt lat="46.51124" lon="-1.81447">
        <ele>17.3</ele>
        <time>2021-06-19T16:23:34Z</time>
      </trkpt>
      <trkpt lat="46.51124" lon="-1.81444">
        <ele>17.3</ele>
        <time>2021-06-19T16:23:35Z</time>
      </trkpt>
      <trkpt lat="46.51123" lon="-1.81442">
        <ele>17.4</ele>
        <time>2021-06-19T16:23:36Z</time>
      </trkpt>
      <trkpt lat="46.51123" lon="-1.81441">
        <ele>17.4</ele>
        <time>2021-06-19T16:23:37Z</time>
      </trkpt>
      <trkpt lat="46.51123" lon="-1.8144">
        <ele>17.5</ele>
        <time>2021-06-19T16:23:38Z</time>
      </trkpt>
      <trkpt lat="46.51122" lon="-1.81438">
        <ele>17.5</ele>
        <time>2021-06-19T16:23:39Z</time>
      </trkpt>
      <trkpt lat="46.51122" lon="-1.81436">
        <ele>17.5</ele>
        <time>2021-06-19T16:23:40Z</time>
      </trkpt>
      <trkpt lat="46.51122" lon="-1.81434">
        <ele>17.5</ele>
        <time>2021-06-19T16:23:41Z</time>
      </trkpt>
      <trkpt lat="46.51122" lon="-1.8143">
        <ele>17.6</ele>
        <time>2021-06-19T16:23:43Z</time>
      </trkpt>
      <trkpt lat="46.51122" lon="-1.81428">
        <ele>17.6</ele>
        <time>2021-06-19T16:23:44Z</time>
      </trkpt>
      <trkpt lat="46.51123" lon="-1.81425">
        <ele>17.7</ele>
        <time>2021-06-19T16:23:46Z</time>
      </trkpt>
      <trkpt lat="46.51123" lon="-1.81423">
        <ele>17.7</ele>
        <time>2021-06-19T16:23:47Z</time>
      </trkpt>
      <trkpt lat="46.51124" lon="-1.81421">
        <ele>17.8</ele>
        <time>2021-06-19T16:23:48Z</time>
      </trkpt>
      <trkpt lat="46.51124" lon="-1.81419">
        <ele>17.8</ele>
        <time>2021-06-19T16:23:49Z</time>
      </trkpt>
      <trkpt lat="46.51124" lon="-1.81417">
        <ele>17.8</ele>
        <time>2021-06-19T16:23:50Z</time>
      </trkpt>
      <trkpt lat="46.51124" lon="-1.81415">
        <ele>17.8</ele>
        <time>2021-06-19T16:23:51Z</time>
      </trkpt>
      <trkpt lat="46.51124" lon="-1.81413">
        <ele>17.8</ele>
        <time>2021-06-19T16:23:52Z</time>
      </trkpt>
      <trkpt lat="46.51124" lon="-1.8141">
        <ele>17.9</ele>
        <time>2021-06-19T16:23:54Z</time>
      </trkpt>
      <trkpt lat="46.51123" lon="-1.81408">
        <ele>17.9</ele>
        <time>2021-06-19T16:23:55Z</time>
      </trkpt>
      <trkpt lat="46.51124" lon="-1.81408">
        <ele>17.9</ele>
        <time>2021-06-19T16:23:56Z</time>
      </trkpt>
      <trkpt lat="46.51125" lon="-1.81407">
        <ele>17.9</ele>
        <time>2021-06-19T16:23:57Z</time>
      </trkpt>
      <trkpt lat="46.51125" lon="-1.81406">
        <ele>17.9</ele>
        <time>2021-06-19T16:23:59Z</time>
      </trkpt>
      <trkpt lat="46.51125" lon="-1.81405">
        <ele>17.9</ele>
        <time>2021-06-19T16:24:00Z</time>
      </trkpt>
      <trkpt lat="46.51125" lon="-1.81403">
        <ele>17.9</ele>
        <time>2021-06-19T16:24:01Z</time>
      </trkpt>
      <trkpt lat="46.51125" lon="-1.814">
        <ele>17.9</ele>
        <time>2021-06-19T16:24:02Z</time>
      </trkpt>
      <trkpt lat="46.51126" lon="-1.81398">
        <ele>17.9</ele>
        <time>2021-06-19T16:24:04Z</time>
      </trkpt>
      <trkpt lat="46.51125" lon="-1.81395">
        <ele>17.9</ele>
        <time>2021-06-19T16:24:05Z</time>
      </trkpt>
      <trkpt lat="46.51125" lon="-1.81393">
        <ele>17.9</ele>
        <time>2021-06-19T16:24:06Z</time>
      </trkpt>
      <trkpt lat="46.51125" lon="-1.81391">
        <ele>18</ele>
        <time>2021-06-19T16:24:07Z</time>
      </trkpt>
      <trkpt lat="46.51125" lon="-1.81388">
        <ele>18</ele>
        <time>2021-06-19T16:24:08Z</time>
      </trkpt>
      <trkpt lat="46.51125" lon="-1.81386">
        <ele>18</ele>
        <time>2021-06-19T16:24:09Z</time>
      </trkpt>
      <trkpt lat="46.51124" lon="-1.81381">
        <ele>17.9</ele>
        <time>2021-06-19T16:24:11Z</time>
      </trkpt>
      <trkpt lat="46.51124" lon="-1.81377">
        <ele>17.9</ele>
        <time>2021-06-19T16:24:13Z</time>
      </trkpt>
      <trkpt lat="46.51124" lon="-1.81376">
        <ele>17.9</ele>
        <time>2021-06-19T16:24:14Z</time>
      </trkpt>
      <trkpt lat="46.51124" lon="-1.81374">
        <ele>17.9</ele>
        <time>2021-06-19T16:24:16Z</time>
      </trkpt>
      <trkpt lat="46.51124" lon="-1.81371">
        <ele>17.9</ele>
        <time>2021-06-19T16:24:17Z</time>
      </trkpt>
      <trkpt lat="46.51125" lon="-1.8137">
        <ele>17.8</ele>
        <time>2021-06-19T16:24:18Z</time>
      </trkpt>
      <trkpt lat="46.51126" lon="-1.8137">
        <ele>17.8</ele>
        <time>2021-06-19T16:24:20Z</time>
      </trkpt>
      <trkpt lat="46.51127" lon="-1.8137">
        <ele>17.8</ele>
        <time>2021-06-19T16:24:21Z</time>
      </trkpt>
      <trkpt lat="46.51127" lon="-1.81369">
        <ele>17.8</ele>
        <time>2021-06-19T16:24:23Z</time>
      </trkpt>
      <trkpt lat="46.51128" lon="-1.81366">
        <ele>17.8</ele>
        <time>2021-06-19T16:24:24Z</time>
      </trkpt>
      <trkpt lat="46.51128" lon="-1.81363">
        <ele>17.7</ele>
        <time>2021-06-19T16:24:26Z</time>
      </trkpt>
      <trkpt lat="46.51129" lon="-1.81361">
        <ele>17.7</ele>
        <time>2021-06-19T16:24:27Z</time>
      </trkpt>
      <trkpt lat="46.51129" lon="-1.81359">
        <ele>17.7</ele>
        <time>2021-06-19T16:24:28Z</time>
      </trkpt>
      <trkpt lat="46.51129" lon="-1.81357">
        <ele>17.6</ele>
        <time>2021-06-19T16:24:29Z</time>
      </trkpt>
      <trkpt lat="46.5113" lon="-1.81354">
        <ele>17.6</ele>
        <time>2021-06-19T16:24:31Z</time>
      </trkpt>
      <trkpt lat="46.51131" lon="-1.8135">
        <ele>17.5</ele>
        <time>2021-06-19T16:24:33Z</time>
      </trkpt>
      <trkpt lat="46.51132" lon="-1.81349">
        <ele>17.5</ele>
        <time>2021-06-19T16:24:34Z</time>
      </trkpt>
      <trkpt lat="46.51133" lon="-1.81346">
        <ele>17.4</ele>
        <time>2021-06-19T16:24:35Z</time>
      </trkpt>
      <trkpt lat="46.51134" lon="-1.81345">
        <ele>17.4</ele>
        <time>2021-06-19T16:24:37Z</time>
      </trkpt>
      <trkpt lat="46.51134" lon="-1.81344">
        <ele>17.4</ele>
        <time>2021-06-19T16:24:38Z</time>
      </trkpt>
      <trkpt lat="46.51135" lon="-1.81342">
        <ele>17.4</ele>
        <time>2021-06-19T16:24:39Z</time>
      </trkpt>
      <trkpt lat="46.51136" lon="-1.81341">
        <ele>17.3</ele>
        <time>2021-06-19T16:24:40Z</time>
      </trkpt>
      <trkpt lat="46.51136" lon="-1.8134">
        <ele>17.3</ele>
        <time>2021-06-19T16:24:41Z</time>
      </trkpt>
      <trkpt lat="46.51137" lon="-1.81337">
        <ele>17.3</ele>
        <time>2021-06-19T16:24:42Z</time>
      </trkpt>
      <trkpt lat="46.5114" lon="-1.81334">
        <ele>17.2</ele>
        <time>2021-06-19T16:24:44Z</time>
      </trkpt>
      <trkpt lat="46.51142" lon="-1.81331">
        <ele>17.2</ele>
        <time>2021-06-19T16:24:46Z</time>
      </trkpt>
      <trkpt lat="46.51145" lon="-1.81328">
        <ele>17.2</ele>
        <time>2021-06-19T16:24:48Z</time>
      </trkpt>
      <trkpt lat="46.51146" lon="-1.81326">
        <ele>17.2</ele>
        <time>2021-06-19T16:24:49Z</time>
      </trkpt>
      <trkpt lat="46.51147" lon="-1.81325">
        <ele>17.3</ele>
        <time>2021-06-19T16:24:50Z</time>
      </trkpt>
      <trkpt lat="46.51149" lon="-1.81325">
        <ele>17.3</ele>
        <time>2021-06-19T16:24:51Z</time>
      </trkpt>
      <trkpt lat="46.5115" lon="-1.81325">
        <ele>17.3</ele>
        <time>2021-06-19T16:24:52Z</time>
      </trkpt>
      <trkpt lat="46.51152" lon="-1.81327">
        <ele>17.4</ele>
        <time>2021-06-19T16:24:54Z</time>
      </trkpt>
      <trkpt lat="46.51154" lon="-1.81328">
        <ele>17.4</ele>
        <time>2021-06-19T16:24:55Z</time>
      </trkpt>
      <trkpt lat="46.51156" lon="-1.81329">
        <ele>17.5</ele>
        <time>2021-06-19T16:24:57Z</time>
      </trkpt>
      <trkpt lat="46.51158" lon="-1.8133">
        <ele>17.6</ele>
        <time>2021-06-19T16:24:58Z</time>
      </trkpt>
      <trkpt lat="46.51161" lon="-1.81333">
        <ele>17.7</ele>
        <time>2021-06-19T16:25:00Z</time>
      </trkpt>
      <trkpt lat="46.51164" lon="-1.81337">
        <ele>17.9</ele>
        <time>2021-06-19T16:25:02Z</time>
      </trkpt>
      <trkpt lat="46.51165" lon="-1.81338">
        <ele>17.9</ele>
        <time>2021-06-19T16:25:03Z</time>
      </trkpt>
      <trkpt lat="46.51167" lon="-1.81341">
        <ele>18</ele>
        <time>2021-06-19T16:25:05Z</time>
      </trkpt>
      <trkpt lat="46.51168" lon="-1.81342">
        <ele>18.1</ele>
        <time>2021-06-19T16:25:06Z</time>
      </trkpt>
      <trkpt lat="46.51169" lon="-1.81343">
        <ele>18.1</ele>
        <time>2021-06-19T16:25:07Z</time>
      </trkpt>
      <trkpt lat="46.51171" lon="-1.81345">
        <ele>18.2</ele>
        <time>2021-06-19T16:25:08Z</time>
      </trkpt>
      <trkpt lat="46.51172" lon="-1.81346">
        <ele>18.2</ele>
        <time>2021-06-19T16:25:09Z</time>
      </trkpt>
      <trkpt lat="46.51175" lon="-1.81347">
        <ele>18.2</ele>
        <time>2021-06-19T16:25:11Z</time>
      </trkpt>
      <trkpt lat="46.51177" lon="-1.81348">
        <ele>18.2</ele>
        <time>2021-06-19T16:25:13Z</time>
      </trkpt>
      <trkpt lat="46.51179" lon="-1.81349">
        <ele>18.2</ele>
        <time>2021-06-19T16:25:14Z</time>
      </trkpt>
      <trkpt lat="46.5118" lon="-1.81349">
        <ele>18.2</ele>
        <time>2021-06-19T16:25:15Z</time>
      </trkpt>
      <trkpt lat="46.51183" lon="-1.81348">
        <ele>18.1</ele>
        <time>2021-06-19T16:25:17Z</time>
      </trkpt>
      <trkpt lat="46.51185" lon="-1.81348">
        <ele>18.1</ele>
        <time>2021-06-19T16:25:19Z</time>
      </trkpt>
      <trkpt lat="46.51187" lon="-1.81349">
        <ele>18</ele>
        <time>2021-06-19T16:25:20Z</time>
      </trkpt>
      <trkpt lat="46.51188" lon="-1.8135">
        <ele>17.9</ele>
        <time>2021-06-19T16:25:21Z</time>
      </trkpt>
      <trkpt lat="46.5119" lon="-1.81351">
        <ele>17.8</ele>
        <time>2021-06-19T16:25:22Z</time>
      </trkpt>
      <trkpt lat="46.51191" lon="-1.81353">
        <ele>17.7</ele>
        <time>2021-06-19T16:25:23Z</time>
      </trkpt>
      <trkpt lat="46.51193" lon="-1.81353">
        <ele>17.7</ele>
        <time>2021-06-19T16:25:24Z</time>
      </trkpt>
      <trkpt lat="46.51194" lon="-1.81353">
        <ele>17.6</ele>
        <time>2021-06-19T16:25:25Z</time>
      </trkpt>
      <trkpt lat="46.51196" lon="-1.81353">
        <ele>17.5</ele>
        <time>2021-06-19T16:25:26Z</time>
      </trkpt>
      <trkpt lat="46.51197" lon="-1.81353">
        <ele>17.4</ele>
        <time>2021-06-19T16:25:27Z</time>
      </trkpt>
      <trkpt lat="46.51199" lon="-1.81354">
        <ele>17.3</ele>
        <time>2021-06-19T16:25:28Z</time>
      </trkpt>
      <trkpt lat="46.512" lon="-1.81355">
        <ele>17.2</ele>
        <time>2021-06-19T16:25:30Z</time>
      </trkpt>
      <trkpt lat="46.512" lon="-1.81356">
        <ele>17.2</ele>
        <time>2021-06-19T16:25:31Z</time>
      </trkpt>
      <trkpt lat="46.51201" lon="-1.81358">
        <ele>17.1</ele>
        <time>2021-06-19T16:25:32Z</time>
      </trkpt>
      <trkpt lat="46.51202" lon="-1.8136">
        <ele>17</ele>
        <time>2021-06-19T16:25:33Z</time>
      </trkpt>
      <trkpt lat="46.51203" lon="-1.81363">
        <ele>16.9</ele>
        <time>2021-06-19T16:25:34Z</time>
      </trkpt>
      <trkpt lat="46.51203" lon="-1.81365">
        <ele>16.8</ele>
        <time>2021-06-19T16:25:35Z</time>
      </trkpt>
      <trkpt lat="46.51204" lon="-1.81367">
        <ele>16.7</ele>
        <time>2021-06-19T16:25:36Z</time>
      </trkpt>
      <trkpt lat="46.51205" lon="-1.81369">
        <ele>16.6</ele>
        <time>2021-06-19T16:25:38Z</time>
      </trkpt>
      <trkpt lat="46.51206" lon="-1.81371">
        <ele>16.6</ele>
        <time>2021-06-19T16:25:39Z</time>
      </trkpt>
      <trkpt lat="46.51207" lon="-1.81373">
        <ele>16.5</ele>
        <time>2021-06-19T16:25:40Z</time>
      </trkpt>
      <trkpt lat="46.51208" lon="-1.81374">
        <ele>16.5</ele>
        <time>2021-06-19T16:25:41Z</time>
      </trkpt>
      <trkpt lat="46.51208" lon="-1.81376">
        <ele>16.5</ele>
        <time>2021-06-19T16:25:43Z</time>
      </trkpt>
      <trkpt lat="46.51208" lon="-1.81377">
        <ele>16.5</ele>
        <time>2021-06-19T16:25:44Z</time>
      </trkpt>
      <trkpt lat="46.51209" lon="-1.81378">
        <ele>16.4</ele>
        <time>2021-06-19T16:25:45Z</time>
      </trkpt>
      <trkpt lat="46.51209" lon="-1.81377">
        <ele>16.4</ele>
        <time>2021-06-19T16:25:46Z</time>
      </trkpt>
      <trkpt lat="46.5121" lon="-1.81378">
        <ele>16.4</ele>
        <time>2021-06-19T16:25:47Z</time>
      </trkpt>
      <trkpt lat="46.51211" lon="-1.81379">
        <ele>16.4</ele>
        <time>2021-06-19T16:25:48Z</time>
      </trkpt>
      <trkpt lat="46.51213" lon="-1.8138">
        <ele>16.4</ele>
        <time>2021-06-19T16:25:50Z</time>
      </trkpt>
      <trkpt lat="46.51214" lon="-1.8138">
        <ele>16.4</ele>
        <time>2021-06-19T16:25:51Z</time>
      </trkpt>
      <trkpt lat="46.51215" lon="-1.8138">
        <ele>16.4</ele>
        <time>2021-06-19T16:25:53Z</time>
      </trkpt>
      <trkpt lat="46.51216" lon="-1.81377">
        <ele>16.3</ele>
        <time>2021-06-19T16:25:55Z</time>
      </trkpt>
      <trkpt lat="46.51216" lon="-1.81375">
        <ele>16.3</ele>
        <time>2021-06-19T16:25:57Z</time>
      </trkpt>
      <trkpt lat="46.51217" lon="-1.81374">
        <ele>16.3</ele>
        <time>2021-06-19T16:25:58Z</time>
      </trkpt>
      <trkpt lat="46.51217" lon="-1.81373">
        <ele>16.3</ele>
        <time>2021-06-19T16:26:00Z</time>
      </trkpt>
      <trkpt lat="46.51218" lon="-1.81372">
        <ele>16.3</ele>
        <time>2021-06-19T16:26:01Z</time>
      </trkpt>
      <trkpt lat="46.51221" lon="-1.8137">
        <ele>16.3</ele>
        <time>2021-06-19T16:26:03Z</time>
      </trkpt>
      <trkpt lat="46.51222" lon="-1.81369">
        <ele>16.2</ele>
        <time>2021-06-19T16:26:04Z</time>
      </trkpt>
      <trkpt lat="46.51226" lon="-1.81367">
        <ele>16.2</ele>
        <time>2021-06-19T16:26:06Z</time>
      </trkpt>
      <trkpt lat="46.51227" lon="-1.81366">
        <ele>16.1</ele>
        <time>2021-06-19T16:26:07Z</time>
      </trkpt>
      <trkpt lat="46.5123" lon="-1.81364">
        <ele>16.1</ele>
        <time>2021-06-19T16:26:09Z</time>
      </trkpt>
      <trkpt lat="46.51232" lon="-1.81364">
        <ele>16</ele>
        <time>2021-06-19T16:26:10Z</time>
      </trkpt>
      <trkpt lat="46.51234" lon="-1.81363">
        <ele>16</ele>
        <time>2021-06-19T16:26:11Z</time>
      </trkpt>
      <trkpt lat="46.51237" lon="-1.81361">
        <ele>15.9</ele>
        <time>2021-06-19T16:26:13Z</time>
      </trkpt>
      <trkpt lat="46.51241" lon="-1.81358">
        <ele>15.8</ele>
        <time>2021-06-19T16:26:15Z</time>
      </trkpt>
      <trkpt lat="46.51243" lon="-1.81357">
        <ele>15.8</ele>
        <time>2021-06-19T16:26:16Z</time>
      </trkpt>
      <trkpt lat="46.51245" lon="-1.81355">
        <ele>15.7</ele>
        <time>2021-06-19T16:26:18Z</time>
      </trkpt>
      <trkpt lat="46.51247" lon="-1.81354">
        <ele>15.6</ele>
        <time>2021-06-19T16:26:19Z</time>
      </trkpt>
      <trkpt lat="46.51248" lon="-1.81353">
        <ele>15.6</ele>
        <time>2021-06-19T16:26:20Z</time>
      </trkpt>
      <trkpt lat="46.51252" lon="-1.81349">
        <ele>15.5</ele>
        <time>2021-06-19T16:26:22Z</time>
      </trkpt>
      <trkpt lat="46.51253" lon="-1.81349">
        <ele>15.5</ele>
        <time>2021-06-19T16:26:24Z</time>
      </trkpt>
      <trkpt lat="46.51255" lon="-1.81348">
        <ele>15.4</ele>
        <time>2021-06-19T16:26:25Z</time>
      </trkpt>
      <trkpt lat="46.51256" lon="-1.81347">
        <ele>15.4</ele>
        <time>2021-06-19T16:26:26Z</time>
      </trkpt>
      <trkpt lat="46.51259" lon="-1.81345">
        <ele>15.3</ele>
        <time>2021-06-19T16:26:28Z</time>
      </trkpt>
      <trkpt lat="46.51261" lon="-1.81343">
        <ele>15.2</ele>
        <time>2021-06-19T16:26:29Z</time>
      </trkpt>
      <trkpt lat="46.51262" lon="-1.81341">
        <ele>15.2</ele>
        <time>2021-06-19T16:26:31Z</time>
      </trkpt>
      <trkpt lat="46.51265" lon="-1.8134">
        <ele>15.1</ele>
        <time>2021-06-19T16:26:32Z</time>
      </trkpt>
      <trkpt lat="46.51266" lon="-1.81339">
        <ele>15.1</ele>
        <time>2021-06-19T16:26:33Z</time>
      </trkpt>
      <trkpt lat="46.51267" lon="-1.81338">
        <ele>15</ele>
        <time>2021-06-19T16:26:34Z</time>
      </trkpt>
      <trkpt lat="46.51268" lon="-1.81337">
        <ele>15</ele>
        <time>2021-06-19T16:26:35Z</time>
      </trkpt>
      <trkpt lat="46.5127" lon="-1.81336">
        <ele>15</ele>
        <time>2021-06-19T16:26:36Z</time>
      </trkpt>
      <trkpt lat="46.51272" lon="-1.81334">
        <ele>14.9</ele>
        <time>2021-06-19T16:26:38Z</time>
      </trkpt>
      <trkpt lat="46.51273" lon="-1.81333">
        <ele>14.8</ele>
        <time>2021-06-19T16:26:39Z</time>
      </trkpt>
      <trkpt lat="46.51275" lon="-1.81332">
        <ele>14.8</ele>
        <time>2021-06-19T16:26:40Z</time>
      </trkpt>
      <trkpt lat="46.51277" lon="-1.8133">
        <ele>14.7</ele>
        <time>2021-06-19T16:26:41Z</time>
      </trkpt>
      <trkpt lat="46.51278" lon="-1.8133">
        <ele>14.7</ele>
        <time>2021-06-19T16:26:42Z</time>
      </trkpt>
      <trkpt lat="46.51279" lon="-1.81328">
        <ele>14.7</ele>
        <time>2021-06-19T16:26:43Z</time>
      </trkpt>
      <trkpt lat="46.51282" lon="-1.81326">
        <ele>14.6</ele>
        <time>2021-06-19T16:26:45Z</time>
      </trkpt>
      <trkpt lat="46.51284" lon="-1.81325">
        <ele>14.6</ele>
        <time>2021-06-19T16:26:46Z</time>
      </trkpt>
      <trkpt lat="46.51286" lon="-1.81323">
        <ele>14.5</ele>
        <time>2021-06-19T16:26:47Z</time>
      </trkpt>
      <trkpt lat="46.51287" lon="-1.81322">
        <ele>14.5</ele>
        <time>2021-06-19T16:26:48Z</time>
      </trkpt>
      <trkpt lat="46.51288" lon="-1.81321">
        <ele>14.5</ele>
        <time>2021-06-19T16:26:49Z</time>
      </trkpt>
      <trkpt lat="46.51289" lon="-1.8132">
        <ele>14.4</ele>
        <time>2021-06-19T16:26:50Z</time>
      </trkpt>
      <trkpt lat="46.51291" lon="-1.81319">
        <ele>14.4</ele>
        <time>2021-06-19T16:26:51Z</time>
      </trkpt>
      <trkpt lat="46.51292" lon="-1.81318">
        <ele>14.3</ele>
        <time>2021-06-19T16:26:52Z</time>
      </trkpt>
      <trkpt lat="46.51294" lon="-1.81316">
        <ele>14.3</ele>
        <time>2021-06-19T16:26:54Z</time>
      </trkpt>
      <trkpt lat="46.51296" lon="-1.81315">
        <ele>14.3</ele>
        <time>2021-06-19T16:26:56Z</time>
      </trkpt>
      <trkpt lat="46.51297" lon="-1.81315">
        <ele>14.2</ele>
        <time>2021-06-19T16:26:57Z</time>
      </trkpt>
      <trkpt lat="46.51299" lon="-1.81314">
        <ele>14.2</ele>
        <time>2021-06-19T16:26:58Z</time>
      </trkpt>
      <trkpt lat="46.513" lon="-1.81313">
        <ele>14.2</ele>
        <time>2021-06-19T16:26:59Z</time>
      </trkpt>
      <trkpt lat="46.51301" lon="-1.81313">
        <ele>14.1</ele>
        <time>2021-06-19T16:27:00Z</time>
      </trkpt>
      <trkpt lat="46.51304" lon="-1.81312">
        <ele>14.1</ele>
        <time>2021-06-19T16:27:02Z</time>
      </trkpt>
      <trkpt lat="46.51304" lon="-1.81312">
        <ele>14.1</ele>
        <time>2021-06-19T16:27:03Z</time>
      </trkpt>
      <trkpt lat="46.51306" lon="-1.81311">
        <ele>14.1</ele>
        <time>2021-06-19T16:27:04Z</time>
      </trkpt>
      <trkpt lat="46.51308" lon="-1.81311">
        <ele>14.1</ele>
        <time>2021-06-19T16:27:06Z</time>
      </trkpt>
      <trkpt lat="46.51309" lon="-1.8131">
        <ele>14</ele>
        <time>2021-06-19T16:27:07Z</time>
      </trkpt>
      <trkpt lat="46.51311" lon="-1.8131">
        <ele>14</ele>
        <time>2021-06-19T16:27:08Z</time>
      </trkpt>
      <trkpt lat="46.51312" lon="-1.8131">
        <ele>14</ele>
        <time>2021-06-19T16:27:09Z</time>
      </trkpt>
      <trkpt lat="46.51314" lon="-1.8131">
        <ele>14</ele>
        <time>2021-06-19T16:27:10Z</time>
      </trkpt>
      <trkpt lat="46.51316" lon="-1.81309">
        <ele>14</ele>
        <time>2021-06-19T16:27:12Z</time>
      </trkpt>
      <trkpt lat="46.51316" lon="-1.81309">
        <ele>14</ele>
        <time>2021-06-19T16:27:13Z</time>
      </trkpt>
      <trkpt lat="46.51317" lon="-1.81309">
        <ele>14</ele>
        <time>2021-06-19T16:27:14Z</time>
      </trkpt>
      <trkpt lat="46.51319" lon="-1.81309">
        <ele>14</ele>
        <time>2021-06-19T16:27:15Z</time>
      </trkpt>
      <trkpt lat="46.5132" lon="-1.81309">
        <ele>14</ele>
        <time>2021-06-19T16:27:16Z</time>
      </trkpt>
      <trkpt lat="46.51322" lon="-1.81309">
        <ele>14</ele>
        <time>2021-06-19T16:27:18Z</time>
      </trkpt>
      <trkpt lat="46.51324" lon="-1.81309">
        <ele>14</ele>
        <time>2021-06-19T16:27:20Z</time>
      </trkpt>
      <trkpt lat="46.51325" lon="-1.81308">
        <ele>14</ele>
        <time>2021-06-19T16:27:21Z</time>
      </trkpt>
      <trkpt lat="46.51326" lon="-1.81307">
        <ele>14</ele>
        <time>2021-06-19T16:27:22Z</time>
      </trkpt>
      <trkpt lat="46.51327" lon="-1.81306">
        <ele>14.1</ele>
        <time>2021-06-19T16:27:23Z</time>
      </trkpt>
      <trkpt lat="46.51328" lon="-1.81304">
        <ele>14.1</ele>
        <time>2021-06-19T16:27:25Z</time>
      </trkpt>
      <trkpt lat="46.5133" lon="-1.81302">
        <ele>14.1</ele>
        <time>2021-06-19T16:27:26Z</time>
      </trkpt>
      <trkpt lat="46.5133" lon="-1.81301">
        <ele>14.1</ele>
        <time>2021-06-19T16:27:27Z</time>
      </trkpt>
      <trkpt lat="46.51331" lon="-1.813">
        <ele>14.1</ele>
        <time>2021-06-19T16:27:28Z</time>
      </trkpt>
      <trkpt lat="46.51332" lon="-1.81299">
        <ele>14.1</ele>
        <time>2021-06-19T16:27:29Z</time>
      </trkpt>
      <trkpt lat="46.51333" lon="-1.81297">
        <ele>14.1</ele>
        <time>2021-06-19T16:27:30Z</time>
      </trkpt>
      <trkpt lat="46.51334" lon="-1.81295">
        <ele>14.2</ele>
        <time>2021-06-19T16:27:32Z</time>
      </trkpt>
      <trkpt lat="46.51335" lon="-1.81293">
        <ele>14.2</ele>
        <time>2021-06-19T16:27:33Z</time>
      </trkpt>
      <trkpt lat="46.51336" lon="-1.8129">
        <ele>14.2</ele>
        <time>2021-06-19T16:27:34Z</time>
      </trkpt>
      <trkpt lat="46.51337" lon="-1.81288">
        <ele>14.2</ele>
        <time>2021-06-19T16:27:36Z</time>
      </trkpt>
      <trkpt lat="46.51338" lon="-1.81286">
        <ele>14.2</ele>
        <time>2021-06-19T16:27:37Z</time>
      </trkpt>
      <trkpt lat="46.51338" lon="-1.81284">
        <ele>14.2</ele>
        <time>2021-06-19T16:27:38Z</time>
      </trkpt>
      <trkpt lat="46.51339" lon="-1.81282">
        <ele>14.2</ele>
        <time>2021-06-19T16:27:39Z</time>
      </trkpt>
      <trkpt lat="46.5134" lon="-1.8128">
        <ele>14.3</ele>
        <time>2021-06-19T16:27:40Z</time>
      </trkpt>
      <trkpt lat="46.51341" lon="-1.81278">
        <ele>14.3</ele>
        <time>2021-06-19T16:27:41Z</time>
      </trkpt>
      <trkpt lat="46.51343" lon="-1.81275">
        <ele>14.3</ele>
        <time>2021-06-19T16:27:43Z</time>
      </trkpt>
      <trkpt lat="46.51344" lon="-1.81274">
        <ele>14.3</ele>
        <time>2021-06-19T16:27:44Z</time>
      </trkpt>
      <trkpt lat="46.51345" lon="-1.81272">
        <ele>14.3</ele>
        <time>2021-06-19T16:27:45Z</time>
      </trkpt>
      <trkpt lat="46.51346" lon="-1.81271">
        <ele>14.4</ele>
        <time>2021-06-19T16:27:46Z</time>
      </trkpt>
      <trkpt lat="46.51347" lon="-1.8127">
        <ele>14.4</ele>
        <time>2021-06-19T16:27:47Z</time>
      </trkpt>
      <trkpt lat="46.51348" lon="-1.81268">
        <ele>14.4</ele>
        <time>2021-06-19T16:27:48Z</time>
      </trkpt>
      <trkpt lat="46.5135" lon="-1.81266">
        <ele>14.4</ele>
        <time>2021-06-19T16:27:50Z</time>
      </trkpt>
      <trkpt lat="46.51351" lon="-1.81265">
        <ele>14.4</ele>
        <time>2021-06-19T16:27:51Z</time>
      </trkpt>
      <trkpt lat="46.51351" lon="-1.81263">
        <ele>14.5</ele>
        <time>2021-06-19T16:27:52Z</time>
      </trkpt>
      <trkpt lat="46.51352" lon="-1.81262">
        <ele>14.5</ele>
        <time>2021-06-19T16:27:53Z</time>
      </trkpt>
      <trkpt lat="46.51353" lon="-1.8126">
        <ele>14.5</ele>
        <time>2021-06-19T16:27:55Z</time>
      </trkpt>
      <trkpt lat="46.51354" lon="-1.81258">
        <ele>14.5</ele>
        <time>2021-06-19T16:27:56Z</time>
      </trkpt>
      <trkpt lat="46.51355" lon="-1.81257">
        <ele>14.5</ele>
        <time>2021-06-19T16:27:57Z</time>
      </trkpt>
      <trkpt lat="46.51356" lon="-1.81255">
        <ele>14.5</ele>
        <time>2021-06-19T16:27:58Z</time>
      </trkpt>
      <trkpt lat="46.51357" lon="-1.81253">
        <ele>14.6</ele>
        <time>2021-06-19T16:27:59Z</time>
      </trkpt>
      <trkpt lat="46.51357" lon="-1.81251">
        <ele>14.6</ele>
        <time>2021-06-19T16:28:00Z</time>
      </trkpt>
      <trkpt lat="46.51358" lon="-1.8125">
        <ele>14.6</ele>
        <time>2021-06-19T16:28:01Z</time>
      </trkpt>
      <trkpt lat="46.5136" lon="-1.81247">
        <ele>14.6</ele>
        <time>2021-06-19T16:28:03Z</time>
      </trkpt>
      <trkpt lat="46.51361" lon="-1.81245">
        <ele>14.6</ele>
        <time>2021-06-19T16:28:05Z</time>
      </trkpt>
      <trkpt lat="46.51361" lon="-1.81243">
        <ele>14.6</ele>
        <time>2021-06-19T16:28:06Z</time>
      </trkpt>
      <trkpt lat="46.51363" lon="-1.81241">
        <ele>14.6</ele>
        <time>2021-06-19T16:28:07Z</time>
      </trkpt>
      <trkpt lat="46.51364" lon="-1.81237">
        <ele>14.6</ele>
        <time>2021-06-19T16:28:09Z</time>
      </trkpt>
      <trkpt lat="46.51365" lon="-1.81233">
        <ele>14.6</ele>
        <time>2021-06-19T16:28:10Z</time>
      </trkpt>
      <trkpt lat="46.51366" lon="-1.81231">
        <ele>14.6</ele>
        <time>2021-06-19T16:28:11Z</time>
      </trkpt>
      <trkpt lat="46.51366" lon="-1.8123">
        <ele>14.6</ele>
        <time>2021-06-19T16:28:12Z</time>
      </trkpt>
      <trkpt lat="46.51367" lon="-1.81228">
        <ele>14.6</ele>
        <time>2021-06-19T16:28:14Z</time>
      </trkpt>
      <trkpt lat="46.51368" lon="-1.81226">
        <ele>14.5</ele>
        <time>2021-06-19T16:28:15Z</time>
      </trkpt>
      <trkpt lat="46.51368" lon="-1.81224">
        <ele>14.5</ele>
        <time>2021-06-19T16:28:16Z</time>
      </trkpt>
      <trkpt lat="46.51369" lon="-1.81221">
        <ele>14.5</ele>
        <time>2021-06-19T16:28:17Z</time>
      </trkpt>
      <trkpt lat="46.51369" lon="-1.8122">
        <ele>14.5</ele>
        <time>2021-06-19T16:28:18Z</time>
      </trkpt>
      <trkpt lat="46.51369" lon="-1.81219">
        <ele>14.4</ele>
        <time>2021-06-19T16:28:19Z</time>
      </trkpt>
      <trkpt lat="46.51369" lon="-1.81217">
        <ele>14.4</ele>
        <time>2021-06-19T16:28:20Z</time>
      </trkpt>
      <trkpt lat="46.5137" lon="-1.81215">
        <ele>14.4</ele>
        <time>2021-06-19T16:28:22Z</time>
      </trkpt>
      <trkpt lat="46.51371" lon="-1.81213">
        <ele>14.3</ele>
        <time>2021-06-19T16:28:23Z</time>
      </trkpt>
      <trkpt lat="46.51373" lon="-1.81211">
        <ele>14.3</ele>
        <time>2021-06-19T16:28:25Z</time>
      </trkpt>
      <trkpt lat="46.51374" lon="-1.81209">
        <ele>14.2</ele>
        <time>2021-06-19T16:28:26Z</time>
      </trkpt>
      <trkpt lat="46.51375" lon="-1.81208">
        <ele>14.2</ele>
        <time>2021-06-19T16:28:27Z</time>
      </trkpt>
      <trkpt lat="46.51375" lon="-1.81207">
        <ele>14.2</ele>
        <time>2021-06-19T16:28:28Z</time>
      </trkpt>
      <trkpt lat="46.51376" lon="-1.81205">
        <ele>14.1</ele>
        <time>2021-06-19T16:28:29Z</time>
      </trkpt>
      <trkpt lat="46.51376" lon="-1.81204">
        <ele>14.1</ele>
        <time>2021-06-19T16:28:30Z</time>
      </trkpt>
      <trkpt lat="46.51376" lon="-1.81202">
        <ele>14.1</ele>
        <time>2021-06-19T16:28:32Z</time>
      </trkpt>
      <trkpt lat="46.51376" lon="-1.81202">
        <ele>14</ele>
        <time>2021-06-19T16:28:33Z</time>
      </trkpt>
      <trkpt lat="46.51377" lon="-1.81202">
        <ele>14</ele>
        <time>2021-06-19T16:28:34Z</time>
      </trkpt>
      <trkpt lat="46.5138" lon="-1.81203">
        <ele>13.9</ele>
        <time>2021-06-19T16:28:36Z</time>
      </trkpt>
      <trkpt lat="46.51383" lon="-1.81203">
        <ele>13.8</ele>
        <time>2021-06-19T16:28:37Z</time>
      </trkpt>
      <trkpt lat="46.51385" lon="-1.81202">
        <ele>13.7</ele>
        <time>2021-06-19T16:28:39Z</time>
      </trkpt>
      <trkpt lat="46.51387" lon="-1.81201">
        <ele>13.7</ele>
        <time>2021-06-19T16:28:40Z</time>
      </trkpt>
      <trkpt lat="46.51388" lon="-1.81199">
        <ele>13.6</ele>
        <time>2021-06-19T16:28:41Z</time>
      </trkpt>
      <trkpt lat="46.51389" lon="-1.81197">
        <ele>13.6</ele>
        <time>2021-06-19T16:28:42Z</time>
      </trkpt>
      <trkpt lat="46.51389" lon="-1.81195">
        <ele>13.5</ele>
        <time>2021-06-19T16:28:43Z</time>
      </trkpt>
      <trkpt lat="46.51389" lon="-1.81192">
        <ele>13.5</ele>
        <time>2021-06-19T16:28:44Z</time>
      </trkpt>
      <trkpt lat="46.51389" lon="-1.8119">
        <ele>13.5</ele>
        <time>2021-06-19T16:28:45Z</time>
      </trkpt>
      <trkpt lat="46.5139" lon="-1.81188">
        <ele>13.4</ele>
        <time>2021-06-19T16:28:46Z</time>
      </trkpt>
      <trkpt lat="46.5139" lon="-1.81185">
        <ele>13.4</ele>
        <time>2021-06-19T16:28:47Z</time>
      </trkpt>
      <trkpt lat="46.5139" lon="-1.81184">
        <ele>13.4</ele>
        <time>2021-06-19T16:28:48Z</time>
      </trkpt>
      <trkpt lat="46.51389" lon="-1.8118">
        <ele>13.4</ele>
        <time>2021-06-19T16:28:49Z</time>
      </trkpt>
      <trkpt lat="46.51389" lon="-1.81179">
        <ele>13.4</ele>
        <time>2021-06-19T16:28:51Z</time>
      </trkpt>
      <trkpt lat="46.51389" lon="-1.81178">
        <ele>13.3</ele>
        <time>2021-06-19T16:28:52Z</time>
      </trkpt>
      <trkpt lat="46.51389" lon="-1.81177">
        <ele>13.3</ele>
        <time>2021-06-19T16:28:53Z</time>
      </trkpt>
      <trkpt lat="46.51388" lon="-1.81175">
        <ele>13.3</ele>
        <time>2021-06-19T16:28:54Z</time>
      </trkpt>
      <trkpt lat="46.51388" lon="-1.81174">
        <ele>13.3</ele>
        <time>2021-06-19T16:28:55Z</time>
      </trkpt>
      <trkpt lat="46.5139" lon="-1.81173">
        <ele>13.3</ele>
        <time>2021-06-19T16:28:57Z</time>
      </trkpt>
      <trkpt lat="46.51391" lon="-1.81172">
        <ele>13.3</ele>
        <time>2021-06-19T16:28:58Z</time>
      </trkpt>
      <trkpt lat="46.51392" lon="-1.8117">
        <ele>13.3</ele>
        <time>2021-06-19T16:28:59Z</time>
      </trkpt>
      <trkpt lat="46.51394" lon="-1.81169">
        <ele>13.3</ele>
        <time>2021-06-19T16:29:00Z</time>
      </trkpt>
      <trkpt lat="46.51399" lon="-1.81168">
        <ele>13.2</ele>
        <time>2021-06-19T16:29:02Z</time>
      </trkpt>
      <trkpt lat="46.51401" lon="-1.81167">
        <ele>13.2</ele>
        <time>2021-06-19T16:29:04Z</time>
      </trkpt>
      <trkpt lat="46.51402" lon="-1.81166">
        <ele>13.2</ele>
        <time>2021-06-19T16:29:05Z</time>
      </trkpt>
      <trkpt lat="46.51403" lon="-1.81166">
        <ele>13.2</ele>
        <time>2021-06-19T16:29:06Z</time>
      </trkpt>
      <trkpt lat="46.51405" lon="-1.81164">
        <ele>13.2</ele>
        <time>2021-06-19T16:29:07Z</time>
      </trkpt>
      <trkpt lat="46.51406" lon="-1.81163">
        <ele>13.2</ele>
        <time>2021-06-19T16:29:08Z</time>
      </trkpt>
      <trkpt lat="46.51407" lon="-1.81163">
        <ele>13.2</ele>
        <time>2021-06-19T16:29:09Z</time>
      </trkpt>
      <trkpt lat="46.51408" lon="-1.81162">
        <ele>13.2</ele>
        <time>2021-06-19T16:29:10Z</time>
      </trkpt>
      <trkpt lat="46.5141" lon="-1.81161">
        <ele>13.2</ele>
        <time>2021-06-19T16:29:12Z</time>
      </trkpt>
      <trkpt lat="46.51413" lon="-1.81158">
        <ele>13.2</ele>
        <time>2021-06-19T16:29:13Z</time>
      </trkpt>
      <trkpt lat="46.51414" lon="-1.81157">
        <ele>13.1</ele>
        <time>2021-06-19T16:29:14Z</time>
      </trkpt>
      <trkpt lat="46.51417" lon="-1.81155">
        <ele>13.1</ele>
        <time>2021-06-19T16:29:15Z</time>
      </trkpt>
      <trkpt lat="46.51418" lon="-1.81154">
        <ele>13.1</ele>
        <time>2021-06-19T16:29:16Z</time>
      </trkpt>
      <trkpt lat="46.5142" lon="-1.8115">
        <ele>13.1</ele>
        <time>2021-06-19T16:29:17Z</time>
      </trkpt>
      <trkpt lat="46.51421" lon="-1.81149">
        <ele>13</ele>
        <time>2021-06-19T16:29:19Z</time>
      </trkpt>
      <trkpt lat="46.51422" lon="-1.81147">
        <ele>13</ele>
        <time>2021-06-19T16:29:20Z</time>
      </trkpt>
      <trkpt lat="46.51423" lon="-1.81145">
        <ele>13</ele>
        <time>2021-06-19T16:29:21Z</time>
      </trkpt>
      <trkpt lat="46.51426" lon="-1.81139">
        <ele>13</ele>
        <time>2021-06-19T16:29:23Z</time>
      </trkpt>
      <trkpt lat="46.51428" lon="-1.81134">
        <ele>12.9</ele>
        <time>2021-06-19T16:29:25Z</time>
      </trkpt>
      <trkpt lat="46.5143" lon="-1.8113">
        <ele>12.9</ele>
        <time>2021-06-19T16:29:26Z</time>
      </trkpt>
      <trkpt lat="46.51431" lon="-1.81125">
        <ele>12.9</ele>
        <time>2021-06-19T16:29:27Z</time>
      </trkpt>
      <trkpt lat="46.51433" lon="-1.81121">
        <ele>12.9</ele>
        <time>2021-06-19T16:29:28Z</time>
      </trkpt>
      <trkpt lat="46.51434" lon="-1.81117">
        <ele>12.9</ele>
        <time>2021-06-19T16:29:30Z</time>
      </trkpt>
      <trkpt lat="46.51436" lon="-1.81113">
        <ele>13</ele>
        <time>2021-06-19T16:29:31Z</time>
      </trkpt>
      <trkpt lat="46.51437" lon="-1.81111">
        <ele>13</ele>
        <time>2021-06-19T16:29:32Z</time>
      </trkpt>
      <trkpt lat="46.51438" lon="-1.81108">
        <ele>13</ele>
        <time>2021-06-19T16:29:33Z</time>
      </trkpt>
      <trkpt lat="46.51438" lon="-1.81106">
        <ele>13</ele>
        <time>2021-06-19T16:29:34Z</time>
      </trkpt>
      <trkpt lat="46.51439" lon="-1.81102">
        <ele>13.1</ele>
        <time>2021-06-19T16:29:36Z</time>
      </trkpt>
      <trkpt lat="46.5144" lon="-1.811">
        <ele>13.1</ele>
        <time>2021-06-19T16:29:37Z</time>
      </trkpt>
      <trkpt lat="46.5144" lon="-1.81098">
        <ele>13.1</ele>
        <time>2021-06-19T16:29:38Z</time>
      </trkpt>
      <trkpt lat="46.5144" lon="-1.81096">
        <ele>13.2</ele>
        <time>2021-06-19T16:29:39Z</time>
      </trkpt>
      <trkpt lat="46.5144" lon="-1.81094">
        <ele>13.2</ele>
        <time>2021-06-19T16:29:40Z</time>
      </trkpt>
      <trkpt lat="46.5144" lon="-1.81093">
        <ele>13.2</ele>
        <time>2021-06-19T16:29:41Z</time>
      </trkpt>
      <trkpt lat="46.51441" lon="-1.81089">
        <ele>13.3</ele>
        <time>2021-06-19T16:29:43Z</time>
      </trkpt>
      <trkpt lat="46.51441" lon="-1.81087">
        <ele>13.3</ele>
        <time>2021-06-19T16:29:44Z</time>
      </trkpt>
      <trkpt lat="46.51441" lon="-1.81086">
        <ele>13.3</ele>
        <time>2021-06-19T16:29:45Z</time>
      </trkpt>
      <trkpt lat="46.51441" lon="-1.81084">
        <ele>13.4</ele>
        <time>2021-06-19T16:29:46Z</time>
      </trkpt>
      <trkpt lat="46.51442" lon="-1.81082">
        <ele>13.4</ele>
        <time>2021-06-19T16:29:48Z</time>
      </trkpt>
      <trkpt lat="46.51442" lon="-1.8108">
        <ele>13.4</ele>
        <time>2021-06-19T16:29:49Z</time>
      </trkpt>
      <trkpt lat="46.51442" lon="-1.81079">
        <ele>13.5</ele>
        <time>2021-06-19T16:29:50Z</time>
      </trkpt>
      <trkpt lat="46.51443" lon="-1.81077">
        <ele>13.5</ele>
        <time>2021-06-19T16:29:52Z</time>
      </trkpt>
      <trkpt lat="46.51443" lon="-1.81076">
        <ele>13.5</ele>
        <time>2021-06-19T16:29:53Z</time>
      </trkpt>
      <trkpt lat="46.51444" lon="-1.81072">
        <ele>13.6</ele>
        <time>2021-06-19T16:29:55Z</time>
      </trkpt>
      <trkpt lat="46.51445" lon="-1.8107">
        <ele>13.6</ele>
        <time>2021-06-19T16:29:56Z</time>
      </trkpt>
      <trkpt lat="46.51446" lon="-1.81069">
        <ele>13.6</ele>
        <time>2021-06-19T16:29:57Z</time>
      </trkpt>
      <trkpt lat="46.51447" lon="-1.81067">
        <ele>13.6</ele>
        <time>2021-06-19T16:29:59Z</time>
      </trkpt>
      <trkpt lat="46.51448" lon="-1.81065">
        <ele>13.7</ele>
        <time>2021-06-19T16:30:00Z</time>
      </trkpt>
      <trkpt lat="46.5145" lon="-1.81062">
        <ele>13.7</ele>
        <time>2021-06-19T16:30:01Z</time>
      </trkpt>
      <trkpt lat="46.51451" lon="-1.8106">
        <ele>13.7</ele>
        <time>2021-06-19T16:30:03Z</time>
      </trkpt>
      <trkpt lat="46.51452" lon="-1.81058">
        <ele>13.8</ele>
        <time>2021-06-19T16:30:04Z</time>
      </trkpt>
      <trkpt lat="46.51453" lon="-1.81056">
        <ele>13.8</ele>
        <time>2021-06-19T16:30:05Z</time>
      </trkpt>
      <trkpt lat="46.51455" lon="-1.81054">
        <ele>13.8</ele>
        <time>2021-06-19T16:30:07Z</time>
      </trkpt>
      <trkpt lat="46.51456" lon="-1.81052">
        <ele>13.8</ele>
        <time>2021-06-19T16:30:08Z</time>
      </trkpt>
      <trkpt lat="46.51457" lon="-1.81051">
        <ele>13.9</ele>
        <time>2021-06-19T16:30:09Z</time>
      </trkpt>
      <trkpt lat="46.51459" lon="-1.8105">
        <ele>13.9</ele>
        <time>2021-06-19T16:30:10Z</time>
      </trkpt>
      <trkpt lat="46.51459" lon="-1.8105">
        <ele>13.9</ele>
        <time>2021-06-19T16:30:11Z</time>
      </trkpt>
      <trkpt lat="46.5146" lon="-1.81049">
        <ele>13.9</ele>
        <time>2021-06-19T16:30:12Z</time>
      </trkpt>
      <trkpt lat="46.51461" lon="-1.81048">
        <ele>13.9</ele>
        <time>2021-06-19T16:30:13Z</time>
      </trkpt>
      <trkpt lat="46.51463" lon="-1.81046">
        <ele>14</ele>
        <time>2021-06-19T16:30:15Z</time>
      </trkpt>
      <trkpt lat="46.51464" lon="-1.81045">
        <ele>14</ele>
        <time>2021-06-19T16:30:17Z</time>
      </trkpt>
      <trkpt lat="46.51464" lon="-1.81045">
        <ele>14</ele>
        <time>2021-06-19T16:30:18Z</time>
      </trkpt>
      <trkpt lat="46.51465" lon="-1.81044">
        <ele>14</ele>
        <time>2021-06-19T16:30:19Z</time>
      </trkpt>
      <trkpt lat="46.51466" lon="-1.81043">
        <ele>14</ele>
        <time>2021-06-19T16:30:20Z</time>
      </trkpt>
      <trkpt lat="46.51467" lon="-1.81042">
        <ele>14</ele>
        <time>2021-06-19T16:30:22Z</time>
      </trkpt>
      <trkpt lat="46.51468" lon="-1.81041">
        <ele>14.1</ele>
        <time>2021-06-19T16:30:23Z</time>
      </trkpt>
      <trkpt lat="46.51468" lon="-1.81041">
        <ele>14.1</ele>
        <time>2021-06-19T16:30:24Z</time>
      </trkpt>
      <trkpt lat="46.51469" lon="-1.81039">
        <ele>14.1</ele>
        <time>2021-06-19T16:30:26Z</time>
      </trkpt>
      <trkpt lat="46.5147" lon="-1.81037">
        <ele>14.1</ele>
        <time>2021-06-19T16:30:27Z</time>
      </trkpt>
      <trkpt lat="46.51472" lon="-1.81035">
        <ele>14.2</ele>
        <time>2021-06-19T16:30:29Z</time>
      </trkpt>
      <trkpt lat="46.51473" lon="-1.81034">
        <ele>14.2</ele>
        <time>2021-06-19T16:30:30Z</time>
      </trkpt>
      <trkpt lat="46.51474" lon="-1.81033">
        <ele>14.2</ele>
        <time>2021-06-19T16:30:31Z</time>
      </trkpt>
      <trkpt lat="46.51474" lon="-1.81032">
        <ele>14.3</ele>
        <time>2021-06-19T16:30:32Z</time>
      </trkpt>
      <trkpt lat="46.51475" lon="-1.81032">
        <ele>14.3</ele>
        <time>2021-06-19T16:30:33Z</time>
      </trkpt>
      <trkpt lat="46.51476" lon="-1.81031">
        <ele>14.3</ele>
        <time>2021-06-19T16:30:35Z</time>
      </trkpt>
      <trkpt lat="46.51477" lon="-1.8103">
        <ele>14.3</ele>
        <time>2021-06-19T16:30:37Z</time>
      </trkpt>
      <trkpt lat="46.51479" lon="-1.81028">
        <ele>14.4</ele>
        <time>2021-06-19T16:30:38Z</time>
      </trkpt>
      <trkpt lat="46.5148" lon="-1.81027">
        <ele>14.5</ele>
        <time>2021-06-19T16:30:40Z</time>
      </trkpt>
      <trkpt lat="46.51482" lon="-1.81025">
        <ele>14.5</ele>
        <time>2021-06-19T16:30:41Z</time>
      </trkpt>
      <trkpt lat="46.51483" lon="-1.81024">
        <ele>14.5</ele>
        <time>2021-06-19T16:30:42Z</time>
      </trkpt>
      <trkpt lat="46.51483" lon="-1.81023">
        <ele>14.6</ele>
        <time>2021-06-19T16:30:43Z</time>
      </trkpt>
      <trkpt lat="46.51486" lon="-1.81021">
        <ele>14.7</ele>
        <time>2021-06-19T16:30:45Z</time>
      </trkpt>
      <trkpt lat="46.51487" lon="-1.81019">
        <ele>14.7</ele>
        <time>2021-06-19T16:30:47Z</time>
      </trkpt>
      <trkpt lat="46.51488" lon="-1.81017">
        <ele>14.8</ele>
        <time>2021-06-19T16:30:48Z</time>
      </trkpt>
      <trkpt lat="46.51489" lon="-1.81016">
        <ele>14.8</ele>
        <time>2021-06-19T16:30:49Z</time>
      </trkpt>
      <trkpt lat="46.51489" lon="-1.81014">
        <ele>14.8</ele>
        <time>2021-06-19T16:30:50Z</time>
      </trkpt>
      <trkpt lat="46.51489" lon="-1.81013">
        <ele>14.8</ele>
        <time>2021-06-19T16:30:51Z</time>
      </trkpt>
      <trkpt lat="46.51489" lon="-1.81011">
        <ele>14.9</ele>
        <time>2021-06-19T16:30:52Z</time>
      </trkpt>
      <trkpt lat="46.51489" lon="-1.8101">
        <ele>14.9</ele>
        <time>2021-06-19T16:30:53Z</time>
      </trkpt>
      <trkpt lat="46.51488" lon="-1.81008">
        <ele>14.9</ele>
        <time>2021-06-19T16:30:55Z</time>
      </trkpt>
      <trkpt lat="46.51488" lon="-1.81006">
        <ele>14.9</ele>
        <time>2021-06-19T16:30:56Z</time>
      </trkpt>
      <trkpt lat="46.51488" lon="-1.81005">
        <ele>14.9</ele>
        <time>2021-06-19T16:30:57Z</time>
      </trkpt>
      <trkpt lat="46.51488" lon="-1.81002">
        <ele>14.9</ele>
        <time>2021-06-19T16:30:59Z</time>
      </trkpt>
      <trkpt lat="46.51489" lon="-1.81">
        <ele>14.9</ele>
        <time>2021-06-19T16:31:00Z</time>
      </trkpt>
      <trkpt lat="46.51489" lon="-1.80999">
        <ele>14.9</ele>
        <time>2021-06-19T16:31:01Z</time>
      </trkpt>
      <trkpt lat="46.5149" lon="-1.80997">
        <ele>15</ele>
        <time>2021-06-19T16:31:03Z</time>
      </trkpt>
      <trkpt lat="46.51491" lon="-1.80996">
        <ele>15</ele>
        <time>2021-06-19T16:31:04Z</time>
      </trkpt>
      <trkpt lat="46.51491" lon="-1.80995">
        <ele>15</ele>
        <time>2021-06-19T16:31:06Z</time>
      </trkpt>
      <trkpt lat="46.51492" lon="-1.80993">
        <ele>14.9</ele>
        <time>2021-06-19T16:31:07Z</time>
      </trkpt>
      <trkpt lat="46.51493" lon="-1.80992">
        <ele>14.9</ele>
        <time>2021-06-19T16:31:08Z</time>
      </trkpt>
      <trkpt lat="46.51493" lon="-1.80991">
        <ele>14.9</ele>
        <time>2021-06-19T16:31:09Z</time>
      </trkpt>
      <trkpt lat="46.51495" lon="-1.80988">
        <ele>14.9</ele>
        <time>2021-06-19T16:31:10Z</time>
      </trkpt>
      <trkpt lat="46.51495" lon="-1.80987">
        <ele>14.9</ele>
        <time>2021-06-19T16:31:11Z</time>
      </trkpt>
      <trkpt lat="46.51496" lon="-1.80987">
        <ele>14.9</ele>
        <time>2021-06-19T16:31:12Z</time>
      </trkpt>
      <trkpt lat="46.51497" lon="-1.80986">
        <ele>14.9</ele>
        <time>2021-06-19T16:31:13Z</time>
      </trkpt>
      <trkpt lat="46.51499" lon="-1.80984">
        <ele>14.8</ele>
        <time>2021-06-19T16:31:14Z</time>
      </trkpt>
      <trkpt lat="46.515" lon="-1.80984">
        <ele>14.8</ele>
        <time>2021-06-19T16:31:16Z</time>
      </trkpt>
      <trkpt lat="46.51502" lon="-1.80983">
        <ele>14.8</ele>
        <time>2021-06-19T16:31:17Z</time>
      </trkpt>
      <trkpt lat="46.51503" lon="-1.80982">
        <ele>14.7</ele>
        <time>2021-06-19T16:31:18Z</time>
      </trkpt>
      <trkpt lat="46.51505" lon="-1.80981">
        <ele>14.6</ele>
        <time>2021-06-19T16:31:19Z</time>
      </trkpt>
      <trkpt lat="46.51506" lon="-1.80981">
        <ele>14.6</ele>
        <time>2021-06-19T16:31:20Z</time>
      </trkpt>
      <trkpt lat="46.51508" lon="-1.8098">
        <ele>14.5</ele>
        <time>2021-06-19T16:31:21Z</time>
      </trkpt>
      <trkpt lat="46.51509" lon="-1.8098">
        <ele>14.5</ele>
        <time>2021-06-19T16:31:22Z</time>
      </trkpt>
      <trkpt lat="46.51512" lon="-1.80979">
        <ele>14.3</ele>
        <time>2021-06-19T16:31:24Z</time>
      </trkpt>
      <trkpt lat="46.51513" lon="-1.80979">
        <ele>14.3</ele>
        <time>2021-06-19T16:31:25Z</time>
      </trkpt>
      <trkpt lat="46.51514" lon="-1.80979">
        <ele>14.2</ele>
        <time>2021-06-19T16:31:26Z</time>
      </trkpt>
      <trkpt lat="46.51515" lon="-1.80979">
        <ele>14.2</ele>
        <time>2021-06-19T16:31:27Z</time>
      </trkpt>
      <trkpt lat="46.51516" lon="-1.80979">
        <ele>14.1</ele>
        <time>2021-06-19T16:31:29Z</time>
      </trkpt>
      <trkpt lat="46.51518" lon="-1.80977">
        <ele>14</ele>
        <time>2021-06-19T16:31:30Z</time>
      </trkpt>
      <trkpt lat="46.51519" lon="-1.80975">
        <ele>13.9</ele>
        <time>2021-06-19T16:31:32Z</time>
      </trkpt>
      <trkpt lat="46.51519" lon="-1.80974">
        <ele>13.8</ele>
        <time>2021-06-19T16:31:33Z</time>
      </trkpt>
      <trkpt lat="46.5152" lon="-1.80973">
        <ele>13.8</ele>
        <time>2021-06-19T16:31:34Z</time>
      </trkpt>
      <trkpt lat="46.51522" lon="-1.80973">
        <ele>13.7</ele>
        <time>2021-06-19T16:31:35Z</time>
      </trkpt>
      <trkpt lat="46.51522" lon="-1.80973">
        <ele>13.6</ele>
        <time>2021-06-19T16:31:37Z</time>
      </trkpt>
      <trkpt lat="46.51523" lon="-1.80972">
        <ele>13.6</ele>
        <time>2021-06-19T16:31:38Z</time>
      </trkpt>
      <trkpt lat="46.51525" lon="-1.80973">
        <ele>13.5</ele>
        <time>2021-06-19T16:31:39Z</time>
      </trkpt>
      <trkpt lat="46.51526" lon="-1.80973">
        <ele>13.4</ele>
        <time>2021-06-19T16:31:40Z</time>
      </trkpt>
      <trkpt lat="46.51529" lon="-1.80975">
        <ele>13.2</ele>
        <time>2021-06-19T16:31:41Z</time>
      </trkpt>
      <trkpt lat="46.5153" lon="-1.80975">
        <ele>13.1</ele>
        <time>2021-06-19T16:31:42Z</time>
      </trkpt>
      <trkpt lat="46.51533" lon="-1.80977">
        <ele>12.9</ele>
        <time>2021-06-19T16:31:43Z</time>
      </trkpt>
      <trkpt lat="46.51536" lon="-1.80979">
        <ele>12.7</ele>
        <time>2021-06-19T16:31:45Z</time>
      </trkpt>
      <trkpt lat="46.51539" lon="-1.80981">
        <ele>12.5</ele>
        <time>2021-06-19T16:31:47Z</time>
      </trkpt>
      <trkpt lat="46.51542" lon="-1.80985">
        <ele>12.3</ele>
        <time>2021-06-19T16:31:49Z</time>
      </trkpt>
      <trkpt lat="46.51543" lon="-1.80987">
        <ele>12.3</ele>
        <time>2021-06-19T16:31:50Z</time>
      </trkpt>
      <trkpt lat="46.51544" lon="-1.80989">
        <ele>12.2</ele>
        <time>2021-06-19T16:31:52Z</time>
      </trkpt>
      <trkpt lat="46.51544" lon="-1.80992">
        <ele>12.1</ele>
        <time>2021-06-19T16:31:53Z</time>
      </trkpt>
      <trkpt lat="46.51544" lon="-1.80994">
        <ele>12</ele>
        <time>2021-06-19T16:31:54Z</time>
      </trkpt>
      <trkpt lat="46.51545" lon="-1.80996">
        <ele>12</ele>
        <time>2021-06-19T16:31:55Z</time>
      </trkpt>
      <trkpt lat="46.51546" lon="-1.80996">
        <ele>11.9</ele>
        <time>2021-06-19T16:31:56Z</time>
      </trkpt>
      <trkpt lat="46.51547" lon="-1.80997">
        <ele>11.9</ele>
        <time>2021-06-19T16:31:57Z</time>
      </trkpt>
      <trkpt lat="46.51549" lon="-1.80999">
        <ele>11.8</ele>
        <time>2021-06-19T16:31:59Z</time>
      </trkpt>
      <trkpt lat="46.5155" lon="-1.81">
        <ele>11.8</ele>
        <time>2021-06-19T16:32:01Z</time>
      </trkpt>
      <trkpt lat="46.51552" lon="-1.81002">
        <ele>11.7</ele>
        <time>2021-06-19T16:32:02Z</time>
      </trkpt>
      <trkpt lat="46.51553" lon="-1.81003">
        <ele>11.7</ele>
        <time>2021-06-19T16:32:03Z</time>
      </trkpt>
      <trkpt lat="46.51555" lon="-1.81003">
        <ele>11.6</ele>
        <time>2021-06-19T16:32:04Z</time>
      </trkpt>
      <trkpt lat="46.51556" lon="-1.81002">
        <ele>11.6</ele>
        <time>2021-06-19T16:32:06Z</time>
      </trkpt>
      <trkpt lat="46.51558" lon="-1.81002">
        <ele>11.5</ele>
        <time>2021-06-19T16:32:07Z</time>
      </trkpt>
      <trkpt lat="46.51558" lon="-1.81001">
        <ele>11.5</ele>
        <time>2021-06-19T16:32:08Z</time>
      </trkpt>
      <trkpt lat="46.51559" lon="-1.80999">
        <ele>11.5</ele>
        <time>2021-06-19T16:32:10Z</time>
      </trkpt>
      <trkpt lat="46.51559" lon="-1.80998">
        <ele>11.5</ele>
        <time>2021-06-19T16:32:11Z</time>
      </trkpt>
      <trkpt lat="46.51561" lon="-1.80999">
        <ele>11.4</ele>
        <time>2021-06-19T16:32:12Z</time>
      </trkpt>
      <trkpt lat="46.51562" lon="-1.80999">
        <ele>11.4</ele>
        <time>2021-06-19T16:32:13Z</time>
      </trkpt>
      <trkpt lat="46.51566" lon="-1.81">
        <ele>11.3</ele>
        <time>2021-06-19T16:32:15Z</time>
      </trkpt>
      <trkpt lat="46.51569" lon="-1.81002">
        <ele>11.2</ele>
        <time>2021-06-19T16:32:17Z</time>
      </trkpt>
      <trkpt lat="46.5157" lon="-1.81001">
        <ele>11.2</ele>
        <time>2021-06-19T16:32:18Z</time>
      </trkpt>
      <trkpt lat="46.51572" lon="-1.81002">
        <ele>11.2</ele>
        <time>2021-06-19T16:32:20Z</time>
      </trkpt>
      <trkpt lat="46.51574" lon="-1.81002">
        <ele>11.1</ele>
        <time>2021-06-19T16:32:22Z</time>
      </trkpt>
      <trkpt lat="46.51576" lon="-1.81003">
        <ele>11.1</ele>
        <time>2021-06-19T16:32:24Z</time>
      </trkpt>
      <trkpt lat="46.51577" lon="-1.81002">
        <ele>11.1</ele>
        <time>2021-06-19T16:32:25Z</time>
      </trkpt>
      <trkpt lat="46.51577" lon="-1.81002">
        <ele>11.1</ele>
        <time>2021-06-19T16:32:26Z</time>
      </trkpt>
      <trkpt lat="46.5158" lon="-1.81006">
        <ele>11</ele>
        <time>2021-06-19T16:32:28Z</time>
      </trkpt>
      <trkpt lat="46.51581" lon="-1.81007">
        <ele>11</ele>
        <time>2021-06-19T16:32:29Z</time>
      </trkpt>
      <trkpt lat="46.51583" lon="-1.81007">
        <ele>10.9</ele>
        <time>2021-06-19T16:32:30Z</time>
      </trkpt>
      <trkpt lat="46.51584" lon="-1.81009">
        <ele>10.9</ele>
        <time>2021-06-19T16:32:32Z</time>
      </trkpt>
      <trkpt lat="46.51585" lon="-1.81009">
        <ele>10.9</ele>
        <time>2021-06-19T16:32:33Z</time>
      </trkpt>
      <trkpt lat="46.51587" lon="-1.81008">
        <ele>10.9</ele>
        <time>2021-06-19T16:32:34Z</time>
      </trkpt>
      <trkpt lat="46.51587" lon="-1.81007">
        <ele>10.9</ele>
        <time>2021-06-19T16:32:35Z</time>
      </trkpt>
      <trkpt lat="46.51588" lon="-1.81007">
        <ele>10.8</ele>
        <time>2021-06-19T16:32:36Z</time>
      </trkpt>
      <trkpt lat="46.51592" lon="-1.81007">
        <ele>10.8</ele>
        <time>2021-06-19T16:32:38Z</time>
      </trkpt>
      <trkpt lat="46.51592" lon="-1.81007">
        <ele>10.8</ele>
        <time>2021-06-19T16:32:39Z</time>
      </trkpt>
      <trkpt lat="46.51594" lon="-1.81008">
        <ele>10.8</ele>
        <time>2021-06-19T16:32:40Z</time>
      </trkpt>
      <trkpt lat="46.51595" lon="-1.81009">
        <ele>10.7</ele>
        <time>2021-06-19T16:32:41Z</time>
      </trkpt>
      <trkpt lat="46.51598" lon="-1.81012">
        <ele>10.7</ele>
        <time>2021-06-19T16:32:43Z</time>
      </trkpt>
      <trkpt lat="46.51599" lon="-1.81013">
        <ele>10.7</ele>
        <time>2021-06-19T16:32:44Z</time>
      </trkpt>
      <trkpt lat="46.516" lon="-1.81014">
        <ele>10.6</ele>
        <time>2021-06-19T16:32:45Z</time>
      </trkpt>
      <trkpt lat="46.51603" lon="-1.81014">
        <ele>10.6</ele>
        <time>2021-06-19T16:32:47Z</time>
      </trkpt>
      <trkpt lat="46.51606" lon="-1.81014">
        <ele>10.6</ele>
        <time>2021-06-19T16:32:48Z</time>
      </trkpt>
      <trkpt lat="46.51607" lon="-1.81014">
        <ele>10.5</ele>
        <time>2021-06-19T16:32:49Z</time>
      </trkpt>
      <trkpt lat="46.51608" lon="-1.81014">
        <ele>10.5</ele>
        <time>2021-06-19T16:32:50Z</time>
      </trkpt>
      <trkpt lat="46.5161" lon="-1.81014">
        <ele>10.5</ele>
        <time>2021-06-19T16:32:51Z</time>
      </trkpt>
      <trkpt lat="46.51611" lon="-1.81014">
        <ele>10.5</ele>
        <time>2021-06-19T16:32:52Z</time>
      </trkpt>
      <trkpt lat="46.51612" lon="-1.81014">
        <ele>10.4</ele>
        <time>2021-06-19T16:32:54Z</time>
      </trkpt>
      <trkpt lat="46.51612" lon="-1.81014">
        <ele>10.4</ele>
        <time>2021-06-19T16:32:56Z</time>
      </trkpt>
      <trkpt lat="46.51613" lon="-1.81013">
        <ele>10.4</ele>
        <time>2021-06-19T16:32:57Z</time>
      </trkpt>
      <trkpt lat="46.51615" lon="-1.81013">
        <ele>10.4</ele>
        <time>2021-06-19T16:32:58Z</time>
      </trkpt>
      <trkpt lat="46.51615" lon="-1.81012">
        <ele>10.4</ele>
        <time>2021-06-19T16:32:59Z</time>
      </trkpt>
      <trkpt lat="46.51616" lon="-1.8101">
        <ele>10.4</ele>
        <time>2021-06-19T16:33:00Z</time>
      </trkpt>
      <trkpt lat="46.51616" lon="-1.81009">
        <ele>10.3</ele>
        <time>2021-06-19T16:33:02Z</time>
      </trkpt>
      <trkpt lat="46.51616" lon="-1.81008">
        <ele>10.3</ele>
        <time>2021-06-19T16:33:04Z</time>
      </trkpt>
      <trkpt lat="46.51617" lon="-1.81006">
        <ele>10.3</ele>
        <time>2021-06-19T16:33:05Z</time>
      </trkpt>
      <trkpt lat="46.51617" lon="-1.81005">
        <ele>10.3</ele>
        <time>2021-06-19T16:33:06Z</time>
      </trkpt>
      <trkpt lat="46.5162" lon="-1.81003">
        <ele>10.2</ele>
        <time>2021-06-19T16:33:07Z</time>
      </trkpt>
      <trkpt lat="46.51623" lon="-1.81001">
        <ele>10.2</ele>
        <time>2021-06-19T16:33:08Z</time>
      </trkpt>
      <trkpt lat="46.51625" lon="-1.80998">
        <ele>10.1</ele>
        <time>2021-06-19T16:33:09Z</time>
      </trkpt>
      <trkpt lat="46.51629" lon="-1.80996">
        <ele>10</ele>
        <time>2021-06-19T16:33:10Z</time>
      </trkpt>
      <trkpt lat="46.51632" lon="-1.80992">
        <ele>10</ele>
        <time>2021-06-19T16:33:11Z</time>
      </trkpt>
      <trkpt lat="46.51637" lon="-1.80987">
        <ele>9.9</ele>
        <time>2021-06-19T16:33:13Z</time>
      </trkpt>
      <trkpt lat="46.5164" lon="-1.80983">
        <ele>9.9</ele>
        <time>2021-06-19T16:33:14Z</time>
      </trkpt>
      <trkpt lat="46.51643" lon="-1.8098">
        <ele>9.8</ele>
        <time>2021-06-19T16:33:15Z</time>
      </trkpt>
      <trkpt lat="46.51646" lon="-1.80976">
        <ele>9.8</ele>
        <time>2021-06-19T16:33:16Z</time>
      </trkpt>
      <trkpt lat="46.51649" lon="-1.80973">
        <ele>9.4</ele>
        <time>2021-06-19T16:33:17Z</time>
      </trkpt>
      <trkpt lat="46.51651" lon="-1.80969">
        <ele>9.2</ele>
        <time>2021-06-19T16:33:19Z</time>
      </trkpt>
      <trkpt lat="46.51652" lon="-1.80965">
        <ele>8.9</ele>
        <time>2021-06-19T16:33:20Z</time>
      </trkpt>
      <trkpt lat="46.51653" lon="-1.80963">
        <ele>8.8</ele>
        <time>2021-06-19T16:33:21Z</time>
      </trkpt>
      <trkpt lat="46.51653" lon="-1.8096">
        <ele>8.6</ele>
        <time>2021-06-19T16:33:23Z</time>
      </trkpt>
      <trkpt lat="46.51652" lon="-1.80957">
        <ele>8.5</ele>
        <time>2021-06-19T16:33:24Z</time>
      </trkpt>
      <trkpt lat="46.51651" lon="-1.80954">
        <ele>8.3</ele>
        <time>2021-06-19T16:33:26Z</time>
      </trkpt>
      <trkpt lat="46.51651" lon="-1.80952">
        <ele>8.2</ele>
        <time>2021-06-19T16:33:27Z</time>
      </trkpt>
      <trkpt lat="46.51651" lon="-1.8095">
        <ele>8.1</ele>
        <time>2021-06-19T16:33:28Z</time>
      </trkpt>
      <trkpt lat="46.51651" lon="-1.8095">
        <ele>8.1</ele>
        <time>2021-06-19T16:33:30Z</time>
      </trkpt>
      <trkpt lat="46.51651" lon="-1.80948">
        <ele>8</ele>
        <time>2021-06-19T16:33:31Z</time>
      </trkpt>
      <trkpt lat="46.51651" lon="-1.80947">
        <ele>8</ele>
        <time>2021-06-19T16:33:32Z</time>
      </trkpt>
      <trkpt lat="46.51651" lon="-1.80945">
        <ele>7.9</ele>
        <time>2021-06-19T16:33:33Z</time>
      </trkpt>
      <trkpt lat="46.51651" lon="-1.80942">
        <ele>7.7</ele>
        <time>2021-06-19T16:33:34Z</time>
      </trkpt>
      <trkpt lat="46.51651" lon="-1.8094">
        <ele>7.6</ele>
        <time>2021-06-19T16:33:35Z</time>
      </trkpt>
      <trkpt lat="46.51652" lon="-1.80938">
        <ele>7.5</ele>
        <time>2021-06-19T16:33:36Z</time>
      </trkpt>
      <trkpt lat="46.51652" lon="-1.80935">
        <ele>7.4</ele>
        <time>2021-06-19T16:33:37Z</time>
      </trkpt>
      <trkpt lat="46.51654" lon="-1.8093">
        <ele>7.1</ele>
        <time>2021-06-19T16:33:39Z</time>
      </trkpt>
      <trkpt lat="46.51655" lon="-1.80927">
        <ele>6.9</ele>
        <time>2021-06-19T16:33:40Z</time>
      </trkpt>
      <trkpt lat="46.51657" lon="-1.80923">
        <ele>6.7</ele>
        <time>2021-06-19T16:33:42Z</time>
      </trkpt>
      <trkpt lat="46.5166" lon="-1.80919">
        <ele>6.5</ele>
        <time>2021-06-19T16:33:43Z</time>
      </trkpt>
      <trkpt lat="46.51661" lon="-1.80918">
        <ele>6.4</ele>
        <time>2021-06-19T16:33:44Z</time>
      </trkpt>
      <trkpt lat="46.51663" lon="-1.80915">
        <ele>6.2</ele>
        <time>2021-06-19T16:33:45Z</time>
      </trkpt>
      <trkpt lat="46.51664" lon="-1.80914">
        <ele>6.2</ele>
        <time>2021-06-19T16:33:46Z</time>
      </trkpt>
      <trkpt lat="46.51666" lon="-1.80912">
        <ele>6</ele>
        <time>2021-06-19T16:33:47Z</time>
      </trkpt>
      <trkpt lat="46.51667" lon="-1.80911">
        <ele>5.9</ele>
        <time>2021-06-19T16:33:48Z</time>
      </trkpt>
      <trkpt lat="46.51668" lon="-1.80907">
        <ele>5.7</ele>
        <time>2021-06-19T16:33:50Z</time>
      </trkpt>
      <trkpt lat="46.51669" lon="-1.80906">
        <ele>5.7</ele>
        <time>2021-06-19T16:33:51Z</time>
      </trkpt>
      <trkpt lat="46.51671" lon="-1.80903">
        <ele>5.5</ele>
        <time>2021-06-19T16:33:53Z</time>
      </trkpt>
      <trkpt lat="46.51672" lon="-1.80902">
        <ele>5.4</ele>
        <time>2021-06-19T16:33:54Z</time>
      </trkpt>
      <trkpt lat="46.51672" lon="-1.80901">
        <ele>5.4</ele>
        <time>2021-06-19T16:33:55Z</time>
      </trkpt>
      <trkpt lat="46.51673" lon="-1.809">
        <ele>5.3</ele>
        <time>2021-06-19T16:33:57Z</time>
      </trkpt>
      <trkpt lat="46.51674" lon="-1.80898">
        <ele>5.3</ele>
        <time>2021-06-19T16:33:58Z</time>
      </trkpt>
      <trkpt lat="46.51675" lon="-1.80896">
        <ele>5.1</ele>
        <time>2021-06-19T16:34:00Z</time>
      </trkpt>
      <trkpt lat="46.51675" lon="-1.80895">
        <ele>5.1</ele>
        <time>2021-06-19T16:34:01Z</time>
      </trkpt>
      <trkpt lat="46.51675" lon="-1.80894">
        <ele>5.1</ele>
        <time>2021-06-19T16:34:02Z</time>
      </trkpt>
      <trkpt lat="46.51676" lon="-1.80893">
        <ele>5</ele>
        <time>2021-06-19T16:34:03Z</time>
      </trkpt>
      <trkpt lat="46.51676" lon="-1.80891">
        <ele>5</ele>
        <time>2021-06-19T16:34:05Z</time>
      </trkpt>
      <trkpt lat="46.51677" lon="-1.80889">
        <ele>4.9</ele>
        <time>2021-06-19T16:34:06Z</time>
      </trkpt>
      <trkpt lat="46.51678" lon="-1.80887">
        <ele>4.8</ele>
        <time>2021-06-19T16:34:07Z</time>
      </trkpt>
      <trkpt lat="46.51679" lon="-1.80884">
        <ele>4.7</ele>
        <time>2021-06-19T16:34:08Z</time>
      </trkpt>
      <trkpt lat="46.51679" lon="-1.80883">
        <ele>4.6</ele>
        <time>2021-06-19T16:34:09Z</time>
      </trkpt>
      <trkpt lat="46.5168" lon="-1.8088">
        <ele>4.5</ele>
        <time>2021-06-19T16:34:10Z</time>
      </trkpt>
      <trkpt lat="46.5168" lon="-1.80878">
        <ele>4.4</ele>
        <time>2021-06-19T16:34:12Z</time>
      </trkpt>
      <trkpt lat="46.51681" lon="-1.80877">
        <ele>4.4</ele>
        <time>2021-06-19T16:34:13Z</time>
      </trkpt>
      <trkpt lat="46.51681" lon="-1.80876">
        <ele>4.3</ele>
        <time>2021-06-19T16:34:14Z</time>
      </trkpt>
      <trkpt lat="46.51681" lon="-1.80874">
        <ele>4.3</ele>
        <time>2021-06-19T16:34:16Z</time>
      </trkpt>
      <trkpt lat="46.51682" lon="-1.80872">
        <ele>4.2</ele>
        <time>2021-06-19T16:34:17Z</time>
      </trkpt>
      <trkpt lat="46.51682" lon="-1.8087">
        <ele>4.2</ele>
        <time>2021-06-19T16:34:18Z</time>
      </trkpt>
      <trkpt lat="46.51683" lon="-1.80868">
        <ele>4.2</ele>
        <time>2021-06-19T16:34:19Z</time>
      </trkpt>
      <trkpt lat="46.51683" lon="-1.80866">
        <ele>4.2</ele>
        <time>2021-06-19T16:34:20Z</time>
      </trkpt>
      <trkpt lat="46.51685" lon="-1.80862">
        <ele>4.1</ele>
        <time>2021-06-19T16:34:22Z</time>
      </trkpt>
      <trkpt lat="46.51685" lon="-1.80859">
        <ele>4.1</ele>
        <time>2021-06-19T16:34:23Z</time>
      </trkpt>
      <trkpt lat="46.51686" lon="-1.80857">
        <ele>4</ele>
        <time>2021-06-19T16:34:24Z</time>
      </trkpt>
      <trkpt lat="46.51687" lon="-1.80855">
        <ele>4</ele>
        <time>2021-06-19T16:34:26Z</time>
      </trkpt>
      <trkpt lat="46.51687" lon="-1.80853">
        <ele>4</ele>
        <time>2021-06-19T16:34:27Z</time>
      </trkpt>
      <trkpt lat="46.51688" lon="-1.80851">
        <ele>4</ele>
        <time>2021-06-19T16:34:28Z</time>
      </trkpt>
      <trkpt lat="46.51688" lon="-1.80849">
        <ele>3.9</ele>
        <time>2021-06-19T16:34:29Z</time>
      </trkpt>
      <trkpt lat="46.51689" lon="-1.80846">
        <ele>3.9</ele>
        <time>2021-06-19T16:34:30Z</time>
      </trkpt>
      <trkpt lat="46.5169" lon="-1.80844">
        <ele>3.9</ele>
        <time>2021-06-19T16:34:32Z</time>
      </trkpt>
      <trkpt lat="46.5169" lon="-1.80842">
        <ele>3.8</ele>
        <time>2021-06-19T16:34:33Z</time>
      </trkpt>
      <trkpt lat="46.51691" lon="-1.8084">
        <ele>3.8</ele>
        <time>2021-06-19T16:34:35Z</time>
      </trkpt>
      <trkpt lat="46.51691" lon="-1.80838">
        <ele>3.8</ele>
        <time>2021-06-19T16:34:36Z</time>
      </trkpt>
      <trkpt lat="46.51692" lon="-1.80837">
        <ele>3.8</ele>
        <time>2021-06-19T16:34:37Z</time>
      </trkpt>
      <trkpt lat="46.51692" lon="-1.80835">
        <ele>3.7</ele>
        <time>2021-06-19T16:34:38Z</time>
      </trkpt>
      <trkpt lat="46.51693" lon="-1.80833">
        <ele>3.7</ele>
        <time>2021-06-19T16:34:39Z</time>
      </trkpt>
      <trkpt lat="46.51693" lon="-1.80831">
        <ele>3.7</ele>
        <time>2021-06-19T16:34:40Z</time>
      </trkpt>
      <trkpt lat="46.51695" lon="-1.80827">
        <ele>3.7</ele>
        <time>2021-06-19T16:34:42Z</time>
      </trkpt>
      <trkpt lat="46.51695" lon="-1.80826">
        <ele>3.7</ele>
        <time>2021-06-19T16:34:43Z</time>
      </trkpt>
      <trkpt lat="46.51696" lon="-1.80824">
        <ele>3.6</ele>
        <time>2021-06-19T16:34:44Z</time>
      </trkpt>
      <trkpt lat="46.51696" lon="-1.80821">
        <ele>3.6</ele>
        <time>2021-06-19T16:34:46Z</time>
      </trkpt>
      <trkpt lat="46.51697" lon="-1.80818">
        <ele>3.6</ele>
        <time>2021-06-19T16:34:47Z</time>
      </trkpt>
      <trkpt lat="46.51697" lon="-1.80817">
        <ele>3.5</ele>
        <time>2021-06-19T16:34:48Z</time>
      </trkpt>
      <trkpt lat="46.51699" lon="-1.80813">
        <ele>3.5</ele>
        <time>2021-06-19T16:34:50Z</time>
      </trkpt>
      <trkpt lat="46.51699" lon="-1.80811">
        <ele>3.5</ele>
        <time>2021-06-19T16:34:52Z</time>
      </trkpt>
      <trkpt lat="46.51699" lon="-1.80809">
        <ele>3.5</ele>
        <time>2021-06-19T16:34:53Z</time>
      </trkpt>
      <trkpt lat="46.517" lon="-1.80808">
        <ele>3.4</ele>
        <time>2021-06-19T16:34:54Z</time>
      </trkpt>
      <trkpt lat="46.517" lon="-1.80806">
        <ele>3.4</ele>
        <time>2021-06-19T16:34:55Z</time>
      </trkpt>
      <trkpt lat="46.51701" lon="-1.80805">
        <ele>3.4</ele>
        <time>2021-06-19T16:34:56Z</time>
      </trkpt>
      <trkpt lat="46.51701" lon="-1.80802">
        <ele>3.4</ele>
        <time>2021-06-19T16:34:58Z</time>
      </trkpt>
      <trkpt lat="46.51702" lon="-1.808">
        <ele>3.4</ele>
        <time>2021-06-19T16:34:59Z</time>
      </trkpt>
      <trkpt lat="46.51702" lon="-1.80799">
        <ele>3.3</ele>
        <time>2021-06-19T16:35:00Z</time>
      </trkpt>
      <trkpt lat="46.51702" lon="-1.80798">
        <ele>3.3</ele>
        <time>2021-06-19T16:35:01Z</time>
      </trkpt>
      <trkpt lat="46.51703" lon="-1.80797">
        <ele>3.3</ele>
        <time>2021-06-19T16:35:02Z</time>
      </trkpt>
      <trkpt lat="46.51703" lon="-1.80795">
        <ele>3.3</ele>
        <time>2021-06-19T16:35:04Z</time>
      </trkpt>
      <trkpt lat="46.51703" lon="-1.80794">
        <ele>3.3</ele>
        <time>2021-06-19T16:35:05Z</time>
      </trkpt>
      <trkpt lat="46.51702" lon="-1.80793">
        <ele>3.3</ele>
        <time>2021-06-19T16:35:06Z</time>
      </trkpt>
      <trkpt lat="46.51702" lon="-1.80792">
        <ele>3.3</ele>
        <time>2021-06-19T16:35:08Z</time>
      </trkpt>
      <trkpt lat="46.51701" lon="-1.80791">
        <ele>3.3</ele>
        <time>2021-06-19T16:35:09Z</time>
      </trkpt>
      <trkpt lat="46.51701" lon="-1.8079">
        <ele>3.3</ele>
        <time>2021-06-19T16:35:10Z</time>
      </trkpt>
      <trkpt lat="46.51701" lon="-1.80788">
        <ele>3.2</ele>
        <time>2021-06-19T16:35:11Z</time>
      </trkpt>
      <trkpt lat="46.51701" lon="-1.80787">
        <ele>3.2</ele>
        <time>2021-06-19T16:35:12Z</time>
      </trkpt>
      <trkpt lat="46.51702" lon="-1.80783">
        <ele>3.2</ele>
        <time>2021-06-19T16:35:14Z</time>
      </trkpt>
      <trkpt lat="46.51702" lon="-1.8078">
        <ele>3.2</ele>
        <time>2021-06-19T16:35:16Z</time>
      </trkpt>
      <trkpt lat="46.51702" lon="-1.80778">
        <ele>3.2</ele>
        <time>2021-06-19T16:35:17Z</time>
      </trkpt>
      <trkpt lat="46.51703" lon="-1.80776">
        <ele>3.2</ele>
        <time>2021-06-19T16:35:18Z</time>
      </trkpt>
      <trkpt lat="46.51704" lon="-1.80774">
        <ele>3.2</ele>
        <time>2021-06-19T16:35:19Z</time>
      </trkpt>
      <trkpt lat="46.51705" lon="-1.80771">
        <ele>3.2</ele>
        <time>2021-06-19T16:35:20Z</time>
      </trkpt>
      <trkpt lat="46.51706" lon="-1.80769">
        <ele>3.1</ele>
        <time>2021-06-19T16:35:21Z</time>
      </trkpt>
      <trkpt lat="46.51707" lon="-1.80766">
        <ele>3.1</ele>
        <time>2021-06-19T16:35:23Z</time>
      </trkpt>
      <trkpt lat="46.51708" lon="-1.80763">
        <ele>3.1</ele>
        <time>2021-06-19T16:35:24Z</time>
      </trkpt>
      <trkpt lat="46.51709" lon="-1.8076">
        <ele>3.1</ele>
        <time>2021-06-19T16:35:26Z</time>
      </trkpt>
      <trkpt lat="46.51709" lon="-1.80758">
        <ele>3.1</ele>
        <time>2021-06-19T16:35:27Z</time>
      </trkpt>
      <trkpt lat="46.5171" lon="-1.80756">
        <ele>3.1</ele>
        <time>2021-06-19T16:35:28Z</time>
      </trkpt>
      <trkpt lat="46.51711" lon="-1.80753">
        <ele>3.1</ele>
        <time>2021-06-19T16:35:29Z</time>
      </trkpt>
      <trkpt lat="46.51711" lon="-1.80751">
        <ele>3.1</ele>
        <time>2021-06-19T16:35:30Z</time>
      </trkpt>
      <trkpt lat="46.51711" lon="-1.80749">
        <ele>3.1</ele>
        <time>2021-06-19T16:35:31Z</time>
      </trkpt>
      <trkpt lat="46.51712" lon="-1.80746">
        <ele>3.1</ele>
        <time>2021-06-19T16:35:33Z</time>
      </trkpt>
      <trkpt lat="46.51712" lon="-1.80743">
        <ele>3.1</ele>
        <time>2021-06-19T16:35:34Z</time>
      </trkpt>
      <trkpt lat="46.51713" lon="-1.80741">
        <ele>3.1</ele>
        <time>2021-06-19T16:35:35Z</time>
      </trkpt>
      <trkpt lat="46.51713" lon="-1.80739">
        <ele>3</ele>
        <time>2021-06-19T16:35:36Z</time>
      </trkpt>
      <trkpt lat="46.51714" lon="-1.80738">
        <ele>3</ele>
        <time>2021-06-19T16:35:37Z</time>
      </trkpt>
      <trkpt lat="46.51714" lon="-1.80736">
        <ele>3</ele>
        <time>2021-06-19T16:35:39Z</time>
      </trkpt>
      <trkpt lat="46.51715" lon="-1.80734">
        <ele>3</ele>
        <time>2021-06-19T16:35:40Z</time>
      </trkpt>
      <trkpt lat="46.51716" lon="-1.80732">
        <ele>3</ele>
        <time>2021-06-19T16:35:41Z</time>
      </trkpt>
      <trkpt lat="46.51717" lon="-1.8073">
        <ele>3</ele>
        <time>2021-06-19T16:35:42Z</time>
      </trkpt>
      <trkpt lat="46.51718" lon="-1.80728">
        <ele>3</ele>
        <time>2021-06-19T16:35:44Z</time>
      </trkpt>
      <trkpt lat="46.51718" lon="-1.80726">
        <ele>3</ele>
        <time>2021-06-19T16:35:46Z</time>
      </trkpt>
      <trkpt lat="46.51719" lon="-1.80724">
        <ele>3</ele>
        <time>2021-06-19T16:35:47Z</time>
      </trkpt>
      <trkpt lat="46.51719" lon="-1.80722">
        <ele>3</ele>
        <time>2021-06-19T16:35:48Z</time>
      </trkpt>
      <trkpt lat="46.51719" lon="-1.8072">
        <ele>3</ele>
        <time>2021-06-19T16:35:49Z</time>
      </trkpt>
      <trkpt lat="46.5172" lon="-1.80718">
        <ele>3</ele>
        <time>2021-06-19T16:35:50Z</time>
      </trkpt>
      <trkpt lat="46.51719" lon="-1.80717">
        <ele>3</ele>
        <time>2021-06-19T16:35:52Z</time>
      </trkpt>
      <trkpt lat="46.51719" lon="-1.80717">
        <ele>3</ele>
        <time>2021-06-19T16:35:53Z</time>
      </trkpt>
      <trkpt lat="46.51719" lon="-1.80715">
        <ele>3</ele>
        <time>2021-06-19T16:35:54Z</time>
      </trkpt>
      <trkpt lat="46.51719" lon="-1.80712">
        <ele>3</ele>
        <time>2021-06-19T16:35:56Z</time>
      </trkpt>
      <trkpt lat="46.51719" lon="-1.8071">
        <ele>3</ele>
        <time>2021-06-19T16:35:57Z</time>
      </trkpt>
      <trkpt lat="46.51719" lon="-1.80706">
        <ele>3</ele>
        <time>2021-06-19T16:35:59Z</time>
      </trkpt>
      <trkpt lat="46.51719" lon="-1.80703">
        <ele>3</ele>
        <time>2021-06-19T16:36:01Z</time>
      </trkpt>
      <trkpt lat="46.5172" lon="-1.807">
        <ele>3</ele>
        <time>2021-06-19T16:36:02Z</time>
      </trkpt>
      <trkpt lat="46.5172" lon="-1.80698">
        <ele>3</ele>
        <time>2021-06-19T16:36:03Z</time>
      </trkpt>
      <trkpt lat="46.5172" lon="-1.80696">
        <ele>3</ele>
        <time>2021-06-19T16:36:04Z</time>
      </trkpt>
      <trkpt lat="46.5172" lon="-1.80693">
        <ele>3</ele>
        <time>2021-06-19T16:36:05Z</time>
      </trkpt>
      <trkpt lat="46.51721" lon="-1.8069">
        <ele>3</ele>
        <time>2021-06-19T16:36:06Z</time>
      </trkpt>
      <trkpt lat="46.51721" lon="-1.80689">
        <ele>3.1</ele>
        <time>2021-06-19T16:36:07Z</time>
      </trkpt>
      <trkpt lat="46.51721" lon="-1.80687">
        <ele>3.1</ele>
        <time>2021-06-19T16:36:08Z</time>
      </trkpt>
      <trkpt lat="46.51722" lon="-1.80683">
        <ele>3.1</ele>
        <time>2021-06-19T16:36:10Z</time>
      </trkpt>
      <trkpt lat="46.51721" lon="-1.80682">
        <ele>3.1</ele>
        <time>2021-06-19T16:36:11Z</time>
      </trkpt>
      <trkpt lat="46.51721" lon="-1.80681">
        <ele>3.1</ele>
        <time>2021-06-19T16:36:12Z</time>
      </trkpt>
      <trkpt lat="46.51719" lon="-1.8068">
        <ele>3.2</ele>
        <time>2021-06-19T16:36:13Z</time>
      </trkpt>
      <trkpt lat="46.51718" lon="-1.80678">
        <ele>3.2</ele>
        <time>2021-06-19T16:36:15Z</time>
      </trkpt>
      <trkpt lat="46.51717" lon="-1.80675">
        <ele>3.2</ele>
        <time>2021-06-19T16:36:17Z</time>
      </trkpt>
      <trkpt lat="46.51717" lon="-1.80672">
        <ele>3.2</ele>
        <time>2021-06-19T16:36:19Z</time>
      </trkpt>
      <trkpt lat="46.51716" lon="-1.80671">
        <ele>3.2</ele>
        <time>2021-06-19T16:36:20Z</time>
      </trkpt>
      <trkpt lat="46.51714" lon="-1.80668">
        <ele>3.2</ele>
        <time>2021-06-19T16:36:22Z</time>
      </trkpt>
      <trkpt lat="46.51713" lon="-1.80664">
        <ele>3.2</ele>
        <time>2021-06-19T16:36:24Z</time>
      </trkpt>
      <trkpt lat="46.51712" lon="-1.80662">
        <ele>3.2</ele>
        <time>2021-06-19T16:36:25Z</time>
      </trkpt>
      <trkpt lat="46.51711" lon="-1.8066">
        <ele>3.2</ele>
        <time>2021-06-19T16:36:27Z</time>
      </trkpt>
      <trkpt lat="46.51711" lon="-1.80658">
        <ele>3.2</ele>
        <time>2021-06-19T16:36:28Z</time>
      </trkpt>
      <trkpt lat="46.5171" lon="-1.80657">
        <ele>3.2</ele>
        <time>2021-06-19T16:36:29Z</time>
      </trkpt>
      <trkpt lat="46.51709" lon="-1.80657">
        <ele>3.2</ele>
        <time>2021-06-19T16:36:30Z</time>
      </trkpt>
      <trkpt lat="46.51708" lon="-1.80658">
        <ele>3.2</ele>
        <time>2021-06-19T16:36:31Z</time>
      </trkpt>
      <trkpt lat="46.51707" lon="-1.8066">
        <ele>3.2</ele>
        <time>2021-06-19T16:36:32Z</time>
      </trkpt>
      <trkpt lat="46.51706" lon="-1.80661">
        <ele>3.2</ele>
        <time>2021-06-19T16:36:33Z</time>
      </trkpt>
      <trkpt lat="46.51706" lon="-1.8066">
        <ele>3.2</ele>
        <time>2021-06-19T16:36:35Z</time>
      </trkpt>
      <trkpt lat="46.51705" lon="-1.80659">
        <ele>3.2</ele>
        <time>2021-06-19T16:36:36Z</time>
      </trkpt>
      <trkpt lat="46.51705" lon="-1.80656">
        <ele>3.2</ele>
        <time>2021-06-19T16:36:38Z</time>
      </trkpt>
      <trkpt lat="46.51704" lon="-1.8065">
        <ele>3.2</ele>
        <time>2021-06-19T16:36:41Z</time>
      </trkpt>
      <trkpt lat="46.51704" lon="-1.80647">
        <ele>3.2</ele>
        <time>2021-06-19T16:36:42Z</time>
      </trkpt>
      <trkpt lat="46.51703" lon="-1.80645">
        <ele>3.2</ele>
        <time>2021-06-19T16:36:43Z</time>
      </trkpt>
      <trkpt lat="46.51702" lon="-1.80643">
        <ele>3.2</ele>
        <time>2021-06-19T16:36:44Z</time>
      </trkpt>
      <trkpt lat="46.51702" lon="-1.80641">
        <ele>3.2</ele>
        <time>2021-06-19T16:36:45Z</time>
      </trkpt>
      <trkpt lat="46.51702" lon="-1.80639">
        <ele>3.2</ele>
        <time>2021-06-19T16:36:46Z</time>
      </trkpt>
      <trkpt lat="46.51702" lon="-1.80636">
        <ele>3.2</ele>
        <time>2021-06-19T16:36:48Z</time>
      </trkpt>
      <trkpt lat="46.51701" lon="-1.80634">
        <ele>3.2</ele>
        <time>2021-06-19T16:36:49Z</time>
      </trkpt>
      <trkpt lat="46.51701" lon="-1.80632">
        <ele>3.2</ele>
        <time>2021-06-19T16:36:50Z</time>
      </trkpt>
      <trkpt lat="46.51701" lon="-1.8063">
        <ele>3.2</ele>
        <time>2021-06-19T16:36:51Z</time>
      </trkpt>
      <trkpt lat="46.51701" lon="-1.80628">
        <ele>3.2</ele>
        <time>2021-06-19T16:36:52Z</time>
      </trkpt>
      <trkpt lat="46.517" lon="-1.80625">
        <ele>3.2</ele>
        <time>2021-06-19T16:36:53Z</time>
      </trkpt>
      <trkpt lat="46.51699" lon="-1.80624">
        <ele>3.2</ele>
        <time>2021-06-19T16:36:54Z</time>
      </trkpt>
      <trkpt lat="46.51699" lon="-1.80622">
        <ele>3.2</ele>
        <time>2021-06-19T16:36:55Z</time>
      </trkpt>
      <trkpt lat="46.51698" lon="-1.80621">
        <ele>3.2</ele>
        <time>2021-06-19T16:36:57Z</time>
      </trkpt>
      <trkpt lat="46.51698" lon="-1.80618">
        <ele>3.2</ele>
        <time>2021-06-19T16:36:58Z</time>
      </trkpt>
      <trkpt lat="46.51697" lon="-1.80617">
        <ele>3.2</ele>
        <time>2021-06-19T16:36:59Z</time>
      </trkpt>
      <trkpt lat="46.51697" lon="-1.80615">
        <ele>3.2</ele>
        <time>2021-06-19T16:37:00Z</time>
      </trkpt>
      <trkpt lat="46.51697" lon="-1.80614">
        <ele>3.2</ele>
        <time>2021-06-19T16:37:01Z</time>
      </trkpt>
      <trkpt lat="46.51695" lon="-1.80612">
        <ele>3.2</ele>
        <time>2021-06-19T16:37:03Z</time>
      </trkpt>
      <trkpt lat="46.51695" lon="-1.80612">
        <ele>3.2</ele>
        <time>2021-06-19T16:37:04Z</time>
      </trkpt>
      <trkpt lat="46.51695" lon="-1.80611">
        <ele>3.2</ele>
        <time>2021-06-19T16:37:06Z</time>
      </trkpt>
      <trkpt lat="46.51694" lon="-1.8061">
        <ele>3.2</ele>
        <time>2021-06-19T16:37:08Z</time>
      </trkpt>
      <trkpt lat="46.51694" lon="-1.80609">
        <ele>3.2</ele>
        <time>2021-06-19T16:37:10Z</time>
      </trkpt>
      <trkpt lat="46.51694" lon="-1.80608">
        <ele>3.2</ele>
        <time>2021-06-19T16:37:11Z</time>
      </trkpt>
      <trkpt lat="46.51693" lon="-1.80608">
        <ele>3.2</ele>
        <time>2021-06-19T16:37:13Z</time>
      </trkpt>
      <trkpt lat="46.51693" lon="-1.80607">
        <ele>3.2</ele>
        <time>2021-06-19T16:37:14Z</time>
      </trkpt>
      <trkpt lat="46.51693" lon="-1.80606">
        <ele>3.2</ele>
        <time>2021-06-19T16:37:15Z</time>
      </trkpt>
      <trkpt lat="46.51691" lon="-1.80605">
        <ele>3.2</ele>
        <time>2021-06-19T16:37:16Z</time>
      </trkpt>
      <trkpt lat="46.51691" lon="-1.80603">
        <ele>3.2</ele>
        <time>2021-06-19T16:37:17Z</time>
      </trkpt>
      <trkpt lat="46.51689" lon="-1.80601">
        <ele>3.2</ele>
        <time>2021-06-19T16:37:18Z</time>
      </trkpt>
      <trkpt lat="46.51689" lon="-1.806">
        <ele>3.2</ele>
        <time>2021-06-19T16:37:20Z</time>
      </trkpt>
      <trkpt lat="46.51688" lon="-1.80599">
        <ele>3.2</ele>
        <time>2021-06-19T16:37:21Z</time>
      </trkpt>
      <trkpt lat="46.51688" lon="-1.80596">
        <ele>3.2</ele>
        <time>2021-06-19T16:37:22Z</time>
      </trkpt>
      <trkpt lat="46.51688" lon="-1.80594">
        <ele>3.1</ele>
        <time>2021-06-19T16:37:23Z</time>
      </trkpt>
      <trkpt lat="46.51687" lon="-1.80592">
        <ele>3.1</ele>
        <time>2021-06-19T16:37:24Z</time>
      </trkpt>
      <trkpt lat="46.51687" lon="-1.8059">
        <ele>3.1</ele>
        <time>2021-06-19T16:37:25Z</time>
      </trkpt>
      <trkpt lat="46.51687" lon="-1.80588">
        <ele>3.1</ele>
        <time>2021-06-19T16:37:26Z</time>
      </trkpt>
      <trkpt lat="46.51687" lon="-1.80584">
        <ele>3.1</ele>
        <time>2021-06-19T16:37:28Z</time>
      </trkpt>
      <trkpt lat="46.51687" lon="-1.80582">
        <ele>3.1</ele>
        <time>2021-06-19T16:37:29Z</time>
      </trkpt>
      <trkpt lat="46.51687" lon="-1.80581">
        <ele>3.1</ele>
        <time>2021-06-19T16:37:30Z</time>
      </trkpt>
      <trkpt lat="46.51687" lon="-1.80579">
        <ele>3.1</ele>
        <time>2021-06-19T16:37:31Z</time>
      </trkpt>
      <trkpt lat="46.51686" lon="-1.80577">
        <ele>3.1</ele>
        <time>2021-06-19T16:37:33Z</time>
      </trkpt>
      <trkpt lat="46.51686" lon="-1.80575">
        <ele>3.1</ele>
        <time>2021-06-19T16:37:34Z</time>
      </trkpt>
      <trkpt lat="46.51686" lon="-1.80572">
        <ele>3.1</ele>
        <time>2021-06-19T16:37:35Z</time>
      </trkpt>
      <trkpt lat="46.51686" lon="-1.8057">
        <ele>3.1</ele>
        <time>2021-06-19T16:37:36Z</time>
      </trkpt>
      <trkpt lat="46.51686" lon="-1.80569">
        <ele>3.1</ele>
        <time>2021-06-19T16:37:37Z</time>
      </trkpt>
      <trkpt lat="46.51686" lon="-1.80566">
        <ele>3.1</ele>
        <time>2021-06-19T16:37:38Z</time>
      </trkpt>
      <trkpt lat="46.51686" lon="-1.80565">
        <ele>3</ele>
        <time>2021-06-19T16:37:39Z</time>
      </trkpt>
      <trkpt lat="46.51686" lon="-1.80564">
        <ele>3</ele>
        <time>2021-06-19T16:37:40Z</time>
      </trkpt>
      <trkpt lat="46.51685" lon="-1.80559">
        <ele>3</ele>
        <time>2021-06-19T16:37:42Z</time>
      </trkpt>
      <trkpt lat="46.51685" lon="-1.80558">
        <ele>3</ele>
        <time>2021-06-19T16:37:43Z</time>
      </trkpt>
      <trkpt lat="46.51684" lon="-1.80553">
        <ele>3</ele>
        <time>2021-06-19T16:37:44Z</time>
      </trkpt>
      <trkpt lat="46.51684" lon="-1.80551">
        <ele>3</ele>
        <time>2021-06-19T16:37:45Z</time>
      </trkpt>
      <trkpt lat="46.51683" lon="-1.80546">
        <ele>2.9</ele>
        <time>2021-06-19T16:37:46Z</time>
      </trkpt>
      <trkpt lat="46.51682" lon="-1.80544">
        <ele>2.9</ele>
        <time>2021-06-19T16:37:47Z</time>
      </trkpt>
      <trkpt lat="46.51681" lon="-1.80539">
        <ele>2.9</ele>
        <time>2021-06-19T16:37:49Z</time>
      </trkpt>
      <trkpt lat="46.5168" lon="-1.80537">
        <ele>2.9</ele>
        <time>2021-06-19T16:37:51Z</time>
      </trkpt>
      <trkpt lat="46.5168" lon="-1.80535">
        <ele>2.9</ele>
        <time>2021-06-19T16:37:52Z</time>
      </trkpt>
      <trkpt lat="46.5168" lon="-1.80532">
        <ele>2.9</ele>
        <time>2021-06-19T16:37:53Z</time>
      </trkpt>
      <trkpt lat="46.51679" lon="-1.8053">
        <ele>2.8</ele>
        <time>2021-06-19T16:37:54Z</time>
      </trkpt>
      <trkpt lat="46.51679" lon="-1.80528">
        <ele>2.8</ele>
        <time>2021-06-19T16:37:55Z</time>
      </trkpt>
      <trkpt lat="46.51679" lon="-1.80526">
        <ele>2.8</ele>
        <time>2021-06-19T16:37:56Z</time>
      </trkpt>
      <trkpt lat="46.51679" lon="-1.80524">
        <ele>2.8</ele>
        <time>2021-06-19T16:37:58Z</time>
      </trkpt>
      <trkpt lat="46.51678" lon="-1.80522">
        <ele>2.8</ele>
        <time>2021-06-19T16:37:59Z</time>
      </trkpt>
      <trkpt lat="46.51677" lon="-1.8052">
        <ele>2.8</ele>
        <time>2021-06-19T16:38:00Z</time>
      </trkpt>
      <trkpt lat="46.51677" lon="-1.80519">
        <ele>2.8</ele>
        <time>2021-06-19T16:38:01Z</time>
      </trkpt>
      <trkpt lat="46.51676" lon="-1.80517">
        <ele>2.8</ele>
        <time>2021-06-19T16:38:02Z</time>
      </trkpt>
      <trkpt lat="46.51674" lon="-1.80513">
        <ele>2.8</ele>
        <time>2021-06-19T16:38:04Z</time>
      </trkpt>
      <trkpt lat="46.51673" lon="-1.80513">
        <ele>2.8</ele>
        <time>2021-06-19T16:38:05Z</time>
      </trkpt>
      <trkpt lat="46.51672" lon="-1.80512">
        <ele>2.8</ele>
        <time>2021-06-19T16:38:06Z</time>
      </trkpt>
      <trkpt lat="46.5167" lon="-1.80511">
        <ele>2.8</ele>
        <time>2021-06-19T16:38:08Z</time>
      </trkpt>
      <trkpt lat="46.51668" lon="-1.80511">
        <ele>2.8</ele>
        <time>2021-06-19T16:38:09Z</time>
      </trkpt>
      <trkpt lat="46.51667" lon="-1.80511">
        <ele>2.7</ele>
        <time>2021-06-19T16:38:10Z</time>
      </trkpt>
      <trkpt lat="46.51665" lon="-1.80511">
        <ele>2.7</ele>
        <time>2021-06-19T16:38:11Z</time>
      </trkpt>
      <trkpt lat="46.51663" lon="-1.80511">
        <ele>2.7</ele>
        <time>2021-06-19T16:38:12Z</time>
      </trkpt>
      <trkpt lat="46.5166" lon="-1.80511">
        <ele>2.7</ele>
        <time>2021-06-19T16:38:13Z</time>
      </trkpt>
      <trkpt lat="46.51659" lon="-1.80511">
        <ele>2.7</ele>
        <time>2021-06-19T16:38:14Z</time>
      </trkpt>
      <trkpt lat="46.51655" lon="-1.80511">
        <ele>2.7</ele>
        <time>2021-06-19T16:38:16Z</time>
      </trkpt>
      <trkpt lat="46.51652" lon="-1.80512">
        <ele>2.7</ele>
        <time>2021-06-19T16:38:17Z</time>
      </trkpt>
      <trkpt lat="46.51651" lon="-1.80513">
        <ele>2.7</ele>
        <time>2021-06-19T16:38:18Z</time>
      </trkpt>
      <trkpt lat="46.51648" lon="-1.80515">
        <ele>2.7</ele>
        <time>2021-06-19T16:38:20Z</time>
      </trkpt>
      <trkpt lat="46.51647" lon="-1.80515">
        <ele>2.7</ele>
        <time>2021-06-19T16:38:21Z</time>
      </trkpt>
      <trkpt lat="46.51645" lon="-1.80517">
        <ele>2.7</ele>
        <time>2021-06-19T16:38:22Z</time>
      </trkpt>
      <trkpt lat="46.51643" lon="-1.80518">
        <ele>2.7</ele>
        <time>2021-06-19T16:38:24Z</time>
      </trkpt>
      <trkpt lat="46.51641" lon="-1.80519">
        <ele>2.7</ele>
        <time>2021-06-19T16:38:25Z</time>
      </trkpt>
      <trkpt lat="46.51638" lon="-1.80521">
        <ele>2.7</ele>
        <time>2021-06-19T16:38:27Z</time>
      </trkpt>
      <trkpt lat="46.51635" lon="-1.80522">
        <ele>2.6</ele>
        <time>2021-06-19T16:38:28Z</time>
      </trkpt>
      <trkpt lat="46.51635" lon="-1.80523">
        <ele>2.6</ele>
        <time>2021-06-19T16:38:29Z</time>
      </trkpt>
      <trkpt lat="46.51632" lon="-1.80525">
        <ele>2.6</ele>
        <time>2021-06-19T16:38:31Z</time>
      </trkpt>
      <trkpt lat="46.51631" lon="-1.80526">
        <ele>2.6</ele>
        <time>2021-06-19T16:38:32Z</time>
      </trkpt>
      <trkpt lat="46.51629" lon="-1.80527">
        <ele>2.6</ele>
        <time>2021-06-19T16:38:33Z</time>
      </trkpt>
      <trkpt lat="46.51628" lon="-1.80527">
        <ele>2.6</ele>
        <time>2021-06-19T16:38:34Z</time>
      </trkpt>
      <trkpt lat="46.51625" lon="-1.80529">
        <ele>2.6</ele>
        <time>2021-06-19T16:38:36Z</time>
      </trkpt>
      <trkpt lat="46.51624" lon="-1.80529">
        <ele>2.6</ele>
        <time>2021-06-19T16:38:37Z</time>
      </trkpt>
      <trkpt lat="46.51622" lon="-1.80531">
        <ele>2.6</ele>
        <time>2021-06-19T16:38:39Z</time>
      </trkpt>
      <trkpt lat="46.51621" lon="-1.80532">
        <ele>2.6</ele>
        <time>2021-06-19T16:38:40Z</time>
      </trkpt>
      <trkpt lat="46.51619" lon="-1.80533">
        <ele>2.6</ele>
        <time>2021-06-19T16:38:41Z</time>
      </trkpt>
      <trkpt lat="46.51618" lon="-1.80534">
        <ele>2.6</ele>
        <time>2021-06-19T16:38:42Z</time>
      </trkpt>
      <trkpt lat="46.51616" lon="-1.80534">
        <ele>2.6</ele>
        <time>2021-06-19T16:38:43Z</time>
      </trkpt>
      <trkpt lat="46.51615" lon="-1.80535">
        <ele>2.6</ele>
        <time>2021-06-19T16:38:44Z</time>
      </trkpt>
      <trkpt lat="46.51614" lon="-1.80535">
        <ele>2.6</ele>
        <time>2021-06-19T16:38:45Z</time>
      </trkpt>
      <trkpt lat="46.51611" lon="-1.80536">
        <ele>2.6</ele>
        <time>2021-06-19T16:38:47Z</time>
      </trkpt>
      <trkpt lat="46.5161" lon="-1.80537">
        <ele>2.6</ele>
        <time>2021-06-19T16:38:48Z</time>
      </trkpt>
      <trkpt lat="46.51607" lon="-1.80539">
        <ele>2.6</ele>
        <time>2021-06-19T16:38:50Z</time>
      </trkpt>
      <trkpt lat="46.51605" lon="-1.8054">
        <ele>2.6</ele>
        <time>2021-06-19T16:38:51Z</time>
      </trkpt>
      <trkpt lat="46.51604" lon="-1.80541">
        <ele>2.6</ele>
        <time>2021-06-19T16:38:52Z</time>
      </trkpt>
      <trkpt lat="46.51602" lon="-1.80541">
        <ele>2.6</ele>
        <time>2021-06-19T16:38:53Z</time>
      </trkpt>
      <trkpt lat="46.51601" lon="-1.80542">
        <ele>2.6</ele>
        <time>2021-06-19T16:38:54Z</time>
      </trkpt>
      <trkpt lat="46.51599" lon="-1.80543">
        <ele>2.6</ele>
        <time>2021-06-19T16:38:56Z</time>
      </trkpt>
      <trkpt lat="46.51598" lon="-1.80544">
        <ele>2.6</ele>
        <time>2021-06-19T16:38:57Z</time>
      </trkpt>
      <trkpt lat="46.51596" lon="-1.80544">
        <ele>2.6</ele>
        <time>2021-06-19T16:38:58Z</time>
      </trkpt>
      <trkpt lat="46.51594" lon="-1.80545">
        <ele>2.6</ele>
        <time>2021-06-19T16:38:59Z</time>
      </trkpt>
      <trkpt lat="46.51593" lon="-1.80546">
        <ele>2.6</ele>
        <time>2021-06-19T16:39:00Z</time>
      </trkpt>
      <trkpt lat="46.51591" lon="-1.80547">
        <ele>2.6</ele>
        <time>2021-06-19T16:39:01Z</time>
      </trkpt>
      <trkpt lat="46.51589" lon="-1.80547">
        <ele>2.6</ele>
        <time>2021-06-19T16:39:02Z</time>
      </trkpt>
      <trkpt lat="46.51587" lon="-1.80548">
        <ele>2.6</ele>
        <time>2021-06-19T16:39:04Z</time>
      </trkpt>
      <trkpt lat="46.51586" lon="-1.80548">
        <ele>2.6</ele>
        <time>2021-06-19T16:39:05Z</time>
      </trkpt>
      <trkpt lat="46.51584" lon="-1.80549">
        <ele>2.6</ele>
        <time>2021-06-19T16:39:06Z</time>
      </trkpt>
      <trkpt lat="46.51582" lon="-1.80549">
        <ele>2.6</ele>
        <time>2021-06-19T16:39:07Z</time>
      </trkpt>
      <trkpt lat="46.51581" lon="-1.80549">
        <ele>2.6</ele>
        <time>2021-06-19T16:39:08Z</time>
      </trkpt>
      <trkpt lat="46.51579" lon="-1.8055">
        <ele>2.6</ele>
        <time>2021-06-19T16:39:09Z</time>
      </trkpt>
      <trkpt lat="46.51577" lon="-1.8055">
        <ele>2.6</ele>
        <time>2021-06-19T16:39:11Z</time>
      </trkpt>
      <trkpt lat="46.51575" lon="-1.8055">
        <ele>2.6</ele>
        <time>2021-06-19T16:39:12Z</time>
      </trkpt>
      <trkpt lat="46.51574" lon="-1.80551">
        <ele>2.6</ele>
        <time>2021-06-19T16:39:13Z</time>
      </trkpt>
      <trkpt lat="46.51572" lon="-1.80551">
        <ele>2.6</ele>
        <time>2021-06-19T16:39:15Z</time>
      </trkpt>
      <trkpt lat="46.5157" lon="-1.80551">
        <ele>2.6</ele>
        <time>2021-06-19T16:39:17Z</time>
      </trkpt>
      <trkpt lat="46.51568" lon="-1.80551">
        <ele>2.6</ele>
        <time>2021-06-19T16:39:18Z</time>
      </trkpt>
      <trkpt lat="46.51567" lon="-1.8055">
        <ele>2.6</ele>
        <time>2021-06-19T16:39:19Z</time>
      </trkpt>
      <trkpt lat="46.51565" lon="-1.8055">
        <ele>2.6</ele>
        <time>2021-06-19T16:39:20Z</time>
      </trkpt>
      <trkpt lat="46.51563" lon="-1.80549">
        <ele>2.6</ele>
        <time>2021-06-19T16:39:21Z</time>
      </trkpt>
      <trkpt lat="46.5156" lon="-1.80548">
        <ele>2.6</ele>
        <time>2021-06-19T16:39:23Z</time>
      </trkpt>
      <trkpt lat="46.5156" lon="-1.80548">
        <ele>2.6</ele>
        <time>2021-06-19T16:39:24Z</time>
      </trkpt>
      <trkpt lat="46.51558" lon="-1.80548">
        <ele>2.6</ele>
        <time>2021-06-19T16:39:25Z</time>
      </trkpt>
      <trkpt lat="46.51557" lon="-1.80547">
        <ele>2.6</ele>
        <time>2021-06-19T16:39:26Z</time>
      </trkpt>
      <trkpt lat="46.51555" lon="-1.80547">
        <ele>2.6</ele>
        <time>2021-06-19T16:39:27Z</time>
      </trkpt>
      <trkpt lat="46.51553" lon="-1.80546">
        <ele>2.6</ele>
        <time>2021-06-19T16:39:29Z</time>
      </trkpt>
      <trkpt lat="46.5155" lon="-1.80544">
        <ele>2.5</ele>
        <time>2021-06-19T16:39:31Z</time>
      </trkpt>
      <trkpt lat="46.51549" lon="-1.80543">
        <ele>2.5</ele>
        <time>2021-06-19T16:39:32Z</time>
      </trkpt>
      <trkpt lat="46.51547" lon="-1.80542">
        <ele>2.5</ele>
        <time>2021-06-19T16:39:33Z</time>
      </trkpt>
      <trkpt lat="46.51545" lon="-1.80541">
        <ele>2.5</ele>
        <time>2021-06-19T16:39:35Z</time>
      </trkpt>
      <trkpt lat="46.51544" lon="-1.8054">
        <ele>2.5</ele>
        <time>2021-06-19T16:39:36Z</time>
      </trkpt>
      <trkpt lat="46.51542" lon="-1.80539">
        <ele>2.5</ele>
        <time>2021-06-19T16:39:37Z</time>
      </trkpt>
      <trkpt lat="46.51541" lon="-1.80538">
        <ele>2.5</ele>
        <time>2021-06-19T16:39:38Z</time>
      </trkpt>
      <trkpt lat="46.5154" lon="-1.80536">
        <ele>2.5</ele>
        <time>2021-06-19T16:39:39Z</time>
      </trkpt>
      <trkpt lat="46.51539" lon="-1.80535">
        <ele>2.5</ele>
        <time>2021-06-19T16:39:40Z</time>
      </trkpt>
      <trkpt lat="46.51537" lon="-1.80534">
        <ele>2.5</ele>
        <time>2021-06-19T16:39:41Z</time>
      </trkpt>
      <trkpt lat="46.51536" lon="-1.80532">
        <ele>2.5</ele>
        <time>2021-06-19T16:39:42Z</time>
      </trkpt>
      <trkpt lat="46.51535" lon="-1.80531">
        <ele>2.5</ele>
        <time>2021-06-19T16:39:44Z</time>
      </trkpt>
      <trkpt lat="46.51533" lon="-1.80529">
        <ele>2.5</ele>
        <time>2021-06-19T16:39:45Z</time>
      </trkpt>
      <trkpt lat="46.51532" lon="-1.80528">
        <ele>2.5</ele>
        <time>2021-06-19T16:39:46Z</time>
      </trkpt>
      <trkpt lat="46.51531" lon="-1.80528">
        <ele>2.5</ele>
        <time>2021-06-19T16:39:47Z</time>
      </trkpt>
      <trkpt lat="46.51529" lon="-1.80527">
        <ele>2.5</ele>
        <time>2021-06-19T16:39:48Z</time>
      </trkpt>
      <trkpt lat="46.51526" lon="-1.80525">
        <ele>2.5</ele>
        <time>2021-06-19T16:39:50Z</time>
      </trkpt>
      <trkpt lat="46.51525" lon="-1.80524">
        <ele>2.5</ele>
        <time>2021-06-19T16:39:51Z</time>
      </trkpt>
      <trkpt lat="46.51524" lon="-1.80523">
        <ele>2.5</ele>
        <time>2021-06-19T16:39:52Z</time>
      </trkpt>
      <trkpt lat="46.51523" lon="-1.80522">
        <ele>2.5</ele>
        <time>2021-06-19T16:39:53Z</time>
      </trkpt>
      <trkpt lat="46.51522" lon="-1.80522">
        <ele>2.5</ele>
        <time>2021-06-19T16:39:54Z</time>
      </trkpt>
      <trkpt lat="46.5152" lon="-1.8052">
        <ele>2.5</ele>
        <time>2021-06-19T16:39:56Z</time>
      </trkpt>
      <trkpt lat="46.51519" lon="-1.80519">
        <ele>2.5</ele>
        <time>2021-06-19T16:39:57Z</time>
      </trkpt>
      <trkpt lat="46.51518" lon="-1.80518">
        <ele>2.6</ele>
        <time>2021-06-19T16:39:58Z</time>
      </trkpt>
      <trkpt lat="46.51516" lon="-1.80516">
        <ele>2.6</ele>
        <time>2021-06-19T16:39:59Z</time>
      </trkpt>
      <trkpt lat="46.51514" lon="-1.80514">
        <ele>2.6</ele>
        <time>2021-06-19T16:40:01Z</time>
      </trkpt>
      <trkpt lat="46.51511" lon="-1.80511">
        <ele>2.6</ele>
        <time>2021-06-19T16:40:03Z</time>
      </trkpt>
      <trkpt lat="46.5151" lon="-1.80511">
        <ele>2.6</ele>
        <time>2021-06-19T16:40:05Z</time>
      </trkpt>
      <trkpt lat="46.51509" lon="-1.8051">
        <ele>2.6</ele>
        <time>2021-06-19T16:40:06Z</time>
      </trkpt>
      <trkpt lat="46.51506" lon="-1.80508">
        <ele>2.6</ele>
        <time>2021-06-19T16:40:08Z</time>
      </trkpt>
      <trkpt lat="46.51505" lon="-1.80507">
        <ele>2.6</ele>
        <time>2021-06-19T16:40:09Z</time>
      </trkpt>
      <trkpt lat="46.51504" lon="-1.80506">
        <ele>2.6</ele>
        <time>2021-06-19T16:40:10Z</time>
      </trkpt>
      <trkpt lat="46.51503" lon="-1.80505">
        <ele>2.6</ele>
        <time>2021-06-19T16:40:11Z</time>
      </trkpt>
      <trkpt lat="46.51501" lon="-1.80503">
        <ele>2.6</ele>
        <time>2021-06-19T16:40:12Z</time>
      </trkpt>
      <trkpt lat="46.51499" lon="-1.80503">
        <ele>2.6</ele>
        <time>2021-06-19T16:40:13Z</time>
      </trkpt>
      <trkpt lat="46.51497" lon="-1.80501">
        <ele>2.6</ele>
        <time>2021-06-19T16:40:15Z</time>
      </trkpt>
      <trkpt lat="46.51496" lon="-1.805">
        <ele>2.6</ele>
        <time>2021-06-19T16:40:16Z</time>
      </trkpt>
      <trkpt lat="46.51495" lon="-1.80499">
        <ele>2.7</ele>
        <time>2021-06-19T16:40:17Z</time>
      </trkpt>
      <trkpt lat="46.51493" lon="-1.80499">
        <ele>2.7</ele>
        <time>2021-06-19T16:40:19Z</time>
      </trkpt>
      <trkpt lat="46.51492" lon="-1.80498">
        <ele>2.7</ele>
        <time>2021-06-19T16:40:20Z</time>
      </trkpt>
      <trkpt lat="46.5149" lon="-1.80497">
        <ele>2.7</ele>
        <time>2021-06-19T16:40:21Z</time>
      </trkpt>
      <trkpt lat="46.51489" lon="-1.80497">
        <ele>2.7</ele>
        <time>2021-06-19T16:40:22Z</time>
      </trkpt>
      <trkpt lat="46.51488" lon="-1.80496">
        <ele>2.7</ele>
        <time>2021-06-19T16:40:23Z</time>
      </trkpt>
      <trkpt lat="46.51485" lon="-1.80496">
        <ele>2.7</ele>
        <time>2021-06-19T16:40:25Z</time>
      </trkpt>
      <trkpt lat="46.51484" lon="-1.80496">
        <ele>2.7</ele>
        <time>2021-06-19T16:40:26Z</time>
      </trkpt>
      <trkpt lat="46.51483" lon="-1.80496">
        <ele>2.7</ele>
        <time>2021-06-19T16:40:27Z</time>
      </trkpt>
      <trkpt lat="46.51481" lon="-1.80496">
        <ele>2.7</ele>
        <time>2021-06-19T16:40:29Z</time>
      </trkpt>
      <trkpt lat="46.51479" lon="-1.80496">
        <ele>2.7</ele>
        <time>2021-06-19T16:40:31Z</time>
      </trkpt>
      <trkpt lat="46.51478" lon="-1.80495">
        <ele>2.7</ele>
        <time>2021-06-19T16:40:32Z</time>
      </trkpt>
      <trkpt lat="46.51477" lon="-1.80494">
        <ele>2.8</ele>
        <time>2021-06-19T16:40:33Z</time>
      </trkpt>
      <trkpt lat="46.51475" lon="-1.80493">
        <ele>2.8</ele>
        <time>2021-06-19T16:40:35Z</time>
      </trkpt>
      <trkpt lat="46.51474" lon="-1.80493">
        <ele>2.8</ele>
        <time>2021-06-19T16:40:36Z</time>
      </trkpt>
      <trkpt lat="46.51473" lon="-1.80492">
        <ele>2.8</ele>
        <time>2021-06-19T16:40:37Z</time>
      </trkpt>
      <trkpt lat="46.51472" lon="-1.80492">
        <ele>2.8</ele>
        <time>2021-06-19T16:40:38Z</time>
      </trkpt>
      <trkpt lat="46.51471" lon="-1.80491">
        <ele>2.8</ele>
        <time>2021-06-19T16:40:39Z</time>
      </trkpt>
      <trkpt lat="46.51469" lon="-1.80491">
        <ele>2.8</ele>
        <time>2021-06-19T16:40:41Z</time>
      </trkpt>
      <trkpt lat="46.51468" lon="-1.8049">
        <ele>2.8</ele>
        <time>2021-06-19T16:40:42Z</time>
      </trkpt>
      <trkpt lat="46.51466" lon="-1.8049">
        <ele>2.8</ele>
        <time>2021-06-19T16:40:43Z</time>
      </trkpt>
      <trkpt lat="46.51465" lon="-1.80489">
        <ele>2.8</ele>
        <time>2021-06-19T16:40:44Z</time>
      </trkpt>
      <trkpt lat="46.51464" lon="-1.80489">
        <ele>2.8</ele>
        <time>2021-06-19T16:40:45Z</time>
      </trkpt>
      <trkpt lat="46.51463" lon="-1.80488">
        <ele>2.8</ele>
        <time>2021-06-19T16:40:46Z</time>
      </trkpt>
      <trkpt lat="46.51461" lon="-1.80486">
        <ele>2.9</ele>
        <time>2021-06-19T16:40:48Z</time>
      </trkpt>
      <trkpt lat="46.5146" lon="-1.80485">
        <ele>2.9</ele>
        <time>2021-06-19T16:40:50Z</time>
      </trkpt>
      <trkpt lat="46.51459" lon="-1.80484">
        <ele>2.9</ele>
        <time>2021-06-19T16:40:51Z</time>
      </trkpt>
      <trkpt lat="46.51457" lon="-1.80483">
        <ele>2.9</ele>
        <time>2021-06-19T16:40:52Z</time>
      </trkpt>
      <trkpt lat="46.51456" lon="-1.80482">
        <ele>2.9</ele>
        <time>2021-06-19T16:40:53Z</time>
      </trkpt>
      <trkpt lat="46.51455" lon="-1.80482">
        <ele>2.9</ele>
        <time>2021-06-19T16:40:55Z</time>
      </trkpt>
      <trkpt lat="46.51454" lon="-1.80483">
        <ele>2.9</ele>
        <time>2021-06-19T16:40:56Z</time>
      </trkpt>
      <trkpt lat="46.51453" lon="-1.80483">
        <ele>2.9</ele>
        <time>2021-06-19T16:40:57Z</time>
      </trkpt>
      <trkpt lat="46.51452" lon="-1.80481">
        <ele>2.9</ele>
        <time>2021-06-19T16:40:59Z</time>
      </trkpt>
      <trkpt lat="46.51452" lon="-1.8048">
        <ele>2.9</ele>
        <time>2021-06-19T16:41:00Z</time>
      </trkpt>
      <trkpt lat="46.51452" lon="-1.80479">
        <ele>2.9</ele>
        <time>2021-06-19T16:41:01Z</time>
      </trkpt>
      <trkpt lat="46.51452" lon="-1.80476">
        <ele>2.9</ele>
        <time>2021-06-19T16:41:03Z</time>
      </trkpt>
      <trkpt lat="46.51453" lon="-1.80474">
        <ele>2.9</ele>
        <time>2021-06-19T16:41:05Z</time>
      </trkpt>
      <trkpt lat="46.51453" lon="-1.80473">
        <ele>2.9</ele>
        <time>2021-06-19T16:41:06Z</time>
      </trkpt>
      <trkpt lat="46.51453" lon="-1.80472">
        <ele>2.9</ele>
        <time>2021-06-19T16:41:07Z</time>
      </trkpt>
      <trkpt lat="46.51454" lon="-1.8047">
        <ele>2.9</ele>
        <time>2021-06-19T16:41:09Z</time>
      </trkpt>
      <trkpt lat="46.51454" lon="-1.80469">
        <ele>2.9</ele>
        <time>2021-06-19T16:41:10Z</time>
      </trkpt>
      <trkpt lat="46.51453" lon="-1.80468">
        <ele>2.9</ele>
        <time>2021-06-19T16:41:12Z</time>
      </trkpt>
      <trkpt lat="46.51453" lon="-1.80466">
        <ele>2.9</ele>
        <time>2021-06-19T16:41:13Z</time>
      </trkpt>
      <trkpt lat="46.51453" lon="-1.80464">
        <ele>2.9</ele>
        <time>2021-06-19T16:41:15Z</time>
      </trkpt>
      <trkpt lat="46.51453" lon="-1.80462">
        <ele>2.9</ele>
        <time>2021-06-19T16:41:16Z</time>
      </trkpt>
      <trkpt lat="46.51454" lon="-1.80458">
        <ele>2.9</ele>
        <time>2021-06-19T16:41:18Z</time>
      </trkpt>
      <trkpt lat="46.51455" lon="-1.80456">
        <ele>2.9</ele>
        <time>2021-06-19T16:41:19Z</time>
      </trkpt>
      <trkpt lat="46.51456" lon="-1.80453">
        <ele>2.9</ele>
        <time>2021-06-19T16:41:20Z</time>
      </trkpt>
      <trkpt lat="46.51457" lon="-1.80449">
        <ele>2.8</ele>
        <time>2021-06-19T16:41:22Z</time>
      </trkpt>
      <trkpt lat="46.51459" lon="-1.80445">
        <ele>2.8</ele>
        <time>2021-06-19T16:41:24Z</time>
      </trkpt>
      <trkpt lat="46.51459" lon="-1.80443">
        <ele>2.8</ele>
        <time>2021-06-19T16:41:25Z</time>
      </trkpt>
      <trkpt lat="46.51458" lon="-1.80441">
        <ele>2.8</ele>
        <time>2021-06-19T16:41:26Z</time>
      </trkpt>
      <trkpt lat="46.51458" lon="-1.80439">
        <ele>2.8</ele>
        <time>2021-06-19T16:41:27Z</time>
      </trkpt>
      <trkpt lat="46.51457" lon="-1.80436">
        <ele>2.8</ele>
        <time>2021-06-19T16:41:29Z</time>
      </trkpt>
      <trkpt lat="46.51457" lon="-1.80433">
        <ele>2.8</ele>
        <time>2021-06-19T16:41:30Z</time>
      </trkpt>
      <trkpt lat="46.51456" lon="-1.80431">
        <ele>2.8</ele>
        <time>2021-06-19T16:41:32Z</time>
      </trkpt>
      <trkpt lat="46.51454" lon="-1.80429">
        <ele>2.8</ele>
        <time>2021-06-19T16:41:33Z</time>
      </trkpt>
      <trkpt lat="46.51453" lon="-1.80428">
        <ele>2.8</ele>
        <time>2021-06-19T16:41:34Z</time>
      </trkpt>
      <trkpt lat="46.51451" lon="-1.80428">
        <ele>2.8</ele>
        <time>2021-06-19T16:41:35Z</time>
      </trkpt>
      <trkpt lat="46.5145" lon="-1.80427">
        <ele>2.8</ele>
        <time>2021-06-19T16:41:36Z</time>
      </trkpt>
      <trkpt lat="46.51449" lon="-1.80427">
        <ele>2.8</ele>
        <time>2021-06-19T16:41:37Z</time>
      </trkpt>
      <trkpt lat="46.51447" lon="-1.80426">
        <ele>2.8</ele>
        <time>2021-06-19T16:41:38Z</time>
      </trkpt>
      <trkpt lat="46.51446" lon="-1.80426">
        <ele>2.8</ele>
        <time>2021-06-19T16:41:39Z</time>
      </trkpt>
      <trkpt lat="46.51445" lon="-1.80425">
        <ele>2.8</ele>
        <time>2021-06-19T16:41:40Z</time>
      </trkpt>
      <trkpt lat="46.51444" lon="-1.80425">
        <ele>2.8</ele>
        <time>2021-06-19T16:41:42Z</time>
      </trkpt>
      <trkpt lat="46.51442" lon="-1.80425">
        <ele>2.8</ele>
        <time>2021-06-19T16:41:43Z</time>
      </trkpt>
      <trkpt lat="46.51441" lon="-1.80424">
        <ele>2.8</ele>
        <time>2021-06-19T16:41:44Z</time>
      </trkpt>
      <trkpt lat="46.5144" lon="-1.80424">
        <ele>2.8</ele>
        <time>2021-06-19T16:41:45Z</time>
      </trkpt>
      <trkpt lat="46.51439" lon="-1.80425">
        <ele>2.8</ele>
        <time>2021-06-19T16:41:46Z</time>
      </trkpt>
      <trkpt lat="46.51438" lon="-1.80424">
        <ele>2.8</ele>
        <time>2021-06-19T16:41:47Z</time>
      </trkpt>
      <trkpt lat="46.51438" lon="-1.80425">
        <ele>2.8</ele>
        <time>2021-06-19T16:41:48Z</time>
      </trkpt>
      <trkpt lat="46.51437" lon="-1.80424">
        <ele>2.8</ele>
        <time>2021-06-19T16:41:49Z</time>
      </trkpt>
      <trkpt lat="46.51435" lon="-1.80424">
        <ele>2.8</ele>
        <time>2021-06-19T16:41:50Z</time>
      </trkpt>
      <trkpt lat="46.51433" lon="-1.80423">
        <ele>2.8</ele>
        <time>2021-06-19T16:41:51Z</time>
      </trkpt>
      <trkpt lat="46.51432" lon="-1.80422">
        <ele>2.8</ele>
        <time>2021-06-19T16:41:53Z</time>
      </trkpt>
      <trkpt lat="46.51431" lon="-1.80422">
        <ele>2.9</ele>
        <time>2021-06-19T16:41:54Z</time>
      </trkpt>
      <trkpt lat="46.5143" lon="-1.80421">
        <ele>2.9</ele>
        <time>2021-06-19T16:41:55Z</time>
      </trkpt>
      <trkpt lat="46.51429" lon="-1.80421">
        <ele>2.9</ele>
        <time>2021-06-19T16:41:56Z</time>
      </trkpt>
      <trkpt lat="46.51427" lon="-1.80421">
        <ele>2.9</ele>
        <time>2021-06-19T16:41:57Z</time>
      </trkpt>
      <trkpt lat="46.51426" lon="-1.8042">
        <ele>2.9</ele>
        <time>2021-06-19T16:41:58Z</time>
      </trkpt>
      <trkpt lat="46.51424" lon="-1.8042">
        <ele>2.9</ele>
        <time>2021-06-19T16:41:59Z</time>
      </trkpt>
      <trkpt lat="46.51423" lon="-1.8042">
        <ele>2.9</ele>
        <time>2021-06-19T16:42:00Z</time>
      </trkpt>
      <trkpt lat="46.51421" lon="-1.8042">
        <ele>2.9</ele>
        <time>2021-06-19T16:42:01Z</time>
      </trkpt>
      <trkpt lat="46.5142" lon="-1.80419">
        <ele>2.9</ele>
        <time>2021-06-19T16:42:02Z</time>
      </trkpt>
      <trkpt lat="46.51419" lon="-1.80419">
        <ele>2.9</ele>
        <time>2021-06-19T16:42:03Z</time>
      </trkpt>
      <trkpt lat="46.51417" lon="-1.80418">
        <ele>2.9</ele>
        <time>2021-06-19T16:42:04Z</time>
      </trkpt>
      <trkpt lat="46.51416" lon="-1.80418">
        <ele>3</ele>
        <time>2021-06-19T16:42:06Z</time>
      </trkpt>
      <trkpt lat="46.51414" lon="-1.80417">
        <ele>3</ele>
        <time>2021-06-19T16:42:07Z</time>
      </trkpt>
      <trkpt lat="46.51413" lon="-1.80416">
        <ele>3</ele>
        <time>2021-06-19T16:42:08Z</time>
      </trkpt>
      <trkpt lat="46.51411" lon="-1.80415">
        <ele>3</ele>
        <time>2021-06-19T16:42:09Z</time>
      </trkpt>
      <trkpt lat="46.51409" lon="-1.80413">
        <ele>3</ele>
        <time>2021-06-19T16:42:10Z</time>
      </trkpt>
      <trkpt lat="46.51408" lon="-1.80413">
        <ele>3</ele>
        <time>2021-06-19T16:42:11Z</time>
      </trkpt>
      <trkpt lat="46.51405" lon="-1.8041">
        <ele>3</ele>
        <time>2021-06-19T16:42:12Z</time>
      </trkpt>
      <trkpt lat="46.51405" lon="-1.8041">
        <ele>3</ele>
        <time>2021-06-19T16:42:13Z</time>
      </trkpt>
      <trkpt lat="46.51402" lon="-1.80407">
        <ele>3</ele>
        <time>2021-06-19T16:42:14Z</time>
      </trkpt>
      <trkpt lat="46.51401" lon="-1.80406">
        <ele>3</ele>
        <time>2021-06-19T16:42:15Z</time>
      </trkpt>
      <trkpt lat="46.514" lon="-1.80404">
        <ele>3</ele>
        <time>2021-06-19T16:42:16Z</time>
      </trkpt>
      <trkpt lat="46.51399" lon="-1.80402">
        <ele>3</ele>
        <time>2021-06-19T16:42:17Z</time>
      </trkpt>
      <trkpt lat="46.51396" lon="-1.80398">
        <ele>3</ele>
        <time>2021-06-19T16:42:19Z</time>
      </trkpt>
      <trkpt lat="46.51394" lon="-1.80394">
        <ele>3.1</ele>
        <time>2021-06-19T16:42:21Z</time>
      </trkpt>
      <trkpt lat="46.51393" lon="-1.80393">
        <ele>3.1</ele>
        <time>2021-06-19T16:42:22Z</time>
      </trkpt>
      <trkpt lat="46.51392" lon="-1.80392">
        <ele>3.1</ele>
        <time>2021-06-19T16:42:23Z</time>
      </trkpt>
      <trkpt lat="46.5139" lon="-1.8039">
        <ele>3.1</ele>
        <time>2021-06-19T16:42:25Z</time>
      </trkpt>
      <trkpt lat="46.51389" lon="-1.80389">
        <ele>3.1</ele>
        <time>2021-06-19T16:42:26Z</time>
      </trkpt>
      <trkpt lat="46.51388" lon="-1.80388">
        <ele>3.1</ele>
        <time>2021-06-19T16:42:27Z</time>
      </trkpt>
      <trkpt lat="46.51387" lon="-1.80387">
        <ele>3.1</ele>
        <time>2021-06-19T16:42:28Z</time>
      </trkpt>
      <trkpt lat="46.51384" lon="-1.80384">
        <ele>3.1</ele>
        <time>2021-06-19T16:42:30Z</time>
      </trkpt>
      <trkpt lat="46.51382" lon="-1.80382">
        <ele>3.1</ele>
        <time>2021-06-19T16:42:31Z</time>
      </trkpt>
      <trkpt lat="46.51381" lon="-1.80381">
        <ele>3.1</ele>
        <time>2021-06-19T16:42:32Z</time>
      </trkpt>
      <trkpt lat="46.5138" lon="-1.80379">
        <ele>3.2</ele>
        <time>2021-06-19T16:42:33Z</time>
      </trkpt>
      <trkpt lat="46.51379" lon="-1.80378">
        <ele>3.2</ele>
        <time>2021-06-19T16:42:35Z</time>
      </trkpt>
      <trkpt lat="46.51378" lon="-1.80377">
        <ele>3.2</ele>
        <time>2021-06-19T16:42:36Z</time>
      </trkpt>
      <trkpt lat="46.51376" lon="-1.80375">
        <ele>3.2</ele>
        <time>2021-06-19T16:42:37Z</time>
      </trkpt>
      <trkpt lat="46.51375" lon="-1.80373">
        <ele>3.2</ele>
        <time>2021-06-19T16:42:39Z</time>
      </trkpt>
      <trkpt lat="46.51374" lon="-1.80372">
        <ele>3.2</ele>
        <time>2021-06-19T16:42:40Z</time>
      </trkpt>
      <trkpt lat="46.51372" lon="-1.8037">
        <ele>3.2</ele>
        <time>2021-06-19T16:42:41Z</time>
      </trkpt>
      <trkpt lat="46.51371" lon="-1.80369">
        <ele>3.2</ele>
        <time>2021-06-19T16:42:42Z</time>
      </trkpt>
      <trkpt lat="46.5137" lon="-1.80368">
        <ele>3.2</ele>
        <time>2021-06-19T16:42:43Z</time>
      </trkpt>
      <trkpt lat="46.51368" lon="-1.80366">
        <ele>3.2</ele>
        <time>2021-06-19T16:42:45Z</time>
      </trkpt>
      <trkpt lat="46.51368" lon="-1.80365">
        <ele>3.2</ele>
        <time>2021-06-19T16:42:46Z</time>
      </trkpt>
      <trkpt lat="46.51367" lon="-1.80364">
        <ele>3.2</ele>
        <time>2021-06-19T16:42:47Z</time>
      </trkpt>
      <trkpt lat="46.51366" lon="-1.80364">
        <ele>3.1</ele>
        <time>2021-06-19T16:42:48Z</time>
      </trkpt>
      <trkpt lat="46.51365" lon="-1.80363">
        <ele>3.1</ele>
        <time>2021-06-19T16:42:49Z</time>
      </trkpt>
      <trkpt lat="46.51363" lon="-1.80362">
        <ele>3.1</ele>
        <time>2021-06-19T16:42:50Z</time>
      </trkpt>
      <trkpt lat="46.51362" lon="-1.80361">
        <ele>3.1</ele>
        <time>2021-06-19T16:42:51Z</time>
      </trkpt>
      <trkpt lat="46.5136" lon="-1.8036">
        <ele>3.1</ele>
        <time>2021-06-19T16:42:52Z</time>
      </trkpt>
      <trkpt lat="46.51359" lon="-1.8036">
        <ele>3.1</ele>
        <time>2021-06-19T16:42:53Z</time>
      </trkpt>
      <trkpt lat="46.51358" lon="-1.8036">
        <ele>3.1</ele>
        <time>2021-06-19T16:42:54Z</time>
      </trkpt>
      <trkpt lat="46.51357" lon="-1.8036">
        <ele>3.1</ele>
        <time>2021-06-19T16:42:55Z</time>
      </trkpt>
      <trkpt lat="46.51356" lon="-1.8036">
        <ele>3.1</ele>
        <time>2021-06-19T16:42:56Z</time>
      </trkpt>
      <trkpt lat="46.51354" lon="-1.80361">
        <ele>3.1</ele>
        <time>2021-06-19T16:42:58Z</time>
      </trkpt>
      <trkpt lat="46.51352" lon="-1.80361">
        <ele>3.1</ele>
        <time>2021-06-19T16:42:59Z</time>
      </trkpt>
      <trkpt lat="46.5135" lon="-1.80362">
        <ele>3.1</ele>
        <time>2021-06-19T16:43:00Z</time>
      </trkpt>
      <trkpt lat="46.51348" lon="-1.80364">
        <ele>3.1</ele>
        <time>2021-06-19T16:43:01Z</time>
      </trkpt>
      <trkpt lat="46.51346" lon="-1.80365">
        <ele>3.1</ele>
        <time>2021-06-19T16:43:03Z</time>
      </trkpt>
      <trkpt lat="46.51343" lon="-1.80367">
        <ele>3.1</ele>
        <time>2021-06-19T16:43:04Z</time>
      </trkpt>
      <trkpt lat="46.51342" lon="-1.80368">
        <ele>3.1</ele>
        <time>2021-06-19T16:43:05Z</time>
      </trkpt>
      <trkpt lat="46.51339" lon="-1.8037">
        <ele>3.1</ele>
        <time>2021-06-19T16:43:07Z</time>
      </trkpt>
      <trkpt lat="46.51338" lon="-1.8037">
        <ele>3.1</ele>
        <time>2021-06-19T16:43:08Z</time>
      </trkpt>
      <trkpt lat="46.51337" lon="-1.80371">
        <ele>3.1</ele>
        <time>2021-06-19T16:43:09Z</time>
      </trkpt>
      <trkpt lat="46.51336" lon="-1.80373">
        <ele>3.1</ele>
        <time>2021-06-19T16:43:10Z</time>
      </trkpt>
      <trkpt lat="46.51335" lon="-1.80374">
        <ele>3.1</ele>
        <time>2021-06-19T16:43:11Z</time>
      </trkpt>
      <trkpt lat="46.51333" lon="-1.80377">
        <ele>3.1</ele>
        <time>2021-06-19T16:43:13Z</time>
      </trkpt>
      <trkpt lat="46.51331" lon="-1.80379">
        <ele>3.1</ele>
        <time>2021-06-19T16:43:14Z</time>
      </trkpt>
      <trkpt lat="46.51329" lon="-1.80381">
        <ele>3.1</ele>
        <time>2021-06-19T16:43:16Z</time>
      </trkpt>
      <trkpt lat="46.51328" lon="-1.80382">
        <ele>3.1</ele>
        <time>2021-06-19T16:43:17Z</time>
      </trkpt>
      <trkpt lat="46.51326" lon="-1.80383">
        <ele>3.1</ele>
        <time>2021-06-19T16:43:18Z</time>
      </trkpt>
      <trkpt lat="46.51325" lon="-1.80384">
        <ele>3.1</ele>
        <time>2021-06-19T16:43:19Z</time>
      </trkpt>
      <trkpt lat="46.51323" lon="-1.80384">
        <ele>3.1</ele>
        <time>2021-06-19T16:43:20Z</time>
      </trkpt>
      <trkpt lat="46.5132" lon="-1.80384">
        <ele>3.1</ele>
        <time>2021-06-19T16:43:21Z</time>
      </trkpt>
      <trkpt lat="46.51319" lon="-1.80384">
        <ele>3.1</ele>
        <time>2021-06-19T16:43:22Z</time>
      </trkpt>
      <trkpt lat="46.51317" lon="-1.80384">
        <ele>3.1</ele>
        <time>2021-06-19T16:43:24Z</time>
      </trkpt>
      <trkpt lat="46.51315" lon="-1.80384">
        <ele>3.1</ele>
        <time>2021-06-19T16:43:25Z</time>
      </trkpt>
      <trkpt lat="46.51313" lon="-1.80384">
        <ele>3.1</ele>
        <time>2021-06-19T16:43:26Z</time>
      </trkpt>
      <trkpt lat="46.51312" lon="-1.80384">
        <ele>3.1</ele>
        <time>2021-06-19T16:43:27Z</time>
      </trkpt>
      <trkpt lat="46.51309" lon="-1.80383">
        <ele>3.1</ele>
        <time>2021-06-19T16:43:28Z</time>
      </trkpt>
      <trkpt lat="46.51308" lon="-1.80383">
        <ele>3.1</ele>
        <time>2021-06-19T16:43:29Z</time>
      </trkpt>
      <trkpt lat="46.51306" lon="-1.80383">
        <ele>3.1</ele>
        <time>2021-06-19T16:43:31Z</time>
      </trkpt>
      <trkpt lat="46.51304" lon="-1.80382">
        <ele>3.1</ele>
        <time>2021-06-19T16:43:32Z</time>
      </trkpt>
      <trkpt lat="46.51302" lon="-1.80381">
        <ele>3.1</ele>
        <time>2021-06-19T16:43:33Z</time>
      </trkpt>
      <trkpt lat="46.51301" lon="-1.8038">
        <ele>3.1</ele>
        <time>2021-06-19T16:43:34Z</time>
      </trkpt>
      <trkpt lat="46.51298" lon="-1.80378">
        <ele>3.1</ele>
        <time>2021-06-19T16:43:35Z</time>
      </trkpt>
      <trkpt lat="46.51297" lon="-1.80377">
        <ele>3.1</ele>
        <time>2021-06-19T16:43:36Z</time>
      </trkpt>
      <trkpt lat="46.51293" lon="-1.80374">
        <ele>3.1</ele>
        <time>2021-06-19T16:43:38Z</time>
      </trkpt>
      <trkpt lat="46.51292" lon="-1.80373">
        <ele>3.1</ele>
        <time>2021-06-19T16:43:39Z</time>
      </trkpt>
      <trkpt lat="46.5129" lon="-1.80372">
        <ele>3.1</ele>
        <time>2021-06-19T16:43:40Z</time>
      </trkpt>
      <trkpt lat="46.51288" lon="-1.8037">
        <ele>3.1</ele>
        <time>2021-06-19T16:43:41Z</time>
      </trkpt>
      <trkpt lat="46.51287" lon="-1.80369">
        <ele>3.1</ele>
        <time>2021-06-19T16:43:42Z</time>
      </trkpt>
      <trkpt lat="46.51286" lon="-1.80367">
        <ele>3.1</ele>
        <time>2021-06-19T16:43:43Z</time>
      </trkpt>
      <trkpt lat="46.51284" lon="-1.80366">
        <ele>3</ele>
        <time>2021-06-19T16:43:44Z</time>
      </trkpt>
      <trkpt lat="46.51281" lon="-1.80366">
        <ele>3</ele>
        <time>2021-06-19T16:43:45Z</time>
      </trkpt>
      <trkpt lat="46.5128" lon="-1.80365">
        <ele>3</ele>
        <time>2021-06-19T16:43:47Z</time>
      </trkpt>
      <trkpt lat="46.51279" lon="-1.80365">
        <ele>3</ele>
        <time>2021-06-19T16:43:48Z</time>
      </trkpt>
      <trkpt lat="46.51278" lon="-1.80365">
        <ele>3</ele>
        <time>2021-06-19T16:43:49Z</time>
      </trkpt>
      <trkpt lat="46.51277" lon="-1.80365">
        <ele>3</ele>
        <time>2021-06-19T16:43:50Z</time>
      </trkpt>
      <trkpt lat="46.51276" lon="-1.80364">
        <ele>3</ele>
        <time>2021-06-19T16:43:51Z</time>
      </trkpt>
      <trkpt lat="46.51275" lon="-1.80364">
        <ele>3</ele>
        <time>2021-06-19T16:43:52Z</time>
      </trkpt>
      <trkpt lat="46.51273" lon="-1.80363">
        <ele>3</ele>
        <time>2021-06-19T16:43:54Z</time>
      </trkpt>
      <trkpt lat="46.51272" lon="-1.80363">
        <ele>3</ele>
        <time>2021-06-19T16:43:55Z</time>
      </trkpt>
      <trkpt lat="46.51271" lon="-1.80363">
        <ele>3</ele>
        <time>2021-06-19T16:43:56Z</time>
      </trkpt>
      <trkpt lat="46.5127" lon="-1.80362">
        <ele>3</ele>
        <time>2021-06-19T16:43:57Z</time>
      </trkpt>
      <trkpt lat="46.51269" lon="-1.80362">
        <ele>3</ele>
        <time>2021-06-19T16:43:59Z</time>
      </trkpt>
      <trkpt lat="46.51267" lon="-1.80362">
        <ele>3</ele>
        <time>2021-06-19T16:44:00Z</time>
      </trkpt>
      <trkpt lat="46.51266" lon="-1.80361">
        <ele>3</ele>
        <time>2021-06-19T16:44:01Z</time>
      </trkpt>
      <trkpt lat="46.51265" lon="-1.80361">
        <ele>3</ele>
        <time>2021-06-19T16:44:02Z</time>
      </trkpt>
      <trkpt lat="46.51263" lon="-1.80361">
        <ele>3</ele>
        <time>2021-06-19T16:44:03Z</time>
      </trkpt>
      <trkpt lat="46.51262" lon="-1.8036">
        <ele>3.1</ele>
        <time>2021-06-19T16:44:04Z</time>
      </trkpt>
      <trkpt lat="46.5126" lon="-1.8036">
        <ele>3.1</ele>
        <time>2021-06-19T16:44:06Z</time>
      </trkpt>
      <trkpt lat="46.51259" lon="-1.80361">
        <ele>3.1</ele>
        <time>2021-06-19T16:44:07Z</time>
      </trkpt>
      <trkpt lat="46.51257" lon="-1.80361">
        <ele>3.1</ele>
        <time>2021-06-19T16:44:08Z</time>
      </trkpt>
      <trkpt lat="46.51256" lon="-1.80362">
        <ele>3.1</ele>
        <time>2021-06-19T16:44:09Z</time>
      </trkpt>
      <trkpt lat="46.51255" lon="-1.80363">
        <ele>3.1</ele>
        <time>2021-06-19T16:44:10Z</time>
      </trkpt>
      <trkpt lat="46.51253" lon="-1.80364">
        <ele>3.1</ele>
        <time>2021-06-19T16:44:12Z</time>
      </trkpt>
      <trkpt lat="46.51252" lon="-1.80365">
        <ele>3.1</ele>
        <time>2021-06-19T16:44:13Z</time>
      </trkpt>
      <trkpt lat="46.5125" lon="-1.80365">
        <ele>3.1</ele>
        <time>2021-06-19T16:44:14Z</time>
      </trkpt>
      <trkpt lat="46.51248" lon="-1.80365">
        <ele>3.1</ele>
        <time>2021-06-19T16:44:15Z</time>
      </trkpt>
      <trkpt lat="46.51246" lon="-1.80366">
        <ele>3.1</ele>
        <time>2021-06-19T16:44:17Z</time>
      </trkpt>
      <trkpt lat="46.51244" lon="-1.80366">
        <ele>3.1</ele>
        <time>2021-06-19T16:44:18Z</time>
      </trkpt>
      <trkpt lat="46.51243" lon="-1.80365">
        <ele>3.1</ele>
        <time>2021-06-19T16:44:19Z</time>
      </trkpt>
      <trkpt lat="46.5124" lon="-1.80365">
        <ele>3.1</ele>
        <time>2021-06-19T16:44:20Z</time>
      </trkpt>
      <trkpt lat="46.51237" lon="-1.80364">
        <ele>3.1</ele>
        <time>2021-06-19T16:44:22Z</time>
      </trkpt>
      <trkpt lat="46.51235" lon="-1.80364">
        <ele>3.1</ele>
        <time>2021-06-19T16:44:23Z</time>
      </trkpt>
      <trkpt lat="46.51234" lon="-1.80364">
        <ele>3.1</ele>
        <time>2021-06-19T16:44:24Z</time>
      </trkpt>
      <trkpt lat="46.51232" lon="-1.80364">
        <ele>3.1</ele>
        <time>2021-06-19T16:44:25Z</time>
      </trkpt>
      <trkpt lat="46.51231" lon="-1.80364">
        <ele>3.1</ele>
        <time>2021-06-19T16:44:26Z</time>
      </trkpt>
      <trkpt lat="46.51229" lon="-1.80364">
        <ele>3.1</ele>
        <time>2021-06-19T16:44:27Z</time>
      </trkpt>
      <trkpt lat="46.51227" lon="-1.80364">
        <ele>3.1</ele>
        <time>2021-06-19T16:44:28Z</time>
      </trkpt>
      <trkpt lat="46.51226" lon="-1.80364">
        <ele>3.1</ele>
        <time>2021-06-19T16:44:29Z</time>
      </trkpt>
      <trkpt lat="46.51224" lon="-1.80364">
        <ele>3.1</ele>
        <time>2021-06-19T16:44:30Z</time>
      </trkpt>
      <trkpt lat="46.51221" lon="-1.80363">
        <ele>3.1</ele>
        <time>2021-06-19T16:44:32Z</time>
      </trkpt>
      <trkpt lat="46.5122" lon="-1.80363">
        <ele>3.1</ele>
        <time>2021-06-19T16:44:33Z</time>
      </trkpt>
      <trkpt lat="46.51218" lon="-1.80362">
        <ele>3.1</ele>
        <time>2021-06-19T16:44:34Z</time>
      </trkpt>
      <trkpt lat="46.51217" lon="-1.80361">
        <ele>3.1</ele>
        <time>2021-06-19T16:44:36Z</time>
      </trkpt>
      <trkpt lat="46.51215" lon="-1.8036">
        <ele>3</ele>
        <time>2021-06-19T16:44:37Z</time>
      </trkpt>
      <trkpt lat="46.51214" lon="-1.8036">
        <ele>3</ele>
        <time>2021-06-19T16:44:38Z</time>
      </trkpt>
      <trkpt lat="46.51212" lon="-1.80359">
        <ele>3</ele>
        <time>2021-06-19T16:44:39Z</time>
      </trkpt>
      <trkpt lat="46.51211" lon="-1.80358">
        <ele>3</ele>
        <time>2021-06-19T16:44:40Z</time>
      </trkpt>
      <trkpt lat="46.51209" lon="-1.80358">
        <ele>3</ele>
        <time>2021-06-19T16:44:41Z</time>
      </trkpt>
      <trkpt lat="46.51207" lon="-1.80357">
        <ele>3</ele>
        <time>2021-06-19T16:44:42Z</time>
      </trkpt>
      <trkpt lat="46.51206" lon="-1.80356">
        <ele>3</ele>
        <time>2021-06-19T16:44:43Z</time>
      </trkpt>
      <trkpt lat="46.51205" lon="-1.80355">
        <ele>3</ele>
        <time>2021-06-19T16:44:44Z</time>
      </trkpt>
      <trkpt lat="46.51202" lon="-1.80353">
        <ele>3</ele>
        <time>2021-06-19T16:44:45Z</time>
      </trkpt>
      <trkpt lat="46.51201" lon="-1.80352">
        <ele>3</ele>
        <time>2021-06-19T16:44:46Z</time>
      </trkpt>
      <trkpt lat="46.51199" lon="-1.80351">
        <ele>3</ele>
        <time>2021-06-19T16:44:47Z</time>
      </trkpt>
      <trkpt lat="46.51197" lon="-1.8035">
        <ele>3.1</ele>
        <time>2021-06-19T16:44:49Z</time>
      </trkpt>
      <trkpt lat="46.51195" lon="-1.8035">
        <ele>3.1</ele>
        <time>2021-06-19T16:44:50Z</time>
      </trkpt>
      <trkpt lat="46.51194" lon="-1.80348">
        <ele>3.1</ele>
        <time>2021-06-19T16:44:52Z</time>
      </trkpt>
      <trkpt lat="46.51194" lon="-1.80347">
        <ele>3.1</ele>
        <time>2021-06-19T16:44:53Z</time>
      </trkpt>
      <trkpt lat="46.51192" lon="-1.80345">
        <ele>3.1</ele>
        <time>2021-06-19T16:44:54Z</time>
      </trkpt>
      <trkpt lat="46.51191" lon="-1.80344">
        <ele>3.1</ele>
        <time>2021-06-19T16:44:55Z</time>
      </trkpt>
      <trkpt lat="46.5119" lon="-1.80343">
        <ele>3.1</ele>
        <time>2021-06-19T16:44:57Z</time>
      </trkpt>
      <trkpt lat="46.51189" lon="-1.80341">
        <ele>3.1</ele>
        <time>2021-06-19T16:44:58Z</time>
      </trkpt>
      <trkpt lat="46.51188" lon="-1.8034">
        <ele>3.1</ele>
        <time>2021-06-19T16:44:59Z</time>
      </trkpt>
      <trkpt lat="46.51187" lon="-1.80339">
        <ele>3.1</ele>
        <time>2021-06-19T16:45:00Z</time>
      </trkpt>
      <trkpt lat="46.51185" lon="-1.80338">
        <ele>3.1</ele>
        <time>2021-06-19T16:45:02Z</time>
      </trkpt>
      <trkpt lat="46.51184" lon="-1.80336">
        <ele>3.1</ele>
        <time>2021-06-19T16:45:03Z</time>
      </trkpt>
      <trkpt lat="46.51182" lon="-1.80335">
        <ele>3.1</ele>
        <time>2021-06-19T16:45:04Z</time>
      </trkpt>
      <trkpt lat="46.5118" lon="-1.80335">
        <ele>3.1</ele>
        <time>2021-06-19T16:45:05Z</time>
      </trkpt>
      <trkpt lat="46.51177" lon="-1.80334">
        <ele>3.1</ele>
        <time>2021-06-19T16:45:07Z</time>
      </trkpt>
      <trkpt lat="46.51177" lon="-1.80334">
        <ele>3.1</ele>
        <time>2021-06-19T16:45:08Z</time>
      </trkpt>
      <trkpt lat="46.51175" lon="-1.80334">
        <ele>3.1</ele>
        <time>2021-06-19T16:45:09Z</time>
      </trkpt>
      <trkpt lat="46.51173" lon="-1.80333">
        <ele>3.1</ele>
        <time>2021-06-19T16:45:11Z</time>
      </trkpt>
      <trkpt lat="46.51171" lon="-1.80332">
        <ele>3.1</ele>
        <time>2021-06-19T16:45:12Z</time>
      </trkpt>
      <trkpt lat="46.51169" lon="-1.80331">
        <ele>3.1</ele>
        <time>2021-06-19T16:45:13Z</time>
      </trkpt>
      <trkpt lat="46.51166" lon="-1.8033">
        <ele>3.1</ele>
        <time>2021-06-19T16:45:14Z</time>
      </trkpt>
      <trkpt lat="46.51165" lon="-1.80329">
        <ele>3.1</ele>
        <time>2021-06-19T16:45:15Z</time>
      </trkpt>
      <trkpt lat="46.51162" lon="-1.80329">
        <ele>3.1</ele>
        <time>2021-06-19T16:45:16Z</time>
      </trkpt>
      <trkpt lat="46.51161" lon="-1.80329">
        <ele>3.1</ele>
        <time>2021-06-19T16:45:17Z</time>
      </trkpt>
      <trkpt lat="46.51158" lon="-1.80328">
        <ele>3.1</ele>
        <time>2021-06-19T16:45:18Z</time>
      </trkpt>
      <trkpt lat="46.51157" lon="-1.80328">
        <ele>3.1</ele>
        <time>2021-06-19T16:45:19Z</time>
      </trkpt>
      <trkpt lat="46.51156" lon="-1.80327">
        <ele>3.1</ele>
        <time>2021-06-19T16:45:21Z</time>
      </trkpt>
      <trkpt lat="46.51154" lon="-1.80328">
        <ele>3.1</ele>
        <time>2021-06-19T16:45:22Z</time>
      </trkpt>
      <trkpt lat="46.51153" lon="-1.80328">
        <ele>3</ele>
        <time>2021-06-19T16:45:23Z</time>
      </trkpt>
      <trkpt lat="46.51151" lon="-1.80328">
        <ele>3</ele>
        <time>2021-06-19T16:45:24Z</time>
      </trkpt>
      <trkpt lat="46.5115" lon="-1.80329">
        <ele>3</ele>
        <time>2021-06-19T16:45:25Z</time>
      </trkpt>
      <trkpt lat="46.51148" lon="-1.80329">
        <ele>3</ele>
        <time>2021-06-19T16:45:26Z</time>
      </trkpt>
      <trkpt lat="46.51146" lon="-1.80329">
        <ele>3</ele>
        <time>2021-06-19T16:45:27Z</time>
      </trkpt>
      <trkpt lat="46.51145" lon="-1.80329">
        <ele>3</ele>
        <time>2021-06-19T16:45:28Z</time>
      </trkpt>
      <trkpt lat="46.51142" lon="-1.80329">
        <ele>3</ele>
        <time>2021-06-19T16:45:30Z</time>
      </trkpt>
      <trkpt lat="46.5114" lon="-1.80329">
        <ele>3</ele>
        <time>2021-06-19T16:45:31Z</time>
      </trkpt>
      <trkpt lat="46.51138" lon="-1.80329">
        <ele>3</ele>
        <time>2021-06-19T16:45:32Z</time>
      </trkpt>
      <trkpt lat="46.51136" lon="-1.80329">
        <ele>3</ele>
        <time>2021-06-19T16:45:34Z</time>
      </trkpt>
      <trkpt lat="46.51135" lon="-1.80329">
        <ele>3</ele>
        <time>2021-06-19T16:45:35Z</time>
      </trkpt>
      <trkpt lat="46.51133" lon="-1.80329">
        <ele>3</ele>
        <time>2021-06-19T16:45:36Z</time>
      </trkpt>
      <trkpt lat="46.51132" lon="-1.80329">
        <ele>3</ele>
        <time>2021-06-19T16:45:37Z</time>
      </trkpt>
      <trkpt lat="46.5113" lon="-1.80329">
        <ele>3</ele>
        <time>2021-06-19T16:45:38Z</time>
      </trkpt>
      <trkpt lat="46.51129" lon="-1.80329">
        <ele>3</ele>
        <time>2021-06-19T16:45:39Z</time>
      </trkpt>
      <trkpt lat="46.51127" lon="-1.8033">
        <ele>3</ele>
        <time>2021-06-19T16:45:40Z</time>
      </trkpt>
      <trkpt lat="46.51126" lon="-1.80331">
        <ele>3</ele>
        <time>2021-06-19T16:45:41Z</time>
      </trkpt>
      <trkpt lat="46.51125" lon="-1.80331">
        <ele>3</ele>
        <time>2021-06-19T16:45:42Z</time>
      </trkpt>
      <trkpt lat="46.51124" lon="-1.80332">
        <ele>3</ele>
        <time>2021-06-19T16:45:43Z</time>
      </trkpt>
      <trkpt lat="46.51123" lon="-1.80333">
        <ele>3</ele>
        <time>2021-06-19T16:45:44Z</time>
      </trkpt>
      <trkpt lat="46.51121" lon="-1.80333">
        <ele>3</ele>
        <time>2021-06-19T16:45:46Z</time>
      </trkpt>
      <trkpt lat="46.51119" lon="-1.80333">
        <ele>3</ele>
        <time>2021-06-19T16:45:47Z</time>
      </trkpt>
      <trkpt lat="46.51118" lon="-1.80333">
        <ele>3</ele>
        <time>2021-06-19T16:45:48Z</time>
      </trkpt>
      <trkpt lat="46.51116" lon="-1.80333">
        <ele>3.1</ele>
        <time>2021-06-19T16:45:49Z</time>
      </trkpt>
      <trkpt lat="46.51114" lon="-1.80332">
        <ele>3.1</ele>
        <time>2021-06-19T16:45:50Z</time>
      </trkpt>
      <trkpt lat="46.51113" lon="-1.80332">
        <ele>3.1</ele>
        <time>2021-06-19T16:45:51Z</time>
      </trkpt>
      <trkpt lat="46.51112" lon="-1.80331">
        <ele>3.1</ele>
        <time>2021-06-19T16:45:52Z</time>
      </trkpt>
      <trkpt lat="46.5111" lon="-1.8033">
        <ele>3.1</ele>
        <time>2021-06-19T16:45:53Z</time>
      </trkpt>
      <trkpt lat="46.51108" lon="-1.80328">
        <ele>3.1</ele>
        <time>2021-06-19T16:45:54Z</time>
      </trkpt>
      <trkpt lat="46.51108" lon="-1.80328">
        <ele>3.1</ele>
        <time>2021-06-19T16:45:56Z</time>
      </trkpt>
      <trkpt lat="46.51107" lon="-1.80327">
        <ele>3.1</ele>
        <time>2021-06-19T16:45:57Z</time>
      </trkpt>
      <trkpt lat="46.51105" lon="-1.80326">
        <ele>3.1</ele>
        <time>2021-06-19T16:45:58Z</time>
      </trkpt>
      <trkpt lat="46.51104" lon="-1.80325">
        <ele>3.1</ele>
        <time>2021-06-19T16:45:59Z</time>
      </trkpt>
      <trkpt lat="46.51103" lon="-1.80325">
        <ele>3.2</ele>
        <time>2021-06-19T16:46:00Z</time>
      </trkpt>
      <trkpt lat="46.51102" lon="-1.80323">
        <ele>3.2</ele>
        <time>2021-06-19T16:46:01Z</time>
      </trkpt>
      <trkpt lat="46.51101" lon="-1.80322">
        <ele>3.2</ele>
        <time>2021-06-19T16:46:03Z</time>
      </trkpt>
      <trkpt lat="46.51099" lon="-1.80321">
        <ele>3.2</ele>
        <time>2021-06-19T16:46:04Z</time>
      </trkpt>
      <trkpt lat="46.51098" lon="-1.80319">
        <ele>3.2</ele>
        <time>2021-06-19T16:46:05Z</time>
      </trkpt>
      <trkpt lat="46.51097" lon="-1.80318">
        <ele>3.2</ele>
        <time>2021-06-19T16:46:06Z</time>
      </trkpt>
      <trkpt lat="46.51095" lon="-1.80317">
        <ele>3.2</ele>
        <time>2021-06-19T16:46:07Z</time>
      </trkpt>
      <trkpt lat="46.51094" lon="-1.80315">
        <ele>3.3</ele>
        <time>2021-06-19T16:46:08Z</time>
      </trkpt>
      <trkpt lat="46.51093" lon="-1.80313">
        <ele>3.3</ele>
        <time>2021-06-19T16:46:09Z</time>
      </trkpt>
      <trkpt lat="46.51091" lon="-1.80312">
        <ele>3.3</ele>
        <time>2021-06-19T16:46:10Z</time>
      </trkpt>
      <trkpt lat="46.5109" lon="-1.8031">
        <ele>3.3</ele>
        <time>2021-06-19T16:46:11Z</time>
      </trkpt>
      <trkpt lat="46.5109" lon="-1.80308">
        <ele>3.3</ele>
        <time>2021-06-19T16:46:12Z</time>
      </trkpt>
      <trkpt lat="46.51089" lon="-1.80306">
        <ele>3.3</ele>
        <time>2021-06-19T16:46:13Z</time>
      </trkpt>
      <trkpt lat="46.51089" lon="-1.80304">
        <ele>3.3</ele>
        <time>2021-06-19T16:46:14Z</time>
      </trkpt>
      <trkpt lat="46.51088" lon="-1.80303">
        <ele>3.4</ele>
        <time>2021-06-19T16:46:15Z</time>
      </trkpt>
      <trkpt lat="46.51087" lon="-1.80299">
        <ele>3.4</ele>
        <time>2021-06-19T16:46:17Z</time>
      </trkpt>
      <trkpt lat="46.51086" lon="-1.80297">
        <ele>3.4</ele>
        <time>2021-06-19T16:46:18Z</time>
      </trkpt>
      <trkpt lat="46.51086" lon="-1.80295">
        <ele>3.4</ele>
        <time>2021-06-19T16:46:19Z</time>
      </trkpt>
      <trkpt lat="46.51084" lon="-1.80292">
        <ele>3.5</ele>
        <time>2021-06-19T16:46:21Z</time>
      </trkpt>
      <trkpt lat="46.51083" lon="-1.80291">
        <ele>3.5</ele>
        <time>2021-06-19T16:46:22Z</time>
      </trkpt>
      <trkpt lat="46.51082" lon="-1.80289">
        <ele>3.5</ele>
        <time>2021-06-19T16:46:23Z</time>
      </trkpt>
      <trkpt lat="46.51081" lon="-1.80287">
        <ele>3.5</ele>
        <time>2021-06-19T16:46:24Z</time>
      </trkpt>
      <trkpt lat="46.5108" lon="-1.80285">
        <ele>3.5</ele>
        <time>2021-06-19T16:46:25Z</time>
      </trkpt>
      <trkpt lat="46.51079" lon="-1.80284">
        <ele>3.6</ele>
        <time>2021-06-19T16:46:26Z</time>
      </trkpt>
      <trkpt lat="46.51077" lon="-1.80283">
        <ele>3.6</ele>
        <time>2021-06-19T16:46:27Z</time>
      </trkpt>
      <trkpt lat="46.51076" lon="-1.80282">
        <ele>3.6</ele>
        <time>2021-06-19T16:46:29Z</time>
      </trkpt>
      <trkpt lat="46.51075" lon="-1.80281">
        <ele>3.6</ele>
        <time>2021-06-19T16:46:30Z</time>
      </trkpt>
      <trkpt lat="46.51073" lon="-1.80279">
        <ele>3.7</ele>
        <time>2021-06-19T16:46:31Z</time>
      </trkpt>
      <trkpt lat="46.51073" lon="-1.80278">
        <ele>3.7</ele>
        <time>2021-06-19T16:46:32Z</time>
      </trkpt>
      <trkpt lat="46.51071" lon="-1.80275">
        <ele>3.7</ele>
        <time>2021-06-19T16:46:33Z</time>
      </trkpt>
      <trkpt lat="46.5107" lon="-1.80274">
        <ele>3.7</ele>
        <time>2021-06-19T16:46:34Z</time>
      </trkpt>
      <trkpt lat="46.51069" lon="-1.80273">
        <ele>3.8</ele>
        <time>2021-06-19T16:46:35Z</time>
      </trkpt>
      <trkpt lat="46.51068" lon="-1.80271">
        <ele>3.8</ele>
        <time>2021-06-19T16:46:37Z</time>
      </trkpt>
      <trkpt lat="46.51067" lon="-1.80269">
        <ele>3.8</ele>
        <time>2021-06-19T16:46:38Z</time>
      </trkpt>
      <trkpt lat="46.51065" lon="-1.80268">
        <ele>3.8</ele>
        <time>2021-06-19T16:46:39Z</time>
      </trkpt>
      <trkpt lat="46.51064" lon="-1.80267">
        <ele>3.8</ele>
        <time>2021-06-19T16:46:40Z</time>
      </trkpt>
      <trkpt lat="46.51062" lon="-1.80266">
        <ele>3.9</ele>
        <time>2021-06-19T16:46:41Z</time>
      </trkpt>
      <trkpt lat="46.51061" lon="-1.80265">
        <ele>3.9</ele>
        <time>2021-06-19T16:46:42Z</time>
      </trkpt>
      <trkpt lat="46.51059" lon="-1.80264">
        <ele>3.9</ele>
        <time>2021-06-19T16:46:43Z</time>
      </trkpt>
      <trkpt lat="46.51057" lon="-1.80264">
        <ele>3.9</ele>
        <time>2021-06-19T16:46:44Z</time>
      </trkpt>
      <trkpt lat="46.51055" lon="-1.80263">
        <ele>4</ele>
        <time>2021-06-19T16:46:45Z</time>
      </trkpt>
      <trkpt lat="46.51054" lon="-1.80264">
        <ele>4</ele>
        <time>2021-06-19T16:46:46Z</time>
      </trkpt>
      <trkpt lat="46.51051" lon="-1.80264">
        <ele>4</ele>
        <time>2021-06-19T16:46:48Z</time>
      </trkpt>
      <trkpt lat="46.5105" lon="-1.80264">
        <ele>4.1</ele>
        <time>2021-06-19T16:46:49Z</time>
      </trkpt>
      <trkpt lat="46.51048" lon="-1.80263">
        <ele>4.1</ele>
        <time>2021-06-19T16:46:50Z</time>
      </trkpt>
      <trkpt lat="46.51046" lon="-1.80262">
        <ele>4.1</ele>
        <time>2021-06-19T16:46:52Z</time>
      </trkpt>
      <trkpt lat="46.51045" lon="-1.80261">
        <ele>4.1</ele>
        <time>2021-06-19T16:46:53Z</time>
      </trkpt>
      <trkpt lat="46.51043" lon="-1.80261">
        <ele>4.2</ele>
        <time>2021-06-19T16:46:54Z</time>
      </trkpt>
      <trkpt lat="46.51041" lon="-1.8026">
        <ele>4.2</ele>
        <time>2021-06-19T16:46:55Z</time>
      </trkpt>
      <trkpt lat="46.51039" lon="-1.8026">
        <ele>4.2</ele>
        <time>2021-06-19T16:46:57Z</time>
      </trkpt>
      <trkpt lat="46.51038" lon="-1.8026">
        <ele>4.2</ele>
        <time>2021-06-19T16:46:58Z</time>
      </trkpt>
      <trkpt lat="46.51036" lon="-1.80259">
        <ele>4.2</ele>
        <time>2021-06-19T16:46:59Z</time>
      </trkpt>
      <trkpt lat="46.51035" lon="-1.80258">
        <ele>4.2</ele>
        <time>2021-06-19T16:47:00Z</time>
      </trkpt>
      <trkpt lat="46.51034" lon="-1.80257">
        <ele>4.2</ele>
        <time>2021-06-19T16:47:01Z</time>
      </trkpt>
      <trkpt lat="46.51033" lon="-1.80256">
        <ele>4.2</ele>
        <time>2021-06-19T16:47:02Z</time>
      </trkpt>
      <trkpt lat="46.5103" lon="-1.80255">
        <ele>4.2</ele>
        <time>2021-06-19T16:47:04Z</time>
      </trkpt>
      <trkpt lat="46.5103" lon="-1.80255">
        <ele>4.2</ele>
        <time>2021-06-19T16:47:05Z</time>
      </trkpt>
      <trkpt lat="46.51029" lon="-1.80255">
        <ele>4.2</ele>
        <time>2021-06-19T16:47:06Z</time>
      </trkpt>
      <trkpt lat="46.51027" lon="-1.80255">
        <ele>4.2</ele>
        <time>2021-06-19T16:47:07Z</time>
      </trkpt>
      <trkpt lat="46.51026" lon="-1.80255">
        <ele>4.2</ele>
        <time>2021-06-19T16:47:08Z</time>
      </trkpt>
      <trkpt lat="46.51024" lon="-1.80255">
        <ele>4.2</ele>
        <time>2021-06-19T16:47:09Z</time>
      </trkpt>
      <trkpt lat="46.51023" lon="-1.80255">
        <ele>4.2</ele>
        <time>2021-06-19T16:47:10Z</time>
      </trkpt>
      <trkpt lat="46.51022" lon="-1.80255">
        <ele>4.2</ele>
        <time>2021-06-19T16:47:11Z</time>
      </trkpt>
      <trkpt lat="46.5102" lon="-1.80255">
        <ele>4.2</ele>
        <time>2021-06-19T16:47:12Z</time>
      </trkpt>
      <trkpt lat="46.51018" lon="-1.80254">
        <ele>4.2</ele>
        <time>2021-06-19T16:47:13Z</time>
      </trkpt>
      <trkpt lat="46.51015" lon="-1.80253">
        <ele>4.2</ele>
        <time>2021-06-19T16:47:15Z</time>
      </trkpt>
      <trkpt lat="46.51014" lon="-1.80253">
        <ele>4.2</ele>
        <time>2021-06-19T16:47:16Z</time>
      </trkpt>
      <trkpt lat="46.51012" lon="-1.80252">
        <ele>4.2</ele>
        <time>2021-06-19T16:47:17Z</time>
      </trkpt>
      <trkpt lat="46.51009" lon="-1.8025">
        <ele>4.2</ele>
        <time>2021-06-19T16:47:19Z</time>
      </trkpt>
      <trkpt lat="46.51008" lon="-1.8025">
        <ele>4.2</ele>
        <time>2021-06-19T16:47:20Z</time>
      </trkpt>
      <trkpt lat="46.51007" lon="-1.80249">
        <ele>4.2</ele>
        <time>2021-06-19T16:47:21Z</time>
      </trkpt>
      <trkpt lat="46.51005" lon="-1.80249">
        <ele>4.2</ele>
        <time>2021-06-19T16:47:22Z</time>
      </trkpt>
      <trkpt lat="46.51004" lon="-1.80248">
        <ele>4.2</ele>
        <time>2021-06-19T16:47:23Z</time>
      </trkpt>
      <trkpt lat="46.51002" lon="-1.80247">
        <ele>4.2</ele>
        <time>2021-06-19T16:47:25Z</time>
      </trkpt>
      <trkpt lat="46.51" lon="-1.80246">
        <ele>4.2</ele>
        <time>2021-06-19T16:47:26Z</time>
      </trkpt>
      <trkpt lat="46.50999" lon="-1.80245">
        <ele>4.2</ele>
        <time>2021-06-19T16:47:27Z</time>
      </trkpt>
      <trkpt lat="46.50998" lon="-1.80244">
        <ele>4.2</ele>
        <time>2021-06-19T16:47:28Z</time>
      </trkpt>
      <trkpt lat="46.50997" lon="-1.80243">
        <ele>4.2</ele>
        <time>2021-06-19T16:47:29Z</time>
      </trkpt>
      <trkpt lat="46.50996" lon="-1.80243">
        <ele>4.2</ele>
        <time>2021-06-19T16:47:30Z</time>
      </trkpt>
      <trkpt lat="46.50995" lon="-1.80242">
        <ele>4.2</ele>
        <time>2021-06-19T16:47:31Z</time>
      </trkpt>
      <trkpt lat="46.50993" lon="-1.80242">
        <ele>4.2</ele>
        <time>2021-06-19T16:47:32Z</time>
      </trkpt>
      <trkpt lat="46.50991" lon="-1.8024">
        <ele>4.2</ele>
        <time>2021-06-19T16:47:34Z</time>
      </trkpt>
      <trkpt lat="46.50989" lon="-1.8024">
        <ele>4.2</ele>
        <time>2021-06-19T16:47:35Z</time>
      </trkpt>
      <trkpt lat="46.50988" lon="-1.80239">
        <ele>4.2</ele>
        <time>2021-06-19T16:47:36Z</time>
      </trkpt>
      <trkpt lat="46.50985" lon="-1.80236">
        <ele>4.2</ele>
        <time>2021-06-19T16:47:38Z</time>
      </trkpt>
      <trkpt lat="46.50984" lon="-1.80236">
        <ele>4.2</ele>
        <time>2021-06-19T16:47:39Z</time>
      </trkpt>
      <trkpt lat="46.50983" lon="-1.80235">
        <ele>4.2</ele>
        <time>2021-06-19T16:47:40Z</time>
      </trkpt>
      <trkpt lat="46.50982" lon="-1.80234">
        <ele>4.1</ele>
        <time>2021-06-19T16:47:41Z</time>
      </trkpt>
      <trkpt lat="46.50979" lon="-1.80232">
        <ele>4.1</ele>
        <time>2021-06-19T16:47:43Z</time>
      </trkpt>
      <trkpt lat="46.50978" lon="-1.80231">
        <ele>4.1</ele>
        <time>2021-06-19T16:47:44Z</time>
      </trkpt>
      <trkpt lat="46.50977" lon="-1.8023">
        <ele>4.1</ele>
        <time>2021-06-19T16:47:45Z</time>
      </trkpt>
      <trkpt lat="46.50976" lon="-1.8023">
        <ele>4.1</ele>
        <time>2021-06-19T16:47:46Z</time>
      </trkpt>
      <trkpt lat="46.50974" lon="-1.80229">
        <ele>4.1</ele>
        <time>2021-06-19T16:47:47Z</time>
      </trkpt>
      <trkpt lat="46.50973" lon="-1.80228">
        <ele>4.1</ele>
        <time>2021-06-19T16:47:48Z</time>
      </trkpt>
      <trkpt lat="46.50971" lon="-1.80227">
        <ele>4.1</ele>
        <time>2021-06-19T16:47:49Z</time>
      </trkpt>
      <trkpt lat="46.5097" lon="-1.80227">
        <ele>4.1</ele>
        <time>2021-06-19T16:47:50Z</time>
      </trkpt>
      <trkpt lat="46.50968" lon="-1.80226">
        <ele>4.1</ele>
        <time>2021-06-19T16:47:51Z</time>
      </trkpt>
      <trkpt lat="46.50967" lon="-1.80226">
        <ele>4.1</ele>
        <time>2021-06-19T16:47:52Z</time>
      </trkpt>
      <trkpt lat="46.50966" lon="-1.80226">
        <ele>4</ele>
        <time>2021-06-19T16:47:53Z</time>
      </trkpt>
      <trkpt lat="46.50964" lon="-1.80225">
        <ele>4</ele>
        <time>2021-06-19T16:47:54Z</time>
      </trkpt>
      <trkpt lat="46.50964" lon="-1.80224">
        <ele>4</ele>
        <time>2021-06-19T16:47:56Z</time>
      </trkpt>
      <trkpt lat="46.50963" lon="-1.80224">
        <ele>4</ele>
        <time>2021-06-19T16:47:57Z</time>
      </trkpt>
      <trkpt lat="46.50961" lon="-1.80223">
        <ele>4</ele>
        <time>2021-06-19T16:47:58Z</time>
      </trkpt>
      <trkpt lat="46.5096" lon="-1.80222">
        <ele>4</ele>
        <time>2021-06-19T16:47:59Z</time>
      </trkpt>
      <trkpt lat="46.50958" lon="-1.80222">
        <ele>4.1</ele>
        <time>2021-06-19T16:48:00Z</time>
      </trkpt>
      <trkpt lat="46.50957" lon="-1.80223">
        <ele>4</ele>
        <time>2021-06-19T16:48:01Z</time>
      </trkpt>
      <trkpt lat="46.50955" lon="-1.80223">
        <ele>4</ele>
        <time>2021-06-19T16:48:02Z</time>
      </trkpt>
      <trkpt lat="46.50953" lon="-1.80223">
        <ele>4</ele>
        <time>2021-06-19T16:48:04Z</time>
      </trkpt>
      <trkpt lat="46.50951" lon="-1.80222">
        <ele>4</ele>
        <time>2021-06-19T16:48:05Z</time>
      </trkpt>
      <trkpt lat="46.5095" lon="-1.80222">
        <ele>4</ele>
        <time>2021-06-19T16:48:06Z</time>
      </trkpt>
      <trkpt lat="46.50948" lon="-1.80222">
        <ele>4</ele>
        <time>2021-06-19T16:48:07Z</time>
      </trkpt>
      <trkpt lat="46.50946" lon="-1.80221">
        <ele>4</ele>
        <time>2021-06-19T16:48:09Z</time>
      </trkpt>
      <trkpt lat="46.50944" lon="-1.80221">
        <ele>4</ele>
        <time>2021-06-19T16:48:10Z</time>
      </trkpt>
      <trkpt lat="46.50943" lon="-1.8022">
        <ele>4</ele>
        <time>2021-06-19T16:48:11Z</time>
      </trkpt>
      <trkpt lat="46.5094" lon="-1.80219">
        <ele>4</ele>
        <time>2021-06-19T16:48:13Z</time>
      </trkpt>
      <trkpt lat="46.50939" lon="-1.80218">
        <ele>4.1</ele>
        <time>2021-06-19T16:48:14Z</time>
      </trkpt>
      <trkpt lat="46.50937" lon="-1.80216">
        <ele>4.1</ele>
        <time>2021-06-19T16:48:16Z</time>
      </trkpt>
      <trkpt lat="46.50936" lon="-1.80216">
        <ele>4.1</ele>
        <time>2021-06-19T16:48:17Z</time>
      </trkpt>
      <trkpt lat="46.50935" lon="-1.80215">
        <ele>4.1</ele>
        <time>2021-06-19T16:48:18Z</time>
      </trkpt>
      <trkpt lat="46.50934" lon="-1.80215">
        <ele>4.1</ele>
        <time>2021-06-19T16:48:19Z</time>
      </trkpt>
      <trkpt lat="46.50933" lon="-1.80214">
        <ele>4.1</ele>
        <time>2021-06-19T16:48:21Z</time>
      </trkpt>
      <trkpt lat="46.50932" lon="-1.80213">
        <ele>4.1</ele>
        <time>2021-06-19T16:48:22Z</time>
      </trkpt>
      <trkpt lat="46.50932" lon="-1.80211">
        <ele>4.1</ele>
        <time>2021-06-19T16:48:23Z</time>
      </trkpt>
      <trkpt lat="46.50931" lon="-1.8021">
        <ele>4.1</ele>
        <time>2021-06-19T16:48:24Z</time>
      </trkpt>
      <trkpt lat="46.5093" lon="-1.8021">
        <ele>4.1</ele>
        <time>2021-06-19T16:48:25Z</time>
      </trkpt>
      <trkpt lat="46.50929" lon="-1.80209">
        <ele>4.1</ele>
        <time>2021-06-19T16:48:26Z</time>
      </trkpt>
      <trkpt lat="46.50928" lon="-1.80209">
        <ele>4.1</ele>
        <time>2021-06-19T16:48:27Z</time>
      </trkpt>
      <trkpt lat="46.50926" lon="-1.80209">
        <ele>4.1</ele>
        <time>2021-06-19T16:48:29Z</time>
      </trkpt>
      <trkpt lat="46.50925" lon="-1.80208">
        <ele>4.1</ele>
        <time>2021-06-19T16:48:30Z</time>
      </trkpt>
      <trkpt lat="46.50924" lon="-1.80207">
        <ele>4.1</ele>
        <time>2021-06-19T16:48:31Z</time>
      </trkpt>
      <trkpt lat="46.50922" lon="-1.80207">
        <ele>4.1</ele>
        <time>2021-06-19T16:48:32Z</time>
      </trkpt>
      <trkpt lat="46.5092" lon="-1.80205">
        <ele>4.1</ele>
        <time>2021-06-19T16:48:34Z</time>
      </trkpt>
      <trkpt lat="46.50919" lon="-1.80205">
        <ele>4.1</ele>
        <time>2021-06-19T16:48:35Z</time>
      </trkpt>
      <trkpt lat="46.50918" lon="-1.80205">
        <ele>4.1</ele>
        <time>2021-06-19T16:48:36Z</time>
      </trkpt>
      <trkpt lat="46.50916" lon="-1.80204">
        <ele>4.1</ele>
        <time>2021-06-19T16:48:37Z</time>
      </trkpt>
      <trkpt lat="46.50914" lon="-1.80203">
        <ele>4.2</ele>
        <time>2021-06-19T16:48:38Z</time>
      </trkpt>
      <trkpt lat="46.50912" lon="-1.80202">
        <ele>4.2</ele>
        <time>2021-06-19T16:48:39Z</time>
      </trkpt>
      <trkpt lat="46.50912" lon="-1.80202">
        <ele>4.2</ele>
        <time>2021-06-19T16:48:40Z</time>
      </trkpt>
      <trkpt lat="46.50911" lon="-1.80202">
        <ele>4.2</ele>
        <time>2021-06-19T16:48:42Z</time>
      </trkpt>
      <trkpt lat="46.5091" lon="-1.80202">
        <ele>4.2</ele>
        <time>2021-06-19T16:48:43Z</time>
      </trkpt>
      <trkpt lat="46.50909" lon="-1.80202">
        <ele>4.2</ele>
        <time>2021-06-19T16:48:44Z</time>
      </trkpt>
      <trkpt lat="46.50908" lon="-1.80202">
        <ele>4.2</ele>
        <time>2021-06-19T16:48:45Z</time>
      </trkpt>
      <trkpt lat="46.50907" lon="-1.80202">
        <ele>4.2</ele>
        <time>2021-06-19T16:48:46Z</time>
      </trkpt>
      <trkpt lat="46.50906" lon="-1.80201">
        <ele>4.2</ele>
        <time>2021-06-19T16:48:47Z</time>
      </trkpt>
      <trkpt lat="46.50904" lon="-1.80201">
        <ele>4.2</ele>
        <time>2021-06-19T16:48:49Z</time>
      </trkpt>
      <trkpt lat="46.50902" lon="-1.802">
        <ele>4.2</ele>
        <time>2021-06-19T16:48:50Z</time>
      </trkpt>
      <trkpt lat="46.509" lon="-1.802">
        <ele>4.2</ele>
        <time>2021-06-19T16:48:51Z</time>
      </trkpt>
      <trkpt lat="46.50899" lon="-1.802">
        <ele>4.2</ele>
        <time>2021-06-19T16:48:52Z</time>
      </trkpt>
      <trkpt lat="46.50898" lon="-1.80199">
        <ele>4.3</ele>
        <time>2021-06-19T16:48:54Z</time>
      </trkpt>
      <trkpt lat="46.50896" lon="-1.80199">
        <ele>4.3</ele>
        <time>2021-06-19T16:48:55Z</time>
      </trkpt>
      <trkpt lat="46.50895" lon="-1.80198">
        <ele>4.3</ele>
        <time>2021-06-19T16:48:56Z</time>
      </trkpt>
      <trkpt lat="46.50893" lon="-1.80198">
        <ele>4.3</ele>
        <time>2021-06-19T16:48:57Z</time>
      </trkpt>
      <trkpt lat="46.50891" lon="-1.80197">
        <ele>4.3</ele>
        <time>2021-06-19T16:48:58Z</time>
      </trkpt>
      <trkpt lat="46.50889" lon="-1.80197">
        <ele>4.3</ele>
        <time>2021-06-19T16:48:59Z</time>
      </trkpt>
      <trkpt lat="46.50887" lon="-1.80196">
        <ele>4.3</ele>
        <time>2021-06-19T16:49:01Z</time>
      </trkpt>
      <trkpt lat="46.50886" lon="-1.80195">
        <ele>4.3</ele>
        <time>2021-06-19T16:49:02Z</time>
      </trkpt>
      <trkpt lat="46.50884" lon="-1.80194">
        <ele>4.3</ele>
        <time>2021-06-19T16:49:03Z</time>
      </trkpt>
      <trkpt lat="46.50883" lon="-1.80194">
        <ele>4.3</ele>
        <time>2021-06-19T16:49:04Z</time>
      </trkpt>
      <trkpt lat="46.50881" lon="-1.80193">
        <ele>4.3</ele>
        <time>2021-06-19T16:49:05Z</time>
      </trkpt>
      <trkpt lat="46.50879" lon="-1.80192">
        <ele>4.3</ele>
        <time>2021-06-19T16:49:06Z</time>
      </trkpt>
      <trkpt lat="46.50877" lon="-1.80191">
        <ele>4.3</ele>
        <time>2021-06-19T16:49:07Z</time>
      </trkpt>
      <trkpt lat="46.50874" lon="-1.8019">
        <ele>4.3</ele>
        <time>2021-06-19T16:49:08Z</time>
      </trkpt>
      <trkpt lat="46.50873" lon="-1.8019">
        <ele>4.3</ele>
        <time>2021-06-19T16:49:09Z</time>
      </trkpt>
      <trkpt lat="46.50872" lon="-1.80189">
        <ele>4.3</ele>
        <time>2021-06-19T16:49:10Z</time>
      </trkpt>
      <trkpt lat="46.5087" lon="-1.80188">
        <ele>4.3</ele>
        <time>2021-06-19T16:49:11Z</time>
      </trkpt>
      <trkpt lat="46.50869" lon="-1.80188">
        <ele>4.3</ele>
        <time>2021-06-19T16:49:12Z</time>
      </trkpt>
      <trkpt lat="46.50867" lon="-1.80187">
        <ele>4.3</ele>
        <time>2021-06-19T16:49:13Z</time>
      </trkpt>
      <trkpt lat="46.50865" lon="-1.80186">
        <ele>4.3</ele>
        <time>2021-06-19T16:49:14Z</time>
      </trkpt>
      <trkpt lat="46.50863" lon="-1.80186">
        <ele>4.3</ele>
        <time>2021-06-19T16:49:16Z</time>
      </trkpt>
      <trkpt lat="46.50862" lon="-1.80185">
        <ele>4.3</ele>
        <time>2021-06-19T16:49:17Z</time>
      </trkpt>
      <trkpt lat="46.5086" lon="-1.80185">
        <ele>4.3</ele>
        <time>2021-06-19T16:49:18Z</time>
      </trkpt>
      <trkpt lat="46.50856" lon="-1.80183">
        <ele>4.3</ele>
        <time>2021-06-19T16:49:20Z</time>
      </trkpt>
      <trkpt lat="46.50855" lon="-1.80183">
        <ele>4.3</ele>
        <time>2021-06-19T16:49:21Z</time>
      </trkpt>
      <trkpt lat="46.50854" lon="-1.80182">
        <ele>4.3</ele>
        <time>2021-06-19T16:49:22Z</time>
      </trkpt>
      <trkpt lat="46.50852" lon="-1.80181">
        <ele>4.3</ele>
        <time>2021-06-19T16:49:23Z</time>
      </trkpt>
      <trkpt lat="46.50849" lon="-1.80179">
        <ele>4.3</ele>
        <time>2021-06-19T16:49:25Z</time>
      </trkpt>
      <trkpt lat="46.50847" lon="-1.80179">
        <ele>4.3</ele>
        <time>2021-06-19T16:49:26Z</time>
      </trkpt>
      <trkpt lat="46.50845" lon="-1.80178">
        <ele>4.3</ele>
        <time>2021-06-19T16:49:28Z</time>
      </trkpt>
      <trkpt lat="46.50843" lon="-1.80177">
        <ele>4.3</ele>
        <time>2021-06-19T16:49:29Z</time>
      </trkpt>
      <trkpt lat="46.50841" lon="-1.80176">
        <ele>4.3</ele>
        <time>2021-06-19T16:49:31Z</time>
      </trkpt>
      <trkpt lat="46.5084" lon="-1.80175">
        <ele>4.3</ele>
        <time>2021-06-19T16:49:32Z</time>
      </trkpt>
      <trkpt lat="46.50838" lon="-1.80174">
        <ele>4.3</ele>
        <time>2021-06-19T16:49:33Z</time>
      </trkpt>
      <trkpt lat="46.50837" lon="-1.80173">
        <ele>4.3</ele>
        <time>2021-06-19T16:49:34Z</time>
      </trkpt>
      <trkpt lat="46.50835" lon="-1.80173">
        <ele>4.3</ele>
        <time>2021-06-19T16:49:35Z</time>
      </trkpt>
      <trkpt lat="46.50834" lon="-1.80172">
        <ele>4.3</ele>
        <time>2021-06-19T16:49:36Z</time>
      </trkpt>
      <trkpt lat="46.50832" lon="-1.80172">
        <ele>4.3</ele>
        <time>2021-06-19T16:49:37Z</time>
      </trkpt>
      <trkpt lat="46.50831" lon="-1.80171">
        <ele>4.3</ele>
        <time>2021-06-19T16:49:38Z</time>
      </trkpt>
      <trkpt lat="46.50829" lon="-1.80171">
        <ele>4.3</ele>
        <time>2021-06-19T16:49:39Z</time>
      </trkpt>
      <trkpt lat="46.50828" lon="-1.8017">
        <ele>4.3</ele>
        <time>2021-06-19T16:49:40Z</time>
      </trkpt>
      <trkpt lat="46.50826" lon="-1.80169">
        <ele>4.3</ele>
        <time>2021-06-19T16:49:41Z</time>
      </trkpt>
      <trkpt lat="46.50825" lon="-1.80169">
        <ele>4.2</ele>
        <time>2021-06-19T16:49:43Z</time>
      </trkpt>
      <trkpt lat="46.50823" lon="-1.80168">
        <ele>4.2</ele>
        <time>2021-06-19T16:49:44Z</time>
      </trkpt>
      <trkpt lat="46.50821" lon="-1.80167">
        <ele>4.2</ele>
        <time>2021-06-19T16:49:45Z</time>
      </trkpt>
      <trkpt lat="46.50818" lon="-1.80165">
        <ele>4.2</ele>
        <time>2021-06-19T16:49:46Z</time>
      </trkpt>
      <trkpt lat="46.50817" lon="-1.80165">
        <ele>4.2</ele>
        <time>2021-06-19T16:49:47Z</time>
      </trkpt>
      <trkpt lat="46.50813" lon="-1.80163">
        <ele>4.2</ele>
        <time>2021-06-19T16:49:48Z</time>
      </trkpt>
      <trkpt lat="46.50812" lon="-1.80163">
        <ele>4.2</ele>
        <time>2021-06-19T16:49:49Z</time>
      </trkpt>
      <trkpt lat="46.50811" lon="-1.80162">
        <ele>4.2</ele>
        <time>2021-06-19T16:49:50Z</time>
      </trkpt>
      <trkpt lat="46.50809" lon="-1.80161">
        <ele>4.2</ele>
        <time>2021-06-19T16:49:51Z</time>
      </trkpt>
      <trkpt lat="46.50808" lon="-1.80161">
        <ele>4.2</ele>
        <time>2021-06-19T16:49:52Z</time>
      </trkpt>
      <trkpt lat="46.50807" lon="-1.8016">
        <ele>4.2</ele>
        <time>2021-06-19T16:49:53Z</time>
      </trkpt>
      <trkpt lat="46.50806" lon="-1.8016">
        <ele>4.2</ele>
        <time>2021-06-19T16:49:55Z</time>
      </trkpt>
      <trkpt lat="46.50804" lon="-1.80159">
        <ele>4.2</ele>
        <time>2021-06-19T16:49:56Z</time>
      </trkpt>
      <trkpt lat="46.50803" lon="-1.80158">
        <ele>4.2</ele>
        <time>2021-06-19T16:49:57Z</time>
      </trkpt>
      <trkpt lat="46.50802" lon="-1.80158">
        <ele>4.2</ele>
        <time>2021-06-19T16:49:58Z</time>
      </trkpt>
      <trkpt lat="46.508" lon="-1.80157">
        <ele>4.2</ele>
        <time>2021-06-19T16:49:59Z</time>
      </trkpt>
      <trkpt lat="46.50799" lon="-1.80156">
        <ele>4.1</ele>
        <time>2021-06-19T16:50:00Z</time>
      </trkpt>
      <trkpt lat="46.50798" lon="-1.80155">
        <ele>4.1</ele>
        <time>2021-06-19T16:50:02Z</time>
      </trkpt>
      <trkpt lat="46.50796" lon="-1.80154">
        <ele>4.1</ele>
        <time>2021-06-19T16:50:03Z</time>
      </trkpt>
      <trkpt lat="46.50795" lon="-1.80154">
        <ele>4.1</ele>
        <time>2021-06-19T16:50:04Z</time>
      </trkpt>
      <trkpt lat="46.50794" lon="-1.80153">
        <ele>4.1</ele>
        <time>2021-06-19T16:50:05Z</time>
      </trkpt>
      <trkpt lat="46.50792" lon="-1.80152">
        <ele>4.1</ele>
        <time>2021-06-19T16:50:06Z</time>
      </trkpt>
      <trkpt lat="46.50791" lon="-1.80151">
        <ele>4.1</ele>
        <time>2021-06-19T16:50:07Z</time>
      </trkpt>
      <trkpt lat="46.50789" lon="-1.8015">
        <ele>4.1</ele>
        <time>2021-06-19T16:50:08Z</time>
      </trkpt>
      <trkpt lat="46.50788" lon="-1.8015">
        <ele>4.1</ele>
        <time>2021-06-19T16:50:09Z</time>
      </trkpt>
      <trkpt lat="46.50787" lon="-1.8015">
        <ele>4.1</ele>
        <time>2021-06-19T16:50:10Z</time>
      </trkpt>
      <trkpt lat="46.50786" lon="-1.80149">
        <ele>4.1</ele>
        <time>2021-06-19T16:50:12Z</time>
      </trkpt>
      <trkpt lat="46.50785" lon="-1.80148">
        <ele>4.1</ele>
        <time>2021-06-19T16:50:13Z</time>
      </trkpt>
      <trkpt lat="46.50784" lon="-1.80147">
        <ele>4.1</ele>
        <time>2021-06-19T16:50:14Z</time>
      </trkpt>
      <trkpt lat="46.50783" lon="-1.80146">
        <ele>4.1</ele>
        <time>2021-06-19T16:50:15Z</time>
      </trkpt>
      <trkpt lat="46.50781" lon="-1.80143">
        <ele>4.1</ele>
        <time>2021-06-19T16:50:17Z</time>
      </trkpt>
      <trkpt lat="46.50781" lon="-1.80141">
        <ele>4.1</ele>
        <time>2021-06-19T16:50:19Z</time>
      </trkpt>
      <trkpt lat="46.50781" lon="-1.8014">
        <ele>4.1</ele>
        <time>2021-06-19T16:50:20Z</time>
      </trkpt>
      <trkpt lat="46.50781" lon="-1.80138">
        <ele>4.1</ele>
        <time>2021-06-19T16:50:21Z</time>
      </trkpt>
      <trkpt lat="46.50781" lon="-1.80136">
        <ele>4.1</ele>
        <time>2021-06-19T16:50:22Z</time>
      </trkpt>
      <trkpt lat="46.50781" lon="-1.80133">
        <ele>4.1</ele>
        <time>2021-06-19T16:50:24Z</time>
      </trkpt>
      <trkpt lat="46.50781" lon="-1.80132">
        <ele>4.1</ele>
        <time>2021-06-19T16:50:25Z</time>
      </trkpt>
      <trkpt lat="46.5078" lon="-1.8013">
        <ele>4.1</ele>
        <time>2021-06-19T16:50:27Z</time>
      </trkpt>
      <trkpt lat="46.50779" lon="-1.80128">
        <ele>4.1</ele>
        <time>2021-06-19T16:50:30Z</time>
      </trkpt>
      <trkpt lat="46.50779" lon="-1.80127">
        <ele>4.1</ele>
        <time>2021-06-19T16:50:31Z</time>
      </trkpt>
      <trkpt lat="46.50779" lon="-1.80125">
        <ele>4.1</ele>
        <time>2021-06-19T16:50:32Z</time>
      </trkpt>
      <trkpt lat="46.50779" lon="-1.80123">
        <ele>4.1</ele>
        <time>2021-06-19T16:50:34Z</time>
      </trkpt>
      <trkpt lat="46.5078" lon="-1.80121">
        <ele>4.1</ele>
        <time>2021-06-19T16:50:35Z</time>
      </trkpt>
      <trkpt lat="46.5078" lon="-1.80119">
        <ele>4.1</ele>
        <time>2021-06-19T16:50:36Z</time>
      </trkpt>
      <trkpt lat="46.50781" lon="-1.80116">
        <ele>4.1</ele>
        <time>2021-06-19T16:50:37Z</time>
      </trkpt>
      <trkpt lat="46.50781" lon="-1.80109">
        <ele>4.1</ele>
        <time>2021-06-19T16:50:39Z</time>
      </trkpt>
      <trkpt lat="46.50782" lon="-1.80105">
        <ele>4.1</ele>
        <time>2021-06-19T16:50:40Z</time>
      </trkpt>
      <trkpt lat="46.50783" lon="-1.80103">
        <ele>4.1</ele>
        <time>2021-06-19T16:50:42Z</time>
      </trkpt>
      <trkpt lat="46.50784" lon="-1.80101">
        <ele>4.1</ele>
        <time>2021-06-19T16:50:43Z</time>
      </trkpt>
      <trkpt lat="46.50784" lon="-1.80099">
        <ele>4.1</ele>
        <time>2021-06-19T16:50:44Z</time>
      </trkpt>
      <trkpt lat="46.50786" lon="-1.80095">
        <ele>4.1</ele>
        <time>2021-06-19T16:50:45Z</time>
      </trkpt>
      <trkpt lat="46.50787" lon="-1.80093">
        <ele>4.1</ele>
        <time>2021-06-19T16:50:46Z</time>
      </trkpt>
      <trkpt lat="46.50789" lon="-1.8009">
        <ele>4.1</ele>
        <time>2021-06-19T16:50:47Z</time>
      </trkpt>
      <trkpt lat="46.50791" lon="-1.80088">
        <ele>4.1</ele>
        <time>2021-06-19T16:50:48Z</time>
      </trkpt>
      <trkpt lat="46.50793" lon="-1.80084">
        <ele>4.1</ele>
        <time>2021-06-19T16:50:50Z</time>
      </trkpt>
      <trkpt lat="46.50796" lon="-1.8008">
        <ele>4.1</ele>
        <time>2021-06-19T16:50:51Z</time>
      </trkpt>
      <trkpt lat="46.50797" lon="-1.80079">
        <ele>4.1</ele>
        <time>2021-06-19T16:50:52Z</time>
      </trkpt>
      <trkpt lat="46.508" lon="-1.80075">
        <ele>4.2</ele>
        <time>2021-06-19T16:50:53Z</time>
      </trkpt>
      <trkpt lat="46.508" lon="-1.80074">
        <ele>4.2</ele>
        <time>2021-06-19T16:50:54Z</time>
      </trkpt>
      <trkpt lat="46.50802" lon="-1.80072">
        <ele>4.2</ele>
        <time>2021-06-19T16:50:55Z</time>
      </trkpt>
      <trkpt lat="46.50803" lon="-1.80071">
        <ele>4.2</ele>
        <time>2021-06-19T16:50:56Z</time>
      </trkpt>
      <trkpt lat="46.50804" lon="-1.80069">
        <ele>4.2</ele>
        <time>2021-06-19T16:50:57Z</time>
      </trkpt>
      <trkpt lat="46.50805" lon="-1.80067">
        <ele>4.2</ele>
        <time>2021-06-19T16:50:58Z</time>
      </trkpt>
      <trkpt lat="46.50805" lon="-1.80065">
        <ele>4.2</ele>
        <time>2021-06-19T16:51:00Z</time>
      </trkpt>
      <trkpt lat="46.50805" lon="-1.80063">
        <ele>4.2</ele>
        <time>2021-06-19T16:51:01Z</time>
      </trkpt>
      <trkpt lat="46.50805" lon="-1.8006">
        <ele>4.2</ele>
        <time>2021-06-19T16:51:03Z</time>
      </trkpt>
      <trkpt lat="46.50805" lon="-1.80059">
        <ele>4.2</ele>
        <time>2021-06-19T16:51:04Z</time>
      </trkpt>
      <trkpt lat="46.50804" lon="-1.80057">
        <ele>4.2</ele>
        <time>2021-06-19T16:51:06Z</time>
      </trkpt>
      <trkpt lat="46.50803" lon="-1.80056">
        <ele>4.2</ele>
        <time>2021-06-19T16:51:07Z</time>
      </trkpt>
      <trkpt lat="46.50802" lon="-1.80055">
        <ele>4.2</ele>
        <time>2021-06-19T16:51:08Z</time>
      </trkpt>
      <trkpt lat="46.50801" lon="-1.80053">
        <ele>4.2</ele>
        <time>2021-06-19T16:51:09Z</time>
      </trkpt>
      <trkpt lat="46.50799" lon="-1.80052">
        <ele>4.2</ele>
        <time>2021-06-19T16:51:10Z</time>
      </trkpt>
      <trkpt lat="46.50797" lon="-1.80052">
        <ele>4.2</ele>
        <time>2021-06-19T16:51:11Z</time>
      </trkpt>
      <trkpt lat="46.50796" lon="-1.80051">
        <ele>4.2</ele>
        <time>2021-06-19T16:51:12Z</time>
      </trkpt>
      <trkpt lat="46.50795" lon="-1.80051">
        <ele>4.2</ele>
        <time>2021-06-19T16:51:13Z</time>
      </trkpt>
      <trkpt lat="46.50791" lon="-1.80051">
        <ele>4.2</ele>
        <time>2021-06-19T16:51:15Z</time>
      </trkpt>
      <trkpt lat="46.5079" lon="-1.80052">
        <ele>4.2</ele>
        <time>2021-06-19T16:51:16Z</time>
      </trkpt>
      <trkpt lat="46.50788" lon="-1.80053">
        <ele>4.2</ele>
        <time>2021-06-19T16:51:17Z</time>
      </trkpt>
      <trkpt lat="46.50787" lon="-1.80053">
        <ele>4.2</ele>
        <time>2021-06-19T16:51:18Z</time>
      </trkpt>
      <trkpt lat="46.50786" lon="-1.80053">
        <ele>4.2</ele>
        <time>2021-06-19T16:51:19Z</time>
      </trkpt>
      <trkpt lat="46.50785" lon="-1.80053">
        <ele>4.2</ele>
        <time>2021-06-19T16:51:20Z</time>
      </trkpt>
      <trkpt lat="46.50783" lon="-1.80053">
        <ele>4.2</ele>
        <time>2021-06-19T16:51:21Z</time>
      </trkpt>
      <trkpt lat="46.50782" lon="-1.80052">
        <ele>4.2</ele>
        <time>2021-06-19T16:51:22Z</time>
      </trkpt>
      <trkpt lat="46.5078" lon="-1.80052">
        <ele>4.2</ele>
        <time>2021-06-19T16:51:23Z</time>
      </trkpt>
      <trkpt lat="46.50779" lon="-1.80051">
        <ele>4.2</ele>
        <time>2021-06-19T16:51:24Z</time>
      </trkpt>
      <trkpt lat="46.50777" lon="-1.80051">
        <ele>4.2</ele>
        <time>2021-06-19T16:51:26Z</time>
      </trkpt>
      <trkpt lat="46.50776" lon="-1.80051">
        <ele>4.3</ele>
        <time>2021-06-19T16:51:27Z</time>
      </trkpt>
      <trkpt lat="46.50774" lon="-1.8005">
        <ele>4.3</ele>
        <time>2021-06-19T16:51:28Z</time>
      </trkpt>
      <trkpt lat="46.50772" lon="-1.8005">
        <ele>4.3</ele>
        <time>2021-06-19T16:51:29Z</time>
      </trkpt>
      <trkpt lat="46.5077" lon="-1.8005">
        <ele>4.3</ele>
        <time>2021-06-19T16:51:30Z</time>
      </trkpt>
      <trkpt lat="46.50769" lon="-1.8005">
        <ele>4.3</ele>
        <time>2021-06-19T16:51:31Z</time>
      </trkpt>
      <trkpt lat="46.50767" lon="-1.80049">
        <ele>4.3</ele>
        <time>2021-06-19T16:51:32Z</time>
      </trkpt>
      <trkpt lat="46.50766" lon="-1.80049">
        <ele>4.3</ele>
        <time>2021-06-19T16:51:33Z</time>
      </trkpt>
      <trkpt lat="46.50764" lon="-1.80048">
        <ele>4.4</ele>
        <time>2021-06-19T16:51:34Z</time>
      </trkpt>
      <trkpt lat="46.5076" lon="-1.80048">
        <ele>4.4</ele>
        <time>2021-06-19T16:51:36Z</time>
      </trkpt>
      <trkpt lat="46.50757" lon="-1.80048">
        <ele>4.4</ele>
        <time>2021-06-19T16:51:37Z</time>
      </trkpt>
      <trkpt lat="46.50757" lon="-1.80048">
        <ele>4.4</ele>
        <time>2021-06-19T16:51:38Z</time>
      </trkpt>
      <trkpt lat="46.50755" lon="-1.80048">
        <ele>4.5</ele>
        <time>2021-06-19T16:51:39Z</time>
      </trkpt>
      <trkpt lat="46.50752" lon="-1.80048">
        <ele>4.5</ele>
        <time>2021-06-19T16:51:41Z</time>
      </trkpt>
      <trkpt lat="46.5075" lon="-1.80047">
        <ele>4.5</ele>
        <time>2021-06-19T16:51:42Z</time>
      </trkpt>
      <trkpt lat="46.50749" lon="-1.80047">
        <ele>4.5</ele>
        <time>2021-06-19T16:51:43Z</time>
      </trkpt>
      <trkpt lat="46.50745" lon="-1.80045">
        <ele>4.6</ele>
        <time>2021-06-19T16:51:45Z</time>
      </trkpt>
      <trkpt lat="46.50744" lon="-1.80044">
        <ele>4.6</ele>
        <time>2021-06-19T16:51:46Z</time>
      </trkpt>
      <trkpt lat="46.50743" lon="-1.80043">
        <ele>4.6</ele>
        <time>2021-06-19T16:51:47Z</time>
      </trkpt>
      <trkpt lat="46.50742" lon="-1.80042">
        <ele>4.6</ele>
        <time>2021-06-19T16:51:48Z</time>
      </trkpt>
      <trkpt lat="46.50739" lon="-1.80041">
        <ele>4.6</ele>
        <time>2021-06-19T16:51:49Z</time>
      </trkpt>
      <trkpt lat="46.50738" lon="-1.8004">
        <ele>4.6</ele>
        <time>2021-06-19T16:51:50Z</time>
      </trkpt>
      <trkpt lat="46.50736" lon="-1.80038">
        <ele>4.7</ele>
        <time>2021-06-19T16:51:51Z</time>
      </trkpt>
      <trkpt lat="46.50735" lon="-1.80037">
        <ele>4.7</ele>
        <time>2021-06-19T16:51:52Z</time>
      </trkpt>
      <trkpt lat="46.50731" lon="-1.80035">
        <ele>4.7</ele>
        <time>2021-06-19T16:51:54Z</time>
      </trkpt>
      <trkpt lat="46.50731" lon="-1.80035">
        <ele>4.7</ele>
        <time>2021-06-19T16:51:55Z</time>
      </trkpt>
      <trkpt lat="46.50729" lon="-1.80034">
        <ele>4.7</ele>
        <time>2021-06-19T16:51:56Z</time>
      </trkpt>
      <trkpt lat="46.50728" lon="-1.80034">
        <ele>4.7</ele>
        <time>2021-06-19T16:51:57Z</time>
      </trkpt>
      <trkpt lat="46.50726" lon="-1.80034">
        <ele>4.7</ele>
        <time>2021-06-19T16:51:58Z</time>
      </trkpt>
      <trkpt lat="46.50724" lon="-1.80032">
        <ele>4.7</ele>
        <time>2021-06-19T16:52:00Z</time>
      </trkpt>
      <trkpt lat="46.50724" lon="-1.80028">
        <ele>4.7</ele>
        <time>2021-06-19T16:52:02Z</time>
      </trkpt>
      <trkpt lat="46.50725" lon="-1.80027">
        <ele>4.7</ele>
        <time>2021-06-19T16:52:03Z</time>
      </trkpt>
      <trkpt lat="46.50725" lon="-1.80025">
        <ele>4.7</ele>
        <time>2021-06-19T16:52:05Z</time>
      </trkpt>
      <trkpt lat="46.50724" lon="-1.80023">
        <ele>4.7</ele>
        <time>2021-06-19T16:52:06Z</time>
      </trkpt>
      <trkpt lat="46.50723" lon="-1.80023">
        <ele>4.7</ele>
        <time>2021-06-19T16:52:07Z</time>
      </trkpt>
      <trkpt lat="46.50722" lon="-1.80023">
        <ele>4.7</ele>
        <time>2021-06-19T16:52:08Z</time>
      </trkpt>
      <trkpt lat="46.50721" lon="-1.80024">
        <ele>4.7</ele>
        <time>2021-06-19T16:52:09Z</time>
      </trkpt>
      <trkpt lat="46.50718" lon="-1.80023">
        <ele>4.7</ele>
        <time>2021-06-19T16:52:10Z</time>
      </trkpt>
      <trkpt lat="46.50717" lon="-1.80023">
        <ele>4.7</ele>
        <time>2021-06-19T16:52:11Z</time>
      </trkpt>
      <trkpt lat="46.50714" lon="-1.80023">
        <ele>4.7</ele>
        <time>2021-06-19T16:52:13Z</time>
      </trkpt>
      <trkpt lat="46.50713" lon="-1.80023">
        <ele>4.7</ele>
        <time>2021-06-19T16:52:14Z</time>
      </trkpt>
      <trkpt lat="46.50711" lon="-1.80023">
        <ele>4.7</ele>
        <time>2021-06-19T16:52:15Z</time>
      </trkpt>
      <trkpt lat="46.5071" lon="-1.80022">
        <ele>4.7</ele>
        <time>2021-06-19T16:52:16Z</time>
      </trkpt>
      <trkpt lat="46.50709" lon="-1.80021">
        <ele>4.7</ele>
        <time>2021-06-19T16:52:17Z</time>
      </trkpt>
      <trkpt lat="46.5071" lon="-1.80021">
        <ele>4.7</ele>
        <time>2021-06-19T16:52:18Z</time>
      </trkpt>
      <trkpt lat="46.5071" lon="-1.80019">
        <ele>4.6</ele>
        <time>2021-06-19T16:52:20Z</time>
      </trkpt>
      <trkpt lat="46.5071" lon="-1.80019">
        <ele>4.6</ele>
        <time>2021-06-19T16:52:21Z</time>
      </trkpt>
      <trkpt lat="46.5071" lon="-1.8002">
        <ele>4.6</ele>
        <time>2021-06-19T16:52:23Z</time>
      </trkpt>
      <trkpt lat="46.50709" lon="-1.8002">
        <ele>4.6</ele>
        <time>2021-06-19T16:52:25Z</time>
      </trkpt>
      <trkpt lat="46.50709" lon="-1.8002">
        <ele>4.6</ele>
        <time>2021-06-19T16:52:26Z</time>
      </trkpt>
      <trkpt lat="46.50709" lon="-1.8002">
        <ele>4.6</ele>
        <time>2021-06-19T16:52:28Z</time>
      </trkpt>
      <trkpt lat="46.50709" lon="-1.8002">
        <ele>4.6</ele>
        <time>2021-06-19T16:52:30Z</time>
      </trkpt>
      <trkpt lat="46.50709" lon="-1.8002">
        <ele>4.6</ele>
        <time>2021-06-19T16:52:32Z</time>
      </trkpt>
      <trkpt lat="46.50709" lon="-1.8002">
        <ele>4.6</ele>
        <time>2021-06-19T16:52:35Z</time>
      </trkpt>
      <trkpt lat="46.50708" lon="-1.80021">
        <ele>4.6</ele>
        <time>2021-06-19T16:52:36Z</time>
      </trkpt>
      <trkpt lat="46.50708" lon="-1.80021">
        <ele>4.6</ele>
        <time>2021-06-19T16:52:38Z</time>
      </trkpt>
      <trkpt lat="46.50708" lon="-1.80022">
        <ele>4.6</ele>
        <time>2021-06-19T16:52:40Z</time>
      </trkpt>
      <trkpt lat="46.50708" lon="-1.80022">
        <ele>4.6</ele>
        <time>2021-06-19T16:52:41Z</time>
      </trkpt>
      <trkpt lat="46.50707" lon="-1.80021">
        <ele>4.6</ele>
        <time>2021-06-19T16:52:43Z</time>
      </trkpt>
      <trkpt lat="46.50705" lon="-1.80019">
        <ele>4.6</ele>
        <time>2021-06-19T16:52:44Z</time>
      </trkpt>
      <trkpt lat="46.50705" lon="-1.8002">
        <ele>4.6</ele>
        <time>2021-06-19T16:52:46Z</time>
      </trkpt>
      <trkpt lat="46.50701" lon="-1.80021">
        <ele>4.6</ele>
        <time>2021-06-19T16:52:48Z</time>
      </trkpt>
      <trkpt lat="46.50697" lon="-1.80022">
        <ele>4.6</ele>
        <time>2021-06-19T16:52:50Z</time>
      </trkpt>
      <trkpt lat="46.50695" lon="-1.80024">
        <ele>4.6</ele>
        <time>2021-06-19T16:52:51Z</time>
      </trkpt>
      <trkpt lat="46.50694" lon="-1.80025">
        <ele>4.6</ele>
        <time>2021-06-19T16:52:52Z</time>
      </trkpt>
      <trkpt lat="46.50692" lon="-1.80029">
        <ele>4.6</ele>
        <time>2021-06-19T16:52:54Z</time>
      </trkpt>
      <trkpt lat="46.50687" lon="-1.8003">
        <ele>4.6</ele>
        <time>2021-06-19T16:52:56Z</time>
      </trkpt>
      <trkpt lat="46.50685" lon="-1.8003">
        <ele>4.6</ele>
        <time>2021-06-19T16:52:57Z</time>
      </trkpt>
      <trkpt lat="46.50684" lon="-1.80031">
        <ele>4.5</ele>
        <time>2021-06-19T16:52:58Z</time>
      </trkpt>
      <trkpt lat="46.50683" lon="-1.8003">
        <ele>4.5</ele>
        <time>2021-06-19T16:52:59Z</time>
      </trkpt>
      <trkpt lat="46.5068" lon="-1.8003">
        <ele>4.5</ele>
        <time>2021-06-19T16:53:01Z</time>
      </trkpt>
      <trkpt lat="46.50679" lon="-1.80029">
        <ele>4.5</ele>
        <time>2021-06-19T16:53:02Z</time>
      </trkpt>
      <trkpt lat="46.50676" lon="-1.80027">
        <ele>4.5</ele>
        <time>2021-06-19T16:53:04Z</time>
      </trkpt>
      <trkpt lat="46.50673" lon="-1.80027">
        <ele>4.5</ele>
        <time>2021-06-19T16:53:05Z</time>
      </trkpt>
      <trkpt lat="46.50672" lon="-1.80026">
        <ele>4.5</ele>
        <time>2021-06-19T16:53:06Z</time>
      </trkpt>
      <trkpt lat="46.50669" lon="-1.80026">
        <ele>4.4</ele>
        <time>2021-06-19T16:53:07Z</time>
      </trkpt>
      <trkpt lat="46.50666" lon="-1.80026">
        <ele>4.4</ele>
        <time>2021-06-19T16:53:09Z</time>
      </trkpt>
      <trkpt lat="46.50664" lon="-1.80026">
        <ele>4.4</ele>
        <time>2021-06-19T16:53:10Z</time>
      </trkpt>
      <trkpt lat="46.50662" lon="-1.80025">
        <ele>4.3</ele>
        <time>2021-06-19T16:53:12Z</time>
      </trkpt>
      <trkpt lat="46.50659" lon="-1.80025">
        <ele>4.3</ele>
        <time>2021-06-19T16:53:13Z</time>
      </trkpt>
      <trkpt lat="46.50656" lon="-1.80023">
        <ele>4.3</ele>
        <time>2021-06-19T16:53:14Z</time>
      </trkpt>
      <trkpt lat="46.50655" lon="-1.80023">
        <ele>4.3</ele>
        <time>2021-06-19T16:53:16Z</time>
      </trkpt>
      <trkpt lat="46.50654" lon="-1.80022">
        <ele>4.2</ele>
        <time>2021-06-19T16:53:17Z</time>
      </trkpt>
      <trkpt lat="46.50653" lon="-1.80022">
        <ele>4.2</ele>
        <time>2021-06-19T16:53:18Z</time>
      </trkpt>
      <trkpt lat="46.50651" lon="-1.80021">
        <ele>4.2</ele>
        <time>2021-06-19T16:53:19Z</time>
      </trkpt>
      <trkpt lat="46.50651" lon="-1.80021">
        <ele>4.2</ele>
        <time>2021-06-19T16:53:20Z</time>
      </trkpt>
      <trkpt lat="46.5065" lon="-1.8002">
        <ele>4.2</ele>
        <time>2021-06-19T16:53:22Z</time>
      </trkpt>
      <trkpt lat="46.50649" lon="-1.8002">
        <ele>4.2</ele>
        <time>2021-06-19T16:53:23Z</time>
      </trkpt>
      <trkpt lat="46.50646" lon="-1.80019">
        <ele>4.2</ele>
        <time>2021-06-19T16:53:24Z</time>
      </trkpt>
      <trkpt lat="46.50645" lon="-1.80019">
        <ele>4.2</ele>
        <time>2021-06-19T16:53:25Z</time>
      </trkpt>
      <trkpt lat="46.50643" lon="-1.80018">
        <ele>4.2</ele>
        <time>2021-06-19T16:53:26Z</time>
      </trkpt>
      <trkpt lat="46.5064" lon="-1.80017">
        <ele>4.2</ele>
        <time>2021-06-19T16:53:28Z</time>
      </trkpt>
      <trkpt lat="46.50638" lon="-1.80017">
        <ele>4.2</ele>
        <time>2021-06-19T16:53:29Z</time>
      </trkpt>
      <trkpt lat="46.50636" lon="-1.80016">
        <ele>4.2</ele>
        <time>2021-06-19T16:53:31Z</time>
      </trkpt>
      <trkpt lat="46.50633" lon="-1.80015">
        <ele>4.2</ele>
        <time>2021-06-19T16:53:32Z</time>
      </trkpt>
      <trkpt lat="46.50632" lon="-1.80015">
        <ele>4.2</ele>
        <time>2021-06-19T16:53:33Z</time>
      </trkpt>
      <trkpt lat="46.50629" lon="-1.80014">
        <ele>4.2</ele>
        <time>2021-06-19T16:53:34Z</time>
      </trkpt>
      <trkpt lat="46.50625" lon="-1.80013">
        <ele>4.2</ele>
        <time>2021-06-19T16:53:36Z</time>
      </trkpt>
      <trkpt lat="46.50622" lon="-1.80013">
        <ele>4.2</ele>
        <time>2021-06-19T16:53:37Z</time>
      </trkpt>
      <trkpt lat="46.50621" lon="-1.80013">
        <ele>4.2</ele>
        <time>2021-06-19T16:53:38Z</time>
      </trkpt>
      <trkpt lat="46.50618" lon="-1.80011">
        <ele>4.3</ele>
        <time>2021-06-19T16:53:39Z</time>
      </trkpt>
      <trkpt lat="46.50617" lon="-1.80011">
        <ele>4.3</ele>
        <time>2021-06-19T16:53:40Z</time>
      </trkpt>
      <trkpt lat="46.50616" lon="-1.80011">
        <ele>4.3</ele>
        <time>2021-06-19T16:53:41Z</time>
      </trkpt>
      <trkpt lat="46.50614" lon="-1.8001">
        <ele>4.3</ele>
        <time>2021-06-19T16:53:42Z</time>
      </trkpt>
      <trkpt lat="46.50611" lon="-1.80008">
        <ele>4.3</ele>
        <time>2021-06-19T16:53:44Z</time>
      </trkpt>
      <trkpt lat="46.5061" lon="-1.80008">
        <ele>4.4</ele>
        <time>2021-06-19T16:53:45Z</time>
      </trkpt>
      <trkpt lat="46.50609" lon="-1.80007">
        <ele>4.4</ele>
        <time>2021-06-19T16:53:46Z</time>
      </trkpt>
      <trkpt lat="46.50608" lon="-1.80007">
        <ele>4.4</ele>
        <time>2021-06-19T16:53:47Z</time>
      </trkpt>
      <trkpt lat="46.50606" lon="-1.80006">
        <ele>4.4</ele>
        <time>2021-06-19T16:53:49Z</time>
      </trkpt>
      <trkpt lat="46.50605" lon="-1.80005">
        <ele>4.4</ele>
        <time>2021-06-19T16:53:50Z</time>
      </trkpt>
      <trkpt lat="46.50603" lon="-1.80005">
        <ele>4.4</ele>
        <time>2021-06-19T16:53:51Z</time>
      </trkpt>
      <trkpt lat="46.50602" lon="-1.80004">
        <ele>4.4</ele>
        <time>2021-06-19T16:53:52Z</time>
      </trkpt>
      <trkpt lat="46.50601" lon="-1.80007">
        <ele>4.5</ele>
        <time>2021-06-19T16:53:54Z</time>
      </trkpt>
      <trkpt lat="46.50601" lon="-1.80008">
        <ele>4.5</ele>
        <time>2021-06-19T16:53:55Z</time>
      </trkpt>
      <trkpt lat="46.50601" lon="-1.8001">
        <ele>4.5</ele>
        <time>2021-06-19T16:53:57Z</time>
      </trkpt>
      <trkpt lat="46.50601" lon="-1.8001">
        <ele>4.5</ele>
        <time>2021-06-19T16:53:58Z</time>
      </trkpt>
      <trkpt lat="46.50601" lon="-1.80008">
        <ele>4.5</ele>
        <time>2021-06-19T16:53:59Z</time>
      </trkpt>
      <trkpt lat="46.506" lon="-1.80007">
        <ele>4.5</ele>
        <time>2021-06-19T16:54:00Z</time>
      </trkpt>
      <trkpt lat="46.50599" lon="-1.80006">
        <ele>4.5</ele>
        <time>2021-06-19T16:54:01Z</time>
      </trkpt>
      <trkpt lat="46.50597" lon="-1.80005">
        <ele>4.5</ele>
        <time>2021-06-19T16:54:03Z</time>
      </trkpt>
      <trkpt lat="46.50594" lon="-1.80003">
        <ele>4.6</ele>
        <time>2021-06-19T16:54:04Z</time>
      </trkpt>
      <trkpt lat="46.50593" lon="-1.80002">
        <ele>4.6</ele>
        <time>2021-06-19T16:54:05Z</time>
      </trkpt>
      <trkpt lat="46.50592" lon="-1.80001">
        <ele>4.6</ele>
        <time>2021-06-19T16:54:06Z</time>
      </trkpt>
      <trkpt lat="46.50591" lon="-1.80001">
        <ele>4.6</ele>
        <time>2021-06-19T16:54:07Z</time>
      </trkpt>
      <trkpt lat="46.50588" lon="-1.79999">
        <ele>4.6</ele>
        <time>2021-06-19T16:54:08Z</time>
      </trkpt>
      <trkpt lat="46.50587" lon="-1.79999">
        <ele>4.6</ele>
        <time>2021-06-19T16:54:09Z</time>
      </trkpt>
      <trkpt lat="46.50586" lon="-1.79998">
        <ele>4.6</ele>
        <time>2021-06-19T16:54:10Z</time>
      </trkpt>
      <trkpt lat="46.50585" lon="-1.79997">
        <ele>4.6</ele>
        <time>2021-06-19T16:54:11Z</time>
      </trkpt>
      <trkpt lat="46.50582" lon="-1.79996">
        <ele>4.7</ele>
        <time>2021-06-19T16:54:12Z</time>
      </trkpt>
      <trkpt lat="46.50581" lon="-1.79996">
        <ele>4.7</ele>
        <time>2021-06-19T16:54:13Z</time>
      </trkpt>
      <trkpt lat="46.50579" lon="-1.79996">
        <ele>4.7</ele>
        <time>2021-06-19T16:54:15Z</time>
      </trkpt>
      <trkpt lat="46.50578" lon="-1.79995">
        <ele>4.7</ele>
        <time>2021-06-19T16:54:16Z</time>
      </trkpt>
      <trkpt lat="46.50576" lon="-1.79993">
        <ele>4.7</ele>
        <time>2021-06-19T16:54:17Z</time>
      </trkpt>
      <trkpt lat="46.50575" lon="-1.79992">
        <ele>4.7</ele>
        <time>2021-06-19T16:54:19Z</time>
      </trkpt>
      <trkpt lat="46.50574" lon="-1.79991">
        <ele>4.7</ele>
        <time>2021-06-19T16:54:20Z</time>
      </trkpt>
      <trkpt lat="46.50573" lon="-1.7999">
        <ele>4.7</ele>
        <time>2021-06-19T16:54:21Z</time>
      </trkpt>
      <trkpt lat="46.50571" lon="-1.79989">
        <ele>4.7</ele>
        <time>2021-06-19T16:54:22Z</time>
      </trkpt>
      <trkpt lat="46.5057" lon="-1.79988">
        <ele>4.7</ele>
        <time>2021-06-19T16:54:23Z</time>
      </trkpt>
      <trkpt lat="46.50568" lon="-1.79987">
        <ele>4.7</ele>
        <time>2021-06-19T16:54:24Z</time>
      </trkpt>
      <trkpt lat="46.50565" lon="-1.79985">
        <ele>4.8</ele>
        <time>2021-06-19T16:54:26Z</time>
      </trkpt>
      <trkpt lat="46.50564" lon="-1.79985">
        <ele>4.8</ele>
        <time>2021-06-19T16:54:27Z</time>
      </trkpt>
      <trkpt lat="46.50561" lon="-1.79984">
        <ele>4.8</ele>
        <time>2021-06-19T16:54:29Z</time>
      </trkpt>
      <trkpt lat="46.5056" lon="-1.79983">
        <ele>4.8</ele>
        <time>2021-06-19T16:54:30Z</time>
      </trkpt>
      <trkpt lat="46.50557" lon="-1.79982">
        <ele>4.8</ele>
        <time>2021-06-19T16:54:31Z</time>
      </trkpt>
      <trkpt lat="46.50557" lon="-1.79982">
        <ele>4.8</ele>
        <time>2021-06-19T16:54:32Z</time>
      </trkpt>
      <trkpt lat="46.50552" lon="-1.7998">
        <ele>4.8</ele>
        <time>2021-06-19T16:54:35Z</time>
      </trkpt>
      <trkpt lat="46.50551" lon="-1.7998">
        <ele>4.8</ele>
        <time>2021-06-19T16:54:36Z</time>
      </trkpt>
      <trkpt lat="46.5055" lon="-1.79979">
        <ele>4.8</ele>
        <time>2021-06-19T16:54:37Z</time>
      </trkpt>
      <trkpt lat="46.50549" lon="-1.79979">
        <ele>4.8</ele>
        <time>2021-06-19T16:54:38Z</time>
      </trkpt>
      <trkpt lat="46.50548" lon="-1.79979">
        <ele>4.8</ele>
        <time>2021-06-19T16:54:39Z</time>
      </trkpt>
      <trkpt lat="46.50546" lon="-1.79978">
        <ele>4.9</ele>
        <time>2021-06-19T16:54:40Z</time>
      </trkpt>
      <trkpt lat="46.50544" lon="-1.79977">
        <ele>4.9</ele>
        <time>2021-06-19T16:54:41Z</time>
      </trkpt>
      <trkpt lat="46.50543" lon="-1.79977">
        <ele>4.9</ele>
        <time>2021-06-19T16:54:42Z</time>
      </trkpt>
      <trkpt lat="46.50542" lon="-1.79976">
        <ele>4.9</ele>
        <time>2021-06-19T16:54:43Z</time>
      </trkpt>
      <trkpt lat="46.50539" lon="-1.79975">
        <ele>4.9</ele>
        <time>2021-06-19T16:54:45Z</time>
      </trkpt>
      <trkpt lat="46.50538" lon="-1.79975">
        <ele>4.9</ele>
        <time>2021-06-19T16:54:46Z</time>
      </trkpt>
      <trkpt lat="46.50537" lon="-1.79976">
        <ele>4.9</ele>
        <time>2021-06-19T16:54:47Z</time>
      </trkpt>
      <trkpt lat="46.50535" lon="-1.79976">
        <ele>4.9</ele>
        <time>2021-06-19T16:54:48Z</time>
      </trkpt>
      <trkpt lat="46.50533" lon="-1.79977">
        <ele>4.9</ele>
        <time>2021-06-19T16:54:50Z</time>
      </trkpt>
      <trkpt lat="46.50531" lon="-1.79978">
        <ele>4.9</ele>
        <time>2021-06-19T16:54:51Z</time>
      </trkpt>
      <trkpt lat="46.5053" lon="-1.79978">
        <ele>4.9</ele>
        <time>2021-06-19T16:54:52Z</time>
      </trkpt>
      <trkpt lat="46.50528" lon="-1.79979">
        <ele>4.9</ele>
        <time>2021-06-19T16:54:53Z</time>
      </trkpt>
      <trkpt lat="46.50525" lon="-1.7998">
        <ele>4.9</ele>
        <time>2021-06-19T16:54:55Z</time>
      </trkpt>
      <trkpt lat="46.50523" lon="-1.79981">
        <ele>4.9</ele>
        <time>2021-06-19T16:54:57Z</time>
      </trkpt>
      <trkpt lat="46.50521" lon="-1.79982">
        <ele>4.9</ele>
        <time>2021-06-19T16:54:59Z</time>
      </trkpt>
      <trkpt lat="46.50519" lon="-1.79983">
        <ele>5</ele>
        <time>2021-06-19T16:55:00Z</time>
      </trkpt>
      <trkpt lat="46.50518" lon="-1.79984">
        <ele>5</ele>
        <time>2021-06-19T16:55:01Z</time>
      </trkpt>
      <trkpt lat="46.50517" lon="-1.79984">
        <ele>4.9</ele>
        <time>2021-06-19T16:55:02Z</time>
      </trkpt>
      <trkpt lat="46.50515" lon="-1.79985">
        <ele>4.9</ele>
        <time>2021-06-19T16:55:03Z</time>
      </trkpt>
      <trkpt lat="46.50513" lon="-1.79989">
        <ele>4.9</ele>
        <time>2021-06-19T16:55:05Z</time>
      </trkpt>
      <trkpt lat="46.50513" lon="-1.7999">
        <ele>4.6</ele>
        <time>2021-06-19T16:55:06Z</time>
      </trkpt>
      <trkpt lat="46.50512" lon="-1.79996">
        <ele>4.5</ele>
        <time>2021-06-19T16:55:08Z</time>
      </trkpt>
      <trkpt lat="46.50512" lon="-1.79998">
        <ele>4.4</ele>
        <time>2021-06-19T16:55:09Z</time>
      </trkpt>
      <trkpt lat="46.50512" lon="-1.79999">
        <ele>4.4</ele>
        <time>2021-06-19T16:55:10Z</time>
      </trkpt>
      <trkpt lat="46.50511" lon="-1.80002">
        <ele>4.3</ele>
        <time>2021-06-19T16:55:12Z</time>
      </trkpt>
      <trkpt lat="46.5051" lon="-1.80003">
        <ele>4.3</ele>
        <time>2021-06-19T16:55:13Z</time>
      </trkpt>
      <trkpt lat="46.5051" lon="-1.80004">
        <ele>4.3</ele>
        <time>2021-06-19T16:55:14Z</time>
      </trkpt>
      <trkpt lat="46.50509" lon="-1.80005">
        <ele>4.3</ele>
        <time>2021-06-19T16:55:15Z</time>
      </trkpt>
      <trkpt lat="46.50508" lon="-1.80007">
        <ele>4.2</ele>
        <time>2021-06-19T16:55:16Z</time>
      </trkpt>
      <trkpt lat="46.50507" lon="-1.80008">
        <ele>4.2</ele>
        <time>2021-06-19T16:55:17Z</time>
      </trkpt>
      <trkpt lat="46.50506" lon="-1.80009">
        <ele>4.2</ele>
        <time>2021-06-19T16:55:18Z</time>
      </trkpt>
      <trkpt lat="46.50506" lon="-1.80011">
        <ele>4.2</ele>
        <time>2021-06-19T16:55:19Z</time>
      </trkpt>
      <trkpt lat="46.50505" lon="-1.80012">
        <ele>4.2</ele>
        <time>2021-06-19T16:55:20Z</time>
      </trkpt>
      <trkpt lat="46.50505" lon="-1.80014">
        <ele>4.1</ele>
        <time>2021-06-19T16:55:21Z</time>
      </trkpt>
      <trkpt lat="46.50505" lon="-1.80017">
        <ele>4.1</ele>
        <time>2021-06-19T16:55:23Z</time>
      </trkpt>
      <trkpt lat="46.50504" lon="-1.8002">
        <ele>4.1</ele>
        <time>2021-06-19T16:55:24Z</time>
      </trkpt>
      <trkpt lat="46.50504" lon="-1.80021">
        <ele>4</ele>
        <time>2021-06-19T16:55:25Z</time>
      </trkpt>
      <trkpt lat="46.50504" lon="-1.80023">
        <ele>4</ele>
        <time>2021-06-19T16:55:26Z</time>
      </trkpt>
      <trkpt lat="46.50503" lon="-1.80024">
        <ele>4</ele>
        <time>2021-06-19T16:55:27Z</time>
      </trkpt>
      <trkpt lat="46.50502" lon="-1.80025">
        <ele>4</ele>
        <time>2021-06-19T16:55:29Z</time>
      </trkpt>
      <trkpt lat="46.505" lon="-1.80027">
        <ele>3.9</ele>
        <time>2021-06-19T16:55:31Z</time>
      </trkpt>
      <trkpt lat="46.50499" lon="-1.80029">
        <ele>3.8</ele>
        <time>2021-06-19T16:55:32Z</time>
      </trkpt>
      <trkpt lat="46.50497" lon="-1.80029">
        <ele>3.8</ele>
        <time>2021-06-19T16:55:34Z</time>
      </trkpt>
      <trkpt lat="46.50495" lon="-1.80029">
        <ele>3.8</ele>
        <time>2021-06-19T16:55:35Z</time>
      </trkpt>
      <trkpt lat="46.50492" lon="-1.80027">
        <ele>3.7</ele>
        <time>2021-06-19T16:55:37Z</time>
      </trkpt>
      <trkpt lat="46.50491" lon="-1.80027">
        <ele>3.7</ele>
        <time>2021-06-19T16:55:38Z</time>
      </trkpt>
      <trkpt lat="46.5049" lon="-1.80026">
        <ele>3.7</ele>
        <time>2021-06-19T16:55:39Z</time>
      </trkpt>
      <trkpt lat="46.50487" lon="-1.80025">
        <ele>3.7</ele>
        <time>2021-06-19T16:55:40Z</time>
      </trkpt>
      <trkpt lat="46.50486" lon="-1.80025">
        <ele>3.6</ele>
        <time>2021-06-19T16:55:41Z</time>
      </trkpt>
      <trkpt lat="46.50485" lon="-1.80024">
        <ele>3.6</ele>
        <time>2021-06-19T16:55:42Z</time>
      </trkpt>
      <trkpt lat="46.50484" lon="-1.80023">
        <ele>3.6</ele>
        <time>2021-06-19T16:55:43Z</time>
      </trkpt>
      <trkpt lat="46.50483" lon="-1.80021">
        <ele>3.6</ele>
        <time>2021-06-19T16:55:45Z</time>
      </trkpt>
      <trkpt lat="46.50482" lon="-1.8002">
        <ele>3.6</ele>
        <time>2021-06-19T16:55:46Z</time>
      </trkpt>
      <trkpt lat="46.5048" lon="-1.8002">
        <ele>3.6</ele>
        <time>2021-06-19T16:55:47Z</time>
      </trkpt>
      <trkpt lat="46.50479" lon="-1.80019">
        <ele>3.6</ele>
        <time>2021-06-19T16:55:48Z</time>
      </trkpt>
      <trkpt lat="46.50478" lon="-1.80018">
        <ele>3.6</ele>
        <time>2021-06-19T16:55:49Z</time>
      </trkpt>
      <trkpt lat="46.50476" lon="-1.80017">
        <ele>3.5</ele>
        <time>2021-06-19T16:55:51Z</time>
      </trkpt>
      <trkpt lat="46.50474" lon="-1.80017">
        <ele>3.5</ele>
        <time>2021-06-19T16:55:52Z</time>
      </trkpt>
      <trkpt lat="46.50473" lon="-1.80017">
        <ele>3.5</ele>
        <time>2021-06-19T16:55:53Z</time>
      </trkpt>
      <trkpt lat="46.50472" lon="-1.80016">
        <ele>3.5</ele>
        <time>2021-06-19T16:55:54Z</time>
      </trkpt>
      <trkpt lat="46.50469" lon="-1.80014">
        <ele>3.5</ele>
        <time>2021-06-19T16:55:56Z</time>
      </trkpt>
      <trkpt lat="46.50468" lon="-1.80014">
        <ele>3.5</ele>
        <time>2021-06-19T16:55:57Z</time>
      </trkpt>
      <trkpt lat="46.50467" lon="-1.80014">
        <ele>3.4</ele>
        <time>2021-06-19T16:55:58Z</time>
      </trkpt>
      <trkpt lat="46.50465" lon="-1.80012">
        <ele>3.4</ele>
        <time>2021-06-19T16:55:59Z</time>
      </trkpt>
      <trkpt lat="46.50462" lon="-1.80011">
        <ele>3.4</ele>
        <time>2021-06-19T16:56:01Z</time>
      </trkpt>
      <trkpt lat="46.50461" lon="-1.80011">
        <ele>3.4</ele>
        <time>2021-06-19T16:56:02Z</time>
      </trkpt>
      <trkpt lat="46.50459" lon="-1.8001">
        <ele>3.4</ele>
        <time>2021-06-19T16:56:03Z</time>
      </trkpt>
      <trkpt lat="46.50458" lon="-1.8001">
        <ele>3.4</ele>
        <time>2021-06-19T16:56:04Z</time>
      </trkpt>
      <trkpt lat="46.50454" lon="-1.80011">
        <ele>3.3</ele>
        <time>2021-06-19T16:56:06Z</time>
      </trkpt>
      <trkpt lat="46.50452" lon="-1.8001">
        <ele>3.3</ele>
        <time>2021-06-19T16:56:07Z</time>
      </trkpt>
      <trkpt lat="46.50452" lon="-1.80009">
        <ele>3.3</ele>
        <time>2021-06-19T16:56:08Z</time>
      </trkpt>
      <trkpt lat="46.50451" lon="-1.80009">
        <ele>3.3</ele>
        <time>2021-06-19T16:56:09Z</time>
      </trkpt>
      <trkpt lat="46.50449" lon="-1.80008">
        <ele>3.3</ele>
        <time>2021-06-19T16:56:10Z</time>
      </trkpt>
      <trkpt lat="46.50447" lon="-1.80008">
        <ele>3.3</ele>
        <time>2021-06-19T16:56:12Z</time>
      </trkpt>
      <trkpt lat="46.50446" lon="-1.80007">
        <ele>3.3</ele>
        <time>2021-06-19T16:56:13Z</time>
      </trkpt>
      <trkpt lat="46.50445" lon="-1.80006">
        <ele>3.2</ele>
        <time>2021-06-19T16:56:15Z</time>
      </trkpt>
      <trkpt lat="46.50443" lon="-1.80006">
        <ele>3.2</ele>
        <time>2021-06-19T16:56:16Z</time>
      </trkpt>
      <trkpt lat="46.50441" lon="-1.80006">
        <ele>3.2</ele>
        <time>2021-06-19T16:56:17Z</time>
      </trkpt>
      <trkpt lat="46.5044" lon="-1.80006">
        <ele>3.2</ele>
        <time>2021-06-19T16:56:18Z</time>
      </trkpt>
      <trkpt lat="46.50439" lon="-1.80005">
        <ele>3.2</ele>
        <time>2021-06-19T16:56:19Z</time>
      </trkpt>
      <trkpt lat="46.50436" lon="-1.80004">
        <ele>3.2</ele>
        <time>2021-06-19T16:56:20Z</time>
      </trkpt>
      <trkpt lat="46.50435" lon="-1.80004">
        <ele>3.2</ele>
        <time>2021-06-19T16:56:21Z</time>
      </trkpt>
      <trkpt lat="46.50432" lon="-1.80003">
        <ele>3.2</ele>
        <time>2021-06-19T16:56:23Z</time>
      </trkpt>
      <trkpt lat="46.50431" lon="-1.80003">
        <ele>3.2</ele>
        <time>2021-06-19T16:56:24Z</time>
      </trkpt>
      <trkpt lat="46.5043" lon="-1.80002">
        <ele>3.2</ele>
        <time>2021-06-19T16:56:25Z</time>
      </trkpt>
      <trkpt lat="46.50427" lon="-1.80004">
        <ele>3.1</ele>
        <time>2021-06-19T16:56:27Z</time>
      </trkpt>
      <trkpt lat="46.50424" lon="-1.80003">
        <ele>3.1</ele>
        <time>2021-06-19T16:56:28Z</time>
      </trkpt>
      <trkpt lat="46.50423" lon="-1.80003">
        <ele>3.1</ele>
        <time>2021-06-19T16:56:29Z</time>
      </trkpt>
      <trkpt lat="46.50419" lon="-1.80002">
        <ele>3.1</ele>
        <time>2021-06-19T16:56:31Z</time>
      </trkpt>
      <trkpt lat="46.50418" lon="-1.80001">
        <ele>3.1</ele>
        <time>2021-06-19T16:56:32Z</time>
      </trkpt>
      <trkpt lat="46.50417" lon="-1.80001">
        <ele>3.1</ele>
        <time>2021-06-19T16:56:33Z</time>
      </trkpt>
      <trkpt lat="46.50416" lon="-1.8">
        <ele>3.1</ele>
        <time>2021-06-19T16:56:34Z</time>
      </trkpt>
      <trkpt lat="46.50413" lon="-1.8">
        <ele>3.1</ele>
        <time>2021-06-19T16:56:36Z</time>
      </trkpt>
      <trkpt lat="46.50411" lon="-1.79999">
        <ele>3.1</ele>
        <time>2021-06-19T16:56:37Z</time>
      </trkpt>
      <trkpt lat="46.5041" lon="-1.79998">
        <ele>3.1</ele>
        <time>2021-06-19T16:56:38Z</time>
      </trkpt>
      <trkpt lat="46.50409" lon="-1.79996">
        <ele>3.1</ele>
        <time>2021-06-19T16:56:40Z</time>
      </trkpt>
      <trkpt lat="46.50408" lon="-1.79994">
        <ele>3.1</ele>
        <time>2021-06-19T16:56:41Z</time>
      </trkpt>
      <trkpt lat="46.50408" lon="-1.79991">
        <ele>3.1</ele>
        <time>2021-06-19T16:56:42Z</time>
      </trkpt>
      <trkpt lat="46.50407" lon="-1.79989">
        <ele>3.1</ele>
        <time>2021-06-19T16:56:44Z</time>
      </trkpt>
      <trkpt lat="46.50405" lon="-1.79988">
        <ele>3.1</ele>
        <time>2021-06-19T16:56:45Z</time>
      </trkpt>
      <trkpt lat="46.50403" lon="-1.79987">
        <ele>3.1</ele>
        <time>2021-06-19T16:56:46Z</time>
      </trkpt>
      <trkpt lat="46.50402" lon="-1.79986">
        <ele>3.1</ele>
        <time>2021-06-19T16:56:47Z</time>
      </trkpt>
      <trkpt lat="46.504" lon="-1.79984">
        <ele>3.1</ele>
        <time>2021-06-19T16:56:49Z</time>
      </trkpt>
      <trkpt lat="46.50398" lon="-1.79983">
        <ele>3.1</ele>
        <time>2021-06-19T16:56:51Z</time>
      </trkpt>
      <trkpt lat="46.50397" lon="-1.79982">
        <ele>3.1</ele>
        <time>2021-06-19T16:56:52Z</time>
      </trkpt>
      <trkpt lat="46.50396" lon="-1.79981">
        <ele>3.1</ele>
        <time>2021-06-19T16:56:53Z</time>
      </trkpt>
      <trkpt lat="46.50394" lon="-1.79979">
        <ele>3.1</ele>
        <time>2021-06-19T16:56:54Z</time>
      </trkpt>
      <trkpt lat="46.50392" lon="-1.79977">
        <ele>3.1</ele>
        <time>2021-06-19T16:56:55Z</time>
      </trkpt>
      <trkpt lat="46.50392" lon="-1.79976">
        <ele>3.1</ele>
        <time>2021-06-19T16:56:56Z</time>
      </trkpt>
      <trkpt lat="46.50391" lon="-1.79975">
        <ele>3.1</ele>
        <time>2021-06-19T16:56:57Z</time>
      </trkpt>
      <trkpt lat="46.50388" lon="-1.79973">
        <ele>3.1</ele>
        <time>2021-06-19T16:56:59Z</time>
      </trkpt>
      <trkpt lat="46.50387" lon="-1.79972">
        <ele>3.1</ele>
        <time>2021-06-19T16:57:00Z</time>
      </trkpt>
      <trkpt lat="46.50386" lon="-1.7997">
        <ele>3.1</ele>
        <time>2021-06-19T16:57:01Z</time>
      </trkpt>
      <trkpt lat="46.50384" lon="-1.79968">
        <ele>3.1</ele>
        <time>2021-06-19T16:57:02Z</time>
      </trkpt>
      <trkpt lat="46.50383" lon="-1.79968">
        <ele>3.1</ele>
        <time>2021-06-19T16:57:04Z</time>
      </trkpt>
      <trkpt lat="46.50382" lon="-1.79967">
        <ele>3.1</ele>
        <time>2021-06-19T16:57:05Z</time>
      </trkpt>
      <trkpt lat="46.50381" lon="-1.79966">
        <ele>3.2</ele>
        <time>2021-06-19T16:57:06Z</time>
      </trkpt>
      <trkpt lat="46.5038" lon="-1.79965">
        <ele>3.2</ele>
        <time>2021-06-19T16:57:07Z</time>
      </trkpt>
      <trkpt lat="46.50379" lon="-1.79964">
        <ele>3.2</ele>
        <time>2021-06-19T16:57:08Z</time>
      </trkpt>
      <trkpt lat="46.50377" lon="-1.79963">
        <ele>3.2</ele>
        <time>2021-06-19T16:57:09Z</time>
      </trkpt>
      <trkpt lat="46.50376" lon="-1.79961">
        <ele>3.2</ele>
        <time>2021-06-19T16:57:11Z</time>
      </trkpt>
      <trkpt lat="46.50375" lon="-1.7996">
        <ele>3.2</ele>
        <time>2021-06-19T16:57:12Z</time>
      </trkpt>
      <trkpt lat="46.50373" lon="-1.79959">
        <ele>3.2</ele>
        <time>2021-06-19T16:57:13Z</time>
      </trkpt>
      <trkpt lat="46.50372" lon="-1.79957">
        <ele>3.2</ele>
        <time>2021-06-19T16:57:14Z</time>
      </trkpt>
      <trkpt lat="46.50371" lon="-1.79956">
        <ele>3.2</ele>
        <time>2021-06-19T16:57:15Z</time>
      </trkpt>
      <trkpt lat="46.5037" lon="-1.79954">
        <ele>3.2</ele>
        <time>2021-06-19T16:57:16Z</time>
      </trkpt>
      <trkpt lat="46.50369" lon="-1.79953">
        <ele>3.2</ele>
        <time>2021-06-19T16:57:18Z</time>
      </trkpt>
      <trkpt lat="46.50367" lon="-1.79952">
        <ele>3.2</ele>
        <time>2021-06-19T16:57:19Z</time>
      </trkpt>
      <trkpt lat="46.50365" lon="-1.79951">
        <ele>3.2</ele>
        <time>2021-06-19T16:57:20Z</time>
      </trkpt>
      <trkpt lat="46.50364" lon="-1.7995">
        <ele>3.2</ele>
        <time>2021-06-19T16:57:21Z</time>
      </trkpt>
      <trkpt lat="46.50361" lon="-1.79948">
        <ele>3.2</ele>
        <time>2021-06-19T16:57:23Z</time>
      </trkpt>
      <trkpt lat="46.50359" lon="-1.79948">
        <ele>3.2</ele>
        <time>2021-06-19T16:57:24Z</time>
      </trkpt>
      <trkpt lat="46.50358" lon="-1.79947">
        <ele>3.2</ele>
        <time>2021-06-19T16:57:25Z</time>
      </trkpt>
      <trkpt lat="46.50356" lon="-1.79945">
        <ele>3.2</ele>
        <time>2021-06-19T16:57:27Z</time>
      </trkpt>
      <trkpt lat="46.50354" lon="-1.79944">
        <ele>3.2</ele>
        <time>2021-06-19T16:57:28Z</time>
      </trkpt>
      <trkpt lat="46.50353" lon="-1.79943">
        <ele>3.2</ele>
        <time>2021-06-19T16:57:30Z</time>
      </trkpt>
      <trkpt lat="46.50353" lon="-1.79942">
        <ele>3.2</ele>
        <time>2021-06-19T16:57:31Z</time>
      </trkpt>
      <trkpt lat="46.50351" lon="-1.79942">
        <ele>3.2</ele>
        <time>2021-06-19T16:57:32Z</time>
      </trkpt>
      <trkpt lat="46.50352" lon="-1.79947">
        <ele>3.3</ele>
        <time>2021-06-19T16:57:34Z</time>
      </trkpt>
      <trkpt lat="46.50352" lon="-1.79948">
        <ele>3.3</ele>
        <time>2021-06-19T16:57:36Z</time>
      </trkpt>
      <trkpt lat="46.50352" lon="-1.79948">
        <ele>3.3</ele>
        <time>2021-06-19T16:57:37Z</time>
      </trkpt>
      <trkpt lat="46.50353" lon="-1.79946">
        <ele>3.3</ele>
        <time>2021-06-19T16:57:39Z</time>
      </trkpt>
      <trkpt lat="46.50353" lon="-1.79946">
        <ele>3.3</ele>
        <time>2021-06-19T16:57:41Z</time>
      </trkpt>
      <trkpt lat="46.50353" lon="-1.79946">
        <ele>3.3</ele>
        <time>2021-06-19T16:57:42Z</time>
      </trkpt>
      <trkpt lat="46.50353" lon="-1.79946">
        <ele>3.3</ele>
        <time>2021-06-19T16:57:44Z</time>
      </trkpt>
      <trkpt lat="46.50353" lon="-1.79946">
        <ele>3.3</ele>
        <time>2021-06-19T16:57:46Z</time>
      </trkpt>
      <trkpt lat="46.50352" lon="-1.79946">
        <ele>3.3</ele>
        <time>2021-06-19T16:57:48Z</time>
      </trkpt>
      <trkpt lat="46.50352" lon="-1.79946">
        <ele>3.3</ele>
        <time>2021-06-19T16:57:49Z</time>
      </trkpt>
      <trkpt lat="46.50352" lon="-1.79946">
        <ele>3.3</ele>
        <time>2021-06-19T16:57:51Z</time>
      </trkpt>
      <trkpt lat="46.50352" lon="-1.79944">
        <ele>3.3</ele>
        <time>2021-06-19T16:57:53Z</time>
      </trkpt>
      <trkpt lat="46.50352" lon="-1.79944">
        <ele>3.3</ele>
        <time>2021-06-19T16:57:54Z</time>
      </trkpt>
      <trkpt lat="46.50352" lon="-1.79945">
        <ele>3.3</ele>
        <time>2021-06-19T16:57:56Z</time>
      </trkpt>
      <trkpt lat="46.50352" lon="-1.79946">
        <ele>3.3</ele>
        <time>2021-06-19T16:57:57Z</time>
      </trkpt>
      <trkpt lat="46.50352" lon="-1.79947">
        <ele>3.3</ele>
        <time>2021-06-19T16:57:58Z</time>
      </trkpt>
      <trkpt lat="46.50352" lon="-1.79945">
        <ele>3.3</ele>
        <time>2021-06-19T16:57:59Z</time>
      </trkpt>
      <trkpt lat="46.50352" lon="-1.79946">
        <ele>3.3</ele>
        <time>2021-06-19T16:58:01Z</time>
      </trkpt>
      <trkpt lat="46.50351" lon="-1.79946">
        <ele>3.3</ele>
        <time>2021-06-19T16:58:02Z</time>
      </trkpt>
      <trkpt lat="46.5035" lon="-1.79946">
        <ele>3.3</ele>
        <time>2021-06-19T16:58:04Z</time>
      </trkpt>
      <trkpt lat="46.50349" lon="-1.79946">
        <ele>3.3</ele>
        <time>2021-06-19T16:58:05Z</time>
      </trkpt>
      <trkpt lat="46.50348" lon="-1.79947">
        <ele>3.3</ele>
        <time>2021-06-19T16:58:07Z</time>
      </trkpt>
      <trkpt lat="46.50346" lon="-1.79942">
        <ele>3.3</ele>
        <time>2021-06-19T16:58:09Z</time>
      </trkpt>
      <trkpt lat="46.50345" lon="-1.7994">
        <ele>3.3</ele>
        <time>2021-06-19T16:58:10Z</time>
      </trkpt>
      <trkpt lat="46.50344" lon="-1.79937">
        <ele>3.3</ele>
        <time>2021-06-19T16:58:12Z</time>
      </trkpt>
      <trkpt lat="46.50344" lon="-1.79935">
        <ele>3.3</ele>
        <time>2021-06-19T16:58:13Z</time>
      </trkpt>
      <trkpt lat="46.50343" lon="-1.79932">
        <ele>3.3</ele>
        <time>2021-06-19T16:58:14Z</time>
      </trkpt>
      <trkpt lat="46.50342" lon="-1.7993">
        <ele>3.3</ele>
        <time>2021-06-19T16:58:16Z</time>
      </trkpt>
      <trkpt lat="46.50341" lon="-1.79929">
        <ele>3.3</ele>
        <time>2021-06-19T16:58:17Z</time>
      </trkpt>
      <trkpt lat="46.5034" lon="-1.79927">
        <ele>3.3</ele>
        <time>2021-06-19T16:58:18Z</time>
      </trkpt>
      <trkpt lat="46.50339" lon="-1.79926">
        <ele>3.3</ele>
        <time>2021-06-19T16:58:19Z</time>
      </trkpt>
      <trkpt lat="46.50338" lon="-1.79925">
        <ele>3.3</ele>
        <time>2021-06-19T16:58:20Z</time>
      </trkpt>
      <trkpt lat="46.50337" lon="-1.79923">
        <ele>3.3</ele>
        <time>2021-06-19T16:58:22Z</time>
      </trkpt>
      <trkpt lat="46.50336" lon="-1.79922">
        <ele>3.3</ele>
        <time>2021-06-19T16:58:23Z</time>
      </trkpt>
      <trkpt lat="46.50334" lon="-1.79921">
        <ele>3.4</ele>
        <time>2021-06-19T16:58:24Z</time>
      </trkpt>
      <trkpt lat="46.50333" lon="-1.79922">
        <ele>3.4</ele>
        <time>2021-06-19T16:58:25Z</time>
      </trkpt>
      <trkpt lat="46.5033" lon="-1.79921">
        <ele>3.4</ele>
        <time>2021-06-19T16:58:27Z</time>
      </trkpt>
      <trkpt lat="46.50326" lon="-1.7992">
        <ele>3.4</ele>
        <time>2021-06-19T16:58:29Z</time>
      </trkpt>
      <trkpt lat="46.50325" lon="-1.7992">
        <ele>3.4</ele>
        <time>2021-06-19T16:58:30Z</time>
      </trkpt>
      <trkpt lat="46.50323" lon="-1.79918">
        <ele>3.4</ele>
        <time>2021-06-19T16:58:32Z</time>
      </trkpt>
      <trkpt lat="46.50322" lon="-1.79918">
        <ele>3.4</ele>
        <time>2021-06-19T16:58:34Z</time>
      </trkpt>
      <trkpt lat="46.5032" lon="-1.79917">
        <ele>3.4</ele>
        <time>2021-06-19T16:58:35Z</time>
      </trkpt>
      <trkpt lat="46.50318" lon="-1.79916">
        <ele>3.4</ele>
        <time>2021-06-19T16:58:36Z</time>
      </trkpt>
      <trkpt lat="46.50316" lon="-1.79914">
        <ele>3.4</ele>
        <time>2021-06-19T16:58:38Z</time>
      </trkpt>
      <trkpt lat="46.50313" lon="-1.79913">
        <ele>3.4</ele>
        <time>2021-06-19T16:58:40Z</time>
      </trkpt>
      <trkpt lat="46.50311" lon="-1.79914">
        <ele>3.4</ele>
        <time>2021-06-19T16:58:42Z</time>
      </trkpt>
      <trkpt lat="46.5031" lon="-1.79913">
        <ele>3.4</ele>
        <time>2021-06-19T16:58:43Z</time>
      </trkpt>
      <trkpt lat="46.50309" lon="-1.79913">
        <ele>3.4</ele>
        <time>2021-06-19T16:58:44Z</time>
      </trkpt>
      <trkpt lat="46.50307" lon="-1.79911">
        <ele>3.5</ele>
        <time>2021-06-19T16:58:46Z</time>
      </trkpt>
      <trkpt lat="46.50305" lon="-1.79908">
        <ele>3.5</ele>
        <time>2021-06-19T16:58:48Z</time>
      </trkpt>
      <trkpt lat="46.50304" lon="-1.79905">
        <ele>3.5</ele>
        <time>2021-06-19T16:58:50Z</time>
      </trkpt>
      <trkpt lat="46.50302" lon="-1.79903">
        <ele>3.5</ele>
        <time>2021-06-19T16:58:51Z</time>
      </trkpt>
      <trkpt lat="46.503" lon="-1.799">
        <ele>3.5</ele>
        <time>2021-06-19T16:58:53Z</time>
      </trkpt>
      <trkpt lat="46.50299" lon="-1.79899">
        <ele>3.5</ele>
        <time>2021-06-19T16:58:54Z</time>
      </trkpt>
      <trkpt lat="46.50295" lon="-1.79899">
        <ele>3.5</ele>
        <time>2021-06-19T16:58:56Z</time>
      </trkpt>
      <trkpt lat="46.50294" lon="-1.799">
        <ele>3.5</ele>
        <time>2021-06-19T16:58:57Z</time>
      </trkpt>
      <trkpt lat="46.50293" lon="-1.79901">
        <ele>3.6</ele>
        <time>2021-06-19T16:58:58Z</time>
      </trkpt>
      <trkpt lat="46.50293" lon="-1.79902">
        <ele>3.6</ele>
        <time>2021-06-19T16:58:59Z</time>
      </trkpt>
      <trkpt lat="46.50291" lon="-1.79905">
        <ele>3.7</ele>
        <time>2021-06-19T16:59:01Z</time>
      </trkpt>
      <trkpt lat="46.5029" lon="-1.79906">
        <ele>3.7</ele>
        <time>2021-06-19T16:59:02Z</time>
      </trkpt>
      <trkpt lat="46.50289" lon="-1.79909">
        <ele>3.7</ele>
        <time>2021-06-19T16:59:04Z</time>
      </trkpt>
      <trkpt lat="46.50288" lon="-1.7991">
        <ele>3.7</ele>
        <time>2021-06-19T16:59:05Z</time>
      </trkpt>
      <trkpt lat="46.50288" lon="-1.79911">
        <ele>3.7</ele>
        <time>2021-06-19T16:59:06Z</time>
      </trkpt>
      <trkpt lat="46.50287" lon="-1.79913">
        <ele>3.8</ele>
        <time>2021-06-19T16:59:08Z</time>
      </trkpt>
      <trkpt lat="46.50286" lon="-1.79914">
        <ele>3.8</ele>
        <time>2021-06-19T16:59:09Z</time>
      </trkpt>
      <trkpt lat="46.50284" lon="-1.79915">
        <ele>3.8</ele>
        <time>2021-06-19T16:59:11Z</time>
      </trkpt>
      <trkpt lat="46.50283" lon="-1.79914">
        <ele>3.8</ele>
        <time>2021-06-19T16:59:13Z</time>
      </trkpt>
      <trkpt lat="46.50282" lon="-1.79914">
        <ele>3.8</ele>
        <time>2021-06-19T16:59:14Z</time>
      </trkpt>
      <trkpt lat="46.50281" lon="-1.79914">
        <ele>3.8</ele>
        <time>2021-06-19T16:59:15Z</time>
      </trkpt>
      <trkpt lat="46.50279" lon="-1.79913">
        <ele>3.8</ele>
        <time>2021-06-19T16:59:16Z</time>
      </trkpt>
      <trkpt lat="46.50278" lon="-1.79913">
        <ele>3.8</ele>
        <time>2021-06-19T16:59:17Z</time>
      </trkpt>
      <trkpt lat="46.50276" lon="-1.79912">
        <ele>3.9</ele>
        <time>2021-06-19T16:59:19Z</time>
      </trkpt>
      <trkpt lat="46.50275" lon="-1.79912">
        <ele>3.9</ele>
        <time>2021-06-19T16:59:20Z</time>
      </trkpt>
      <trkpt lat="46.50274" lon="-1.79911">
        <ele>3.9</ele>
        <time>2021-06-19T16:59:21Z</time>
      </trkpt>
      <trkpt lat="46.50273" lon="-1.79911">
        <ele>3.9</ele>
        <time>2021-06-19T16:59:22Z</time>
      </trkpt>
      <trkpt lat="46.50272" lon="-1.7991">
        <ele>3.9</ele>
        <time>2021-06-19T16:59:23Z</time>
      </trkpt>
      <trkpt lat="46.50271" lon="-1.79909">
        <ele>3.9</ele>
        <time>2021-06-19T16:59:25Z</time>
      </trkpt>
      <trkpt lat="46.5027" lon="-1.79906">
        <ele>3.9</ele>
        <time>2021-06-19T16:59:26Z</time>
      </trkpt>
      <trkpt lat="46.50269" lon="-1.79905">
        <ele>3.9</ele>
        <time>2021-06-19T16:59:27Z</time>
      </trkpt>
      <trkpt lat="46.50269" lon="-1.79902">
        <ele>3.9</ele>
        <time>2021-06-19T16:59:28Z</time>
      </trkpt>
      <trkpt lat="46.50268" lon="-1.79899">
        <ele>3.6</ele>
        <time>2021-06-19T16:59:30Z</time>
      </trkpt>
      <trkpt lat="46.50268" lon="-1.79896">
        <ele>3.6</ele>
        <time>2021-06-19T16:59:31Z</time>
      </trkpt>
      <trkpt lat="46.50267" lon="-1.79895">
        <ele>3.6</ele>
        <time>2021-06-19T16:59:32Z</time>
      </trkpt>
      <trkpt lat="46.50266" lon="-1.79893">
        <ele>3.6</ele>
        <time>2021-06-19T16:59:34Z</time>
      </trkpt>
      <trkpt lat="46.50265" lon="-1.79892">
        <ele>3.6</ele>
        <time>2021-06-19T16:59:35Z</time>
      </trkpt>
      <trkpt lat="46.50263" lon="-1.79891">
        <ele>3.5</ele>
        <time>2021-06-19T16:59:36Z</time>
      </trkpt>
      <trkpt lat="46.50262" lon="-1.7989">
        <ele>3.5</ele>
        <time>2021-06-19T16:59:37Z</time>
      </trkpt>
      <trkpt lat="46.5026" lon="-1.79888">
        <ele>3.5</ele>
        <time>2021-06-19T16:59:38Z</time>
      </trkpt>
      <trkpt lat="46.50259" lon="-1.79888">
        <ele>3.5</ele>
        <time>2021-06-19T16:59:39Z</time>
      </trkpt>
      <trkpt lat="46.50259" lon="-1.79887">
        <ele>3.5</ele>
        <time>2021-06-19T16:59:40Z</time>
      </trkpt>
      <trkpt lat="46.50256" lon="-1.79887">
        <ele>3.5</ele>
        <time>2021-06-19T16:59:41Z</time>
      </trkpt>
      <trkpt lat="46.50255" lon="-1.79886">
        <ele>3.4</ele>
        <time>2021-06-19T16:59:42Z</time>
      </trkpt>
      <trkpt lat="46.50253" lon="-1.79885">
        <ele>3.4</ele>
        <time>2021-06-19T16:59:44Z</time>
      </trkpt>
      <trkpt lat="46.50251" lon="-1.79885">
        <ele>3.4</ele>
        <time>2021-06-19T16:59:45Z</time>
      </trkpt>
      <trkpt lat="46.5025" lon="-1.79886">
        <ele>3.4</ele>
        <time>2021-06-19T16:59:46Z</time>
      </trkpt>
      <trkpt lat="46.50248" lon="-1.79885">
        <ele>3.4</ele>
        <time>2021-06-19T16:59:48Z</time>
      </trkpt>
      <trkpt lat="46.50247" lon="-1.79884">
        <ele>3.3</ele>
        <time>2021-06-19T16:59:50Z</time>
      </trkpt>
      <trkpt lat="46.50246" lon="-1.79884">
        <ele>3.3</ele>
        <time>2021-06-19T16:59:51Z</time>
      </trkpt>
      <trkpt lat="46.50244" lon="-1.79882">
        <ele>3.3</ele>
        <time>2021-06-19T16:59:52Z</time>
      </trkpt>
      <trkpt lat="46.50243" lon="-1.79881">
        <ele>3.3</ele>
        <time>2021-06-19T16:59:53Z</time>
      </trkpt>
      <trkpt lat="46.50242" lon="-1.79881">
        <ele>3.3</ele>
        <time>2021-06-19T16:59:54Z</time>
      </trkpt>
      <trkpt lat="46.50241" lon="-1.79879">
        <ele>3.3</ele>
        <time>2021-06-19T16:59:55Z</time>
      </trkpt>
      <trkpt lat="46.50241" lon="-1.79877">
        <ele>3.2</ele>
        <time>2021-06-19T16:59:56Z</time>
      </trkpt>
      <trkpt lat="46.5024" lon="-1.79874">
        <ele>3.2</ele>
        <time>2021-06-19T16:59:57Z</time>
      </trkpt>
      <trkpt lat="46.50239" lon="-1.79868">
        <ele>3.2</ele>
        <time>2021-06-19T16:59:59Z</time>
      </trkpt>
      <trkpt lat="46.50238" lon="-1.79863">
        <ele>3.1</ele>
        <time>2021-06-19T17:00:00Z</time>
      </trkpt>
      <trkpt lat="46.50238" lon="-1.79861">
        <ele>3.1</ele>
        <time>2021-06-19T17:00:01Z</time>
      </trkpt>
      <trkpt lat="46.50237" lon="-1.79856">
        <ele>3.1</ele>
        <time>2021-06-19T17:00:03Z</time>
      </trkpt>
      <trkpt lat="46.50237" lon="-1.79855">
        <ele>3.1</ele>
        <time>2021-06-19T17:00:04Z</time>
      </trkpt>
      <trkpt lat="46.50237" lon="-1.79848">
        <ele>3.1</ele>
        <time>2021-06-19T17:00:06Z</time>
      </trkpt>
      <trkpt lat="46.50236" lon="-1.79846">
        <ele>3.1</ele>
        <time>2021-06-19T17:00:08Z</time>
      </trkpt>
      <trkpt lat="46.50235" lon="-1.79845">
        <ele>3.1</ele>
        <time>2021-06-19T17:00:09Z</time>
      </trkpt>
      <trkpt lat="46.50233" lon="-1.79842">
        <ele>3.1</ele>
        <time>2021-06-19T17:00:11Z</time>
      </trkpt>
      <trkpt lat="46.50232" lon="-1.79838">
        <ele>3.1</ele>
        <time>2021-06-19T17:00:13Z</time>
      </trkpt>
      <trkpt lat="46.50231" lon="-1.79837">
        <ele>3.1</ele>
        <time>2021-06-19T17:00:14Z</time>
      </trkpt>
      <trkpt lat="46.50229" lon="-1.79834">
        <ele>3.1</ele>
        <time>2021-06-19T17:00:16Z</time>
      </trkpt>
      <trkpt lat="46.50225" lon="-1.79828">
        <ele>3</ele>
        <time>2021-06-19T17:00:18Z</time>
      </trkpt>
      <trkpt lat="46.50223" lon="-1.79827">
        <ele>3</ele>
        <time>2021-06-19T17:00:20Z</time>
      </trkpt>
      <trkpt lat="46.50222" lon="-1.79825">
        <ele>3</ele>
        <time>2021-06-19T17:00:22Z</time>
      </trkpt>
      <trkpt lat="46.50221" lon="-1.79823">
        <ele>3</ele>
        <time>2021-06-19T17:00:23Z</time>
      </trkpt>
      <trkpt lat="46.50219" lon="-1.79822">
        <ele>3</ele>
        <time>2021-06-19T17:00:24Z</time>
      </trkpt>
      <trkpt lat="46.50218" lon="-1.79821">
        <ele>3</ele>
        <time>2021-06-19T17:00:25Z</time>
      </trkpt>
      <trkpt lat="46.50216" lon="-1.79818">
        <ele>3</ele>
        <time>2021-06-19T17:00:26Z</time>
      </trkpt>
      <trkpt lat="46.50216" lon="-1.79817">
        <ele>3</ele>
        <time>2021-06-19T17:00:28Z</time>
      </trkpt>
      <trkpt lat="46.50215" lon="-1.79815">
        <ele>3</ele>
        <time>2021-06-19T17:00:30Z</time>
      </trkpt>
      <trkpt lat="46.50214" lon="-1.79814">
        <ele>3</ele>
        <time>2021-06-19T17:00:31Z</time>
      </trkpt>
      <trkpt lat="46.50213" lon="-1.79813">
        <ele>3</ele>
        <time>2021-06-19T17:00:32Z</time>
      </trkpt>
      <trkpt lat="46.50211" lon="-1.79809">
        <ele>3</ele>
        <time>2021-06-19T17:00:34Z</time>
      </trkpt>
      <trkpt lat="46.5021" lon="-1.79808">
        <ele>3</ele>
        <time>2021-06-19T17:00:35Z</time>
      </trkpt>
      <trkpt lat="46.50208" lon="-1.79807">
        <ele>3</ele>
        <time>2021-06-19T17:00:36Z</time>
      </trkpt>
      <trkpt lat="46.50207" lon="-1.79806">
        <ele>3</ele>
        <time>2021-06-19T17:00:38Z</time>
      </trkpt>
      <trkpt lat="46.50206" lon="-1.79806">
        <ele>3</ele>
        <time>2021-06-19T17:00:40Z</time>
      </trkpt>
      <trkpt lat="46.50205" lon="-1.79805">
        <ele>3</ele>
        <time>2021-06-19T17:00:41Z</time>
      </trkpt>
      <trkpt lat="46.50204" lon="-1.79805">
        <ele>3</ele>
        <time>2021-06-19T17:00:42Z</time>
      </trkpt>
      <trkpt lat="46.50202" lon="-1.79802">
        <ele>3.1</ele>
        <time>2021-06-19T17:00:44Z</time>
      </trkpt>
      <trkpt lat="46.50201" lon="-1.79799">
        <ele>3.1</ele>
        <time>2021-06-19T17:00:46Z</time>
      </trkpt>
      <trkpt lat="46.50201" lon="-1.79798">
        <ele>3.1</ele>
        <time>2021-06-19T17:00:47Z</time>
      </trkpt>
      <trkpt lat="46.502" lon="-1.79796">
        <ele>3.1</ele>
        <time>2021-06-19T17:00:48Z</time>
      </trkpt>
      <trkpt lat="46.50199" lon="-1.79795">
        <ele>3.1</ele>
        <time>2021-06-19T17:00:49Z</time>
      </trkpt>
      <trkpt lat="46.50199" lon="-1.79793">
        <ele>3.1</ele>
        <time>2021-06-19T17:00:50Z</time>
      </trkpt>
      <trkpt lat="46.50197" lon="-1.7979">
        <ele>3.1</ele>
        <time>2021-06-19T17:00:52Z</time>
      </trkpt>
      <trkpt lat="46.50196" lon="-1.79789">
        <ele>3.1</ele>
        <time>2021-06-19T17:00:53Z</time>
      </trkpt>
      <trkpt lat="46.50195" lon="-1.79785">
        <ele>3.1</ele>
        <time>2021-06-19T17:00:54Z</time>
      </trkpt>
      <trkpt lat="46.50194" lon="-1.79783">
        <ele>3.1</ele>
        <time>2021-06-19T17:00:55Z</time>
      </trkpt>
      <trkpt lat="46.50192" lon="-1.7978">
        <ele>3.1</ele>
        <time>2021-06-19T17:00:57Z</time>
      </trkpt>
      <trkpt lat="46.50191" lon="-1.79778">
        <ele>3.1</ele>
        <time>2021-06-19T17:00:58Z</time>
      </trkpt>
      <trkpt lat="46.5019" lon="-1.79777">
        <ele>3.1</ele>
        <time>2021-06-19T17:00:59Z</time>
      </trkpt>
      <trkpt lat="46.5019" lon="-1.79776">
        <ele>3.1</ele>
        <time>2021-06-19T17:01:00Z</time>
      </trkpt>
      <trkpt lat="46.50189" lon="-1.79775">
        <ele>3.1</ele>
        <time>2021-06-19T17:01:01Z</time>
      </trkpt>
      <trkpt lat="46.50188" lon="-1.79774">
        <ele>3.1</ele>
        <time>2021-06-19T17:01:02Z</time>
      </trkpt>
      <trkpt lat="46.50187" lon="-1.79773">
        <ele>3.1</ele>
        <time>2021-06-19T17:01:04Z</time>
      </trkpt>
      <trkpt lat="46.50185" lon="-1.79771">
        <ele>3.2</ele>
        <time>2021-06-19T17:01:05Z</time>
      </trkpt>
      <trkpt lat="46.50184" lon="-1.7977">
        <ele>3.2</ele>
        <time>2021-06-19T17:01:06Z</time>
      </trkpt>
      <trkpt lat="46.50183" lon="-1.79769">
        <ele>3.2</ele>
        <time>2021-06-19T17:01:07Z</time>
      </trkpt>
      <trkpt lat="46.5018" lon="-1.79766">
        <ele>3.2</ele>
        <time>2021-06-19T17:01:09Z</time>
      </trkpt>
      <trkpt lat="46.50176" lon="-1.79762">
        <ele>3.2</ele>
        <time>2021-06-19T17:01:11Z</time>
      </trkpt>
      <trkpt lat="46.50175" lon="-1.7976">
        <ele>3.2</ele>
        <time>2021-06-19T17:01:13Z</time>
      </trkpt>
      <trkpt lat="46.50174" lon="-1.79759">
        <ele>3.2</ele>
        <time>2021-06-19T17:01:14Z</time>
      </trkpt>
      <trkpt lat="46.50173" lon="-1.79756">
        <ele>3.3</ele>
        <time>2021-06-19T17:01:15Z</time>
      </trkpt>
      <trkpt lat="46.50172" lon="-1.79755">
        <ele>3.3</ele>
        <time>2021-06-19T17:01:16Z</time>
      </trkpt>
      <trkpt lat="46.50171" lon="-1.79754">
        <ele>3.3</ele>
        <time>2021-06-19T17:01:17Z</time>
      </trkpt>
      <trkpt lat="46.5017" lon="-1.79752">
        <ele>3.3</ele>
        <time>2021-06-19T17:01:18Z</time>
      </trkpt>
      <trkpt lat="46.50169" lon="-1.7975">
        <ele>3.3</ele>
        <time>2021-06-19T17:01:20Z</time>
      </trkpt>
      <trkpt lat="46.50168" lon="-1.79749">
        <ele>3.3</ele>
        <time>2021-06-19T17:01:21Z</time>
      </trkpt>
      <trkpt lat="46.50166" lon="-1.79746">
        <ele>3.3</ele>
        <time>2021-06-19T17:01:22Z</time>
      </trkpt>
      <trkpt lat="46.50165" lon="-1.79745">
        <ele>3.3</ele>
        <time>2021-06-19T17:01:23Z</time>
      </trkpt>
      <trkpt lat="46.50164" lon="-1.79742">
        <ele>3.3</ele>
        <time>2021-06-19T17:01:24Z</time>
      </trkpt>
      <trkpt lat="46.50163" lon="-1.79742">
        <ele>3.3</ele>
        <time>2021-06-19T17:01:25Z</time>
      </trkpt>
      <trkpt lat="46.50162" lon="-1.79741">
        <ele>3.3</ele>
        <time>2021-06-19T17:01:26Z</time>
      </trkpt>
      <trkpt lat="46.50159" lon="-1.79737">
        <ele>3.4</ele>
        <time>2021-06-19T17:01:28Z</time>
      </trkpt>
      <trkpt lat="46.50158" lon="-1.79736">
        <ele>3.4</ele>
        <time>2021-06-19T17:01:29Z</time>
      </trkpt>
      <trkpt lat="46.50158" lon="-1.79734">
        <ele>3.4</ele>
        <time>2021-06-19T17:01:30Z</time>
      </trkpt>
      <trkpt lat="46.50157" lon="-1.79733">
        <ele>3.4</ele>
        <time>2021-06-19T17:01:31Z</time>
      </trkpt>
      <trkpt lat="46.50155" lon="-1.7973">
        <ele>3.4</ele>
        <time>2021-06-19T17:01:33Z</time>
      </trkpt>
      <trkpt lat="46.50154" lon="-1.79729">
        <ele>3.4</ele>
        <time>2021-06-19T17:01:34Z</time>
      </trkpt>
      <trkpt lat="46.50153" lon="-1.79728">
        <ele>3.4</ele>
        <time>2021-06-19T17:01:35Z</time>
      </trkpt>
      <trkpt lat="46.50152" lon="-1.79726">
        <ele>3.4</ele>
        <time>2021-06-19T17:01:36Z</time>
      </trkpt>
      <trkpt lat="46.50151" lon="-1.79721">
        <ele>3.5</ele>
        <time>2021-06-19T17:01:38Z</time>
      </trkpt>
      <trkpt lat="46.5015" lon="-1.7972">
        <ele>3.5</ele>
        <time>2021-06-19T17:01:39Z</time>
      </trkpt>
      <trkpt lat="46.50149" lon="-1.79719">
        <ele>3.5</ele>
        <time>2021-06-19T17:01:40Z</time>
      </trkpt>
      <trkpt lat="46.50149" lon="-1.79718">
        <ele>3.5</ele>
        <time>2021-06-19T17:01:41Z</time>
      </trkpt>
      <trkpt lat="46.50147" lon="-1.79719">
        <ele>3.5</ele>
        <time>2021-06-19T17:01:43Z</time>
      </trkpt>
      <trkpt lat="46.50147" lon="-1.79721">
        <ele>3.5</ele>
        <time>2021-06-19T17:01:45Z</time>
      </trkpt>
      <trkpt lat="46.50147" lon="-1.79723">
        <ele>3.5</ele>
        <time>2021-06-19T17:01:48Z</time>
      </trkpt>
      <trkpt lat="46.50147" lon="-1.79723">
        <ele>3.5</ele>
        <time>2021-06-19T17:01:49Z</time>
      </trkpt>
      <trkpt lat="46.50147" lon="-1.79724">
        <ele>3.5</ele>
        <time>2021-06-19T17:01:51Z</time>
      </trkpt>
      <trkpt lat="46.50146" lon="-1.79725">
        <ele>3.5</ele>
        <time>2021-06-19T17:01:52Z</time>
      </trkpt>
      <trkpt lat="46.50146" lon="-1.79725">
        <ele>3.5</ele>
        <time>2021-06-19T17:01:53Z</time>
      </trkpt>
      <trkpt lat="46.50145" lon="-1.79727">
        <ele>3.5</ele>
        <time>2021-06-19T17:01:55Z</time>
      </trkpt>
      <trkpt lat="46.50144" lon="-1.79728">
        <ele>3.5</ele>
        <time>2021-06-19T17:01:56Z</time>
      </trkpt>
      <trkpt lat="46.50141" lon="-1.79723">
        <ele>3.6</ele>
        <time>2021-06-19T17:01:58Z</time>
      </trkpt>
      <trkpt lat="46.50139" lon="-1.79725">
        <ele>3.6</ele>
        <time>2021-06-19T17:02:00Z</time>
      </trkpt>
      <trkpt lat="46.50138" lon="-1.79726">
        <ele>3.6</ele>
        <time>2021-06-19T17:02:01Z</time>
      </trkpt>
      <trkpt lat="46.50133" lon="-1.79713">
        <ele>3.6</ele>
        <time>2021-06-19T17:02:03Z</time>
      </trkpt>
      <trkpt lat="46.50131" lon="-1.79711">
        <ele>3.7</ele>
        <time>2021-06-19T17:02:04Z</time>
      </trkpt>
      <trkpt lat="46.50129" lon="-1.79709">
        <ele>3.7</ele>
        <time>2021-06-19T17:02:06Z</time>
      </trkpt>
      <trkpt lat="46.50128" lon="-1.79707">
        <ele>3.7</ele>
        <time>2021-06-19T17:02:08Z</time>
      </trkpt>
      <trkpt lat="46.50128" lon="-1.79706">
        <ele>3.7</ele>
        <time>2021-06-19T17:02:09Z</time>
      </trkpt>
      <trkpt lat="46.50127" lon="-1.79705">
        <ele>3.7</ele>
        <time>2021-06-19T17:02:10Z</time>
      </trkpt>
      <trkpt lat="46.50124" lon="-1.79701">
        <ele>3.7</ele>
        <time>2021-06-19T17:02:12Z</time>
      </trkpt>
      <trkpt lat="46.50121" lon="-1.79697">
        <ele>3.8</ele>
        <time>2021-06-19T17:02:14Z</time>
      </trkpt>
      <trkpt lat="46.5012" lon="-1.79696">
        <ele>3.8</ele>
        <time>2021-06-19T17:02:15Z</time>
      </trkpt>
      <trkpt lat="46.50119" lon="-1.79696">
        <ele>3.8</ele>
        <time>2021-06-19T17:02:16Z</time>
      </trkpt>
      <trkpt lat="46.50118" lon="-1.79694">
        <ele>3.8</ele>
        <time>2021-06-19T17:02:18Z</time>
      </trkpt>
      <trkpt lat="46.50117" lon="-1.79693">
        <ele>3.8</ele>
        <time>2021-06-19T17:02:19Z</time>
      </trkpt>
      <trkpt lat="46.50116" lon="-1.79691">
        <ele>3.8</ele>
        <time>2021-06-19T17:02:20Z</time>
      </trkpt>
      <trkpt lat="46.50114" lon="-1.7969">
        <ele>3.8</ele>
        <time>2021-06-19T17:02:22Z</time>
      </trkpt>
      <trkpt lat="46.50112" lon="-1.79689">
        <ele>3.8</ele>
        <time>2021-06-19T17:02:23Z</time>
      </trkpt>
      <trkpt lat="46.50111" lon="-1.79688">
        <ele>3.8</ele>
        <time>2021-06-19T17:02:24Z</time>
      </trkpt>
      <trkpt lat="46.5011" lon="-1.79687">
        <ele>3.8</ele>
        <time>2021-06-19T17:02:25Z</time>
      </trkpt>
      <trkpt lat="46.50109" lon="-1.79686">
        <ele>3.8</ele>
        <time>2021-06-19T17:02:26Z</time>
      </trkpt>
      <trkpt lat="46.50107" lon="-1.79685">
        <ele>3.8</ele>
        <time>2021-06-19T17:02:28Z</time>
      </trkpt>
      <trkpt lat="46.50105" lon="-1.79683">
        <ele>3.9</ele>
        <time>2021-06-19T17:02:29Z</time>
      </trkpt>
      <trkpt lat="46.50104" lon="-1.79682">
        <ele>3.9</ele>
        <time>2021-06-19T17:02:30Z</time>
      </trkpt>
      <trkpt lat="46.50102" lon="-1.79682">
        <ele>3.9</ele>
        <time>2021-06-19T17:02:32Z</time>
      </trkpt>
      <trkpt lat="46.50101" lon="-1.79682">
        <ele>3.9</ele>
        <time>2021-06-19T17:02:33Z</time>
      </trkpt>
      <trkpt lat="46.50098" lon="-1.79682">
        <ele>3.9</ele>
        <time>2021-06-19T17:02:34Z</time>
      </trkpt>
      <trkpt lat="46.50098" lon="-1.79682">
        <ele>3.9</ele>
        <time>2021-06-19T17:02:35Z</time>
      </trkpt>
      <trkpt lat="46.50097" lon="-1.79682">
        <ele>3.9</ele>
        <time>2021-06-19T17:02:36Z</time>
      </trkpt>
      <trkpt lat="46.50095" lon="-1.79682">
        <ele>3.9</ele>
        <time>2021-06-19T17:02:38Z</time>
      </trkpt>
      <trkpt lat="46.50094" lon="-1.79682">
        <ele>3.9</ele>
        <time>2021-06-19T17:02:39Z</time>
      </trkpt>
      <trkpt lat="46.50094" lon="-1.79682">
        <ele>3.9</ele>
        <time>2021-06-19T17:02:40Z</time>
      </trkpt>
      <trkpt lat="46.50092" lon="-1.79682">
        <ele>3.9</ele>
        <time>2021-06-19T17:02:42Z</time>
      </trkpt>
      <trkpt lat="46.50091" lon="-1.79681">
        <ele>3.9</ele>
        <time>2021-06-19T17:02:43Z</time>
      </trkpt>
      <trkpt lat="46.5009" lon="-1.79681">
        <ele>3.9</ele>
        <time>2021-06-19T17:02:44Z</time>
      </trkpt>
      <trkpt lat="46.50086" lon="-1.79681">
        <ele>3.9</ele>
        <time>2021-06-19T17:02:45Z</time>
      </trkpt>
      <trkpt lat="46.50085" lon="-1.79681">
        <ele>3.9</ele>
        <time>2021-06-19T17:02:46Z</time>
      </trkpt>
      <trkpt lat="46.5008" lon="-1.7968">
        <ele>4</ele>
        <time>2021-06-19T17:02:48Z</time>
      </trkpt>
      <trkpt lat="46.50078" lon="-1.7968">
        <ele>4</ele>
        <time>2021-06-19T17:02:50Z</time>
      </trkpt>
      <trkpt lat="46.50077" lon="-1.7968">
        <ele>4</ele>
        <time>2021-06-19T17:02:51Z</time>
      </trkpt>
      <trkpt lat="46.50075" lon="-1.79679">
        <ele>4</ele>
        <time>2021-06-19T17:02:52Z</time>
      </trkpt>
      <trkpt lat="46.50073" lon="-1.79678">
        <ele>4</ele>
        <time>2021-06-19T17:02:54Z</time>
      </trkpt>
      <trkpt lat="46.50072" lon="-1.79678">
        <ele>4</ele>
        <time>2021-06-19T17:02:55Z</time>
      </trkpt>
      <trkpt lat="46.50071" lon="-1.79677">
        <ele>4</ele>
        <time>2021-06-19T17:02:56Z</time>
      </trkpt>
      <trkpt lat="46.50071" lon="-1.79676">
        <ele>4</ele>
        <time>2021-06-19T17:02:57Z</time>
      </trkpt>
      <trkpt lat="46.5007" lon="-1.79675">
        <ele>4</ele>
        <time>2021-06-19T17:02:58Z</time>
      </trkpt>
      <trkpt lat="46.50069" lon="-1.79673">
        <ele>4</ele>
        <time>2021-06-19T17:02:59Z</time>
      </trkpt>
      <trkpt lat="46.50068" lon="-1.79673">
        <ele>4</ele>
        <time>2021-06-19T17:03:00Z</time>
      </trkpt>
      <trkpt lat="46.50067" lon="-1.79672">
        <ele>4</ele>
        <time>2021-06-19T17:03:01Z</time>
      </trkpt>
      <trkpt lat="46.50065" lon="-1.79671">
        <ele>4.1</ele>
        <time>2021-06-19T17:03:02Z</time>
      </trkpt>
      <trkpt lat="46.50064" lon="-1.7967">
        <ele>4.1</ele>
        <time>2021-06-19T17:03:03Z</time>
      </trkpt>
      <trkpt lat="46.50062" lon="-1.79669">
        <ele>4.1</ele>
        <time>2021-06-19T17:03:04Z</time>
      </trkpt>
      <trkpt lat="46.5006" lon="-1.79668">
        <ele>4.1</ele>
        <time>2021-06-19T17:03:05Z</time>
      </trkpt>
      <trkpt lat="46.50059" lon="-1.79667">
        <ele>4.1</ele>
        <time>2021-06-19T17:03:06Z</time>
      </trkpt>
      <trkpt lat="46.50056" lon="-1.79665">
        <ele>4.1</ele>
        <time>2021-06-19T17:03:07Z</time>
      </trkpt>
      <trkpt lat="46.50054" lon="-1.79663">
        <ele>4.1</ele>
        <time>2021-06-19T17:03:09Z</time>
      </trkpt>
      <trkpt lat="46.50053" lon="-1.79662">
        <ele>4.1</ele>
        <time>2021-06-19T17:03:10Z</time>
      </trkpt>
      <trkpt lat="46.50051" lon="-1.7966">
        <ele>4.1</ele>
        <time>2021-06-19T17:03:11Z</time>
      </trkpt>
      <trkpt lat="46.50049" lon="-1.79658">
        <ele>4.1</ele>
        <time>2021-06-19T17:03:12Z</time>
      </trkpt>
      <trkpt lat="46.50048" lon="-1.79655">
        <ele>4.1</ele>
        <time>2021-06-19T17:03:14Z</time>
      </trkpt>
      <trkpt lat="46.50047" lon="-1.79653">
        <ele>4.1</ele>
        <time>2021-06-19T17:03:15Z</time>
      </trkpt>
      <trkpt lat="46.50045" lon="-1.79651">
        <ele>4.1</ele>
        <time>2021-06-19T17:03:16Z</time>
      </trkpt>
      <trkpt lat="46.50044" lon="-1.7965">
        <ele>4.1</ele>
        <time>2021-06-19T17:03:17Z</time>
      </trkpt>
      <trkpt lat="46.50043" lon="-1.7965">
        <ele>4.1</ele>
        <time>2021-06-19T17:03:18Z</time>
      </trkpt>
      <trkpt lat="46.50041" lon="-1.79649">
        <ele>4.1</ele>
        <time>2021-06-19T17:03:19Z</time>
      </trkpt>
      <trkpt lat="46.5004" lon="-1.79648">
        <ele>4.2</ele>
        <time>2021-06-19T17:03:20Z</time>
      </trkpt>
      <trkpt lat="46.50037" lon="-1.79648">
        <ele>4.2</ele>
        <time>2021-06-19T17:03:22Z</time>
      </trkpt>
      <trkpt lat="46.50035" lon="-1.79648">
        <ele>4.2</ele>
        <time>2021-06-19T17:03:23Z</time>
      </trkpt>
      <trkpt lat="46.50034" lon="-1.79648">
        <ele>4.2</ele>
        <time>2021-06-19T17:03:24Z</time>
      </trkpt>
      <trkpt lat="46.5003" lon="-1.7965">
        <ele>4.2</ele>
        <time>2021-06-19T17:03:27Z</time>
      </trkpt>
      <trkpt lat="46.50029" lon="-1.7965">
        <ele>4.2</ele>
        <time>2021-06-19T17:03:28Z</time>
      </trkpt>
      <trkpt lat="46.50027" lon="-1.7965">
        <ele>4.2</ele>
        <time>2021-06-19T17:03:29Z</time>
      </trkpt>
      <trkpt lat="46.50025" lon="-1.7965">
        <ele>4.2</ele>
        <time>2021-06-19T17:03:30Z</time>
      </trkpt>
      <trkpt lat="46.50023" lon="-1.79649">
        <ele>4.2</ele>
        <time>2021-06-19T17:03:32Z</time>
      </trkpt>
      <trkpt lat="46.50022" lon="-1.79649">
        <ele>4.2</ele>
        <time>2021-06-19T17:03:33Z</time>
      </trkpt>
      <trkpt lat="46.50021" lon="-1.79649">
        <ele>4.2</ele>
        <time>2021-06-19T17:03:34Z</time>
      </trkpt>
      <trkpt lat="46.5002" lon="-1.79649">
        <ele>4.2</ele>
        <time>2021-06-19T17:03:35Z</time>
      </trkpt>
      <trkpt lat="46.50018" lon="-1.7965">
        <ele>4.2</ele>
        <time>2021-06-19T17:03:36Z</time>
      </trkpt>
      <trkpt lat="46.50017" lon="-1.7965">
        <ele>4.2</ele>
        <time>2021-06-19T17:03:37Z</time>
      </trkpt>
      <trkpt lat="46.50015" lon="-1.79649">
        <ele>4.2</ele>
        <time>2021-06-19T17:03:39Z</time>
      </trkpt>
      <trkpt lat="46.50014" lon="-1.79649">
        <ele>4.2</ele>
        <time>2021-06-19T17:03:40Z</time>
      </trkpt>
      <trkpt lat="46.50011" lon="-1.79649">
        <ele>4.2</ele>
        <time>2021-06-19T17:03:42Z</time>
      </trkpt>
      <trkpt lat="46.5001" lon="-1.79649">
        <ele>4.2</ele>
        <time>2021-06-19T17:03:43Z</time>
      </trkpt>
      <trkpt lat="46.5001" lon="-1.79648">
        <ele>4.2</ele>
        <time>2021-06-19T17:03:44Z</time>
      </trkpt>
      <trkpt lat="46.50009" lon="-1.79647">
        <ele>4.2</ele>
        <time>2021-06-19T17:03:45Z</time>
      </trkpt>
      <trkpt lat="46.50008" lon="-1.7965">
        <ele>4.3</ele>
        <time>2021-06-19T17:03:47Z</time>
      </trkpt>
      <trkpt lat="46.50007" lon="-1.79651">
        <ele>4.3</ele>
        <time>2021-06-19T17:03:49Z</time>
      </trkpt>
      <trkpt lat="46.50006" lon="-1.79651">
        <ele>4.3</ele>
        <time>2021-06-19T17:03:50Z</time>
      </trkpt>
      <trkpt lat="46.50005" lon="-1.79652">
        <ele>4.3</ele>
        <time>2021-06-19T17:03:52Z</time>
      </trkpt>
      <trkpt lat="46.50003" lon="-1.79653">
        <ele>4.3</ele>
        <time>2021-06-19T17:03:53Z</time>
      </trkpt>
      <trkpt lat="46.50002" lon="-1.79653">
        <ele>4.3</ele>
        <time>2021-06-19T17:03:54Z</time>
      </trkpt>
      <trkpt lat="46.50001" lon="-1.79653">
        <ele>4.3</ele>
        <time>2021-06-19T17:03:55Z</time>
      </trkpt>
      <trkpt lat="46.5" lon="-1.79655">
        <ele>4.3</ele>
        <time>2021-06-19T17:03:56Z</time>
      </trkpt>
      <trkpt lat="46.49999" lon="-1.79655">
        <ele>4.3</ele>
        <time>2021-06-19T17:03:57Z</time>
      </trkpt>
      <trkpt lat="46.49997" lon="-1.79656">
        <ele>4.3</ele>
        <time>2021-06-19T17:03:59Z</time>
      </trkpt>
      <trkpt lat="46.49996" lon="-1.79656">
        <ele>4.3</ele>
        <time>2021-06-19T17:04:00Z</time>
      </trkpt>
      <trkpt lat="46.49994" lon="-1.79656">
        <ele>4.3</ele>
        <time>2021-06-19T17:04:01Z</time>
      </trkpt>
      <trkpt lat="46.49993" lon="-1.79658">
        <ele>4.3</ele>
        <time>2021-06-19T17:04:02Z</time>
      </trkpt>
      <trkpt lat="46.49992" lon="-1.79659">
        <ele>4.3</ele>
        <time>2021-06-19T17:04:03Z</time>
      </trkpt>
      <trkpt lat="46.4999" lon="-1.79659">
        <ele>4.3</ele>
        <time>2021-06-19T17:04:04Z</time>
      </trkpt>
      <trkpt lat="46.49989" lon="-1.7966">
        <ele>4.3</ele>
        <time>2021-06-19T17:04:06Z</time>
      </trkpt>
      <trkpt lat="46.49987" lon="-1.79661">
        <ele>4.3</ele>
        <time>2021-06-19T17:04:07Z</time>
      </trkpt>
      <trkpt lat="46.49986" lon="-1.79662">
        <ele>4.3</ele>
        <time>2021-06-19T17:04:08Z</time>
      </trkpt>
      <trkpt lat="46.49986" lon="-1.79662">
        <ele>4.3</ele>
        <time>2021-06-19T17:04:09Z</time>
      </trkpt>
      <trkpt lat="46.49984" lon="-1.79662">
        <ele>4.3</ele>
        <time>2021-06-19T17:04:10Z</time>
      </trkpt>
      <trkpt lat="46.49983" lon="-1.79663">
        <ele>4.3</ele>
        <time>2021-06-19T17:04:11Z</time>
      </trkpt>
      <trkpt lat="46.4998" lon="-1.79665">
        <ele>4.3</ele>
        <time>2021-06-19T17:04:13Z</time>
      </trkpt>
      <trkpt lat="46.49979" lon="-1.79665">
        <ele>4.3</ele>
        <time>2021-06-19T17:04:14Z</time>
      </trkpt>
      <trkpt lat="46.49976" lon="-1.79667">
        <ele>4.3</ele>
        <time>2021-06-19T17:04:16Z</time>
      </trkpt>
      <trkpt lat="46.49975" lon="-1.79668">
        <ele>4.3</ele>
        <time>2021-06-19T17:04:17Z</time>
      </trkpt>
      <trkpt lat="46.49974" lon="-1.79668">
        <ele>4.3</ele>
        <time>2021-06-19T17:04:18Z</time>
      </trkpt>
      <trkpt lat="46.49973" lon="-1.79669">
        <ele>4.3</ele>
        <time>2021-06-19T17:04:19Z</time>
      </trkpt>
      <trkpt lat="46.49972" lon="-1.7967">
        <ele>4.3</ele>
        <time>2021-06-19T17:04:20Z</time>
      </trkpt>
      <trkpt lat="46.49971" lon="-1.7967">
        <ele>4.3</ele>
        <time>2021-06-19T17:04:21Z</time>
      </trkpt>
      <trkpt lat="46.49971" lon="-1.79673">
        <ele>4.3</ele>
        <time>2021-06-19T17:04:22Z</time>
      </trkpt>
      <trkpt lat="46.49969" lon="-1.79673">
        <ele>4.3</ele>
        <time>2021-06-19T17:04:24Z</time>
      </trkpt>
      <trkpt lat="46.49967" lon="-1.79674">
        <ele>4.3</ele>
        <time>2021-06-19T17:04:25Z</time>
      </trkpt>
      <trkpt lat="46.49966" lon="-1.79675">
        <ele>4.3</ele>
        <time>2021-06-19T17:04:26Z</time>
      </trkpt>
      <trkpt lat="46.49965" lon="-1.79675">
        <ele>4.3</ele>
        <time>2021-06-19T17:04:27Z</time>
      </trkpt>
      <trkpt lat="46.49964" lon="-1.79675">
        <ele>4.3</ele>
        <time>2021-06-19T17:04:28Z</time>
      </trkpt>
      <trkpt lat="46.49962" lon="-1.79676">
        <ele>4.3</ele>
        <time>2021-06-19T17:04:30Z</time>
      </trkpt>
      <trkpt lat="46.49961" lon="-1.79677">
        <ele>4.3</ele>
        <time>2021-06-19T17:04:31Z</time>
      </trkpt>
      <trkpt lat="46.49958" lon="-1.79681">
        <ele>4.3</ele>
        <time>2021-06-19T17:04:33Z</time>
      </trkpt>
      <trkpt lat="46.49957" lon="-1.79682">
        <ele>4.3</ele>
        <time>2021-06-19T17:04:34Z</time>
      </trkpt>
      <trkpt lat="46.49956" lon="-1.79682">
        <ele>4.3</ele>
        <time>2021-06-19T17:04:35Z</time>
      </trkpt>
      <trkpt lat="46.49954" lon="-1.79683">
        <ele>4.3</ele>
        <time>2021-06-19T17:04:36Z</time>
      </trkpt>
      <trkpt lat="46.49953" lon="-1.79684">
        <ele>4.3</ele>
        <time>2021-06-19T17:04:37Z</time>
      </trkpt>
      <trkpt lat="46.49953" lon="-1.79684">
        <ele>4.3</ele>
        <time>2021-06-19T17:04:38Z</time>
      </trkpt>
      <trkpt lat="46.49951" lon="-1.79685">
        <ele>4.3</ele>
        <time>2021-06-19T17:04:40Z</time>
      </trkpt>
      <trkpt lat="46.4995" lon="-1.79686">
        <ele>4.3</ele>
        <time>2021-06-19T17:04:41Z</time>
      </trkpt>
      <trkpt lat="46.49947" lon="-1.79684">
        <ele>4.3</ele>
        <time>2021-06-19T17:04:42Z</time>
      </trkpt>
      <trkpt lat="46.49946" lon="-1.79684">
        <ele>4.3</ele>
        <time>2021-06-19T17:04:43Z</time>
      </trkpt>
      <trkpt lat="46.49945" lon="-1.79685">
        <ele>4.3</ele>
        <time>2021-06-19T17:04:44Z</time>
      </trkpt>
      <trkpt lat="46.49944" lon="-1.79686">
        <ele>4.3</ele>
        <time>2021-06-19T17:04:45Z</time>
      </trkpt>
      <trkpt lat="46.49942" lon="-1.79684">
        <ele>4.2</ele>
        <time>2021-06-19T17:04:47Z</time>
      </trkpt>
      <trkpt lat="46.4994" lon="-1.79684">
        <ele>4.2</ele>
        <time>2021-06-19T17:04:48Z</time>
      </trkpt>
      <trkpt lat="46.49939" lon="-1.79685">
        <ele>4.2</ele>
        <time>2021-06-19T17:04:49Z</time>
      </trkpt>
      <trkpt lat="46.49937" lon="-1.79685">
        <ele>4.2</ele>
        <time>2021-06-19T17:04:50Z</time>
      </trkpt>
      <trkpt lat="46.49936" lon="-1.79687">
        <ele>4.2</ele>
        <time>2021-06-19T17:04:51Z</time>
      </trkpt>
      <trkpt lat="46.49934" lon="-1.79687">
        <ele>4.2</ele>
        <time>2021-06-19T17:04:52Z</time>
      </trkpt>
      <trkpt lat="46.49933" lon="-1.79687">
        <ele>4.2</ele>
        <time>2021-06-19T17:04:53Z</time>
      </trkpt>
      <trkpt lat="46.49931" lon="-1.79687">
        <ele>4.2</ele>
        <time>2021-06-19T17:04:55Z</time>
      </trkpt>
      <trkpt lat="46.4993" lon="-1.79687">
        <ele>4.2</ele>
        <time>2021-06-19T17:04:56Z</time>
      </trkpt>
      <trkpt lat="46.49929" lon="-1.79687">
        <ele>4.2</ele>
        <time>2021-06-19T17:04:57Z</time>
      </trkpt>
      <trkpt lat="46.49927" lon="-1.79687">
        <ele>4.2</ele>
        <time>2021-06-19T17:04:59Z</time>
      </trkpt>
      <trkpt lat="46.49926" lon="-1.79687">
        <ele>4.2</ele>
        <time>2021-06-19T17:05:01Z</time>
      </trkpt>
      <trkpt lat="46.49923" lon="-1.79686">
        <ele>4.2</ele>
        <time>2021-06-19T17:05:02Z</time>
      </trkpt>
      <trkpt lat="46.49923" lon="-1.79686">
        <ele>4.2</ele>
        <time>2021-06-19T17:05:03Z</time>
      </trkpt>
      <trkpt lat="46.49922" lon="-1.79685">
        <ele>4.2</ele>
        <time>2021-06-19T17:05:04Z</time>
      </trkpt>
      <trkpt lat="46.49921" lon="-1.79685">
        <ele>4.2</ele>
        <time>2021-06-19T17:05:05Z</time>
      </trkpt>
      <trkpt lat="46.4992" lon="-1.79685">
        <ele>4.2</ele>
        <time>2021-06-19T17:05:06Z</time>
      </trkpt>
      <trkpt lat="46.49919" lon="-1.79684">
        <ele>4.2</ele>
        <time>2021-06-19T17:05:07Z</time>
      </trkpt>
      <trkpt lat="46.49918" lon="-1.79684">
        <ele>4.2</ele>
        <time>2021-06-19T17:05:08Z</time>
      </trkpt>
      <trkpt lat="46.49916" lon="-1.79684">
        <ele>4.1</ele>
        <time>2021-06-19T17:05:10Z</time>
      </trkpt>
      <trkpt lat="46.49913" lon="-1.79683">
        <ele>4.1</ele>
        <time>2021-06-19T17:05:11Z</time>
      </trkpt>
      <trkpt lat="46.49912" lon="-1.79683">
        <ele>4.1</ele>
        <time>2021-06-19T17:05:12Z</time>
      </trkpt>
      <trkpt lat="46.49911" lon="-1.79683">
        <ele>4.1</ele>
        <time>2021-06-19T17:05:13Z</time>
      </trkpt>
      <trkpt lat="46.4991" lon="-1.79683">
        <ele>4.1</ele>
        <time>2021-06-19T17:05:14Z</time>
      </trkpt>
      <trkpt lat="46.49907" lon="-1.79682">
        <ele>4.1</ele>
        <time>2021-06-19T17:05:16Z</time>
      </trkpt>
      <trkpt lat="46.49905" lon="-1.79681">
        <ele>4.1</ele>
        <time>2021-06-19T17:05:17Z</time>
      </trkpt>
      <trkpt lat="46.49904" lon="-1.79681">
        <ele>4.1</ele>
        <time>2021-06-19T17:05:18Z</time>
      </trkpt>
      <trkpt lat="46.49902" lon="-1.7968">
        <ele>4.1</ele>
        <time>2021-06-19T17:05:19Z</time>
      </trkpt>
      <trkpt lat="46.49901" lon="-1.79679">
        <ele>4.1</ele>
        <time>2021-06-19T17:05:20Z</time>
      </trkpt>
      <trkpt lat="46.499" lon="-1.79679">
        <ele>4.1</ele>
        <time>2021-06-19T17:05:21Z</time>
      </trkpt>
      <trkpt lat="46.49898" lon="-1.7968">
        <ele>4.1</ele>
        <time>2021-06-19T17:05:22Z</time>
      </trkpt>
      <trkpt lat="46.49897" lon="-1.7968">
        <ele>4</ele>
        <time>2021-06-19T17:05:23Z</time>
      </trkpt>
      <trkpt lat="46.49895" lon="-1.79679">
        <ele>4</ele>
        <time>2021-06-19T17:05:24Z</time>
      </trkpt>
      <trkpt lat="46.49894" lon="-1.79679">
        <ele>4</ele>
        <time>2021-06-19T17:05:25Z</time>
      </trkpt>
      <trkpt lat="46.49893" lon="-1.79679">
        <ele>4</ele>
        <time>2021-06-19T17:05:26Z</time>
      </trkpt>
      <trkpt lat="46.49892" lon="-1.79679">
        <ele>4</ele>
        <time>2021-06-19T17:05:28Z</time>
      </trkpt>
      <trkpt lat="46.49891" lon="-1.79679">
        <ele>4</ele>
        <time>2021-06-19T17:05:29Z</time>
      </trkpt>
      <trkpt lat="46.49891" lon="-1.79679">
        <ele>4</ele>
        <time>2021-06-19T17:05:30Z</time>
      </trkpt>
      <trkpt lat="46.4989" lon="-1.79679">
        <ele>4</ele>
        <time>2021-06-19T17:05:31Z</time>
      </trkpt>
      <trkpt lat="46.49887" lon="-1.7968">
        <ele>4</ele>
        <time>2021-06-19T17:05:32Z</time>
      </trkpt>
      <trkpt lat="46.49887" lon="-1.7968">
        <ele>4</ele>
        <time>2021-06-19T17:05:33Z</time>
      </trkpt>
      <trkpt lat="46.49884" lon="-1.7968">
        <ele>4</ele>
        <time>2021-06-19T17:05:34Z</time>
      </trkpt>
      <trkpt lat="46.49883" lon="-1.7968">
        <ele>4</ele>
        <time>2021-06-19T17:05:35Z</time>
      </trkpt>
      <trkpt lat="46.49882" lon="-1.7968">
        <ele>4</ele>
        <time>2021-06-19T17:05:36Z</time>
      </trkpt>
      <trkpt lat="46.4988" lon="-1.7968">
        <ele>4</ele>
        <time>2021-06-19T17:05:37Z</time>
      </trkpt>
      <trkpt lat="46.49879" lon="-1.7968">
        <ele>4</ele>
        <time>2021-06-19T17:05:38Z</time>
      </trkpt>
      <trkpt lat="46.49877" lon="-1.7968">
        <ele>4</ele>
        <time>2021-06-19T17:05:40Z</time>
      </trkpt>
      <trkpt lat="46.49875" lon="-1.7968">
        <ele>4</ele>
        <time>2021-06-19T17:05:42Z</time>
      </trkpt>
      <trkpt lat="46.49874" lon="-1.7968">
        <ele>4</ele>
        <time>2021-06-19T17:05:43Z</time>
      </trkpt>
      <trkpt lat="46.49872" lon="-1.7968">
        <ele>4</ele>
        <time>2021-06-19T17:05:44Z</time>
      </trkpt>
      <trkpt lat="46.49871" lon="-1.7968">
        <ele>4</ele>
        <time>2021-06-19T17:05:45Z</time>
      </trkpt>
      <trkpt lat="46.49869" lon="-1.7968">
        <ele>4</ele>
        <time>2021-06-19T17:05:46Z</time>
      </trkpt>
      <trkpt lat="46.49867" lon="-1.7968">
        <ele>4</ele>
        <time>2021-06-19T17:05:47Z</time>
      </trkpt>
      <trkpt lat="46.49866" lon="-1.7968">
        <ele>4</ele>
        <time>2021-06-19T17:05:48Z</time>
      </trkpt>
      <trkpt lat="46.49864" lon="-1.7968">
        <ele>4</ele>
        <time>2021-06-19T17:05:50Z</time>
      </trkpt>
      <trkpt lat="46.49863" lon="-1.7968">
        <ele>4</ele>
        <time>2021-06-19T17:05:51Z</time>
      </trkpt>
      <trkpt lat="46.49862" lon="-1.7968">
        <ele>4</ele>
        <time>2021-06-19T17:05:52Z</time>
      </trkpt>
      <trkpt lat="46.4986" lon="-1.79679">
        <ele>4</ele>
        <time>2021-06-19T17:05:53Z</time>
      </trkpt>
      <trkpt lat="46.49859" lon="-1.79679">
        <ele>4</ele>
        <time>2021-06-19T17:05:54Z</time>
      </trkpt>
      <trkpt lat="46.49857" lon="-1.79679">
        <ele>4</ele>
        <time>2021-06-19T17:05:55Z</time>
      </trkpt>
      <trkpt lat="46.49856" lon="-1.79679">
        <ele>4</ele>
        <time>2021-06-19T17:05:56Z</time>
      </trkpt>
      <trkpt lat="46.49854" lon="-1.79678">
        <ele>4</ele>
        <time>2021-06-19T17:05:57Z</time>
      </trkpt>
      <trkpt lat="46.49853" lon="-1.79678">
        <ele>4</ele>
        <time>2021-06-19T17:05:58Z</time>
      </trkpt>
      <trkpt lat="46.49852" lon="-1.79678">
        <ele>4</ele>
        <time>2021-06-19T17:05:59Z</time>
      </trkpt>
      <trkpt lat="46.4985" lon="-1.79678">
        <ele>4</ele>
        <time>2021-06-19T17:06:01Z</time>
      </trkpt>
      <trkpt lat="46.49847" lon="-1.79678">
        <ele>4</ele>
        <time>2021-06-19T17:06:02Z</time>
      </trkpt>
      <trkpt lat="46.49846" lon="-1.79678">
        <ele>4</ele>
        <time>2021-06-19T17:06:04Z</time>
      </trkpt>
      <trkpt lat="46.49844" lon="-1.79678">
        <ele>4</ele>
        <time>2021-06-19T17:06:05Z</time>
      </trkpt>
      <trkpt lat="46.49843" lon="-1.79678">
        <ele>4</ele>
        <time>2021-06-19T17:06:06Z</time>
      </trkpt>
      <trkpt lat="46.49841" lon="-1.79678">
        <ele>4</ele>
        <time>2021-06-19T17:06:07Z</time>
      </trkpt>
      <trkpt lat="46.49839" lon="-1.79678">
        <ele>4</ele>
        <time>2021-06-19T17:06:08Z</time>
      </trkpt>
      <trkpt lat="46.49838" lon="-1.79678">
        <ele>4.1</ele>
        <time>2021-06-19T17:06:09Z</time>
      </trkpt>
      <trkpt lat="46.49836" lon="-1.79679">
        <ele>4.1</ele>
        <time>2021-06-19T17:06:10Z</time>
      </trkpt>
      <trkpt lat="46.49834" lon="-1.79679">
        <ele>4.1</ele>
        <time>2021-06-19T17:06:12Z</time>
      </trkpt>
      <trkpt lat="46.49833" lon="-1.79679">
        <ele>4.1</ele>
        <time>2021-06-19T17:06:13Z</time>
      </trkpt>
      <trkpt lat="46.49832" lon="-1.79679">
        <ele>4.1</ele>
        <time>2021-06-19T17:06:14Z</time>
      </trkpt>
      <trkpt lat="46.4983" lon="-1.7968">
        <ele>4.1</ele>
        <time>2021-06-19T17:06:15Z</time>
      </trkpt>
      <trkpt lat="46.49829" lon="-1.79681">
        <ele>4.1</ele>
        <time>2021-06-19T17:06:16Z</time>
      </trkpt>
      <trkpt lat="46.49828" lon="-1.79681">
        <ele>4.1</ele>
        <time>2021-06-19T17:06:17Z</time>
      </trkpt>
      <trkpt lat="46.49826" lon="-1.79681">
        <ele>4.1</ele>
        <time>2021-06-19T17:06:18Z</time>
      </trkpt>
      <trkpt lat="46.49825" lon="-1.79681">
        <ele>4.1</ele>
        <time>2021-06-19T17:06:19Z</time>
      </trkpt>
      <trkpt lat="46.49823" lon="-1.79681">
        <ele>4.1</ele>
        <time>2021-06-19T17:06:21Z</time>
      </trkpt>
      <trkpt lat="46.49822" lon="-1.79682">
        <ele>4.1</ele>
        <time>2021-06-19T17:06:22Z</time>
      </trkpt>
      <trkpt lat="46.4982" lon="-1.79682">
        <ele>4.1</ele>
        <time>2021-06-19T17:06:23Z</time>
      </trkpt>
      <trkpt lat="46.49819" lon="-1.79682">
        <ele>4.1</ele>
        <time>2021-06-19T17:06:24Z</time>
      </trkpt>
      <trkpt lat="46.49818" lon="-1.79682">
        <ele>4.1</ele>
        <time>2021-06-19T17:06:25Z</time>
      </trkpt>
      <trkpt lat="46.49816" lon="-1.79683">
        <ele>4.1</ele>
        <time>2021-06-19T17:06:27Z</time>
      </trkpt>
      <trkpt lat="46.49814" lon="-1.79684">
        <ele>4.1</ele>
        <time>2021-06-19T17:06:28Z</time>
      </trkpt>
      <trkpt lat="46.49813" lon="-1.79685">
        <ele>4.1</ele>
        <time>2021-06-19T17:06:29Z</time>
      </trkpt>
      <trkpt lat="46.49811" lon="-1.79685">
        <ele>4.1</ele>
        <time>2021-06-19T17:06:30Z</time>
      </trkpt>
      <trkpt lat="46.4981" lon="-1.79685">
        <ele>4.1</ele>
        <time>2021-06-19T17:06:31Z</time>
      </trkpt>
      <trkpt lat="46.49808" lon="-1.79685">
        <ele>4.1</ele>
        <time>2021-06-19T17:06:33Z</time>
      </trkpt>
      <trkpt lat="46.49806" lon="-1.79684">
        <ele>4.2</ele>
        <time>2021-06-19T17:06:34Z</time>
      </trkpt>
      <trkpt lat="46.49803" lon="-1.79683">
        <ele>4.2</ele>
        <time>2021-06-19T17:06:36Z</time>
      </trkpt>
      <trkpt lat="46.49801" lon="-1.79682">
        <ele>4.2</ele>
        <time>2021-06-19T17:06:37Z</time>
      </trkpt>
      <trkpt lat="46.49801" lon="-1.79682">
        <ele>4.2</ele>
        <time>2021-06-19T17:06:38Z</time>
      </trkpt>
      <trkpt lat="46.498" lon="-1.79682">
        <ele>4.2</ele>
        <time>2021-06-19T17:06:39Z</time>
      </trkpt>
      <trkpt lat="46.49798" lon="-1.79679">
        <ele>4.2</ele>
        <time>2021-06-19T17:06:41Z</time>
      </trkpt>
      <trkpt lat="46.49798" lon="-1.79678">
        <ele>4.2</ele>
        <time>2021-06-19T17:06:42Z</time>
      </trkpt>
      <trkpt lat="46.49797" lon="-1.79675">
        <ele>4.2</ele>
        <time>2021-06-19T17:06:43Z</time>
      </trkpt>
      <trkpt lat="46.49797" lon="-1.79674">
        <ele>4.2</ele>
        <time>2021-06-19T17:06:44Z</time>
      </trkpt>
      <trkpt lat="46.49797" lon="-1.79673">
        <ele>4.2</ele>
        <time>2021-06-19T17:06:45Z</time>
      </trkpt>
      <trkpt lat="46.49796" lon="-1.7967">
        <ele>4.2</ele>
        <time>2021-06-19T17:06:46Z</time>
      </trkpt>
      <trkpt lat="46.49796" lon="-1.79669">
        <ele>4.2</ele>
        <time>2021-06-19T17:06:47Z</time>
      </trkpt>
      <trkpt lat="46.49795" lon="-1.79667">
        <ele>4.2</ele>
        <time>2021-06-19T17:06:48Z</time>
      </trkpt>
      <trkpt lat="46.49794" lon="-1.79666">
        <ele>4.2</ele>
        <time>2021-06-19T17:06:49Z</time>
      </trkpt>
      <trkpt lat="46.49791" lon="-1.79665">
        <ele>4.2</ele>
        <time>2021-06-19T17:06:51Z</time>
      </trkpt>
      <trkpt lat="46.4979" lon="-1.79665">
        <ele>4.2</ele>
        <time>2021-06-19T17:06:52Z</time>
      </trkpt>
      <trkpt lat="46.49788" lon="-1.79665">
        <ele>4.2</ele>
        <time>2021-06-19T17:06:54Z</time>
      </trkpt>
      <trkpt lat="46.49784" lon="-1.79665">
        <ele>4.2</ele>
        <time>2021-06-19T17:06:56Z</time>
      </trkpt>
      <trkpt lat="46.49782" lon="-1.79664">
        <ele>4.2</ele>
        <time>2021-06-19T17:06:58Z</time>
      </trkpt>
      <trkpt lat="46.49781" lon="-1.79664">
        <ele>4.2</ele>
        <time>2021-06-19T17:07:00Z</time>
      </trkpt>
      <trkpt lat="46.49779" lon="-1.79663">
        <ele>4.2</ele>
        <time>2021-06-19T17:07:01Z</time>
      </trkpt>
      <trkpt lat="46.49778" lon="-1.79663">
        <ele>4.2</ele>
        <time>2021-06-19T17:07:02Z</time>
      </trkpt>
      <trkpt lat="46.49777" lon="-1.79663">
        <ele>4.2</ele>
        <time>2021-06-19T17:07:03Z</time>
      </trkpt>
      <trkpt lat="46.49776" lon="-1.79662">
        <ele>4.2</ele>
        <time>2021-06-19T17:07:04Z</time>
      </trkpt>
      <trkpt lat="46.49775" lon="-1.79662">
        <ele>4.2</ele>
        <time>2021-06-19T17:07:05Z</time>
      </trkpt>
      <trkpt lat="46.49772" lon="-1.79663">
        <ele>4.3</ele>
        <time>2021-06-19T17:07:06Z</time>
      </trkpt>
      <trkpt lat="46.49771" lon="-1.79664">
        <ele>4.3</ele>
        <time>2021-06-19T17:07:07Z</time>
      </trkpt>
      <trkpt lat="46.4977" lon="-1.79663">
        <ele>4.3</ele>
        <time>2021-06-19T17:07:08Z</time>
      </trkpt>
      <trkpt lat="46.49769" lon="-1.79663">
        <ele>4.3</ele>
        <time>2021-06-19T17:07:09Z</time>
      </trkpt>
      <trkpt lat="46.49766" lon="-1.79664">
        <ele>4.3</ele>
        <time>2021-06-19T17:07:10Z</time>
      </trkpt>
      <trkpt lat="46.49765" lon="-1.79665">
        <ele>4.3</ele>
        <time>2021-06-19T17:07:11Z</time>
      </trkpt>
      <trkpt lat="46.49764" lon="-1.79665">
        <ele>4.3</ele>
        <time>2021-06-19T17:07:12Z</time>
      </trkpt>
      <trkpt lat="46.49762" lon="-1.79665">
        <ele>4.3</ele>
        <time>2021-06-19T17:07:13Z</time>
      </trkpt>
      <trkpt lat="46.4976" lon="-1.79665">
        <ele>4.3</ele>
        <time>2021-06-19T17:07:15Z</time>
      </trkpt>
      <trkpt lat="46.49759" lon="-1.79667">
        <ele>4.3</ele>
        <time>2021-06-19T17:07:16Z</time>
      </trkpt>
      <trkpt lat="46.49758" lon="-1.7967">
        <ele>4.3</ele>
        <time>2021-06-19T17:07:17Z</time>
      </trkpt>
      <trkpt lat="46.49757" lon="-1.79672">
        <ele>4.3</ele>
        <time>2021-06-19T17:07:18Z</time>
      </trkpt>
      <trkpt lat="46.49756" lon="-1.79674">
        <ele>4.3</ele>
        <time>2021-06-19T17:07:20Z</time>
      </trkpt>
      <trkpt lat="46.49755" lon="-1.79675">
        <ele>4.3</ele>
        <time>2021-06-19T17:07:21Z</time>
      </trkpt>
      <trkpt lat="46.49754" lon="-1.79677">
        <ele>4.3</ele>
        <time>2021-06-19T17:07:22Z</time>
      </trkpt>
      <trkpt lat="46.49753" lon="-1.79678">
        <ele>4.3</ele>
        <time>2021-06-19T17:07:24Z</time>
      </trkpt>
      <trkpt lat="46.49752" lon="-1.7968">
        <ele>4.3</ele>
        <time>2021-06-19T17:07:25Z</time>
      </trkpt>
      <trkpt lat="46.49751" lon="-1.79682">
        <ele>4.4</ele>
        <time>2021-06-19T17:07:26Z</time>
      </trkpt>
      <trkpt lat="46.49748" lon="-1.79683">
        <ele>4.4</ele>
        <time>2021-06-19T17:07:28Z</time>
      </trkpt>
      <trkpt lat="46.49747" lon="-1.79683">
        <ele>4.4</ele>
        <time>2021-06-19T17:07:29Z</time>
      </trkpt>
      <trkpt lat="46.49746" lon="-1.79683">
        <ele>4.4</ele>
        <time>2021-06-19T17:07:30Z</time>
      </trkpt>
      <trkpt lat="46.49744" lon="-1.79682">
        <ele>4.4</ele>
        <time>2021-06-19T17:07:32Z</time>
      </trkpt>
      <trkpt lat="46.49743" lon="-1.79681">
        <ele>4.4</ele>
        <time>2021-06-19T17:07:33Z</time>
      </trkpt>
      <trkpt lat="46.49742" lon="-1.79679">
        <ele>4.4</ele>
        <time>2021-06-19T17:07:34Z</time>
      </trkpt>
      <trkpt lat="46.49738" lon="-1.79675">
        <ele>4.4</ele>
        <time>2021-06-19T17:07:36Z</time>
      </trkpt>
      <trkpt lat="46.49737" lon="-1.79674">
        <ele>4.4</ele>
        <time>2021-06-19T17:07:38Z</time>
      </trkpt>
      <trkpt lat="46.49735" lon="-1.79673">
        <ele>4.3</ele>
        <time>2021-06-19T17:07:39Z</time>
      </trkpt>
      <trkpt lat="46.49732" lon="-1.79674">
        <ele>4.3</ele>
        <time>2021-06-19T17:07:41Z</time>
      </trkpt>
      <trkpt lat="46.49731" lon="-1.79673">
        <ele>4.3</ele>
        <time>2021-06-19T17:07:42Z</time>
      </trkpt>
      <trkpt lat="46.4973" lon="-1.79672">
        <ele>4.3</ele>
        <time>2021-06-19T17:07:43Z</time>
      </trkpt>
      <trkpt lat="46.49728" lon="-1.79671">
        <ele>4.3</ele>
        <time>2021-06-19T17:07:44Z</time>
      </trkpt>
      <trkpt lat="46.49727" lon="-1.79669">
        <ele>4.4</ele>
        <time>2021-06-19T17:07:45Z</time>
      </trkpt>
      <trkpt lat="46.49726" lon="-1.79669">
        <ele>4.4</ele>
        <time>2021-06-19T17:07:46Z</time>
      </trkpt>
      <trkpt lat="46.49724" lon="-1.79667">
        <ele>4.4</ele>
        <time>2021-06-19T17:07:48Z</time>
      </trkpt>
      <trkpt lat="46.49723" lon="-1.79666">
        <ele>4.4</ele>
        <time>2021-06-19T17:07:49Z</time>
      </trkpt>
      <trkpt lat="46.49722" lon="-1.79664">
        <ele>4.4</ele>
        <time>2021-06-19T17:07:50Z</time>
      </trkpt>
      <trkpt lat="46.49719" lon="-1.79661">
        <ele>4.4</ele>
        <time>2021-06-19T17:07:51Z</time>
      </trkpt>
      <trkpt lat="46.49718" lon="-1.7966">
        <ele>4.4</ele>
        <time>2021-06-19T17:07:52Z</time>
      </trkpt>
      <trkpt lat="46.49716" lon="-1.79657">
        <ele>4.4</ele>
        <time>2021-06-19T17:07:54Z</time>
      </trkpt>
      <trkpt lat="46.49714" lon="-1.79655">
        <ele>4.4</ele>
        <time>2021-06-19T17:07:55Z</time>
      </trkpt>
      <trkpt lat="46.49711" lon="-1.79652">
        <ele>4.4</ele>
        <time>2021-06-19T17:07:57Z</time>
      </trkpt>
      <trkpt lat="46.49709" lon="-1.7965">
        <ele>4.4</ele>
        <time>2021-06-19T17:07:58Z</time>
      </trkpt>
      <trkpt lat="46.49707" lon="-1.79649">
        <ele>4.4</ele>
        <time>2021-06-19T17:07:59Z</time>
      </trkpt>
      <trkpt lat="46.49704" lon="-1.79646">
        <ele>4.4</ele>
        <time>2021-06-19T17:08:01Z</time>
      </trkpt>
      <trkpt lat="46.49701" lon="-1.79644">
        <ele>4.4</ele>
        <time>2021-06-19T17:08:02Z</time>
      </trkpt>
      <trkpt lat="46.49701" lon="-1.79644">
        <ele>4.4</ele>
        <time>2021-06-19T17:08:03Z</time>
      </trkpt>
      <trkpt lat="46.49699" lon="-1.79644">
        <ele>4.4</ele>
        <time>2021-06-19T17:08:04Z</time>
      </trkpt>
      <trkpt lat="46.49698" lon="-1.79643">
        <ele>4.4</ele>
        <time>2021-06-19T17:08:05Z</time>
      </trkpt>
      <trkpt lat="46.49697" lon="-1.79642">
        <ele>4.4</ele>
        <time>2021-06-19T17:08:06Z</time>
      </trkpt>
      <trkpt lat="46.49695" lon="-1.79642">
        <ele>4.4</ele>
        <time>2021-06-19T17:08:08Z</time>
      </trkpt>
      <trkpt lat="46.49694" lon="-1.79641">
        <ele>4.4</ele>
        <time>2021-06-19T17:08:09Z</time>
      </trkpt>
      <trkpt lat="46.49693" lon="-1.7964">
        <ele>4.4</ele>
        <time>2021-06-19T17:08:10Z</time>
      </trkpt>
      <trkpt lat="46.49691" lon="-1.79639">
        <ele>4.5</ele>
        <time>2021-06-19T17:08:12Z</time>
      </trkpt>
      <trkpt lat="46.49689" lon="-1.79638">
        <ele>4.5</ele>
        <time>2021-06-19T17:08:13Z</time>
      </trkpt>
      <trkpt lat="46.49687" lon="-1.79638">
        <ele>4.5</ele>
        <time>2021-06-19T17:08:15Z</time>
      </trkpt>
      <trkpt lat="46.49686" lon="-1.79638">
        <ele>4.5</ele>
        <time>2021-06-19T17:08:16Z</time>
      </trkpt>
      <trkpt lat="46.49685" lon="-1.79637">
        <ele>4.5</ele>
        <time>2021-06-19T17:08:17Z</time>
      </trkpt>
      <trkpt lat="46.49684" lon="-1.79637">
        <ele>4.5</ele>
        <time>2021-06-19T17:08:18Z</time>
      </trkpt>
      <trkpt lat="46.49683" lon="-1.79637">
        <ele>4.5</ele>
        <time>2021-06-19T17:08:19Z</time>
      </trkpt>
      <trkpt lat="46.49681" lon="-1.79637">
        <ele>4.5</ele>
        <time>2021-06-19T17:08:20Z</time>
      </trkpt>
      <trkpt lat="46.4968" lon="-1.79636">
        <ele>4.6</ele>
        <time>2021-06-19T17:08:21Z</time>
      </trkpt>
      <trkpt lat="46.49679" lon="-1.79636">
        <ele>4.6</ele>
        <time>2021-06-19T17:08:22Z</time>
      </trkpt>
      <trkpt lat="46.49678" lon="-1.79637">
        <ele>4.6</ele>
        <time>2021-06-19T17:08:23Z</time>
      </trkpt>
      <trkpt lat="46.49675" lon="-1.79637">
        <ele>4.6</ele>
        <time>2021-06-19T17:08:25Z</time>
      </trkpt>
      <trkpt lat="46.49674" lon="-1.79637">
        <ele>4.6</ele>
        <time>2021-06-19T17:08:26Z</time>
      </trkpt>
      <trkpt lat="46.49672" lon="-1.79636">
        <ele>4.6</ele>
        <time>2021-06-19T17:08:28Z</time>
      </trkpt>
      <trkpt lat="46.4967" lon="-1.79636">
        <ele>4.6</ele>
        <time>2021-06-19T17:08:30Z</time>
      </trkpt>
      <trkpt lat="46.49669" lon="-1.79638">
        <ele>4.7</ele>
        <time>2021-06-19T17:08:31Z</time>
      </trkpt>
      <trkpt lat="46.49668" lon="-1.79638">
        <ele>4.7</ele>
        <time>2021-06-19T17:08:32Z</time>
      </trkpt>
      <trkpt lat="46.49667" lon="-1.79638">
        <ele>4.7</ele>
        <time>2021-06-19T17:08:34Z</time>
      </trkpt>
      <trkpt lat="46.49666" lon="-1.79638">
        <ele>4.7</ele>
        <time>2021-06-19T17:08:35Z</time>
      </trkpt>
      <trkpt lat="46.49664" lon="-1.79639">
        <ele>4.7</ele>
        <time>2021-06-19T17:08:37Z</time>
      </trkpt>
      <trkpt lat="46.49663" lon="-1.79639">
        <ele>4.7</ele>
        <time>2021-06-19T17:08:38Z</time>
      </trkpt>
      <trkpt lat="46.49661" lon="-1.7964">
        <ele>4.7</ele>
        <time>2021-06-19T17:08:40Z</time>
      </trkpt>
      <trkpt lat="46.4966" lon="-1.79639">
        <ele>4.8</ele>
        <time>2021-06-19T17:08:41Z</time>
      </trkpt>
      <trkpt lat="46.49659" lon="-1.79638">
        <ele>4.8</ele>
        <time>2021-06-19T17:08:42Z</time>
      </trkpt>
      <trkpt lat="46.49657" lon="-1.79637">
        <ele>4.8</ele>
        <time>2021-06-19T17:08:44Z</time>
      </trkpt>
      <trkpt lat="46.49656" lon="-1.79636">
        <ele>4.8</ele>
        <time>2021-06-19T17:08:45Z</time>
      </trkpt>
      <trkpt lat="46.49655" lon="-1.79635">
        <ele>4.8</ele>
        <time>2021-06-19T17:08:46Z</time>
      </trkpt>
      <trkpt lat="46.49653" lon="-1.79634">
        <ele>4.8</ele>
        <time>2021-06-19T17:08:48Z</time>
      </trkpt>
      <trkpt lat="46.49651" lon="-1.79634">
        <ele>4.8</ele>
        <time>2021-06-19T17:08:49Z</time>
      </trkpt>
      <trkpt lat="46.4965" lon="-1.79634">
        <ele>4.8</ele>
        <time>2021-06-19T17:08:50Z</time>
      </trkpt>
      <trkpt lat="46.49649" lon="-1.79634">
        <ele>4.8</ele>
        <time>2021-06-19T17:08:51Z</time>
      </trkpt>
      <trkpt lat="46.49648" lon="-1.79634">
        <ele>4.8</ele>
        <time>2021-06-19T17:08:52Z</time>
      </trkpt>
      <trkpt lat="46.49647" lon="-1.79634">
        <ele>4.8</ele>
        <time>2021-06-19T17:08:53Z</time>
      </trkpt>
      <trkpt lat="46.49645" lon="-1.79634">
        <ele>4.8</ele>
        <time>2021-06-19T17:08:55Z</time>
      </trkpt>
      <trkpt lat="46.49644" lon="-1.79634">
        <ele>4.8</ele>
        <time>2021-06-19T17:08:56Z</time>
      </trkpt>
      <trkpt lat="46.49643" lon="-1.79634">
        <ele>4.9</ele>
        <time>2021-06-19T17:08:58Z</time>
      </trkpt>
      <trkpt lat="46.49643" lon="-1.79635">
        <ele>4.9</ele>
        <time>2021-06-19T17:08:59Z</time>
      </trkpt>
      <trkpt lat="46.49645" lon="-1.79636">
        <ele>4.9</ele>
        <time>2021-06-19T17:09:01Z</time>
      </trkpt>
      <trkpt lat="46.49645" lon="-1.79636">
        <ele>4.9</ele>
        <time>2021-06-19T17:09:03Z</time>
      </trkpt>
      <trkpt lat="46.49644" lon="-1.79635">
        <ele>4.9</ele>
        <time>2021-06-19T17:09:04Z</time>
      </trkpt>
    </trkseg>
  </trk>
</gpx>